<?xml version="1.0" encoding="UTF-8" standalone="no" ?>
<gpx xmlns="http://www.topografix.com/GPX/1/1" xmlns:xsi="http://www.w3.org/2001/XMLSchema-instance" xsi:schemaLocation="http://www.topografix.com/GPX/1/1 http://www.topografix.com/GPX/1/1/gpx.xsd" version="1.1" creator="VisuGPX - https://www.visugpx.com">
  <metadata>
    <name>VTT JUIN Etape 3 Saint  Auban à Aiglun</name>
    <desc><![CDATA[Saint Auban à Aiglun]]></desc>
  </metadata>
  <trk>
    <name><![CDATA[Etape 3 Saint Auban à  Aiglun]]></name>
    <trkseg>
      <trkpt lat="43.84901" lon="6.7309">
        <ele>1014</ele>
        <time>2009-05-05T14:03:55Z</time>
      </trkpt>
      <trkpt lat="43.84892" lon="6.73099">
        <ele>1029</ele>
        <time>2009-05-05T14:04:10Z</time>
      </trkpt>
      <trkpt lat="43.84889" lon="6.73133">
        <ele>1038</ele>
        <time>2009-05-05T14:04:19Z</time>
      </trkpt>
      <trkpt lat="43.8487" lon="6.73152">
        <ele>1038</ele>
        <time>2009-05-05T14:04:22Z</time>
      </trkpt>
      <trkpt lat="43.84851" lon="6.73161">
        <ele>1038</ele>
        <time>2009-05-05T14:04:25Z</time>
      </trkpt>
      <trkpt lat="43.84832" lon="6.73168">
        <ele>1036</ele>
        <time>2009-05-05T14:04:28Z</time>
      </trkpt>
      <trkpt lat="43.84815" lon="6.73173">
        <ele>1037</ele>
        <time>2009-05-05T14:04:31Z</time>
      </trkpt>
      <trkpt lat="43.84797" lon="6.73175">
        <ele>1041</ele>
        <time>2009-05-05T14:04:34Z</time>
      </trkpt>
      <trkpt lat="43.84779" lon="6.73179">
        <ele>1045</ele>
        <time>2009-05-05T14:04:37Z</time>
      </trkpt>
      <trkpt lat="43.84762" lon="6.73181">
        <ele>1042</ele>
        <time>2009-05-05T14:04:40Z</time>
      </trkpt>
      <trkpt lat="43.84749" lon="6.73191">
        <ele>1041</ele>
        <time>2009-05-05T14:04:43Z</time>
      </trkpt>
      <trkpt lat="43.84741" lon="6.73206">
        <ele>1037</ele>
        <time>2009-05-05T14:04:46Z</time>
      </trkpt>
      <trkpt lat="43.84733" lon="6.73222">
        <ele>1034</ele>
        <time>2009-05-05T14:04:49Z</time>
      </trkpt>
      <trkpt lat="43.84726" lon="6.73242">
        <ele>1033</ele>
        <time>2009-05-05T14:04:52Z</time>
      </trkpt>
      <trkpt lat="43.84721" lon="6.73262">
        <ele>1032</ele>
        <time>2009-05-05T14:04:55Z</time>
      </trkpt>
      <trkpt lat="43.84715" lon="6.7328">
        <ele>1030</ele>
        <time>2009-05-05T14:04:58Z</time>
      </trkpt>
      <trkpt lat="43.8471" lon="6.73297">
        <ele>1028</ele>
        <time>2009-05-05T14:05:01Z</time>
      </trkpt>
      <trkpt lat="43.84702" lon="6.73317">
        <ele>1028</ele>
        <time>2009-05-05T14:05:04Z</time>
      </trkpt>
      <trkpt lat="43.84696" lon="6.73335">
        <ele>1031</ele>
        <time>2009-05-05T14:05:07Z</time>
      </trkpt>
      <trkpt lat="43.84691" lon="6.73353">
        <ele>1031</ele>
        <time>2009-05-05T14:05:10Z</time>
      </trkpt>
      <trkpt lat="43.84684" lon="6.73374">
        <ele>1031</ele>
        <time>2009-05-05T14:05:13Z</time>
      </trkpt>
      <trkpt lat="43.84678" lon="6.73392">
        <ele>1031</ele>
        <time>2009-05-05T14:05:16Z</time>
      </trkpt>
      <trkpt lat="43.84674" lon="6.73409">
        <ele>1031</ele>
        <time>2009-05-05T14:05:19Z</time>
      </trkpt>
      <trkpt lat="43.84668" lon="6.73428">
        <ele>1031</ele>
        <time>2009-05-05T14:05:22Z</time>
      </trkpt>
      <trkpt lat="43.84664" lon="6.73446">
        <ele>1031</ele>
        <time>2009-05-05T14:05:25Z</time>
      </trkpt>
      <trkpt lat="43.8466" lon="6.73465">
        <ele>1031</ele>
        <time>2009-05-05T14:05:28Z</time>
      </trkpt>
      <trkpt lat="43.84652" lon="6.73485">
        <ele>1031</ele>
        <time>2009-05-05T14:05:31Z</time>
      </trkpt>
      <trkpt lat="43.84645" lon="6.73504">
        <ele>1031</ele>
        <time>2009-05-05T14:05:34Z</time>
      </trkpt>
      <trkpt lat="43.84639" lon="6.73525">
        <ele>1031</ele>
        <time>2009-05-05T14:05:37Z</time>
      </trkpt>
      <trkpt lat="43.84632" lon="6.7355">
        <ele>1033</ele>
        <time>2009-05-05T14:05:40Z</time>
      </trkpt>
      <trkpt lat="43.84628" lon="6.7357">
        <ele>1033</ele>
        <time>2009-05-05T14:05:43Z</time>
      </trkpt>
      <trkpt lat="43.84621" lon="6.73589">
        <ele>1033</ele>
        <time>2009-05-05T14:05:46Z</time>
      </trkpt>
      <trkpt lat="43.84614" lon="6.73606">
        <ele>1035</ele>
        <time>2009-05-05T14:05:49Z</time>
      </trkpt>
      <trkpt lat="43.84607" lon="6.73623">
        <ele>1036</ele>
        <time>2009-05-05T14:05:52Z</time>
      </trkpt>
      <trkpt lat="43.84599" lon="6.73637">
        <ele>1036</ele>
        <time>2009-05-05T14:05:55Z</time>
      </trkpt>
      <trkpt lat="43.84591" lon="6.73653">
        <ele>1036</ele>
        <time>2009-05-05T14:05:58Z</time>
      </trkpt>
      <trkpt lat="43.84583" lon="6.7367">
        <ele>1036</ele>
        <time>2009-05-05T14:06:01Z</time>
      </trkpt>
      <trkpt lat="43.84574" lon="6.73687">
        <ele>1038</ele>
        <time>2009-05-05T14:06:04Z</time>
      </trkpt>
      <trkpt lat="43.84565" lon="6.73702">
        <ele>1040</ele>
        <time>2009-05-05T14:06:07Z</time>
      </trkpt>
      <trkpt lat="43.84554" lon="6.73717">
        <ele>1043</ele>
        <time>2009-05-05T14:06:10Z</time>
      </trkpt>
      <trkpt lat="43.84542" lon="6.7373">
        <ele>1041</ele>
        <time>2009-05-05T14:06:13Z</time>
      </trkpt>
      <trkpt lat="43.84531" lon="6.73746">
        <ele>1041</ele>
        <time>2009-05-05T14:06:16Z</time>
      </trkpt>
      <trkpt lat="43.84521" lon="6.73761">
        <ele>1039</ele>
        <time>2009-05-05T14:06:19Z</time>
      </trkpt>
      <trkpt lat="43.84508" lon="6.73776">
        <ele>1040</ele>
        <time>2009-05-05T14:06:22Z</time>
      </trkpt>
      <trkpt lat="43.84494" lon="6.73787">
        <ele>1040</ele>
        <time>2009-05-05T14:06:25Z</time>
      </trkpt>
      <trkpt lat="43.84484" lon="6.73797">
        <ele>1036</ele>
        <time>2009-05-05T14:06:28Z</time>
      </trkpt>
      <trkpt lat="43.8448" lon="6.73813">
        <ele>1033</ele>
        <time>2009-05-05T14:06:31Z</time>
      </trkpt>
      <trkpt lat="43.8448" lon="6.73831">
        <ele>1033</ele>
        <time>2009-05-05T14:06:34Z</time>
      </trkpt>
      <trkpt lat="43.8448" lon="6.73847">
        <ele>1033</ele>
        <time>2009-05-05T14:06:37Z</time>
      </trkpt>
      <trkpt lat="43.8448" lon="6.73861">
        <ele>1032</ele>
        <time>2009-05-05T14:06:40Z</time>
      </trkpt>
      <trkpt lat="43.84477" lon="6.73872">
        <ele>1033</ele>
        <time>2009-05-05T14:06:43Z</time>
      </trkpt>
      <trkpt lat="43.84476" lon="6.73885">
        <ele>1038</ele>
        <time>2009-05-05T14:07:19Z</time>
      </trkpt>
      <trkpt lat="43.84476" lon="6.73875">
        <ele>1022</ele>
        <time>2009-05-05T14:07:37Z</time>
      </trkpt>
      <trkpt lat="43.84468" lon="6.73889">
        <ele>1025</ele>
        <time>2009-05-05T14:08:46Z</time>
      </trkpt>
      <trkpt lat="43.84461" lon="6.73908">
        <ele>1027</ele>
        <time>2009-05-05T14:08:49Z</time>
      </trkpt>
      <trkpt lat="43.84454" lon="6.73929">
        <ele>1027</ele>
        <time>2009-05-05T14:08:52Z</time>
      </trkpt>
      <trkpt lat="43.84447" lon="6.73951">
        <ele>1027</ele>
        <time>2009-05-05T14:08:55Z</time>
      </trkpt>
      <trkpt lat="43.84439" lon="6.73974">
        <ele>1028</ele>
        <time>2009-05-05T14:08:58Z</time>
      </trkpt>
      <trkpt lat="43.84434" lon="6.73998">
        <ele>1029</ele>
        <time>2009-05-05T14:09:01Z</time>
      </trkpt>
      <trkpt lat="43.84429" lon="6.7402">
        <ele>1030</ele>
        <time>2009-05-05T14:09:04Z</time>
      </trkpt>
      <trkpt lat="43.84424" lon="6.74044">
        <ele>1031</ele>
        <time>2009-05-05T14:09:07Z</time>
      </trkpt>
      <trkpt lat="43.84419" lon="6.74067">
        <ele>1032</ele>
        <time>2009-05-05T14:09:10Z</time>
      </trkpt>
      <trkpt lat="43.84414" lon="6.7409">
        <ele>1031</ele>
        <time>2009-05-05T14:09:13Z</time>
      </trkpt>
      <trkpt lat="43.84411" lon="6.74115">
        <ele>1031</ele>
        <time>2009-05-05T14:09:16Z</time>
      </trkpt>
      <trkpt lat="43.84408" lon="6.74139">
        <ele>1031</ele>
        <time>2009-05-05T14:09:19Z</time>
      </trkpt>
      <trkpt lat="43.84404" lon="6.74164">
        <ele>1032</ele>
        <time>2009-05-05T14:09:22Z</time>
      </trkpt>
      <trkpt lat="43.84397" lon="6.74188">
        <ele>1033</ele>
        <time>2009-05-05T14:09:25Z</time>
      </trkpt>
      <trkpt lat="43.8439" lon="6.74209">
        <ele>1033</ele>
        <time>2009-05-05T14:09:28Z</time>
      </trkpt>
      <trkpt lat="43.84377" lon="6.74228">
        <ele>1033</ele>
        <time>2009-05-05T14:09:32Z</time>
      </trkpt>
      <trkpt lat="43.84361" lon="6.74247">
        <ele>1033</ele>
        <time>2009-05-05T14:09:34Z</time>
      </trkpt>
      <trkpt lat="43.84348" lon="6.74265">
        <ele>1033</ele>
        <time>2009-05-05T14:09:37Z</time>
      </trkpt>
      <trkpt lat="43.84335" lon="6.7428">
        <ele>1033</ele>
        <time>2009-05-05T14:09:40Z</time>
      </trkpt>
      <trkpt lat="43.84323" lon="6.74293">
        <ele>1032</ele>
        <time>2009-05-05T14:09:43Z</time>
      </trkpt>
      <trkpt lat="43.84313" lon="6.74304">
        <ele>1032</ele>
        <time>2009-05-05T14:09:46Z</time>
      </trkpt>
      <trkpt lat="43.84303" lon="6.74313">
        <ele>1032</ele>
        <time>2009-05-05T14:09:49Z</time>
      </trkpt>
      <trkpt lat="43.84295" lon="6.74322">
        <ele>1031</ele>
        <time>2009-05-05T14:09:52Z</time>
      </trkpt>
      <trkpt lat="43.84288" lon="6.74334">
        <ele>1031</ele>
        <time>2009-05-05T14:09:56Z</time>
      </trkpt>
      <trkpt lat="43.84276" lon="6.74359">
        <ele>1031</ele>
        <time>2009-05-05T14:10:02Z</time>
      </trkpt>
      <trkpt lat="43.8427" lon="6.74367">
        <ele>1031</ele>
        <time>2009-05-05T14:10:03Z</time>
      </trkpt>
      <trkpt lat="43.84265" lon="6.74373">
        <ele>1032</ele>
        <time>2009-05-05T14:10:05Z</time>
      </trkpt>
      <trkpt lat="43.84255" lon="6.74381">
        <ele>1032</ele>
        <time>2009-05-05T14:10:08Z</time>
      </trkpt>
      <trkpt lat="43.84245" lon="6.74388">
        <ele>1031</ele>
        <time>2009-05-05T14:10:11Z</time>
      </trkpt>
      <trkpt lat="43.84234" lon="6.74391">
        <ele>1031</ele>
        <time>2009-05-05T14:10:14Z</time>
      </trkpt>
      <trkpt lat="43.84221" lon="6.74395">
        <ele>1032</ele>
        <time>2009-05-05T14:10:17Z</time>
      </trkpt>
      <trkpt lat="43.84208" lon="6.744">
        <ele>1033</ele>
        <time>2009-05-05T14:10:20Z</time>
      </trkpt>
      <trkpt lat="43.84195" lon="6.74406">
        <ele>1033</ele>
        <time>2009-05-05T14:10:23Z</time>
      </trkpt>
      <trkpt lat="43.84183" lon="6.74412">
        <ele>1033</ele>
        <time>2009-05-05T14:10:26Z</time>
      </trkpt>
      <trkpt lat="43.84171" lon="6.74417">
        <ele>1033</ele>
        <time>2009-05-05T14:10:29Z</time>
      </trkpt>
      <trkpt lat="43.8416" lon="6.7442">
        <ele>1033</ele>
        <time>2009-05-05T14:10:32Z</time>
      </trkpt>
      <trkpt lat="43.8415" lon="6.74425">
        <ele>1034</ele>
        <time>2009-05-05T14:10:35Z</time>
      </trkpt>
      <trkpt lat="43.84142" lon="6.74429">
        <ele>1034</ele>
        <time>2009-05-05T14:10:38Z</time>
      </trkpt>
      <trkpt lat="43.84133" lon="6.74434">
        <ele>1034</ele>
        <time>2009-05-05T14:10:41Z</time>
      </trkpt>
      <trkpt lat="43.84123" lon="6.7444">
        <ele>1034</ele>
        <time>2009-05-05T14:10:44Z</time>
      </trkpt>
      <trkpt lat="43.84113" lon="6.74448">
        <ele>1034</ele>
        <time>2009-05-05T14:10:47Z</time>
      </trkpt>
      <trkpt lat="43.84103" lon="6.74454">
        <ele>1034</ele>
        <time>2009-05-05T14:10:50Z</time>
      </trkpt>
      <trkpt lat="43.84094" lon="6.74459">
        <ele>1035</ele>
        <time>2009-05-05T14:10:53Z</time>
      </trkpt>
      <trkpt lat="43.8409" lon="6.74462">
        <ele>1035</ele>
        <time>2009-05-05T14:10:56Z</time>
      </trkpt>
      <trkpt lat="43.84082" lon="6.74467">
        <ele>1041</ele>
        <time>2009-05-05T14:11:41Z</time>
      </trkpt>
      <trkpt lat="43.84071" lon="6.74473">
        <ele>1041</ele>
        <time>2009-05-05T14:11:44Z</time>
      </trkpt>
      <trkpt lat="43.84057" lon="6.7448">
        <ele>1040</ele>
        <time>2009-05-05T14:11:47Z</time>
      </trkpt>
      <trkpt lat="43.84043" lon="6.74485">
        <ele>1040</ele>
        <time>2009-05-05T14:11:50Z</time>
      </trkpt>
      <trkpt lat="43.8403" lon="6.74492">
        <ele>1041</ele>
        <time>2009-05-05T14:11:53Z</time>
      </trkpt>
      <trkpt lat="43.84016" lon="6.74498">
        <ele>1040</ele>
        <time>2009-05-05T14:11:56Z</time>
      </trkpt>
      <trkpt lat="43.84003" lon="6.74503">
        <ele>1040</ele>
        <time>2009-05-05T14:11:59Z</time>
      </trkpt>
      <trkpt lat="43.83991" lon="6.74506">
        <ele>1040</ele>
        <time>2009-05-05T14:12:02Z</time>
      </trkpt>
      <trkpt lat="43.83979" lon="6.74509">
        <ele>1040</ele>
        <time>2009-05-05T14:12:05Z</time>
      </trkpt>
      <trkpt lat="43.8397" lon="6.74513">
        <ele>1042</ele>
        <time>2009-05-05T14:12:08Z</time>
      </trkpt>
      <trkpt lat="43.83961" lon="6.74515">
        <ele>1045</ele>
        <time>2009-05-05T14:12:11Z</time>
      </trkpt>
      <trkpt lat="43.83952" lon="6.74519">
        <ele>1048</ele>
        <time>2009-05-05T14:12:14Z</time>
      </trkpt>
      <trkpt lat="43.83942" lon="6.74522">
        <ele>1051</ele>
        <time>2009-05-05T14:12:17Z</time>
      </trkpt>
      <trkpt lat="43.83932" lon="6.74524">
        <ele>1054</ele>
        <time>2009-05-05T14:12:20Z</time>
      </trkpt>
      <trkpt lat="43.83922" lon="6.74523">
        <ele>1057</ele>
        <time>2009-05-05T14:12:23Z</time>
      </trkpt>
      <trkpt lat="43.83912" lon="6.74524">
        <ele>1059</ele>
        <time>2009-05-05T14:12:26Z</time>
      </trkpt>
      <trkpt lat="43.83906" lon="6.74522">
        <ele>1057</ele>
        <time>2009-05-05T14:12:29Z</time>
      </trkpt>
      <trkpt lat="43.83898" lon="6.7452">
        <ele>1056</ele>
        <time>2009-05-05T14:12:32Z</time>
      </trkpt>
      <trkpt lat="43.83888" lon="6.74517">
        <ele>1057</ele>
        <time>2009-05-05T14:12:35Z</time>
      </trkpt>
      <trkpt lat="43.83877" lon="6.74514">
        <ele>1056</ele>
        <time>2009-05-05T14:12:38Z</time>
      </trkpt>
      <trkpt lat="43.83867" lon="6.7451">
        <ele>1055</ele>
        <time>2009-05-05T14:12:41Z</time>
      </trkpt>
      <trkpt lat="43.83854" lon="6.74507">
        <ele>1053</ele>
        <time>2009-05-05T14:12:44Z</time>
      </trkpt>
      <trkpt lat="43.83844" lon="6.74503">
        <ele>1052</ele>
        <time>2009-05-05T14:12:47Z</time>
      </trkpt>
      <trkpt lat="43.83832" lon="6.74499">
        <ele>1051</ele>
        <time>2009-05-05T14:12:50Z</time>
      </trkpt>
      <trkpt lat="43.83819" lon="6.74498">
        <ele>1051</ele>
        <time>2009-05-05T14:12:53Z</time>
      </trkpt>
      <trkpt lat="43.83803" lon="6.74498">
        <ele>1051</ele>
        <time>2009-05-05T14:12:56Z</time>
      </trkpt>
      <trkpt lat="43.83788" lon="6.745">
        <ele>1047</ele>
        <time>2009-05-05T14:12:59Z</time>
      </trkpt>
      <trkpt lat="43.83775" lon="6.745">
        <ele>1045</ele>
        <time>2009-05-05T14:13:02Z</time>
      </trkpt>
      <trkpt lat="43.83769" lon="6.74507">
        <ele>1045</ele>
        <time>2009-05-05T14:13:08Z</time>
      </trkpt>
      <trkpt lat="43.83762" lon="6.74507">
        <ele>1067</ele>
        <time>2009-05-05T14:13:35Z</time>
      </trkpt>
      <trkpt lat="43.83772" lon="6.74496">
        <ele>1049</ele>
        <time>2009-05-05T14:14:48Z</time>
      </trkpt>
      <trkpt lat="43.83783" lon="6.74492">
        <ele>1052</ele>
        <time>2009-05-05T14:15:12Z</time>
      </trkpt>
      <trkpt lat="43.83793" lon="6.74495">
        <ele>1055</ele>
        <time>2009-05-05T14:15:15Z</time>
      </trkpt>
      <trkpt lat="43.838" lon="6.74494">
        <ele>1057</ele>
        <time>2009-05-05T14:15:18Z</time>
      </trkpt>
      <trkpt lat="43.83808" lon="6.74494">
        <ele>1058</ele>
        <time>2009-05-05T14:15:21Z</time>
      </trkpt>
      <trkpt lat="43.83823" lon="6.74495">
        <ele>1056</ele>
        <time>2009-05-05T14:15:27Z</time>
      </trkpt>
      <trkpt lat="43.83833" lon="6.74497">
        <ele>1060</ele>
        <time>2009-05-05T14:15:33Z</time>
      </trkpt>
      <trkpt lat="43.8384" lon="6.74497">
        <ele>1060</ele>
        <time>2009-05-05T14:15:36Z</time>
      </trkpt>
      <trkpt lat="43.83846" lon="6.74501">
        <ele>1061</ele>
        <time>2009-05-05T14:15:42Z</time>
      </trkpt>
      <trkpt lat="43.83858" lon="6.74501">
        <ele>1063</ele>
        <time>2009-05-05T14:15:48Z</time>
      </trkpt>
      <trkpt lat="43.83873" lon="6.74509">
        <ele>1065</ele>
        <time>2009-05-05T14:15:54Z</time>
      </trkpt>
      <trkpt lat="43.83881" lon="6.74515">
        <ele>1065</ele>
        <time>2009-05-05T14:15:57Z</time>
      </trkpt>
      <trkpt lat="43.83889" lon="6.74521">
        <ele>1066</ele>
        <time>2009-05-05T14:16:00Z</time>
      </trkpt>
      <trkpt lat="43.83895" lon="6.74529">
        <ele>1068</ele>
        <time>2009-05-05T14:16:03Z</time>
      </trkpt>
      <trkpt lat="43.83902" lon="6.74534">
        <ele>1075</ele>
        <time>2009-05-05T14:16:06Z</time>
      </trkpt>
      <trkpt lat="43.83908" lon="6.74539">
        <ele>1080</ele>
        <time>2009-05-05T14:16:09Z</time>
      </trkpt>
      <trkpt lat="43.83915" lon="6.74546">
        <ele>1082</ele>
        <time>2009-05-05T14:16:12Z</time>
      </trkpt>
      <trkpt lat="43.83921" lon="6.74557">
        <ele>1079</ele>
        <time>2009-05-05T14:16:15Z</time>
      </trkpt>
      <trkpt lat="43.83924" lon="6.74564">
        <ele>1082</ele>
        <time>2009-05-05T14:16:18Z</time>
      </trkpt>
      <trkpt lat="43.83928" lon="6.74573">
        <ele>1079</ele>
        <time>2009-05-05T14:16:21Z</time>
      </trkpt>
      <trkpt lat="43.83931" lon="6.74581">
        <ele>1077</ele>
        <time>2009-05-05T14:16:27Z</time>
      </trkpt>
      <trkpt lat="43.83924" lon="6.74601">
        <ele>1075</ele>
        <time>2009-05-05T14:17:31Z</time>
      </trkpt>
      <trkpt lat="43.83928" lon="6.74594">
        <ele>1072</ele>
        <time>2009-05-05T14:17:52Z</time>
      </trkpt>
      <trkpt lat="43.83935" lon="6.74604">
        <ele>1077</ele>
        <time>2009-05-05T14:18:37Z</time>
      </trkpt>
      <trkpt lat="43.83939" lon="6.74615">
        <ele>1079</ele>
        <time>2009-05-05T14:18:43Z</time>
      </trkpt>
      <trkpt lat="43.83946" lon="6.74628">
        <ele>1083</ele>
        <time>2009-05-05T14:18:49Z</time>
      </trkpt>
      <trkpt lat="43.83948" lon="6.74636">
        <ele>1086</ele>
        <time>2009-05-05T14:18:52Z</time>
      </trkpt>
      <trkpt lat="43.83953" lon="6.74645">
        <ele>1087</ele>
        <time>2009-05-05T14:18:55Z</time>
      </trkpt>
      <trkpt lat="43.83955" lon="6.74655">
        <ele>1088</ele>
        <time>2009-05-05T14:18:58Z</time>
      </trkpt>
      <trkpt lat="43.83957" lon="6.74665">
        <ele>1089</ele>
        <time>2009-05-05T14:19:01Z</time>
      </trkpt>
      <trkpt lat="43.83958" lon="6.74672">
        <ele>1089</ele>
        <time>2009-05-05T14:19:04Z</time>
      </trkpt>
      <trkpt lat="43.83959" lon="6.7468">
        <ele>1085</ele>
        <time>2009-05-05T14:19:07Z</time>
      </trkpt>
      <trkpt lat="43.8396" lon="6.7469">
        <ele>1081</ele>
        <time>2009-05-05T14:19:10Z</time>
      </trkpt>
      <trkpt lat="43.83966" lon="6.74698">
        <ele>1082</ele>
        <time>2009-05-05T14:19:13Z</time>
      </trkpt>
      <trkpt lat="43.83974" lon="6.74711">
        <ele>1082</ele>
        <time>2009-05-05T14:19:16Z</time>
      </trkpt>
      <trkpt lat="43.83979" lon="6.7472">
        <ele>1082</ele>
        <time>2009-05-05T14:19:19Z</time>
      </trkpt>
      <trkpt lat="43.83983" lon="6.74727">
        <ele>1083</ele>
        <time>2009-05-05T14:19:22Z</time>
      </trkpt>
      <trkpt lat="43.83987" lon="6.74734">
        <ele>1085</ele>
        <time>2009-05-05T14:19:25Z</time>
      </trkpt>
      <trkpt lat="43.83992" lon="6.74742">
        <ele>1088</ele>
        <time>2009-05-05T14:19:28Z</time>
      </trkpt>
      <trkpt lat="43.83992" lon="6.74753">
        <ele>1094</ele>
        <time>2009-05-05T14:19:34Z</time>
      </trkpt>
      <trkpt lat="43.83996" lon="6.74763">
        <ele>1092</ele>
        <time>2009-05-05T14:19:37Z</time>
      </trkpt>
      <trkpt lat="43.83998" lon="6.7477">
        <ele>1092</ele>
        <time>2009-05-05T14:19:40Z</time>
      </trkpt>
      <trkpt lat="43.83996" lon="6.74789">
        <ele>1088</ele>
        <time>2009-05-05T14:19:46Z</time>
      </trkpt>
      <trkpt lat="43.83998" lon="6.74798">
        <ele>1087</ele>
        <time>2009-05-05T14:19:49Z</time>
      </trkpt>
      <trkpt lat="43.83999" lon="6.74806">
        <ele>1086</ele>
        <time>2009-05-05T14:19:52Z</time>
      </trkpt>
      <trkpt lat="43.84" lon="6.74814">
        <ele>1085</ele>
        <time>2009-05-05T14:19:56Z</time>
      </trkpt>
      <trkpt lat="43.84003" lon="6.74827">
        <ele>1083</ele>
        <time>2009-05-05T14:19:58Z</time>
      </trkpt>
      <trkpt lat="43.84012" lon="6.74839">
        <ele>1089</ele>
        <time>2009-05-05T14:20:03Z</time>
      </trkpt>
      <trkpt lat="43.84018" lon="6.74848">
        <ele>1094</ele>
        <time>2009-05-05T14:20:07Z</time>
      </trkpt>
      <trkpt lat="43.84022" lon="6.74855">
        <ele>1096</ele>
        <time>2009-05-05T14:20:10Z</time>
      </trkpt>
      <trkpt lat="43.84021" lon="6.74863">
        <ele>1095</ele>
        <time>2009-05-05T14:20:13Z</time>
      </trkpt>
      <trkpt lat="43.84022" lon="6.74876">
        <ele>1093</ele>
        <time>2009-05-05T14:20:19Z</time>
      </trkpt>
      <trkpt lat="43.84023" lon="6.74885">
        <ele>1092</ele>
        <time>2009-05-05T14:20:22Z</time>
      </trkpt>
      <trkpt lat="43.84027" lon="6.74894">
        <ele>1090</ele>
        <time>2009-05-05T14:20:25Z</time>
      </trkpt>
      <trkpt lat="43.84027" lon="6.74902">
        <ele>1090</ele>
        <time>2009-05-05T14:20:28Z</time>
      </trkpt>
      <trkpt lat="43.84031" lon="6.74909">
        <ele>1091</ele>
        <time>2009-05-05T14:20:31Z</time>
      </trkpt>
      <trkpt lat="43.84035" lon="6.74917">
        <ele>1095</ele>
        <time>2009-05-05T14:20:34Z</time>
      </trkpt>
      <trkpt lat="43.84038" lon="6.74924">
        <ele>1099</ele>
        <time>2009-05-05T14:20:37Z</time>
      </trkpt>
      <trkpt lat="43.8404" lon="6.74931">
        <ele>1100</ele>
        <time>2009-05-05T14:20:40Z</time>
      </trkpt>
      <trkpt lat="43.84043" lon="6.74943">
        <ele>1103</ele>
        <time>2009-05-05T14:20:46Z</time>
      </trkpt>
      <trkpt lat="43.84045" lon="6.74952">
        <ele>1101</ele>
        <time>2009-05-05T14:20:49Z</time>
      </trkpt>
      <trkpt lat="43.8405" lon="6.74961">
        <ele>1101</ele>
        <time>2009-05-05T14:20:52Z</time>
      </trkpt>
      <trkpt lat="43.84057" lon="6.74971">
        <ele>1101</ele>
        <time>2009-05-05T14:20:55Z</time>
      </trkpt>
      <trkpt lat="43.84059" lon="6.74978">
        <ele>1103</ele>
        <time>2009-05-05T14:20:58Z</time>
      </trkpt>
      <trkpt lat="43.84061" lon="6.74987">
        <ele>1105</ele>
        <time>2009-05-05T14:21:01Z</time>
      </trkpt>
      <trkpt lat="43.84061" lon="6.74997">
        <ele>1102</ele>
        <time>2009-05-05T14:21:04Z</time>
      </trkpt>
      <trkpt lat="43.84062" lon="6.75006">
        <ele>1102</ele>
        <time>2009-05-05T14:21:07Z</time>
      </trkpt>
      <trkpt lat="43.84062" lon="6.75015">
        <ele>1100</ele>
        <time>2009-05-05T14:21:10Z</time>
      </trkpt>
      <trkpt lat="43.84061" lon="6.75025">
        <ele>1096</ele>
        <time>2009-05-05T14:21:13Z</time>
      </trkpt>
      <trkpt lat="43.84058" lon="6.75035">
        <ele>1094</ele>
        <time>2009-05-05T14:21:16Z</time>
      </trkpt>
      <trkpt lat="43.84057" lon="6.75044">
        <ele>1090</ele>
        <time>2009-05-05T14:21:19Z</time>
      </trkpt>
      <trkpt lat="43.84061" lon="6.75051">
        <ele>1092</ele>
        <time>2009-05-05T14:21:22Z</time>
      </trkpt>
      <trkpt lat="43.8406" lon="6.75065">
        <ele>1088</ele>
        <time>2009-05-05T14:21:28Z</time>
      </trkpt>
      <trkpt lat="43.84062" lon="6.75073">
        <ele>1089</ele>
        <time>2009-05-05T14:21:31Z</time>
      </trkpt>
      <trkpt lat="43.84058" lon="6.75087">
        <ele>1092</ele>
        <time>2009-05-05T14:21:37Z</time>
      </trkpt>
      <trkpt lat="43.84056" lon="6.75095">
        <ele>1090</ele>
        <time>2009-05-05T14:21:40Z</time>
      </trkpt>
      <trkpt lat="43.84054" lon="6.75102">
        <ele>1090</ele>
        <time>2009-05-05T14:21:43Z</time>
      </trkpt>
      <trkpt lat="43.84051" lon="6.75109">
        <ele>1090</ele>
        <time>2009-05-05T14:21:52Z</time>
      </trkpt>
      <trkpt lat="43.84045" lon="6.75114">
        <ele>1089</ele>
        <time>2009-05-05T14:22:04Z</time>
      </trkpt>
      <trkpt lat="43.84038" lon="6.75124">
        <ele>1092</ele>
        <time>2009-05-05T14:22:28Z</time>
      </trkpt>
      <trkpt lat="43.84049" lon="6.75136">
        <ele>1100</ele>
        <time>2009-05-05T14:22:34Z</time>
      </trkpt>
      <trkpt lat="43.84058" lon="6.75142">
        <ele>1117</ele>
        <time>2009-05-05T14:22:40Z</time>
      </trkpt>
      <trkpt lat="43.8406" lon="6.75155">
        <ele>1120</ele>
        <time>2009-05-05T14:22:46Z</time>
      </trkpt>
      <trkpt lat="43.84063" lon="6.75163">
        <ele>1120</ele>
        <time>2009-05-05T14:22:49Z</time>
      </trkpt>
      <trkpt lat="43.84063" lon="6.75171">
        <ele>1116</ele>
        <time>2009-05-05T14:22:52Z</time>
      </trkpt>
      <trkpt lat="43.84061" lon="6.75185">
        <ele>1113</ele>
        <time>2009-05-05T14:22:58Z</time>
      </trkpt>
      <trkpt lat="43.84057" lon="6.75193">
        <ele>1111</ele>
        <time>2009-05-05T14:23:01Z</time>
      </trkpt>
      <trkpt lat="43.84054" lon="6.75199">
        <ele>1111</ele>
        <time>2009-05-05T14:23:04Z</time>
      </trkpt>
      <trkpt lat="43.84057" lon="6.75206">
        <ele>1112</ele>
        <time>2009-05-05T14:23:07Z</time>
      </trkpt>
      <trkpt lat="43.84061" lon="6.75216">
        <ele>1113</ele>
        <time>2009-05-05T14:23:10Z</time>
      </trkpt>
      <trkpt lat="43.84065" lon="6.75226">
        <ele>1113</ele>
        <time>2009-05-05T14:23:13Z</time>
      </trkpt>
      <trkpt lat="43.84064" lon="6.75234">
        <ele>1113</ele>
        <time>2009-05-05T14:23:16Z</time>
      </trkpt>
      <trkpt lat="43.84063" lon="6.75246">
        <ele>1110</ele>
        <time>2009-05-05T14:23:19Z</time>
      </trkpt>
      <trkpt lat="43.84062" lon="6.75256">
        <ele>1108</ele>
        <time>2009-05-05T14:23:22Z</time>
      </trkpt>
      <trkpt lat="43.84061" lon="6.75274">
        <ele>1107</ele>
        <time>2009-05-05T14:23:28Z</time>
      </trkpt>
      <trkpt lat="43.84054" lon="6.75284">
        <ele>1104</ele>
        <time>2009-05-05T14:23:31Z</time>
      </trkpt>
      <trkpt lat="43.84058" lon="6.75296">
        <ele>1109</ele>
        <time>2009-05-05T14:23:37Z</time>
      </trkpt>
      <trkpt lat="43.84059" lon="6.75305">
        <ele>1106</ele>
        <time>2009-05-05T14:23:40Z</time>
      </trkpt>
      <trkpt lat="43.84062" lon="6.75313">
        <ele>1108</ele>
        <time>2009-05-05T14:23:43Z</time>
      </trkpt>
      <trkpt lat="43.84065" lon="6.75326">
        <ele>1111</ele>
        <time>2009-05-05T14:23:49Z</time>
      </trkpt>
      <trkpt lat="43.84063" lon="6.75333">
        <ele>1111</ele>
        <time>2009-05-05T14:23:52Z</time>
      </trkpt>
      <trkpt lat="43.8406" lon="6.75339">
        <ele>1111</ele>
        <time>2009-05-05T14:23:55Z</time>
      </trkpt>
      <trkpt lat="43.84058" lon="6.75348">
        <ele>1111</ele>
        <time>2009-05-05T14:23:58Z</time>
      </trkpt>
      <trkpt lat="43.84055" lon="6.75356">
        <ele>1111</ele>
        <time>2009-05-05T14:24:01Z</time>
      </trkpt>
      <trkpt lat="43.84055" lon="6.75363">
        <ele>1111</ele>
        <time>2009-05-05T14:24:04Z</time>
      </trkpt>
      <trkpt lat="43.84056" lon="6.7537">
        <ele>1111</ele>
        <time>2009-05-05T14:24:07Z</time>
      </trkpt>
      <trkpt lat="43.84059" lon="6.75378">
        <ele>1111</ele>
        <time>2009-05-05T14:24:13Z</time>
      </trkpt>
      <trkpt lat="43.84066" lon="6.7538">
        <ele>1097</ele>
        <time>2009-05-05T14:24:25Z</time>
      </trkpt>
      <trkpt lat="43.84069" lon="6.75388">
        <ele>1111</ele>
        <time>2009-05-05T14:24:31Z</time>
      </trkpt>
      <trkpt lat="43.84069" lon="6.75399">
        <ele>1114</ele>
        <time>2009-05-05T14:24:37Z</time>
      </trkpt>
      <trkpt lat="43.84063" lon="6.75405">
        <ele>1113</ele>
        <time>2009-05-05T14:24:40Z</time>
      </trkpt>
      <trkpt lat="43.84057" lon="6.75411">
        <ele>1114</ele>
        <time>2009-05-05T14:24:43Z</time>
      </trkpt>
      <trkpt lat="43.84051" lon="6.75423">
        <ele>1116</ele>
        <time>2009-05-05T14:24:49Z</time>
      </trkpt>
      <trkpt lat="43.84052" lon="6.75432">
        <ele>1117</ele>
        <time>2009-05-05T14:24:52Z</time>
      </trkpt>
      <trkpt lat="43.8405" lon="6.75439">
        <ele>1118</ele>
        <time>2009-05-05T14:24:55Z</time>
      </trkpt>
      <trkpt lat="43.8405" lon="6.75446">
        <ele>1119</ele>
        <time>2009-05-05T14:24:58Z</time>
      </trkpt>
      <trkpt lat="43.84049" lon="6.75457">
        <ele>1124</ele>
        <time>2009-05-05T14:25:04Z</time>
      </trkpt>
      <trkpt lat="43.84041" lon="6.75466">
        <ele>1123</ele>
        <time>2009-05-05T14:25:10Z</time>
      </trkpt>
      <trkpt lat="43.84041" lon="6.75476">
        <ele>1123</ele>
        <time>2009-05-05T14:25:16Z</time>
      </trkpt>
      <trkpt lat="43.84037" lon="6.75487">
        <ele>1123</ele>
        <time>2009-05-05T14:25:22Z</time>
      </trkpt>
      <trkpt lat="43.84029" lon="6.75496">
        <ele>1124</ele>
        <time>2009-05-05T14:25:28Z</time>
      </trkpt>
      <trkpt lat="43.84029" lon="6.75505">
        <ele>1130</ele>
        <time>2009-05-05T14:25:34Z</time>
      </trkpt>
      <trkpt lat="43.84031" lon="6.75515">
        <ele>1133</ele>
        <time>2009-05-05T14:25:40Z</time>
      </trkpt>
      <trkpt lat="43.8404" lon="6.75525">
        <ele>1135</ele>
        <time>2009-05-05T14:25:46Z</time>
      </trkpt>
      <trkpt lat="43.84045" lon="6.75532">
        <ele>1139</ele>
        <time>2009-05-05T14:25:49Z</time>
      </trkpt>
      <trkpt lat="43.84041" lon="6.75539">
        <ele>1146</ele>
        <time>2009-05-05T14:25:55Z</time>
      </trkpt>
      <trkpt lat="43.84037" lon="6.7555">
        <ele>1148</ele>
        <time>2009-05-05T14:26:01Z</time>
      </trkpt>
      <trkpt lat="43.84039" lon="6.75562">
        <ele>1146</ele>
        <time>2009-05-05T14:26:07Z</time>
      </trkpt>
      <trkpt lat="43.84039" lon="6.75573">
        <ele>1149</ele>
        <time>2009-05-05T14:26:13Z</time>
      </trkpt>
      <trkpt lat="43.84036" lon="6.75584">
        <ele>1155</ele>
        <time>2009-05-05T14:26:19Z</time>
      </trkpt>
      <trkpt lat="43.84033" lon="6.75595">
        <ele>1162</ele>
        <time>2009-05-05T14:26:25Z</time>
      </trkpt>
      <trkpt lat="43.8403" lon="6.75608">
        <ele>1166</ele>
        <time>2009-05-05T14:26:31Z</time>
      </trkpt>
      <trkpt lat="43.84025" lon="6.75613">
        <ele>1166</ele>
        <time>2009-05-05T14:26:34Z</time>
      </trkpt>
      <trkpt lat="43.84021" lon="6.75625">
        <ele>1167</ele>
        <time>2009-05-05T14:26:40Z</time>
      </trkpt>
      <trkpt lat="43.8402" lon="6.75636">
        <ele>1170</ele>
        <time>2009-05-05T14:26:46Z</time>
      </trkpt>
      <trkpt lat="43.84019" lon="6.75644">
        <ele>1171</ele>
        <time>2009-05-05T14:26:49Z</time>
      </trkpt>
      <trkpt lat="43.84018" lon="6.75654">
        <ele>1169</ele>
        <time>2009-05-05T14:26:52Z</time>
      </trkpt>
      <trkpt lat="43.84018" lon="6.75662">
        <ele>1164</ele>
        <time>2009-05-05T14:26:55Z</time>
      </trkpt>
      <trkpt lat="43.84013" lon="6.75669">
        <ele>1158</ele>
        <time>2009-05-05T14:26:58Z</time>
      </trkpt>
      <trkpt lat="43.84009" lon="6.75679">
        <ele>1157</ele>
        <time>2009-05-05T14:27:04Z</time>
      </trkpt>
      <trkpt lat="43.84003" lon="6.75685">
        <ele>1155</ele>
        <time>2009-05-05T14:27:07Z</time>
      </trkpt>
      <trkpt lat="43.84" lon="6.75699">
        <ele>1152</ele>
        <time>2009-05-05T14:27:13Z</time>
      </trkpt>
      <trkpt lat="43.83998" lon="6.75711">
        <ele>1153</ele>
        <time>2009-05-05T14:27:19Z</time>
      </trkpt>
      <trkpt lat="43.83995" lon="6.75724">
        <ele>1152</ele>
        <time>2009-05-05T14:27:25Z</time>
      </trkpt>
      <trkpt lat="43.83991" lon="6.75734">
        <ele>1152</ele>
        <time>2009-05-05T14:27:31Z</time>
      </trkpt>
      <trkpt lat="43.83978" lon="6.75738">
        <ele>1140</ele>
        <time>2009-05-05T14:27:34Z</time>
      </trkpt>
      <trkpt lat="43.8397" lon="6.75741">
        <ele>1131</ele>
        <time>2009-05-05T14:27:40Z</time>
      </trkpt>
      <trkpt lat="43.83964" lon="6.75745">
        <ele>1137</ele>
        <time>2009-05-05T14:28:07Z</time>
      </trkpt>
      <trkpt lat="43.83959" lon="6.7575">
        <ele>1136</ele>
        <time>2009-05-05T14:28:37Z</time>
      </trkpt>
      <trkpt lat="43.83958" lon="6.7576">
        <ele>1137</ele>
        <time>2009-05-05T14:29:01Z</time>
      </trkpt>
      <trkpt lat="43.83964" lon="6.75768">
        <ele>1140</ele>
        <time>2009-05-05T14:29:07Z</time>
      </trkpt>
      <trkpt lat="43.8396" lon="6.75776">
        <ele>1141</ele>
        <time>2009-05-05T14:29:13Z</time>
      </trkpt>
      <trkpt lat="43.83959" lon="6.75787">
        <ele>1141</ele>
        <time>2009-05-05T14:29:19Z</time>
      </trkpt>
      <trkpt lat="43.83965" lon="6.75797">
        <ele>1147</ele>
        <time>2009-05-05T14:29:25Z</time>
      </trkpt>
      <trkpt lat="43.83965" lon="6.75809">
        <ele>1149</ele>
        <time>2009-05-05T14:29:31Z</time>
      </trkpt>
      <trkpt lat="43.83965" lon="6.75821">
        <ele>1148</ele>
        <time>2009-05-05T14:29:37Z</time>
      </trkpt>
      <trkpt lat="43.83968" lon="6.75832">
        <ele>1148</ele>
        <time>2009-05-05T14:29:43Z</time>
      </trkpt>
      <trkpt lat="43.83966" lon="6.75842">
        <ele>1151</ele>
        <time>2009-05-05T14:29:49Z</time>
      </trkpt>
      <trkpt lat="43.8396" lon="6.75847">
        <ele>1155</ele>
        <time>2009-05-05T14:29:58Z</time>
      </trkpt>
      <trkpt lat="43.83953" lon="6.7585">
        <ele>1156</ele>
        <time>2009-05-05T14:30:08Z</time>
      </trkpt>
      <trkpt lat="43.8395" lon="6.75857">
        <ele>1163</ele>
        <time>2009-05-05T14:30:19Z</time>
      </trkpt>
      <trkpt lat="43.83957" lon="6.75865">
        <ele>1160</ele>
        <time>2009-05-05T14:30:35Z</time>
      </trkpt>
      <trkpt lat="43.83956" lon="6.75876">
        <ele>1155</ele>
        <time>2009-05-05T14:30:41Z</time>
      </trkpt>
      <trkpt lat="43.83958" lon="6.7589">
        <ele>1152</ele>
        <time>2009-05-05T14:30:47Z</time>
      </trkpt>
      <trkpt lat="43.83963" lon="6.75901">
        <ele>1155</ele>
        <time>2009-05-05T14:30:53Z</time>
      </trkpt>
      <trkpt lat="43.83964" lon="6.75913">
        <ele>1161</ele>
        <time>2009-05-05T14:31:02Z</time>
      </trkpt>
      <trkpt lat="43.83964" lon="6.75924">
        <ele>1164</ele>
        <time>2009-05-05T14:31:08Z</time>
      </trkpt>
      <trkpt lat="43.83962" lon="6.7593">
        <ele>1163</ele>
        <time>2009-05-05T14:31:11Z</time>
      </trkpt>
      <trkpt lat="43.83961" lon="6.75943">
        <ele>1158</ele>
        <time>2009-05-05T14:31:17Z</time>
      </trkpt>
      <trkpt lat="43.8396" lon="6.75958">
        <ele>1153</ele>
        <time>2009-05-05T14:31:23Z</time>
      </trkpt>
      <trkpt lat="43.83958" lon="6.75966">
        <ele>1151</ele>
        <time>2009-05-05T14:31:26Z</time>
      </trkpt>
      <trkpt lat="43.83958" lon="6.75973">
        <ele>1152</ele>
        <time>2009-05-05T14:31:29Z</time>
      </trkpt>
      <trkpt lat="43.83961" lon="6.7598">
        <ele>1156</ele>
        <time>2009-05-05T14:31:32Z</time>
      </trkpt>
      <trkpt lat="43.83964" lon="6.75992">
        <ele>1157</ele>
        <time>2009-05-05T14:31:38Z</time>
      </trkpt>
      <trkpt lat="43.83964" lon="6.76007">
        <ele>1159</ele>
        <time>2009-05-05T14:31:44Z</time>
      </trkpt>
      <trkpt lat="43.83966" lon="6.76018">
        <ele>1165</ele>
        <time>2009-05-05T14:31:50Z</time>
      </trkpt>
      <trkpt lat="43.83969" lon="6.76027">
        <ele>1165</ele>
        <time>2009-05-05T14:31:53Z</time>
      </trkpt>
      <trkpt lat="43.83968" lon="6.76041">
        <ele>1168</ele>
        <time>2009-05-05T14:31:59Z</time>
      </trkpt>
      <trkpt lat="43.83964" lon="6.76049">
        <ele>1167</ele>
        <time>2009-05-05T14:32:02Z</time>
      </trkpt>
      <trkpt lat="43.83964" lon="6.76061">
        <ele>1163</ele>
        <time>2009-05-05T14:32:05Z</time>
      </trkpt>
      <trkpt lat="43.83963" lon="6.76072">
        <ele>1160</ele>
        <time>2009-05-05T14:32:08Z</time>
      </trkpt>
      <trkpt lat="43.8396" lon="6.76082">
        <ele>1157</ele>
        <time>2009-05-05T14:32:11Z</time>
      </trkpt>
      <trkpt lat="43.83958" lon="6.76095">
        <ele>1157</ele>
        <time>2009-05-05T14:32:14Z</time>
      </trkpt>
      <trkpt lat="43.8396" lon="6.76108">
        <ele>1157</ele>
        <time>2009-05-05T14:32:17Z</time>
      </trkpt>
      <trkpt lat="43.83962" lon="6.76121">
        <ele>1157</ele>
        <time>2009-05-05T14:32:20Z</time>
      </trkpt>
      <trkpt lat="43.83961" lon="6.76137">
        <ele>1157</ele>
        <time>2009-05-05T14:32:23Z</time>
      </trkpt>
      <trkpt lat="43.83962" lon="6.76148">
        <ele>1157</ele>
        <time>2009-05-05T14:32:26Z</time>
      </trkpt>
      <trkpt lat="43.83965" lon="6.76159">
        <ele>1157</ele>
        <time>2009-05-05T14:32:29Z</time>
      </trkpt>
      <trkpt lat="43.83964" lon="6.76166">
        <ele>1157</ele>
        <time>2009-05-05T14:32:32Z</time>
      </trkpt>
      <trkpt lat="43.83957" lon="6.76173">
        <ele>1157</ele>
        <time>2009-05-05T14:32:38Z</time>
      </trkpt>
      <trkpt lat="43.83955" lon="6.76184">
        <ele>1157</ele>
        <time>2009-05-05T14:32:44Z</time>
      </trkpt>
      <trkpt lat="43.83961" lon="6.76192">
        <ele>1157</ele>
        <time>2009-05-05T14:32:47Z</time>
      </trkpt>
      <trkpt lat="43.83961" lon="6.762">
        <ele>1159</ele>
        <time>2009-05-05T14:32:50Z</time>
      </trkpt>
      <trkpt lat="43.83959" lon="6.76215">
        <ele>1161</ele>
        <time>2009-05-05T14:32:56Z</time>
      </trkpt>
      <trkpt lat="43.83957" lon="6.76222">
        <ele>1160</ele>
        <time>2009-05-05T14:32:59Z</time>
      </trkpt>
      <trkpt lat="43.83957" lon="6.76229">
        <ele>1169</ele>
        <time>2009-05-05T14:33:05Z</time>
      </trkpt>
      <trkpt lat="43.83954" lon="6.76237">
        <ele>1168</ele>
        <time>2009-05-05T14:33:08Z</time>
      </trkpt>
      <trkpt lat="43.83953" lon="6.76245">
        <ele>1167</ele>
        <time>2009-05-05T14:33:11Z</time>
      </trkpt>
      <trkpt lat="43.8396" lon="6.76255">
        <ele>1174</ele>
        <time>2009-05-05T14:33:17Z</time>
      </trkpt>
      <trkpt lat="43.83961" lon="6.76262">
        <ele>1174</ele>
        <time>2009-05-05T14:33:20Z</time>
      </trkpt>
      <trkpt lat="43.83959" lon="6.76269">
        <ele>1175</ele>
        <time>2009-05-05T14:33:26Z</time>
      </trkpt>
      <trkpt lat="43.83962" lon="6.76282">
        <ele>1176</ele>
        <time>2009-05-05T14:33:32Z</time>
      </trkpt>
      <trkpt lat="43.83965" lon="6.76291">
        <ele>1172</ele>
        <time>2009-05-05T14:33:35Z</time>
      </trkpt>
      <trkpt lat="43.83963" lon="6.76302">
        <ele>1174</ele>
        <time>2009-05-05T14:33:41Z</time>
      </trkpt>
      <trkpt lat="43.83958" lon="6.76314">
        <ele>1172</ele>
        <time>2009-05-05T14:33:47Z</time>
      </trkpt>
      <trkpt lat="43.83962" lon="6.76321">
        <ele>1172</ele>
        <time>2009-05-05T14:33:50Z</time>
      </trkpt>
      <trkpt lat="43.83962" lon="6.76328">
        <ele>1170</ele>
        <time>2009-05-05T14:33:53Z</time>
      </trkpt>
      <trkpt lat="43.83959" lon="6.76335">
        <ele>1165</ele>
        <time>2009-05-05T14:33:56Z</time>
      </trkpt>
      <trkpt lat="43.83961" lon="6.76347">
        <ele>1173</ele>
        <time>2009-05-05T14:34:02Z</time>
      </trkpt>
      <trkpt lat="43.83962" lon="6.76356">
        <ele>1177</ele>
        <time>2009-05-05T14:34:08Z</time>
      </trkpt>
      <trkpt lat="43.83962" lon="6.76369">
        <ele>1177</ele>
        <time>2009-05-05T14:34:14Z</time>
      </trkpt>
      <trkpt lat="43.83965" lon="6.76376">
        <ele>1182</ele>
        <time>2009-05-05T14:34:17Z</time>
      </trkpt>
      <trkpt lat="43.83965" lon="6.76388">
        <ele>1182</ele>
        <time>2009-05-05T14:34:23Z</time>
      </trkpt>
      <trkpt lat="43.83969" lon="6.76399">
        <ele>1186</ele>
        <time>2009-05-05T14:34:29Z</time>
      </trkpt>
      <trkpt lat="43.83968" lon="6.76411">
        <ele>1180</ele>
        <time>2009-05-05T14:34:35Z</time>
      </trkpt>
      <trkpt lat="43.8397" lon="6.76422">
        <ele>1177</ele>
        <time>2009-05-05T14:34:41Z</time>
      </trkpt>
      <trkpt lat="43.83966" lon="6.76432">
        <ele>1177</ele>
        <time>2009-05-05T14:34:44Z</time>
      </trkpt>
      <trkpt lat="43.83968" lon="6.7644">
        <ele>1177</ele>
        <time>2009-05-05T14:34:47Z</time>
      </trkpt>
      <trkpt lat="43.83966" lon="6.76453">
        <ele>1172</ele>
        <time>2009-05-05T14:34:53Z</time>
      </trkpt>
      <trkpt lat="43.83971" lon="6.76457">
        <ele>1180</ele>
        <time>2009-05-05T14:34:56Z</time>
      </trkpt>
      <trkpt lat="43.83978" lon="6.76461">
        <ele>1186</ele>
        <time>2009-05-05T14:34:59Z</time>
      </trkpt>
      <trkpt lat="43.83981" lon="6.76472">
        <ele>1194</ele>
        <time>2009-05-05T14:35:05Z</time>
      </trkpt>
      <trkpt lat="43.83976" lon="6.76478">
        <ele>1194</ele>
        <time>2009-05-05T14:35:08Z</time>
      </trkpt>
      <trkpt lat="43.83982" lon="6.7649">
        <ele>1198</ele>
        <time>2009-05-05T14:35:14Z</time>
      </trkpt>
      <trkpt lat="43.8398" lon="6.76502">
        <ele>1198</ele>
        <time>2009-05-05T14:35:20Z</time>
      </trkpt>
      <trkpt lat="43.83982" lon="6.76508">
        <ele>1200</ele>
        <time>2009-05-05T14:35:23Z</time>
      </trkpt>
      <trkpt lat="43.83982" lon="6.76519">
        <ele>1202</ele>
        <time>2009-05-05T14:35:29Z</time>
      </trkpt>
      <trkpt lat="43.8398" lon="6.76529">
        <ele>1203</ele>
        <time>2009-05-05T14:35:35Z</time>
      </trkpt>
      <trkpt lat="43.83984" lon="6.76541">
        <ele>1211</ele>
        <time>2009-05-05T14:35:41Z</time>
      </trkpt>
      <trkpt lat="43.8399" lon="6.76546">
        <ele>1217</ele>
        <time>2009-05-05T14:35:44Z</time>
      </trkpt>
      <trkpt lat="43.83993" lon="6.76559">
        <ele>1217</ele>
        <time>2009-05-05T14:35:50Z</time>
      </trkpt>
      <trkpt lat="43.83991" lon="6.7657">
        <ele>1213</ele>
        <time>2009-05-05T14:35:56Z</time>
      </trkpt>
      <trkpt lat="43.83995" lon="6.76577">
        <ele>1214</ele>
        <time>2009-05-05T14:35:59Z</time>
      </trkpt>
      <trkpt lat="43.83995" lon="6.76586">
        <ele>1210</ele>
        <time>2009-05-05T14:36:02Z</time>
      </trkpt>
      <trkpt lat="43.83993" lon="6.76592">
        <ele>1208</ele>
        <time>2009-05-05T14:36:05Z</time>
      </trkpt>
      <trkpt lat="43.83992" lon="6.766">
        <ele>1206</ele>
        <time>2009-05-05T14:36:08Z</time>
      </trkpt>
      <trkpt lat="43.83999" lon="6.76605">
        <ele>1212</ele>
        <time>2009-05-05T14:36:11Z</time>
      </trkpt>
      <trkpt lat="43.84001" lon="6.76611">
        <ele>1212</ele>
        <time>2009-05-05T14:36:14Z</time>
      </trkpt>
      <trkpt lat="43.83998" lon="6.76619">
        <ele>1209</ele>
        <time>2009-05-05T14:36:17Z</time>
      </trkpt>
      <trkpt lat="43.83995" lon="6.76632">
        <ele>1205</ele>
        <time>2009-05-05T14:36:23Z</time>
      </trkpt>
      <trkpt lat="43.83991" lon="6.76641">
        <ele>1206</ele>
        <time>2009-05-05T14:36:29Z</time>
      </trkpt>
      <trkpt lat="43.83997" lon="6.76653">
        <ele>1206</ele>
        <time>2009-05-05T14:36:35Z</time>
      </trkpt>
      <trkpt lat="43.83998" lon="6.76667">
        <ele>1205</ele>
        <time>2009-05-05T14:36:41Z</time>
      </trkpt>
      <trkpt lat="43.83999" lon="6.76674">
        <ele>1205</ele>
        <time>2009-05-05T14:36:44Z</time>
      </trkpt>
      <trkpt lat="43.84005" lon="6.76686">
        <ele>1207</ele>
        <time>2009-05-05T14:36:50Z</time>
      </trkpt>
      <trkpt lat="43.84004" lon="6.76699">
        <ele>1207</ele>
        <time>2009-05-05T14:36:56Z</time>
      </trkpt>
      <trkpt lat="43.84005" lon="6.7671">
        <ele>1210</ele>
        <time>2009-05-05T14:37:02Z</time>
      </trkpt>
      <trkpt lat="43.84008" lon="6.76721">
        <ele>1218</ele>
        <time>2009-05-05T14:37:08Z</time>
      </trkpt>
      <trkpt lat="43.84012" lon="6.76728">
        <ele>1219</ele>
        <time>2009-05-05T14:37:11Z</time>
      </trkpt>
      <trkpt lat="43.84019" lon="6.76742">
        <ele>1221</ele>
        <time>2009-05-05T14:37:17Z</time>
      </trkpt>
      <trkpt lat="43.84024" lon="6.76754">
        <ele>1223</ele>
        <time>2009-05-05T14:37:23Z</time>
      </trkpt>
      <trkpt lat="43.84021" lon="6.76761">
        <ele>1223</ele>
        <time>2009-05-05T14:37:26Z</time>
      </trkpt>
      <trkpt lat="43.84024" lon="6.7677">
        <ele>1226</ele>
        <time>2009-05-05T14:37:32Z</time>
      </trkpt>
      <trkpt lat="43.84028" lon="6.7678">
        <ele>1226</ele>
        <time>2009-05-05T14:37:38Z</time>
      </trkpt>
      <trkpt lat="43.84032" lon="6.76793">
        <ele>1223</ele>
        <time>2009-05-05T14:37:44Z</time>
      </trkpt>
      <trkpt lat="43.84037" lon="6.76799">
        <ele>1224</ele>
        <time>2009-05-05T14:37:47Z</time>
      </trkpt>
      <trkpt lat="43.84042" lon="6.7681">
        <ele>1228</ele>
        <time>2009-05-05T14:37:53Z</time>
      </trkpt>
      <trkpt lat="43.84041" lon="6.76817">
        <ele>1225</ele>
        <time>2009-05-05T14:37:56Z</time>
      </trkpt>
      <trkpt lat="43.84045" lon="6.76828">
        <ele>1224</ele>
        <time>2009-05-05T14:38:02Z</time>
      </trkpt>
      <trkpt lat="43.84046" lon="6.76835">
        <ele>1223</ele>
        <time>2009-05-05T14:38:05Z</time>
      </trkpt>
      <trkpt lat="43.84052" lon="6.76848">
        <ele>1223</ele>
        <time>2009-05-05T14:38:11Z</time>
      </trkpt>
      <trkpt lat="43.84058" lon="6.76856">
        <ele>1227</ele>
        <time>2009-05-05T14:38:17Z</time>
      </trkpt>
      <trkpt lat="43.84059" lon="6.76865">
        <ele>1233</ele>
        <time>2009-05-05T14:38:23Z</time>
      </trkpt>
      <trkpt lat="43.84063" lon="6.76875">
        <ele>1233</ele>
        <time>2009-05-05T14:38:29Z</time>
      </trkpt>
      <trkpt lat="43.84066" lon="6.76889">
        <ele>1230</ele>
        <time>2009-05-05T14:38:35Z</time>
      </trkpt>
      <trkpt lat="43.84067" lon="6.76908">
        <ele>1219</ele>
        <time>2009-05-05T14:38:44Z</time>
      </trkpt>
      <trkpt lat="43.84067" lon="6.76922">
        <ele>1220</ele>
        <time>2009-05-05T14:38:50Z</time>
      </trkpt>
      <trkpt lat="43.84062" lon="6.76928">
        <ele>1214</ele>
        <time>2009-05-05T14:38:53Z</time>
      </trkpt>
      <trkpt lat="43.84065" lon="6.76937">
        <ele>1209</ele>
        <time>2009-05-05T14:38:56Z</time>
      </trkpt>
      <trkpt lat="43.84069" lon="6.76945">
        <ele>1213</ele>
        <time>2009-05-05T14:38:59Z</time>
      </trkpt>
      <trkpt lat="43.84079" lon="6.76959">
        <ele>1220</ele>
        <time>2009-05-05T14:39:05Z</time>
      </trkpt>
      <trkpt lat="43.84087" lon="6.76973">
        <ele>1226</ele>
        <time>2009-05-05T14:39:11Z</time>
      </trkpt>
      <trkpt lat="43.8409" lon="6.76979">
        <ele>1230</ele>
        <time>2009-05-05T14:39:14Z</time>
      </trkpt>
      <trkpt lat="43.84094" lon="6.76985">
        <ele>1234</ele>
        <time>2009-05-05T14:39:17Z</time>
      </trkpt>
      <trkpt lat="43.84098" lon="6.76993">
        <ele>1236</ele>
        <time>2009-05-05T14:39:20Z</time>
      </trkpt>
      <trkpt lat="43.84105" lon="6.77003">
        <ele>1241</ele>
        <time>2009-05-05T14:39:26Z</time>
      </trkpt>
      <trkpt lat="43.8411" lon="6.77008">
        <ele>1245</ele>
        <time>2009-05-05T14:39:29Z</time>
      </trkpt>
      <trkpt lat="43.84112" lon="6.77015">
        <ele>1245</ele>
        <time>2009-05-05T14:39:32Z</time>
      </trkpt>
      <trkpt lat="43.84117" lon="6.77024">
        <ele>1247</ele>
        <time>2009-05-05T14:39:35Z</time>
      </trkpt>
      <trkpt lat="43.84116" lon="6.7704">
        <ele>1244</ele>
        <time>2009-05-05T14:39:41Z</time>
      </trkpt>
      <trkpt lat="43.84117" lon="6.7705">
        <ele>1241</ele>
        <time>2009-05-05T14:39:44Z</time>
      </trkpt>
      <trkpt lat="43.84115" lon="6.77059">
        <ele>1239</ele>
        <time>2009-05-05T14:39:47Z</time>
      </trkpt>
      <trkpt lat="43.84119" lon="6.77065">
        <ele>1239</ele>
        <time>2009-05-05T14:39:50Z</time>
      </trkpt>
      <trkpt lat="43.84122" lon="6.77073">
        <ele>1237</ele>
        <time>2009-05-05T14:39:53Z</time>
      </trkpt>
      <trkpt lat="43.8413" lon="6.77083">
        <ele>1235</ele>
        <time>2009-05-05T14:39:56Z</time>
      </trkpt>
      <trkpt lat="43.84132" lon="6.77091">
        <ele>1233</ele>
        <time>2009-05-05T14:39:59Z</time>
      </trkpt>
      <trkpt lat="43.8413" lon="6.77099">
        <ele>1232</ele>
        <time>2009-05-05T14:40:04Z</time>
      </trkpt>
      <trkpt lat="43.84136" lon="6.77117">
        <ele>1233</ele>
        <time>2009-05-05T14:40:09Z</time>
      </trkpt>
      <trkpt lat="43.84136" lon="6.77127">
        <ele>1234</ele>
        <time>2009-05-05T14:40:14Z</time>
      </trkpt>
      <trkpt lat="43.84133" lon="6.77136">
        <ele>1232</ele>
        <time>2009-05-05T14:40:17Z</time>
      </trkpt>
      <trkpt lat="43.84135" lon="6.77143">
        <ele>1234</ele>
        <time>2009-05-05T14:40:23Z</time>
      </trkpt>
      <trkpt lat="43.84139" lon="6.77151">
        <ele>1237</ele>
        <time>2009-05-05T14:40:29Z</time>
      </trkpt>
      <trkpt lat="43.8414" lon="6.77158">
        <ele>1237</ele>
        <time>2009-05-05T14:40:32Z</time>
      </trkpt>
      <trkpt lat="43.84135" lon="6.7717">
        <ele>1236</ele>
        <time>2009-05-05T14:40:38Z</time>
      </trkpt>
      <trkpt lat="43.84121" lon="6.77167">
        <ele>1228</ele>
        <time>2009-05-05T14:40:44Z</time>
      </trkpt>
      <trkpt lat="43.84113" lon="6.77155">
        <ele>1225</ele>
        <time>2009-05-05T14:40:50Z</time>
      </trkpt>
      <trkpt lat="43.84107" lon="6.77145">
        <ele>1227</ele>
        <time>2009-05-05T14:40:56Z</time>
      </trkpt>
      <trkpt lat="43.84105" lon="6.77134">
        <ele>1232</ele>
        <time>2009-05-05T14:41:02Z</time>
      </trkpt>
      <trkpt lat="43.841" lon="6.77127">
        <ele>1240</ele>
        <time>2009-05-05T14:41:08Z</time>
      </trkpt>
      <trkpt lat="43.84094" lon="6.7712">
        <ele>1246</ele>
        <time>2009-05-05T14:41:14Z</time>
      </trkpt>
      <trkpt lat="43.8409" lon="6.77106">
        <ele>1246</ele>
        <time>2009-05-05T14:41:20Z</time>
      </trkpt>
      <trkpt lat="43.84084" lon="6.77103">
        <ele>1246</ele>
        <time>2009-05-05T14:41:23Z</time>
      </trkpt>
      <trkpt lat="43.84078" lon="6.77092">
        <ele>1249</ele>
        <time>2009-05-05T14:41:29Z</time>
      </trkpt>
      <trkpt lat="43.84069" lon="6.77085">
        <ele>1252</ele>
        <time>2009-05-05T14:41:35Z</time>
      </trkpt>
      <trkpt lat="43.84064" lon="6.77076">
        <ele>1255</ele>
        <time>2009-05-05T14:41:41Z</time>
      </trkpt>
      <trkpt lat="43.84055" lon="6.77069">
        <ele>1258</ele>
        <time>2009-05-05T14:41:47Z</time>
      </trkpt>
      <trkpt lat="43.8405" lon="6.77062">
        <ele>1258</ele>
        <time>2009-05-05T14:41:50Z</time>
      </trkpt>
      <trkpt lat="43.84045" lon="6.77052">
        <ele>1261</ele>
        <time>2009-05-05T14:41:56Z</time>
      </trkpt>
      <trkpt lat="43.84041" lon="6.77041">
        <ele>1262</ele>
        <time>2009-05-05T14:42:02Z</time>
      </trkpt>
      <trkpt lat="43.84036" lon="6.77036">
        <ele>1261</ele>
        <time>2009-05-05T14:42:05Z</time>
      </trkpt>
      <trkpt lat="43.84031" lon="6.7703">
        <ele>1259</ele>
        <time>2009-05-05T14:42:08Z</time>
      </trkpt>
      <trkpt lat="43.84023" lon="6.77023">
        <ele>1260</ele>
        <time>2009-05-05T14:42:14Z</time>
      </trkpt>
      <trkpt lat="43.84018" lon="6.77017">
        <ele>1259</ele>
        <time>2009-05-05T14:42:17Z</time>
      </trkpt>
      <trkpt lat="43.84014" lon="6.77006">
        <ele>1259</ele>
        <time>2009-05-05T14:42:23Z</time>
      </trkpt>
      <trkpt lat="43.84006" lon="6.76998">
        <ele>1261</ele>
        <time>2009-05-05T14:42:29Z</time>
      </trkpt>
      <trkpt lat="43.83998" lon="6.76987">
        <ele>1264</ele>
        <time>2009-05-05T14:42:35Z</time>
      </trkpt>
      <trkpt lat="43.83989" lon="6.76977">
        <ele>1265</ele>
        <time>2009-05-05T14:42:41Z</time>
      </trkpt>
      <trkpt lat="43.83981" lon="6.76968">
        <ele>1266</ele>
        <time>2009-05-05T14:42:47Z</time>
      </trkpt>
      <trkpt lat="43.83977" lon="6.76962">
        <ele>1263</ele>
        <time>2009-05-05T14:42:50Z</time>
      </trkpt>
      <trkpt lat="43.83971" lon="6.76956">
        <ele>1265</ele>
        <time>2009-05-05T14:42:56Z</time>
      </trkpt>
      <trkpt lat="43.83966" lon="6.76947">
        <ele>1265</ele>
        <time>2009-05-05T14:43:02Z</time>
      </trkpt>
      <trkpt lat="43.83963" lon="6.76938">
        <ele>1267</ele>
        <time>2009-05-05T14:43:08Z</time>
      </trkpt>
      <trkpt lat="43.83956" lon="6.76929">
        <ele>1267</ele>
        <time>2009-05-05T14:43:14Z</time>
      </trkpt>
      <trkpt lat="43.83951" lon="6.7692">
        <ele>1269</ele>
        <time>2009-05-05T14:43:20Z</time>
      </trkpt>
      <trkpt lat="43.83946" lon="6.76912">
        <ele>1270</ele>
        <time>2009-05-05T14:43:26Z</time>
      </trkpt>
      <trkpt lat="43.8394" lon="6.76909">
        <ele>1270</ele>
        <time>2009-05-05T14:43:32Z</time>
      </trkpt>
      <trkpt lat="43.83934" lon="6.76899">
        <ele>1268</ele>
        <time>2009-05-05T14:47:37Z</time>
      </trkpt>
      <trkpt lat="43.83933" lon="6.76907">
        <ele>1263</ele>
        <time>2009-05-05T14:47:58Z</time>
      </trkpt>
      <trkpt lat="43.83937" lon="6.76919">
        <ele>1254</ele>
        <time>2009-05-05T14:48:07Z</time>
      </trkpt>
      <trkpt lat="43.83939" lon="6.76929">
        <ele>1246</ele>
        <time>2009-05-05T14:48:13Z</time>
      </trkpt>
      <trkpt lat="43.83942" lon="6.76935">
        <ele>1242</ele>
        <time>2009-05-05T14:48:16Z</time>
      </trkpt>
      <trkpt lat="43.83947" lon="6.76942">
        <ele>1248</ele>
        <time>2009-05-05T14:48:22Z</time>
      </trkpt>
      <trkpt lat="43.83955" lon="6.76949">
        <ele>1256</ele>
        <time>2009-05-05T14:48:28Z</time>
      </trkpt>
      <trkpt lat="43.83957" lon="6.7696">
        <ele>1256</ele>
        <time>2009-05-05T14:48:34Z</time>
      </trkpt>
      <trkpt lat="43.83959" lon="6.76971">
        <ele>1260</ele>
        <time>2009-05-05T14:48:40Z</time>
      </trkpt>
      <trkpt lat="43.83963" lon="6.76981">
        <ele>1262</ele>
        <time>2009-05-05T14:48:46Z</time>
      </trkpt>
      <trkpt lat="43.83965" lon="6.76994">
        <ele>1264</ele>
        <time>2009-05-05T14:48:52Z</time>
      </trkpt>
      <trkpt lat="43.83971" lon="6.77005">
        <ele>1266</ele>
        <time>2009-05-05T14:48:58Z</time>
      </trkpt>
      <trkpt lat="43.83972" lon="6.77014">
        <ele>1262</ele>
        <time>2009-05-05T14:49:01Z</time>
      </trkpt>
      <trkpt lat="43.83975" lon="6.77022">
        <ele>1260</ele>
        <time>2009-05-05T14:49:04Z</time>
      </trkpt>
      <trkpt lat="43.83978" lon="6.7703">
        <ele>1261</ele>
        <time>2009-05-05T14:49:07Z</time>
      </trkpt>
      <trkpt lat="43.83986" lon="6.77042">
        <ele>1266</ele>
        <time>2009-05-05T14:49:13Z</time>
      </trkpt>
      <trkpt lat="43.83989" lon="6.7705">
        <ele>1266</ele>
        <time>2009-05-05T14:49:16Z</time>
      </trkpt>
      <trkpt lat="43.83991" lon="6.77058">
        <ele>1267</ele>
        <time>2009-05-05T14:49:19Z</time>
      </trkpt>
      <trkpt lat="43.83995" lon="6.77064">
        <ele>1268</ele>
        <time>2009-05-05T14:49:22Z</time>
      </trkpt>
      <trkpt lat="43.84" lon="6.77069">
        <ele>1270</ele>
        <time>2009-05-05T14:49:25Z</time>
      </trkpt>
      <trkpt lat="43.84004" lon="6.77077">
        <ele>1269</ele>
        <time>2009-05-05T14:49:28Z</time>
      </trkpt>
      <trkpt lat="43.84006" lon="6.77085">
        <ele>1270</ele>
        <time>2009-05-05T14:49:31Z</time>
      </trkpt>
      <trkpt lat="43.8401" lon="6.77092">
        <ele>1269</ele>
        <time>2009-05-05T14:49:34Z</time>
      </trkpt>
      <trkpt lat="43.84013" lon="6.77101">
        <ele>1267</ele>
        <time>2009-05-05T14:49:37Z</time>
      </trkpt>
      <trkpt lat="43.84015" lon="6.77108">
        <ele>1265</ele>
        <time>2009-05-05T14:49:40Z</time>
      </trkpt>
      <trkpt lat="43.84021" lon="6.77115">
        <ele>1267</ele>
        <time>2009-05-05T14:49:43Z</time>
      </trkpt>
      <trkpt lat="43.84027" lon="6.77119">
        <ele>1268</ele>
        <time>2009-05-05T14:49:46Z</time>
      </trkpt>
      <trkpt lat="43.84033" lon="6.77128">
        <ele>1268</ele>
        <time>2009-05-05T14:49:49Z</time>
      </trkpt>
      <trkpt lat="43.84039" lon="6.77138">
        <ele>1267</ele>
        <time>2009-05-05T14:49:52Z</time>
      </trkpt>
      <trkpt lat="43.84044" lon="6.77149">
        <ele>1264</ele>
        <time>2009-05-05T14:49:56Z</time>
      </trkpt>
      <trkpt lat="43.84049" lon="6.77159">
        <ele>1263</ele>
        <time>2009-05-05T14:49:58Z</time>
      </trkpt>
      <trkpt lat="43.84052" lon="6.7717">
        <ele>1261</ele>
        <time>2009-05-05T14:50:01Z</time>
      </trkpt>
      <trkpt lat="43.84055" lon="6.7718">
        <ele>1260</ele>
        <time>2009-05-05T14:50:06Z</time>
      </trkpt>
      <trkpt lat="43.84062" lon="6.77194">
        <ele>1263</ele>
        <time>2009-05-05T14:50:08Z</time>
      </trkpt>
      <trkpt lat="43.84065" lon="6.772">
        <ele>1264</ele>
        <time>2009-05-05T14:50:10Z</time>
      </trkpt>
      <trkpt lat="43.8407" lon="6.7721">
        <ele>1267</ele>
        <time>2009-05-05T14:50:13Z</time>
      </trkpt>
      <trkpt lat="43.84077" lon="6.77221">
        <ele>1271</ele>
        <time>2009-05-05T14:50:16Z</time>
      </trkpt>
      <trkpt lat="43.84082" lon="6.77233">
        <ele>1272</ele>
        <time>2009-05-05T14:50:19Z</time>
      </trkpt>
      <trkpt lat="43.84091" lon="6.77247">
        <ele>1273</ele>
        <time>2009-05-05T14:50:22Z</time>
      </trkpt>
      <trkpt lat="43.84097" lon="6.77262">
        <ele>1272</ele>
        <time>2009-05-05T14:50:25Z</time>
      </trkpt>
      <trkpt lat="43.84103" lon="6.77278">
        <ele>1270</ele>
        <time>2009-05-05T14:50:28Z</time>
      </trkpt>
      <trkpt lat="43.84109" lon="6.77296">
        <ele>1270</ele>
        <time>2009-05-05T14:50:31Z</time>
      </trkpt>
      <trkpt lat="43.84114" lon="6.77312">
        <ele>1267</ele>
        <time>2009-05-05T14:50:34Z</time>
      </trkpt>
      <trkpt lat="43.84118" lon="6.77324">
        <ele>1267</ele>
        <time>2009-05-05T14:50:37Z</time>
      </trkpt>
      <trkpt lat="43.84118" lon="6.77334">
        <ele>1264</ele>
        <time>2009-05-05T14:50:40Z</time>
      </trkpt>
      <trkpt lat="43.8412" lon="6.77341">
        <ele>1263</ele>
        <time>2009-05-05T14:50:43Z</time>
      </trkpt>
      <trkpt lat="43.84125" lon="6.77352">
        <ele>1267</ele>
        <time>2009-05-05T14:52:47Z</time>
      </trkpt>
      <trkpt lat="43.84132" lon="6.77352">
        <ele>1269</ele>
        <time>2009-05-05T14:52:50Z</time>
      </trkpt>
      <trkpt lat="43.84141" lon="6.77354">
        <ele>1273</ele>
        <time>2009-05-05T14:52:53Z</time>
      </trkpt>
      <trkpt lat="43.84149" lon="6.77359">
        <ele>1274</ele>
        <time>2009-05-05T14:52:56Z</time>
      </trkpt>
      <trkpt lat="43.84157" lon="6.77365">
        <ele>1274</ele>
        <time>2009-05-05T14:52:59Z</time>
      </trkpt>
      <trkpt lat="43.84164" lon="6.77368">
        <ele>1278</ele>
        <time>2009-05-05T14:53:02Z</time>
      </trkpt>
      <trkpt lat="43.84172" lon="6.77375">
        <ele>1279</ele>
        <time>2009-05-05T14:53:05Z</time>
      </trkpt>
      <trkpt lat="43.84181" lon="6.77384">
        <ele>1279</ele>
        <time>2009-05-05T14:53:08Z</time>
      </trkpt>
      <trkpt lat="43.8419" lon="6.77392">
        <ele>1277</ele>
        <time>2009-05-05T14:53:11Z</time>
      </trkpt>
      <trkpt lat="43.84197" lon="6.77395">
        <ele>1269</ele>
        <time>2009-05-05T14:53:23Z</time>
      </trkpt>
      <trkpt lat="43.84204" lon="6.77394">
        <ele>1266</ele>
        <time>2009-05-05T14:53:53Z</time>
      </trkpt>
      <trkpt lat="43.84211" lon="6.77391">
        <ele>1268</ele>
        <time>2009-05-05T14:54:17Z</time>
      </trkpt>
      <trkpt lat="43.84206" lon="6.77387">
        <ele>1282</ele>
        <time>2009-05-05T14:55:25Z</time>
      </trkpt>
      <trkpt lat="43.84216" lon="6.77386">
        <ele>1278</ele>
        <time>2009-05-05T14:55:37Z</time>
      </trkpt>
      <trkpt lat="43.84226" lon="6.77387">
        <ele>1276</ele>
        <time>2009-05-05T14:55:48Z</time>
      </trkpt>
      <trkpt lat="43.84236" lon="6.7739">
        <ele>1280</ele>
        <time>2009-05-05T14:55:57Z</time>
      </trkpt>
      <trkpt lat="43.84246" lon="6.77393">
        <ele>1281</ele>
        <time>2009-05-05T14:56:06Z</time>
      </trkpt>
      <trkpt lat="43.84254" lon="6.77396">
        <ele>1280</ele>
        <time>2009-05-05T14:56:15Z</time>
      </trkpt>
      <trkpt lat="43.84261" lon="6.77397">
        <ele>1284</ele>
        <time>2009-05-05T14:56:21Z</time>
      </trkpt>
      <trkpt lat="43.8427" lon="6.77399">
        <ele>1281</ele>
        <time>2009-05-05T14:56:27Z</time>
      </trkpt>
      <trkpt lat="43.84277" lon="6.77401">
        <ele>1282</ele>
        <time>2009-05-05T14:56:30Z</time>
      </trkpt>
      <trkpt lat="43.84284" lon="6.77403">
        <ele>1284</ele>
        <time>2009-05-05T14:56:33Z</time>
      </trkpt>
      <trkpt lat="43.84294" lon="6.77408">
        <ele>1283</ele>
        <time>2009-05-05T14:56:39Z</time>
      </trkpt>
      <trkpt lat="43.84306" lon="6.77412">
        <ele>1284</ele>
        <time>2009-05-05T14:56:45Z</time>
      </trkpt>
      <trkpt lat="43.84313" lon="6.77412">
        <ele>1286</ele>
        <time>2009-05-05T14:56:51Z</time>
      </trkpt>
      <trkpt lat="43.84321" lon="6.77416">
        <ele>1287</ele>
        <time>2009-05-05T14:57:03Z</time>
      </trkpt>
      <trkpt lat="43.84327" lon="6.77419">
        <ele>1289</ele>
        <time>2009-05-05T14:57:09Z</time>
      </trkpt>
      <trkpt lat="43.84333" lon="6.77425">
        <ele>1287</ele>
        <time>2009-05-05T14:57:15Z</time>
      </trkpt>
      <trkpt lat="43.84338" lon="6.77431">
        <ele>1289</ele>
        <time>2009-05-05T14:57:21Z</time>
      </trkpt>
      <trkpt lat="43.84343" lon="6.77438">
        <ele>1290</ele>
        <time>2009-05-05T14:57:27Z</time>
      </trkpt>
      <trkpt lat="43.84346" lon="6.77445">
        <ele>1289</ele>
        <time>2009-05-05T14:57:33Z</time>
      </trkpt>
      <trkpt lat="43.84351" lon="6.77452">
        <ele>1291</ele>
        <time>2009-05-05T14:57:42Z</time>
      </trkpt>
      <trkpt lat="43.84355" lon="6.77461">
        <ele>1291</ele>
        <time>2009-05-05T14:57:48Z</time>
      </trkpt>
      <trkpt lat="43.84359" lon="6.77467">
        <ele>1295</ele>
        <time>2009-05-05T14:57:54Z</time>
      </trkpt>
      <trkpt lat="43.84361" lon="6.77476">
        <ele>1297</ele>
        <time>2009-05-05T14:58:00Z</time>
      </trkpt>
      <trkpt lat="43.84363" lon="6.77486">
        <ele>1297</ele>
        <time>2009-05-05T14:58:06Z</time>
      </trkpt>
      <trkpt lat="43.84368" lon="6.77492">
        <ele>1296</ele>
        <time>2009-05-05T14:58:12Z</time>
      </trkpt>
      <trkpt lat="43.84373" lon="6.775">
        <ele>1294</ele>
        <time>2009-05-05T14:58:18Z</time>
      </trkpt>
      <trkpt lat="43.84383" lon="6.77516">
        <ele>1305</ele>
        <time>2009-05-05T15:06:20Z</time>
      </trkpt>
      <trkpt lat="43.84377" lon="6.77512">
        <ele>1289</ele>
        <time>2009-05-05T15:10:47Z</time>
      </trkpt>
      <trkpt lat="43.84379" lon="6.77519">
        <ele>1290</ele>
        <time>2009-05-05T15:10:59Z</time>
      </trkpt>
      <trkpt lat="43.84381" lon="6.77526">
        <ele>1290</ele>
        <time>2009-05-05T15:11:02Z</time>
      </trkpt>
      <trkpt lat="43.84389" lon="6.77536">
        <ele>1287</ele>
        <time>2009-05-05T15:11:08Z</time>
      </trkpt>
      <trkpt lat="43.84391" lon="6.77545">
        <ele>1288</ele>
        <time>2009-05-05T15:11:14Z</time>
      </trkpt>
      <trkpt lat="43.84397" lon="6.77552">
        <ele>1289</ele>
        <time>2009-05-05T15:11:20Z</time>
      </trkpt>
      <trkpt lat="43.84396" lon="6.77563">
        <ele>1285</ele>
        <time>2009-05-05T15:11:26Z</time>
      </trkpt>
      <trkpt lat="43.84403" lon="6.77571">
        <ele>1290</ele>
        <time>2009-05-05T15:11:44Z</time>
      </trkpt>
      <trkpt lat="43.84406" lon="6.77577">
        <ele>1290</ele>
        <time>2009-05-05T15:11:47Z</time>
      </trkpt>
      <trkpt lat="43.8441" lon="6.77587">
        <ele>1287</ele>
        <time>2009-05-05T15:11:53Z</time>
      </trkpt>
      <trkpt lat="43.84413" lon="6.77594">
        <ele>1286</ele>
        <time>2009-05-05T15:11:56Z</time>
      </trkpt>
      <trkpt lat="43.84418" lon="6.77602">
        <ele>1282</ele>
        <time>2009-05-05T15:12:02Z</time>
      </trkpt>
      <trkpt lat="43.8442" lon="6.7761">
        <ele>1284</ele>
        <time>2009-05-05T15:12:05Z</time>
      </trkpt>
      <trkpt lat="43.84423" lon="6.77622">
        <ele>1285</ele>
        <time>2009-05-05T15:12:11Z</time>
      </trkpt>
      <trkpt lat="43.84428" lon="6.77628">
        <ele>1288</ele>
        <time>2009-05-05T15:12:14Z</time>
      </trkpt>
      <trkpt lat="43.84435" lon="6.77633">
        <ele>1290</ele>
        <time>2009-05-05T15:12:20Z</time>
      </trkpt>
      <trkpt lat="43.84438" lon="6.77639">
        <ele>1286</ele>
        <time>2009-05-05T15:12:23Z</time>
      </trkpt>
      <trkpt lat="43.84442" lon="6.77648">
        <ele>1286</ele>
        <time>2009-05-05T15:12:26Z</time>
      </trkpt>
      <trkpt lat="43.84449" lon="6.77662">
        <ele>1286</ele>
        <time>2009-05-05T15:12:29Z</time>
      </trkpt>
      <trkpt lat="43.84456" lon="6.77674">
        <ele>1283</ele>
        <time>2009-05-05T15:12:32Z</time>
      </trkpt>
      <trkpt lat="43.84458" lon="6.77682">
        <ele>1279</ele>
        <time>2009-05-05T15:12:35Z</time>
      </trkpt>
      <trkpt lat="43.84462" lon="6.77692">
        <ele>1275</ele>
        <time>2009-05-05T15:12:38Z</time>
      </trkpt>
      <trkpt lat="43.84466" lon="6.77705">
        <ele>1274</ele>
        <time>2009-05-05T15:12:41Z</time>
      </trkpt>
      <trkpt lat="43.84473" lon="6.77719">
        <ele>1271</ele>
        <time>2009-05-05T15:12:44Z</time>
      </trkpt>
      <trkpt lat="43.84482" lon="6.77725">
        <ele>1271</ele>
        <time>2009-05-05T15:12:47Z</time>
      </trkpt>
      <trkpt lat="43.84487" lon="6.7773">
        <ele>1270</ele>
        <time>2009-05-05T15:12:50Z</time>
      </trkpt>
      <trkpt lat="43.84495" lon="6.77731">
        <ele>1271</ele>
        <time>2009-05-05T15:12:53Z</time>
      </trkpt>
      <trkpt lat="43.84505" lon="6.77733">
        <ele>1271</ele>
        <time>2009-05-05T15:12:56Z</time>
      </trkpt>
      <trkpt lat="43.84512" lon="6.77732">
        <ele>1273</ele>
        <time>2009-05-05T15:12:59Z</time>
      </trkpt>
      <trkpt lat="43.8452" lon="6.77734">
        <ele>1273</ele>
        <time>2009-05-05T15:13:02Z</time>
      </trkpt>
      <trkpt lat="43.84531" lon="6.77743">
        <ele>1271</ele>
        <time>2009-05-05T15:13:05Z</time>
      </trkpt>
      <trkpt lat="43.84538" lon="6.77753">
        <ele>1269</ele>
        <time>2009-05-05T15:13:08Z</time>
      </trkpt>
      <trkpt lat="43.84535" lon="6.77762">
        <ele>1266</ele>
        <time>2009-05-05T15:13:11Z</time>
      </trkpt>
      <trkpt lat="43.84528" lon="6.77768">
        <ele>1264</ele>
        <time>2009-05-05T15:13:14Z</time>
      </trkpt>
      <trkpt lat="43.84518" lon="6.77773">
        <ele>1258</ele>
        <time>2009-05-05T15:13:17Z</time>
      </trkpt>
      <trkpt lat="43.84507" lon="6.77774">
        <ele>1257</ele>
        <time>2009-05-05T15:13:20Z</time>
      </trkpt>
      <trkpt lat="43.84497" lon="6.77778">
        <ele>1256</ele>
        <time>2009-05-05T15:13:23Z</time>
      </trkpt>
      <trkpt lat="43.84503" lon="6.77781">
        <ele>1255</ele>
        <time>2009-05-05T15:13:32Z</time>
      </trkpt>
      <trkpt lat="43.84504" lon="6.77795">
        <ele>1244</ele>
        <time>2009-05-05T15:17:02Z</time>
      </trkpt>
      <trkpt lat="43.84506" lon="6.77808">
        <ele>1244</ele>
        <time>2009-05-05T15:17:05Z</time>
      </trkpt>
      <trkpt lat="43.84511" lon="6.77821">
        <ele>1244</ele>
        <time>2009-05-05T15:17:08Z</time>
      </trkpt>
      <trkpt lat="43.84514" lon="6.77837">
        <ele>1244</ele>
        <time>2009-05-05T15:17:11Z</time>
      </trkpt>
      <trkpt lat="43.84519" lon="6.77855">
        <ele>1238</ele>
        <time>2009-05-05T15:17:14Z</time>
      </trkpt>
      <trkpt lat="43.84522" lon="6.77877">
        <ele>1238</ele>
        <time>2009-05-05T15:17:17Z</time>
      </trkpt>
      <trkpt lat="43.8453" lon="6.77897">
        <ele>1236</ele>
        <time>2009-05-05T15:17:20Z</time>
      </trkpt>
      <trkpt lat="43.84537" lon="6.77918">
        <ele>1234</ele>
        <time>2009-05-05T15:17:23Z</time>
      </trkpt>
      <trkpt lat="43.84545" lon="6.77941">
        <ele>1230</ele>
        <time>2009-05-05T15:17:26Z</time>
      </trkpt>
      <trkpt lat="43.84555" lon="6.77961">
        <ele>1231</ele>
        <time>2009-05-05T15:17:29Z</time>
      </trkpt>
      <trkpt lat="43.84569" lon="6.77983">
        <ele>1229</ele>
        <time>2009-05-05T15:17:32Z</time>
      </trkpt>
      <trkpt lat="43.84582" lon="6.78003">
        <ele>1230</ele>
        <time>2009-05-05T15:17:35Z</time>
      </trkpt>
      <trkpt lat="43.84594" lon="6.78024">
        <ele>1229</ele>
        <time>2009-05-05T15:17:38Z</time>
      </trkpt>
      <trkpt lat="43.84606" lon="6.7804">
        <ele>1230</ele>
        <time>2009-05-05T15:17:41Z</time>
      </trkpt>
      <trkpt lat="43.84618" lon="6.78054">
        <ele>1231</ele>
        <time>2009-05-05T15:17:44Z</time>
      </trkpt>
      <trkpt lat="43.8463" lon="6.78061">
        <ele>1234</ele>
        <time>2009-05-05T15:17:47Z</time>
      </trkpt>
      <trkpt lat="43.84643" lon="6.78067">
        <ele>1237</ele>
        <time>2009-05-05T15:17:50Z</time>
      </trkpt>
      <trkpt lat="43.84653" lon="6.78069">
        <ele>1242</ele>
        <time>2009-05-05T15:17:53Z</time>
      </trkpt>
      <trkpt lat="43.84661" lon="6.78071">
        <ele>1244</ele>
        <time>2009-05-05T15:17:56Z</time>
      </trkpt>
      <trkpt lat="43.84674" lon="6.78069">
        <ele>1252</ele>
        <time>2009-05-05T15:18:02Z</time>
      </trkpt>
      <trkpt lat="43.84683" lon="6.78073">
        <ele>1255</ele>
        <time>2009-05-05T15:18:05Z</time>
      </trkpt>
      <trkpt lat="43.84693" lon="6.78082">
        <ele>1256</ele>
        <time>2009-05-05T15:18:08Z</time>
      </trkpt>
      <trkpt lat="43.847" lon="6.78088">
        <ele>1256</ele>
        <time>2009-05-05T15:18:11Z</time>
      </trkpt>
      <trkpt lat="43.84708" lon="6.78093">
        <ele>1257</ele>
        <time>2009-05-05T15:18:14Z</time>
      </trkpt>
      <trkpt lat="43.84717" lon="6.78101">
        <ele>1257</ele>
        <time>2009-05-05T15:18:17Z</time>
      </trkpt>
      <trkpt lat="43.84727" lon="6.78106">
        <ele>1259</ele>
        <time>2009-05-05T15:18:20Z</time>
      </trkpt>
      <trkpt lat="43.84735" lon="6.78116">
        <ele>1258</ele>
        <time>2009-05-05T15:18:23Z</time>
      </trkpt>
      <trkpt lat="43.84744" lon="6.78131">
        <ele>1255</ele>
        <time>2009-05-05T15:18:26Z</time>
      </trkpt>
      <trkpt lat="43.84752" lon="6.78142">
        <ele>1255</ele>
        <time>2009-05-05T15:18:29Z</time>
      </trkpt>
      <trkpt lat="43.84766" lon="6.7815">
        <ele>1254</ele>
        <time>2009-05-05T15:18:32Z</time>
      </trkpt>
      <trkpt lat="43.84785" lon="6.7815">
        <ele>1252</ele>
        <time>2009-05-05T15:18:35Z</time>
      </trkpt>
      <trkpt lat="43.84805" lon="6.78156">
        <ele>1245</ele>
        <time>2009-05-05T15:18:38Z</time>
      </trkpt>
      <trkpt lat="43.84818" lon="6.78177">
        <ele>1241</ele>
        <time>2009-05-05T15:18:41Z</time>
      </trkpt>
      <trkpt lat="43.84832" lon="6.78203">
        <ele>1235</ele>
        <time>2009-05-05T15:18:44Z</time>
      </trkpt>
      <trkpt lat="43.84847" lon="6.78226">
        <ele>1231</ele>
        <time>2009-05-05T15:18:47Z</time>
      </trkpt>
      <trkpt lat="43.84859" lon="6.78252">
        <ele>1225</ele>
        <time>2009-05-05T15:18:50Z</time>
      </trkpt>
      <trkpt lat="43.84867" lon="6.78286">
        <ele>1219</ele>
        <time>2009-05-05T15:18:53Z</time>
      </trkpt>
      <trkpt lat="43.84873" lon="6.78324">
        <ele>1213</ele>
        <time>2009-05-05T15:18:56Z</time>
      </trkpt>
      <trkpt lat="43.84883" lon="6.7836">
        <ele>1209</ele>
        <time>2009-05-05T15:18:59Z</time>
      </trkpt>
      <trkpt lat="43.84894" lon="6.78399">
        <ele>1204</ele>
        <time>2009-05-05T15:19:02Z</time>
      </trkpt>
      <trkpt lat="43.84907" lon="6.78436">
        <ele>1202</ele>
        <time>2009-05-05T15:19:05Z</time>
      </trkpt>
      <trkpt lat="43.84919" lon="6.78469">
        <ele>1197</ele>
        <time>2009-05-05T15:19:08Z</time>
      </trkpt>
      <trkpt lat="43.84934" lon="6.78497">
        <ele>1196</ele>
        <time>2009-05-05T15:19:11Z</time>
      </trkpt>
      <trkpt lat="43.84949" lon="6.78518">
        <ele>1196</ele>
        <time>2009-05-05T15:19:14Z</time>
      </trkpt>
      <trkpt lat="43.84963" lon="6.78545">
        <ele>1193</ele>
        <time>2009-05-05T15:19:17Z</time>
      </trkpt>
      <trkpt lat="43.84976" lon="6.78574">
        <ele>1191</ele>
        <time>2009-05-05T15:19:20Z</time>
      </trkpt>
      <trkpt lat="43.84986" lon="6.78585">
        <ele>1192</ele>
        <time>2009-05-05T15:19:23Z</time>
      </trkpt>
      <trkpt lat="43.84986" lon="6.78575">
        <ele>1198</ele>
        <time>2009-05-05T15:19:29Z</time>
      </trkpt>
      <trkpt lat="43.84983" lon="6.78566">
        <ele>1207</ele>
        <time>2009-05-05T15:19:35Z</time>
      </trkpt>
      <trkpt lat="43.84985" lon="6.78559">
        <ele>1213</ele>
        <time>2009-05-05T15:20:02Z</time>
      </trkpt>
      <trkpt lat="43.8499" lon="6.78566">
        <ele>1211</ele>
        <time>2009-05-05T15:20:08Z</time>
      </trkpt>
      <trkpt lat="43.84991" lon="6.78574">
        <ele>1225</ele>
        <time>2009-05-05T15:22:12Z</time>
      </trkpt>
      <trkpt lat="43.84998" lon="6.78571">
        <ele>1218</ele>
        <time>2009-05-05T15:22:24Z</time>
      </trkpt>
      <trkpt lat="43.85008" lon="6.78568">
        <ele>1211</ele>
        <time>2009-05-05T15:22:42Z</time>
      </trkpt>
      <trkpt lat="43.85017" lon="6.78563">
        <ele>1212</ele>
        <time>2009-05-05T15:22:45Z</time>
      </trkpt>
      <trkpt lat="43.85027" lon="6.78557">
        <ele>1213</ele>
        <time>2009-05-05T15:22:48Z</time>
      </trkpt>
      <trkpt lat="43.85036" lon="6.78554">
        <ele>1213</ele>
        <time>2009-05-05T15:22:51Z</time>
      </trkpt>
      <trkpt lat="43.85045" lon="6.78546">
        <ele>1212</ele>
        <time>2009-05-05T15:22:54Z</time>
      </trkpt>
      <trkpt lat="43.85056" lon="6.78538">
        <ele>1212</ele>
        <time>2009-05-05T15:22:57Z</time>
      </trkpt>
      <trkpt lat="43.85064" lon="6.78529">
        <ele>1210</ele>
        <time>2009-05-05T15:23:00Z</time>
      </trkpt>
      <trkpt lat="43.85071" lon="6.78519">
        <ele>1209</ele>
        <time>2009-05-05T15:23:03Z</time>
      </trkpt>
      <trkpt lat="43.85079" lon="6.78512">
        <ele>1209</ele>
        <time>2009-05-05T15:23:06Z</time>
      </trkpt>
      <trkpt lat="43.85089" lon="6.78509">
        <ele>1210</ele>
        <time>2009-05-05T15:23:12Z</time>
      </trkpt>
      <trkpt lat="43.85095" lon="6.78514">
        <ele>1205</ele>
        <time>2009-05-05T15:23:30Z</time>
      </trkpt>
      <trkpt lat="43.85097" lon="6.78528">
        <ele>1205</ele>
        <time>2009-05-05T15:23:51Z</time>
      </trkpt>
      <trkpt lat="43.85101" lon="6.78536">
        <ele>1205</ele>
        <time>2009-05-05T15:23:54Z</time>
      </trkpt>
      <trkpt lat="43.85107" lon="6.78543">
        <ele>1205</ele>
        <time>2009-05-05T15:23:57Z</time>
      </trkpt>
      <trkpt lat="43.85117" lon="6.78553">
        <ele>1205</ele>
        <time>2009-05-05T15:24:00Z</time>
      </trkpt>
      <trkpt lat="43.85122" lon="6.78564">
        <ele>1200</ele>
        <time>2009-05-05T15:24:03Z</time>
      </trkpt>
      <trkpt lat="43.85119" lon="6.78586">
        <ele>1197</ele>
        <time>2009-05-05T15:24:06Z</time>
      </trkpt>
      <trkpt lat="43.8512" lon="6.78596">
        <ele>1197</ele>
        <time>2009-05-05T15:24:09Z</time>
      </trkpt>
      <trkpt lat="43.85123" lon="6.7861">
        <ele>1194</ele>
        <time>2009-05-05T15:24:12Z</time>
      </trkpt>
      <trkpt lat="43.85127" lon="6.7862">
        <ele>1194</ele>
        <time>2009-05-05T15:24:15Z</time>
      </trkpt>
      <trkpt lat="43.85129" lon="6.78627">
        <ele>1194</ele>
        <time>2009-05-05T15:24:18Z</time>
      </trkpt>
      <trkpt lat="43.85129" lon="6.78632">
        <ele>1193</ele>
        <time>2009-05-05T15:24:21Z</time>
      </trkpt>
      <trkpt lat="43.85129" lon="6.78637">
        <ele>1193</ele>
        <time>2009-05-05T15:24:27Z</time>
      </trkpt>
      <trkpt lat="43.85131" lon="6.7864">
        <ele>1192</ele>
        <time>2009-05-05T15:24:36Z</time>
      </trkpt>
      <trkpt lat="43.85133" lon="6.78646">
        <ele>1193</ele>
        <time>2009-05-05T15:24:39Z</time>
      </trkpt>
      <trkpt lat="43.85136" lon="6.78651">
        <ele>1192</ele>
        <time>2009-05-05T15:24:42Z</time>
      </trkpt>
      <trkpt lat="43.8514" lon="6.78653">
        <ele>1191</ele>
        <time>2009-05-05T15:24:45Z</time>
      </trkpt>
      <trkpt lat="43.85136" lon="6.78646">
        <ele>1189</ele>
        <time>2009-05-05T15:24:51Z</time>
      </trkpt>
      <trkpt lat="43.85137" lon="6.78642">
        <ele>1188</ele>
        <time>2009-05-05T15:24:54Z</time>
      </trkpt>
      <trkpt lat="43.8514" lon="6.78647">
        <ele>1186</ele>
        <time>2009-05-05T15:24:57Z</time>
      </trkpt>
      <trkpt lat="43.85145" lon="6.78655">
        <ele>1183</ele>
        <time>2009-05-05T15:25:00Z</time>
      </trkpt>
      <trkpt lat="43.85151" lon="6.78663">
        <ele>1180</ele>
        <time>2009-05-05T15:25:03Z</time>
      </trkpt>
      <trkpt lat="43.85156" lon="6.78672">
        <ele>1178</ele>
        <time>2009-05-05T15:25:06Z</time>
      </trkpt>
      <trkpt lat="43.85161" lon="6.78684">
        <ele>1177</ele>
        <time>2009-05-05T15:25:09Z</time>
      </trkpt>
      <trkpt lat="43.85167" lon="6.78695">
        <ele>1177</ele>
        <time>2009-05-05T15:25:12Z</time>
      </trkpt>
      <trkpt lat="43.85171" lon="6.78709">
        <ele>1178</ele>
        <time>2009-05-05T15:25:15Z</time>
      </trkpt>
      <trkpt lat="43.85175" lon="6.78717">
        <ele>1175</ele>
        <time>2009-05-05T15:25:18Z</time>
      </trkpt>
      <trkpt lat="43.85178" lon="6.78721">
        <ele>1173</ele>
        <time>2009-05-05T15:25:21Z</time>
      </trkpt>
      <trkpt lat="43.8518" lon="6.78728">
        <ele>1170</ele>
        <time>2009-05-05T15:25:24Z</time>
      </trkpt>
      <trkpt lat="43.85181" lon="6.78733">
        <ele>1168</ele>
        <time>2009-05-05T15:25:27Z</time>
      </trkpt>
      <trkpt lat="43.8518" lon="6.78737">
        <ele>1164</ele>
        <time>2009-05-05T15:25:36Z</time>
      </trkpt>
      <trkpt lat="43.85179" lon="6.78741">
        <ele>1160</ele>
        <time>2009-05-05T15:25:51Z</time>
      </trkpt>
      <trkpt lat="43.85175" lon="6.78731">
        <ele>1159</ele>
        <time>2009-05-05T15:26:04Z</time>
      </trkpt>
      <trkpt lat="43.85179" lon="6.78714">
        <ele>1160</ele>
        <time>2009-05-05T15:26:06Z</time>
      </trkpt>
      <trkpt lat="43.85182" lon="6.78695">
        <ele>1159</ele>
        <time>2009-05-05T15:26:09Z</time>
      </trkpt>
      <trkpt lat="43.85184" lon="6.78677">
        <ele>1157</ele>
        <time>2009-05-05T15:26:12Z</time>
      </trkpt>
      <trkpt lat="43.85186" lon="6.78661">
        <ele>1152</ele>
        <time>2009-05-05T15:26:15Z</time>
      </trkpt>
      <trkpt lat="43.85183" lon="6.78647">
        <ele>1149</ele>
        <time>2009-05-05T15:26:18Z</time>
      </trkpt>
      <trkpt lat="43.85179" lon="6.78635">
        <ele>1148</ele>
        <time>2009-05-05T15:26:21Z</time>
      </trkpt>
      <trkpt lat="43.85177" lon="6.78622">
        <ele>1147</ele>
        <time>2009-05-05T15:26:24Z</time>
      </trkpt>
      <trkpt lat="43.85175" lon="6.78611">
        <ele>1145</ele>
        <time>2009-05-05T15:26:27Z</time>
      </trkpt>
      <trkpt lat="43.85176" lon="6.786">
        <ele>1145</ele>
        <time>2009-05-05T15:26:30Z</time>
      </trkpt>
      <trkpt lat="43.85178" lon="6.7859">
        <ele>1141</ele>
        <time>2009-05-05T15:26:33Z</time>
      </trkpt>
      <trkpt lat="43.85181" lon="6.78582">
        <ele>1141</ele>
        <time>2009-05-05T15:26:36Z</time>
      </trkpt>
      <trkpt lat="43.85184" lon="6.786">
        <ele>1138</ele>
        <time>2009-05-05T15:26:42Z</time>
      </trkpt>
      <trkpt lat="43.85187" lon="6.78612">
        <ele>1138</ele>
        <time>2009-05-05T15:26:45Z</time>
      </trkpt>
      <trkpt lat="43.85194" lon="6.78618">
        <ele>1137</ele>
        <time>2009-05-05T15:26:48Z</time>
      </trkpt>
      <trkpt lat="43.852" lon="6.7863">
        <ele>1134</ele>
        <time>2009-05-05T15:26:51Z</time>
      </trkpt>
      <trkpt lat="43.85207" lon="6.78642">
        <ele>1132</ele>
        <time>2009-05-05T15:26:54Z</time>
      </trkpt>
      <trkpt lat="43.85214" lon="6.78651">
        <ele>1129</ele>
        <time>2009-05-05T15:26:57Z</time>
      </trkpt>
      <trkpt lat="43.85221" lon="6.78661">
        <ele>1126</ele>
        <time>2009-05-05T15:27:00Z</time>
      </trkpt>
      <trkpt lat="43.85225" lon="6.78675">
        <ele>1123</ele>
        <time>2009-05-05T15:27:03Z</time>
      </trkpt>
      <trkpt lat="43.85229" lon="6.78688">
        <ele>1120</ele>
        <time>2009-05-05T15:27:06Z</time>
      </trkpt>
      <trkpt lat="43.85231" lon="6.787">
        <ele>1117</ele>
        <time>2009-05-05T15:27:09Z</time>
      </trkpt>
      <trkpt lat="43.85234" lon="6.78708">
        <ele>1115</ele>
        <time>2009-05-05T15:27:12Z</time>
      </trkpt>
      <trkpt lat="43.85238" lon="6.78723">
        <ele>1112</ele>
        <time>2009-05-05T15:27:15Z</time>
      </trkpt>
      <trkpt lat="43.8524" lon="6.78736">
        <ele>1111</ele>
        <time>2009-05-05T15:27:18Z</time>
      </trkpt>
      <trkpt lat="43.85241" lon="6.78747">
        <ele>1110</ele>
        <time>2009-05-05T15:27:21Z</time>
      </trkpt>
      <trkpt lat="43.85247" lon="6.78756">
        <ele>1110</ele>
        <time>2009-05-05T15:27:24Z</time>
      </trkpt>
      <trkpt lat="43.85252" lon="6.78762">
        <ele>1109</ele>
        <time>2009-05-05T15:27:27Z</time>
      </trkpt>
      <trkpt lat="43.85261" lon="6.78763">
        <ele>1110</ele>
        <time>2009-05-05T15:27:33Z</time>
      </trkpt>
      <trkpt lat="43.85268" lon="6.78762">
        <ele>1109</ele>
        <time>2009-05-05T15:27:36Z</time>
      </trkpt>
      <trkpt lat="43.85273" lon="6.78767">
        <ele>1110</ele>
        <time>2009-05-05T15:27:39Z</time>
      </trkpt>
      <trkpt lat="43.85276" lon="6.78777">
        <ele>1111</ele>
        <time>2009-05-05T15:27:42Z</time>
      </trkpt>
      <trkpt lat="43.8528" lon="6.78786">
        <ele>1110</ele>
        <time>2009-05-05T15:27:45Z</time>
      </trkpt>
      <trkpt lat="43.85286" lon="6.78799">
        <ele>1107</ele>
        <time>2009-05-05T15:27:48Z</time>
      </trkpt>
      <trkpt lat="43.85292" lon="6.78812">
        <ele>1104</ele>
        <time>2009-05-05T15:27:51Z</time>
      </trkpt>
      <trkpt lat="43.85295" lon="6.78829">
        <ele>1098</ele>
        <time>2009-05-05T15:27:54Z</time>
      </trkpt>
      <trkpt lat="43.85294" lon="6.7884">
        <ele>1094</ele>
        <time>2009-05-05T15:27:57Z</time>
      </trkpt>
      <trkpt lat="43.85291" lon="6.78847">
        <ele>1092</ele>
        <time>2009-05-05T15:28:00Z</time>
      </trkpt>
      <trkpt lat="43.85293" lon="6.78857">
        <ele>1087</ele>
        <time>2009-05-05T15:28:12Z</time>
      </trkpt>
      <trkpt lat="43.85301" lon="6.78859">
        <ele>1090</ele>
        <time>2009-05-05T15:28:15Z</time>
      </trkpt>
      <trkpt lat="43.85307" lon="6.78854">
        <ele>1090</ele>
        <time>2009-05-05T15:28:18Z</time>
      </trkpt>
      <trkpt lat="43.85309" lon="6.78849">
        <ele>1086</ele>
        <time>2009-05-05T15:28:21Z</time>
      </trkpt>
      <trkpt lat="43.85316" lon="6.78858">
        <ele>1086</ele>
        <time>2009-05-05T15:28:27Z</time>
      </trkpt>
      <trkpt lat="43.85315" lon="6.78866">
        <ele>1083</ele>
        <time>2009-05-05T15:28:30Z</time>
      </trkpt>
      <trkpt lat="43.85316" lon="6.7887">
        <ele>1080</ele>
        <time>2009-05-05T15:28:33Z</time>
      </trkpt>
      <trkpt lat="43.85321" lon="6.78865">
        <ele>1080</ele>
        <time>2009-05-05T15:28:36Z</time>
      </trkpt>
      <trkpt lat="43.85324" lon="6.78861">
        <ele>1078</ele>
        <time>2009-05-05T15:28:39Z</time>
      </trkpt>
      <trkpt lat="43.85328" lon="6.78859">
        <ele>1074</ele>
        <time>2009-05-05T15:28:51Z</time>
      </trkpt>
      <trkpt lat="43.8533" lon="6.78865">
        <ele>1074</ele>
        <time>2009-05-05T15:28:57Z</time>
      </trkpt>
      <trkpt lat="43.85331" lon="6.78873">
        <ele>1073</ele>
        <time>2009-05-05T15:29:00Z</time>
      </trkpt>
      <trkpt lat="43.85333" lon="6.78877">
        <ele>1072</ele>
        <time>2009-05-05T15:29:03Z</time>
      </trkpt>
      <trkpt lat="43.85337" lon="6.78868">
        <ele>1071</ele>
        <time>2009-05-05T15:29:09Z</time>
      </trkpt>
      <trkpt lat="43.85338" lon="6.78861">
        <ele>1070</ele>
        <time>2009-05-05T15:29:12Z</time>
      </trkpt>
      <trkpt lat="43.8534" lon="6.78855">
        <ele>1069</ele>
        <time>2009-05-05T15:29:15Z</time>
      </trkpt>
      <trkpt lat="43.85342" lon="6.78857">
        <ele>1067</ele>
        <time>2009-05-05T15:29:18Z</time>
      </trkpt>
      <trkpt lat="43.85347" lon="6.78864">
        <ele>1065</ele>
        <time>2009-05-05T15:29:21Z</time>
      </trkpt>
      <trkpt lat="43.85353" lon="6.78869">
        <ele>1065</ele>
        <time>2009-05-05T15:29:24Z</time>
      </trkpt>
      <trkpt lat="43.85361" lon="6.7887">
        <ele>1058</ele>
        <time>2009-05-05T15:29:33Z</time>
      </trkpt>
      <trkpt lat="43.85366" lon="6.78878">
        <ele>1056</ele>
        <time>2009-05-05T15:29:36Z</time>
      </trkpt>
      <trkpt lat="43.85369" lon="6.78888">
        <ele>1055</ele>
        <time>2009-05-05T15:29:39Z</time>
      </trkpt>
      <trkpt lat="43.85371" lon="6.78894">
        <ele>1053</ele>
        <time>2009-05-05T15:29:42Z</time>
      </trkpt>
      <trkpt lat="43.85375" lon="6.7889">
        <ele>1052</ele>
        <time>2009-05-05T15:29:45Z</time>
      </trkpt>
      <trkpt lat="43.85376" lon="6.78885">
        <ele>1052</ele>
        <time>2009-05-05T15:29:48Z</time>
      </trkpt>
      <trkpt lat="43.85378" lon="6.7888">
        <ele>1052</ele>
        <time>2009-05-05T15:29:51Z</time>
      </trkpt>
      <trkpt lat="43.85382" lon="6.78884">
        <ele>1051</ele>
        <time>2009-05-05T15:29:54Z</time>
      </trkpt>
      <trkpt lat="43.85386" lon="6.78892">
        <ele>1050</ele>
        <time>2009-05-05T15:29:57Z</time>
      </trkpt>
      <trkpt lat="43.85391" lon="6.78899">
        <ele>1048</ele>
        <time>2009-05-05T15:30:00Z</time>
      </trkpt>
      <trkpt lat="43.85394" lon="6.78908">
        <ele>1045</ele>
        <time>2009-05-05T15:30:03Z</time>
      </trkpt>
      <trkpt lat="43.85399" lon="6.78898">
        <ele>1038</ele>
        <time>2009-05-05T15:30:12Z</time>
      </trkpt>
      <trkpt lat="43.85401" lon="6.78889">
        <ele>1037</ele>
        <time>2009-05-05T15:30:15Z</time>
      </trkpt>
      <trkpt lat="43.85405" lon="6.78882">
        <ele>1033</ele>
        <time>2009-05-05T15:30:23Z</time>
      </trkpt>
      <trkpt lat="43.85413" lon="6.78896">
        <ele>1030</ele>
        <time>2009-05-05T15:30:28Z</time>
      </trkpt>
      <trkpt lat="43.85415" lon="6.78906">
        <ele>1030</ele>
        <time>2009-05-05T15:30:31Z</time>
      </trkpt>
      <trkpt lat="43.85418" lon="6.78917">
        <ele>1030</ele>
        <time>2009-05-05T15:30:34Z</time>
      </trkpt>
      <trkpt lat="43.85423" lon="6.7891">
        <ele>1030</ele>
        <time>2009-05-05T15:30:40Z</time>
      </trkpt>
      <trkpt lat="43.85427" lon="6.78901">
        <ele>1030</ele>
        <time>2009-05-05T15:30:43Z</time>
      </trkpt>
      <trkpt lat="43.85427" lon="6.78888">
        <ele>1030</ele>
        <time>2009-05-05T15:30:46Z</time>
      </trkpt>
      <trkpt lat="43.85429" lon="6.78873">
        <ele>1030</ele>
        <time>2009-05-05T15:30:49Z</time>
      </trkpt>
      <trkpt lat="43.85432" lon="6.78861">
        <ele>1020</ele>
        <time>2009-05-05T15:30:52Z</time>
      </trkpt>
      <trkpt lat="43.8544" lon="6.78874">
        <ele>1019</ele>
        <time>2009-05-05T15:30:58Z</time>
      </trkpt>
      <trkpt lat="43.85444" lon="6.78881">
        <ele>1018</ele>
        <time>2009-05-05T15:31:01Z</time>
      </trkpt>
      <trkpt lat="43.85448" lon="6.7889">
        <ele>1015</ele>
        <time>2009-05-05T15:31:04Z</time>
      </trkpt>
      <trkpt lat="43.85453" lon="6.78901">
        <ele>1012</ele>
        <time>2009-05-05T15:31:07Z</time>
      </trkpt>
      <trkpt lat="43.85455" lon="6.78911">
        <ele>1012</ele>
        <time>2009-05-05T15:31:10Z</time>
      </trkpt>
      <trkpt lat="43.85459" lon="6.78917">
        <ele>1008</ele>
        <time>2009-05-05T15:31:16Z</time>
      </trkpt>
      <trkpt lat="43.85464" lon="6.78923">
        <ele>1016</ele>
        <time>2009-05-05T15:31:31Z</time>
      </trkpt>
      <trkpt lat="43.85465" lon="6.78916">
        <ele>1015</ele>
        <time>2009-05-05T15:31:40Z</time>
      </trkpt>
      <trkpt lat="43.85467" lon="6.78902">
        <ele>1016</ele>
        <time>2009-05-05T15:31:43Z</time>
      </trkpt>
      <trkpt lat="43.85468" lon="6.7889">
        <ele>1013</ele>
        <time>2009-05-05T15:31:46Z</time>
      </trkpt>
      <trkpt lat="43.85477" lon="6.78894">
        <ele>1008</ele>
        <time>2009-05-05T15:31:52Z</time>
      </trkpt>
      <trkpt lat="43.85484" lon="6.78907">
        <ele>1005</ele>
        <time>2009-05-05T15:31:55Z</time>
      </trkpt>
      <trkpt lat="43.85492" lon="6.78929">
        <ele>996</ele>
        <time>2009-05-05T15:31:58Z</time>
      </trkpt>
      <trkpt lat="43.85498" lon="6.78952">
        <ele>988</ele>
        <time>2009-05-05T15:32:01Z</time>
      </trkpt>
      <trkpt lat="43.85499" lon="6.78938">
        <ele>985</ele>
        <time>2009-05-05T15:32:07Z</time>
      </trkpt>
      <trkpt lat="43.85501" lon="6.78921">
        <ele>982</ele>
        <time>2009-05-05T15:32:10Z</time>
      </trkpt>
      <trkpt lat="43.85505" lon="6.78906">
        <ele>981</ele>
        <time>2009-05-05T15:32:13Z</time>
      </trkpt>
      <trkpt lat="43.85506" lon="6.7889">
        <ele>978</ele>
        <time>2009-05-05T15:32:16Z</time>
      </trkpt>
      <trkpt lat="43.85507" lon="6.78878">
        <ele>975</ele>
        <time>2009-05-05T15:32:19Z</time>
      </trkpt>
      <trkpt lat="43.85517" lon="6.78886">
        <ele>971</ele>
        <time>2009-05-05T15:32:25Z</time>
      </trkpt>
      <trkpt lat="43.85522" lon="6.78894">
        <ele>967</ele>
        <time>2009-05-05T15:32:28Z</time>
      </trkpt>
      <trkpt lat="43.85525" lon="6.78908">
        <ele>963</ele>
        <time>2009-05-05T15:32:31Z</time>
      </trkpt>
      <trkpt lat="43.85534" lon="6.78921">
        <ele>959</ele>
        <time>2009-05-05T15:32:34Z</time>
      </trkpt>
      <trkpt lat="43.85542" lon="6.78931">
        <ele>960</ele>
        <time>2009-05-05T15:32:37Z</time>
      </trkpt>
      <trkpt lat="43.85548" lon="6.78944">
        <ele>958</ele>
        <time>2009-05-05T15:32:40Z</time>
      </trkpt>
      <trkpt lat="43.85553" lon="6.78965">
        <ele>956</ele>
        <time>2009-05-05T15:32:46Z</time>
      </trkpt>
      <trkpt lat="43.85557" lon="6.78985">
        <ele>955</ele>
        <time>2009-05-05T15:32:49Z</time>
      </trkpt>
      <trkpt lat="43.85548" lon="6.78993">
        <ele>949</ele>
        <time>2009-05-05T15:32:55Z</time>
      </trkpt>
      <trkpt lat="43.85543" lon="6.78999">
        <ele>952</ele>
        <time>2009-05-05T15:33:09Z</time>
      </trkpt>
      <trkpt lat="43.85536" lon="6.79002">
        <ele>951</ele>
        <time>2009-05-05T15:33:12Z</time>
      </trkpt>
      <trkpt lat="43.85529" lon="6.79007">
        <ele>956</ele>
        <time>2009-05-05T15:33:15Z</time>
      </trkpt>
      <trkpt lat="43.85519" lon="6.7901">
        <ele>957</ele>
        <time>2009-05-05T15:33:18Z</time>
      </trkpt>
      <trkpt lat="43.85509" lon="6.79018">
        <ele>956</ele>
        <time>2009-05-05T15:33:21Z</time>
      </trkpt>
      <trkpt lat="43.855" lon="6.79025">
        <ele>956</ele>
        <time>2009-05-05T15:33:27Z</time>
      </trkpt>
      <trkpt lat="43.85491" lon="6.79029">
        <ele>956</ele>
        <time>2009-05-05T15:33:30Z</time>
      </trkpt>
      <trkpt lat="43.85479" lon="6.79032">
        <ele>952</ele>
        <time>2009-05-05T15:33:33Z</time>
      </trkpt>
      <trkpt lat="43.85473" lon="6.79037">
        <ele>949</ele>
        <time>2009-05-05T15:33:36Z</time>
      </trkpt>
      <trkpt lat="43.85464" lon="6.79048">
        <ele>952</ele>
        <time>2009-05-05T15:33:39Z</time>
      </trkpt>
      <trkpt lat="43.85455" lon="6.79056">
        <ele>950</ele>
        <time>2009-05-05T15:33:42Z</time>
      </trkpt>
      <trkpt lat="43.85446" lon="6.79065">
        <ele>946</ele>
        <time>2009-05-05T15:33:46Z</time>
      </trkpt>
      <trkpt lat="43.85433" lon="6.79075">
        <ele>941</ele>
        <time>2009-05-05T15:33:49Z</time>
      </trkpt>
      <trkpt lat="43.85421" lon="6.79084">
        <ele>934</ele>
        <time>2009-05-05T15:33:52Z</time>
      </trkpt>
      <trkpt lat="43.85412" lon="6.79089">
        <ele>930</ele>
        <time>2009-05-05T15:33:55Z</time>
      </trkpt>
      <trkpt lat="43.85406" lon="6.79093">
        <ele>932</ele>
        <time>2009-05-05T15:33:58Z</time>
      </trkpt>
      <trkpt lat="43.85399" lon="6.79098">
        <ele>936</ele>
        <time>2009-05-05T15:34:01Z</time>
      </trkpt>
      <trkpt lat="43.85393" lon="6.79103">
        <ele>936</ele>
        <time>2009-05-05T15:34:04Z</time>
      </trkpt>
      <trkpt lat="43.8539" lon="6.79116">
        <ele>933</ele>
        <time>2009-05-05T15:34:10Z</time>
      </trkpt>
      <trkpt lat="43.85391" lon="6.79128">
        <ele>934</ele>
        <time>2009-05-05T15:34:13Z</time>
      </trkpt>
      <trkpt lat="43.85397" lon="6.79138">
        <ele>935</ele>
        <time>2009-05-05T15:34:16Z</time>
      </trkpt>
      <trkpt lat="43.854" lon="6.79149">
        <ele>939</ele>
        <time>2009-05-05T15:34:19Z</time>
      </trkpt>
      <trkpt lat="43.85403" lon="6.7916">
        <ele>942</ele>
        <time>2009-05-05T15:34:22Z</time>
      </trkpt>
      <trkpt lat="43.85415" lon="6.79166">
        <ele>946</ele>
        <time>2009-05-05T15:34:28Z</time>
      </trkpt>
      <trkpt lat="43.85424" lon="6.79167">
        <ele>953</ele>
        <time>2009-05-05T15:34:31Z</time>
      </trkpt>
      <trkpt lat="43.85432" lon="6.79164">
        <ele>955</ele>
        <time>2009-05-05T15:34:34Z</time>
      </trkpt>
      <trkpt lat="43.85441" lon="6.79162">
        <ele>958</ele>
        <time>2009-05-05T15:34:37Z</time>
      </trkpt>
      <trkpt lat="43.85453" lon="6.79168">
        <ele>958</ele>
        <time>2009-05-05T15:34:40Z</time>
      </trkpt>
      <trkpt lat="43.85462" lon="6.79177">
        <ele>958</ele>
        <time>2009-05-05T15:34:43Z</time>
      </trkpt>
      <trkpt lat="43.85466" lon="6.79184">
        <ele>961</ele>
        <time>2009-05-05T15:34:46Z</time>
      </trkpt>
      <trkpt lat="43.85472" lon="6.79191">
        <ele>965</ele>
        <time>2009-05-05T15:34:49Z</time>
      </trkpt>
      <trkpt lat="43.85479" lon="6.79196">
        <ele>968</ele>
        <time>2009-05-05T15:34:52Z</time>
      </trkpt>
      <trkpt lat="43.85484" lon="6.79205">
        <ele>967</ele>
        <time>2009-05-05T15:34:55Z</time>
      </trkpt>
      <trkpt lat="43.85491" lon="6.79214">
        <ele>970</ele>
        <time>2009-05-05T15:34:58Z</time>
      </trkpt>
      <trkpt lat="43.85497" lon="6.79224">
        <ele>969</ele>
        <time>2009-05-05T15:35:01Z</time>
      </trkpt>
      <trkpt lat="43.85503" lon="6.79236">
        <ele>962</ele>
        <time>2009-05-05T15:35:04Z</time>
      </trkpt>
      <trkpt lat="43.85505" lon="6.79247">
        <ele>954</ele>
        <time>2009-05-05T15:35:07Z</time>
      </trkpt>
      <trkpt lat="43.85507" lon="6.79255">
        <ele>948</ele>
        <time>2009-05-05T15:35:10Z</time>
      </trkpt>
      <trkpt lat="43.85512" lon="6.79264">
        <ele>945</ele>
        <time>2009-05-05T15:35:13Z</time>
      </trkpt>
      <trkpt lat="43.85527" lon="6.79274">
        <ele>948</ele>
        <time>2009-05-05T15:35:19Z</time>
      </trkpt>
      <trkpt lat="43.85533" lon="6.79277">
        <ele>950</ele>
        <time>2009-05-05T15:35:22Z</time>
      </trkpt>
      <trkpt lat="43.85545" lon="6.79284">
        <ele>958</ele>
        <time>2009-05-05T15:35:28Z</time>
      </trkpt>
      <trkpt lat="43.85554" lon="6.79292">
        <ele>957</ele>
        <time>2009-05-05T15:35:31Z</time>
      </trkpt>
      <trkpt lat="43.85558" lon="6.79298">
        <ele>957</ele>
        <time>2009-05-05T15:35:34Z</time>
      </trkpt>
      <trkpt lat="43.85566" lon="6.79304">
        <ele>959</ele>
        <time>2009-05-05T15:35:37Z</time>
      </trkpt>
      <trkpt lat="43.85575" lon="6.79314">
        <ele>957</ele>
        <time>2009-05-05T15:35:40Z</time>
      </trkpt>
      <trkpt lat="43.85581" lon="6.79323">
        <ele>956</ele>
        <time>2009-05-05T15:35:43Z</time>
      </trkpt>
      <trkpt lat="43.85586" lon="6.79332">
        <ele>953</ele>
        <time>2009-05-05T15:35:46Z</time>
      </trkpt>
      <trkpt lat="43.85592" lon="6.79338">
        <ele>955</ele>
        <time>2009-05-05T15:35:49Z</time>
      </trkpt>
      <trkpt lat="43.85597" lon="6.79344">
        <ele>954</ele>
        <time>2009-05-05T15:35:52Z</time>
      </trkpt>
      <trkpt lat="43.85609" lon="6.79344">
        <ele>956</ele>
        <time>2009-05-05T15:35:58Z</time>
      </trkpt>
      <trkpt lat="43.85615" lon="6.79348">
        <ele>954</ele>
        <time>2009-05-05T15:36:01Z</time>
      </trkpt>
      <trkpt lat="43.8562" lon="6.79356">
        <ele>952</ele>
        <time>2009-05-05T15:36:04Z</time>
      </trkpt>
      <trkpt lat="43.85626" lon="6.79365">
        <ele>949</ele>
        <time>2009-05-05T15:36:07Z</time>
      </trkpt>
      <trkpt lat="43.85632" lon="6.79371">
        <ele>949</ele>
        <time>2009-05-05T15:36:10Z</time>
      </trkpt>
      <trkpt lat="43.85639" lon="6.79373">
        <ele>950</ele>
        <time>2009-05-05T15:36:13Z</time>
      </trkpt>
      <trkpt lat="43.85647" lon="6.7938">
        <ele>948</ele>
        <time>2009-05-05T15:36:16Z</time>
      </trkpt>
      <trkpt lat="43.85655" lon="6.79386">
        <ele>945</ele>
        <time>2009-05-05T15:36:19Z</time>
      </trkpt>
      <trkpt lat="43.85662" lon="6.79389">
        <ele>943</ele>
        <time>2009-05-05T15:36:22Z</time>
      </trkpt>
      <trkpt lat="43.8567" lon="6.79393">
        <ele>939</ele>
        <time>2009-05-05T15:36:25Z</time>
      </trkpt>
      <trkpt lat="43.85678" lon="6.79397">
        <ele>937</ele>
        <time>2009-05-05T15:36:28Z</time>
      </trkpt>
      <trkpt lat="43.85688" lon="6.79402">
        <ele>933</ele>
        <time>2009-05-05T15:36:31Z</time>
      </trkpt>
      <trkpt lat="43.85698" lon="6.79405">
        <ele>930</ele>
        <time>2009-05-05T15:36:34Z</time>
      </trkpt>
      <trkpt lat="43.85709" lon="6.79407">
        <ele>926</ele>
        <time>2009-05-05T15:36:37Z</time>
      </trkpt>
      <trkpt lat="43.85719" lon="6.79408">
        <ele>925</ele>
        <time>2009-05-05T15:36:40Z</time>
      </trkpt>
      <trkpt lat="43.85726" lon="6.79412">
        <ele>922</ele>
        <time>2009-05-05T15:36:43Z</time>
      </trkpt>
      <trkpt lat="43.85733" lon="6.79411">
        <ele>920</ele>
        <time>2009-05-05T15:36:46Z</time>
      </trkpt>
      <trkpt lat="43.85747" lon="6.79401">
        <ele>915</ele>
        <time>2009-05-05T15:36:52Z</time>
      </trkpt>
      <trkpt lat="43.85758" lon="6.79397">
        <ele>914</ele>
        <time>2009-05-05T15:36:55Z</time>
      </trkpt>
      <trkpt lat="43.85769" lon="6.7939">
        <ele>912</ele>
        <time>2009-05-05T15:36:58Z</time>
      </trkpt>
      <trkpt lat="43.85777" lon="6.7938">
        <ele>911</ele>
        <time>2009-05-05T15:37:01Z</time>
      </trkpt>
      <trkpt lat="43.85782" lon="6.79375">
        <ele>910</ele>
        <time>2009-05-05T15:37:04Z</time>
      </trkpt>
      <trkpt lat="43.85792" lon="6.79383">
        <ele>911</ele>
        <time>2009-05-05T15:37:10Z</time>
      </trkpt>
      <trkpt lat="43.85801" lon="6.79383">
        <ele>908</ele>
        <time>2009-05-05T15:37:16Z</time>
      </trkpt>
      <trkpt lat="43.85809" lon="6.79373">
        <ele>909</ele>
        <time>2009-05-05T15:37:19Z</time>
      </trkpt>
      <trkpt lat="43.85816" lon="6.79368">
        <ele>909</ele>
        <time>2009-05-05T15:37:22Z</time>
      </trkpt>
      <trkpt lat="43.85823" lon="6.79374">
        <ele>908</ele>
        <time>2009-05-05T15:37:46Z</time>
      </trkpt>
      <trkpt lat="43.85828" lon="6.7938">
        <ele>907</ele>
        <time>2009-05-05T15:37:49Z</time>
      </trkpt>
      <trkpt lat="43.85835" lon="6.79384">
        <ele>906</ele>
        <time>2009-05-05T15:37:55Z</time>
      </trkpt>
      <trkpt lat="43.85843" lon="6.79379">
        <ele>904</ele>
        <time>2009-05-05T15:37:58Z</time>
      </trkpt>
      <trkpt lat="43.8585" lon="6.79371">
        <ele>904</ele>
        <time>2009-05-05T15:38:01Z</time>
      </trkpt>
      <trkpt lat="43.85858" lon="6.79364">
        <ele>903</ele>
        <time>2009-05-05T15:38:04Z</time>
      </trkpt>
      <trkpt lat="43.85865" lon="6.79361">
        <ele>903</ele>
        <time>2009-05-05T15:38:07Z</time>
      </trkpt>
      <trkpt lat="43.85871" lon="6.79369">
        <ele>903</ele>
        <time>2009-05-05T15:38:10Z</time>
      </trkpt>
      <trkpt lat="43.85876" lon="6.79382">
        <ele>903</ele>
        <time>2009-05-05T15:38:13Z</time>
      </trkpt>
      <trkpt lat="43.85879" lon="6.79395">
        <ele>901</ele>
        <time>2009-05-05T15:38:16Z</time>
      </trkpt>
      <trkpt lat="43.85892" lon="6.79396">
        <ele>896</ele>
        <time>2009-05-05T15:38:22Z</time>
      </trkpt>
      <trkpt lat="43.85901" lon="6.79386">
        <ele>894</ele>
        <time>2009-05-05T15:38:25Z</time>
      </trkpt>
      <trkpt lat="43.8591" lon="6.79382">
        <ele>891</ele>
        <time>2009-05-05T15:38:28Z</time>
      </trkpt>
      <trkpt lat="43.85916" lon="6.79392">
        <ele>884</ele>
        <time>2009-05-05T15:38:31Z</time>
      </trkpt>
      <trkpt lat="43.85921" lon="6.79407">
        <ele>881</ele>
        <time>2009-05-05T15:38:34Z</time>
      </trkpt>
      <trkpt lat="43.85924" lon="6.79421">
        <ele>879</ele>
        <time>2009-05-05T15:38:37Z</time>
      </trkpt>
      <trkpt lat="43.85929" lon="6.79434">
        <ele>876</ele>
        <time>2009-05-05T15:38:40Z</time>
      </trkpt>
      <trkpt lat="43.85934" lon="6.79446">
        <ele>873</ele>
        <time>2009-05-05T15:38:43Z</time>
      </trkpt>
      <trkpt lat="43.85946" lon="6.79444">
        <ele>873</ele>
        <time>2009-05-05T15:38:52Z</time>
      </trkpt>
      <trkpt lat="43.85958" lon="6.79443">
        <ele>873</ele>
        <time>2009-05-05T15:38:58Z</time>
      </trkpt>
      <trkpt lat="43.85965" lon="6.79442">
        <ele>873</ele>
        <time>2009-05-05T15:39:01Z</time>
      </trkpt>
      <trkpt lat="43.85974" lon="6.79441">
        <ele>873</ele>
        <time>2009-05-05T15:39:04Z</time>
      </trkpt>
      <trkpt lat="43.85986" lon="6.79445">
        <ele>873</ele>
        <time>2009-05-05T15:39:10Z</time>
      </trkpt>
      <trkpt lat="43.86002" lon="6.79447">
        <ele>873</ele>
        <time>2009-05-05T15:39:16Z</time>
      </trkpt>
      <trkpt lat="43.86014" lon="6.79452">
        <ele>853</ele>
        <time>2009-05-05T15:39:19Z</time>
      </trkpt>
      <trkpt lat="43.86024" lon="6.79456">
        <ele>852</ele>
        <time>2009-05-05T15:39:22Z</time>
      </trkpt>
      <trkpt lat="43.86034" lon="6.79462">
        <ele>847</ele>
        <time>2009-05-05T15:39:25Z</time>
      </trkpt>
      <trkpt lat="43.86035" lon="6.79469">
        <ele>834</ele>
        <time>2009-05-05T15:39:34Z</time>
      </trkpt>
      <trkpt lat="43.86045" lon="6.79473">
        <ele>840</ele>
        <time>2009-05-05T15:39:43Z</time>
      </trkpt>
      <trkpt lat="43.8605" lon="6.79478">
        <ele>839</ele>
        <time>2009-05-05T15:39:46Z</time>
      </trkpt>
      <trkpt lat="43.86055" lon="6.79484">
        <ele>845</ele>
        <time>2009-05-05T15:39:52Z</time>
      </trkpt>
      <trkpt lat="43.86064" lon="6.7949">
        <ele>845</ele>
        <time>2009-05-05T15:39:58Z</time>
      </trkpt>
      <trkpt lat="43.86071" lon="6.79496">
        <ele>844</ele>
        <time>2009-05-05T15:40:04Z</time>
      </trkpt>
      <trkpt lat="43.86078" lon="6.79505">
        <ele>850</ele>
        <time>2009-05-05T15:40:13Z</time>
      </trkpt>
      <trkpt lat="43.86082" lon="6.79513">
        <ele>850</ele>
        <time>2009-05-05T15:40:16Z</time>
      </trkpt>
      <trkpt lat="43.86087" lon="6.79523">
        <ele>849</ele>
        <time>2009-05-05T15:40:19Z</time>
      </trkpt>
      <trkpt lat="43.8609" lon="6.79532">
        <ele>848</ele>
        <time>2009-05-05T15:40:26Z</time>
      </trkpt>
      <trkpt lat="43.861" lon="6.79561">
        <ele>836</ele>
        <time>2009-05-05T15:40:28Z</time>
      </trkpt>
      <trkpt lat="43.86098" lon="6.79569">
        <ele>831</ele>
        <time>2009-05-05T15:40:31Z</time>
      </trkpt>
      <trkpt lat="43.86088" lon="6.79571">
        <ele>820</ele>
        <time>2009-05-05T15:40:37Z</time>
      </trkpt>
      <trkpt lat="43.86083" lon="6.79576">
        <ele>818</ele>
        <time>2009-05-05T15:40:43Z</time>
      </trkpt>
      <trkpt lat="43.86086" lon="6.79585">
        <ele>817</ele>
        <time>2009-05-05T15:40:46Z</time>
      </trkpt>
      <trkpt lat="43.86091" lon="6.79589">
        <ele>819</ele>
        <time>2009-05-05T15:40:49Z</time>
      </trkpt>
      <trkpt lat="43.86092" lon="6.79597">
        <ele>822</ele>
        <time>2009-05-05T15:40:55Z</time>
      </trkpt>
      <trkpt lat="43.86083" lon="6.79599">
        <ele>823</ele>
        <time>2009-05-05T15:41:01Z</time>
      </trkpt>
      <trkpt lat="43.86074" lon="6.79601">
        <ele>819</ele>
        <time>2009-05-05T15:41:07Z</time>
      </trkpt>
      <trkpt lat="43.86079" lon="6.79611">
        <ele>818</ele>
        <time>2009-05-05T15:41:13Z</time>
      </trkpt>
      <trkpt lat="43.86085" lon="6.79621">
        <ele>814</ele>
        <time>2009-05-05T15:41:19Z</time>
      </trkpt>
      <trkpt lat="43.86095" lon="6.79634">
        <ele>810</ele>
        <time>2009-05-05T15:41:25Z</time>
      </trkpt>
      <trkpt lat="43.86102" lon="6.79637">
        <ele>807</ele>
        <time>2009-05-05T15:41:28Z</time>
      </trkpt>
      <trkpt lat="43.8611" lon="6.79642">
        <ele>806</ele>
        <time>2009-05-05T15:41:31Z</time>
      </trkpt>
      <trkpt lat="43.86109" lon="6.79651">
        <ele>806</ele>
        <time>2009-05-05T15:41:34Z</time>
      </trkpt>
      <trkpt lat="43.86099" lon="6.79657">
        <ele>801</ele>
        <time>2009-05-05T15:41:40Z</time>
      </trkpt>
      <trkpt lat="43.86092" lon="6.79659">
        <ele>797</ele>
        <time>2009-05-05T15:41:43Z</time>
      </trkpt>
      <trkpt lat="43.86088" lon="6.79666">
        <ele>793</ele>
        <time>2009-05-05T15:41:55Z</time>
      </trkpt>
      <trkpt lat="43.86081" lon="6.79668">
        <ele>795</ele>
        <time>2009-05-05T15:42:07Z</time>
      </trkpt>
      <trkpt lat="43.86088" lon="6.79684">
        <ele>791</ele>
        <time>2009-05-05T15:42:16Z</time>
      </trkpt>
      <trkpt lat="43.86094" lon="6.79694">
        <ele>790</ele>
        <time>2009-05-05T15:42:19Z</time>
      </trkpt>
      <trkpt lat="43.86096" lon="6.79701">
        <ele>789</ele>
        <time>2009-05-05T15:42:22Z</time>
      </trkpt>
      <trkpt lat="43.86103" lon="6.79718">
        <ele>781</ele>
        <time>2009-05-05T15:42:28Z</time>
      </trkpt>
      <trkpt lat="43.86109" lon="6.79731">
        <ele>779</ele>
        <time>2009-05-05T15:42:31Z</time>
      </trkpt>
      <trkpt lat="43.86113" lon="6.79745">
        <ele>777</ele>
        <time>2009-05-05T15:42:34Z</time>
      </trkpt>
      <trkpt lat="43.86116" lon="6.79755">
        <ele>774</ele>
        <time>2009-05-05T15:42:37Z</time>
      </trkpt>
      <trkpt lat="43.86123" lon="6.79763">
        <ele>773</ele>
        <time>2009-05-05T15:42:40Z</time>
      </trkpt>
      <trkpt lat="43.86128" lon="6.7977">
        <ele>774</ele>
        <time>2009-05-05T15:42:43Z</time>
      </trkpt>
      <trkpt lat="43.86126" lon="6.79777">
        <ele>770</ele>
        <time>2009-05-05T15:42:46Z</time>
      </trkpt>
      <trkpt lat="43.86119" lon="6.7978">
        <ele>766</ele>
        <time>2009-05-05T15:42:49Z</time>
      </trkpt>
      <trkpt lat="43.86112" lon="6.79779">
        <ele>764</ele>
        <time>2009-05-05T15:42:52Z</time>
      </trkpt>
      <trkpt lat="43.86104" lon="6.79778">
        <ele>762</ele>
        <time>2009-05-05T15:42:58Z</time>
      </trkpt>
      <trkpt lat="43.86103" lon="6.79786">
        <ele>767</ele>
        <time>2009-05-05T15:43:04Z</time>
      </trkpt>
      <trkpt lat="43.86107" lon="6.79791">
        <ele>779</ele>
        <time>2009-05-05T15:43:19Z</time>
      </trkpt>
      <trkpt lat="43.861" lon="6.7979">
        <ele>775</ele>
        <time>2009-05-05T15:44:13Z</time>
      </trkpt>
      <trkpt lat="43.86101" lon="6.79799">
        <ele>769</ele>
        <time>2009-05-05T15:44:25Z</time>
      </trkpt>
      <trkpt lat="43.86113" lon="6.79807">
        <ele>770</ele>
        <time>2009-05-05T15:44:31Z</time>
      </trkpt>
      <trkpt lat="43.86121" lon="6.79818">
        <ele>770</ele>
        <time>2009-05-05T15:44:37Z</time>
      </trkpt>
      <trkpt lat="43.86124" lon="6.79826">
        <ele>769</ele>
        <time>2009-05-05T15:44:40Z</time>
      </trkpt>
      <trkpt lat="43.86128" lon="6.79832">
        <ele>768</ele>
        <time>2009-05-05T15:44:43Z</time>
      </trkpt>
      <trkpt lat="43.86138" lon="6.79843">
        <ele>767</ele>
        <time>2009-05-05T15:44:49Z</time>
      </trkpt>
      <trkpt lat="43.86142" lon="6.79853">
        <ele>766</ele>
        <time>2009-05-05T15:44:52Z</time>
      </trkpt>
      <trkpt lat="43.86148" lon="6.79858">
        <ele>766</ele>
        <time>2009-05-05T15:44:58Z</time>
      </trkpt>
      <trkpt lat="43.8615" lon="6.79865">
        <ele>763</ele>
        <time>2009-05-05T15:45:01Z</time>
      </trkpt>
      <trkpt lat="43.86154" lon="6.79873">
        <ele>762</ele>
        <time>2009-05-05T15:45:04Z</time>
      </trkpt>
      <trkpt lat="43.8616" lon="6.79885">
        <ele>760</ele>
        <time>2009-05-05T15:45:07Z</time>
      </trkpt>
      <trkpt lat="43.86166" lon="6.79899">
        <ele>759</ele>
        <time>2009-05-05T15:45:10Z</time>
      </trkpt>
      <trkpt lat="43.86168" lon="6.79912">
        <ele>759</ele>
        <time>2009-05-05T15:45:13Z</time>
      </trkpt>
      <trkpt lat="43.86173" lon="6.79925">
        <ele>756</ele>
        <time>2009-05-05T15:45:16Z</time>
      </trkpt>
      <trkpt lat="43.8619" lon="6.79935">
        <ele>756</ele>
        <time>2009-05-05T15:45:22Z</time>
      </trkpt>
      <trkpt lat="43.862" lon="6.79952">
        <ele>756</ele>
        <time>2009-05-05T15:45:25Z</time>
      </trkpt>
      <trkpt lat="43.86206" lon="6.79971">
        <ele>753</ele>
        <time>2009-05-05T15:45:28Z</time>
      </trkpt>
      <trkpt lat="43.86209" lon="6.7999">
        <ele>751</ele>
        <time>2009-05-05T15:45:31Z</time>
      </trkpt>
      <trkpt lat="43.86214" lon="6.80017">
        <ele>747</ele>
        <time>2009-05-05T15:45:34Z</time>
      </trkpt>
      <trkpt lat="43.86217" lon="6.80024">
        <ele>745</ele>
        <time>2009-05-05T15:45:37Z</time>
      </trkpt>
      <trkpt lat="43.86226" lon="6.80038">
        <ele>744</ele>
        <time>2009-05-05T15:45:43Z</time>
      </trkpt>
      <trkpt lat="43.86232" lon="6.80056">
        <ele>744</ele>
        <time>2009-05-05T15:45:46Z</time>
      </trkpt>
      <trkpt lat="43.86238" lon="6.80071">
        <ele>745</ele>
        <time>2009-05-05T15:45:49Z</time>
      </trkpt>
      <trkpt lat="43.86242" lon="6.80091">
        <ele>746</ele>
        <time>2009-05-05T15:45:52Z</time>
      </trkpt>
      <trkpt lat="43.86242" lon="6.80108">
        <ele>745</ele>
        <time>2009-05-05T15:45:55Z</time>
      </trkpt>
      <trkpt lat="43.86242" lon="6.80125">
        <ele>744</ele>
        <time>2009-05-05T15:45:58Z</time>
      </trkpt>
      <trkpt lat="43.86245" lon="6.80142">
        <ele>744</ele>
        <time>2009-05-05T15:46:01Z</time>
      </trkpt>
      <trkpt lat="43.86245" lon="6.8016">
        <ele>742</ele>
        <time>2009-05-05T15:46:04Z</time>
      </trkpt>
      <trkpt lat="43.86249" lon="6.80182">
        <ele>740</ele>
        <time>2009-05-05T15:46:07Z</time>
      </trkpt>
      <trkpt lat="43.86249" lon="6.80207">
        <ele>739</ele>
        <time>2009-05-05T15:46:10Z</time>
      </trkpt>
      <trkpt lat="43.86256" lon="6.80223">
        <ele>737</ele>
        <time>2009-05-05T15:46:13Z</time>
      </trkpt>
      <trkpt lat="43.86271" lon="6.80219">
        <ele>735</ele>
        <time>2009-05-05T15:46:16Z</time>
      </trkpt>
      <trkpt lat="43.86273" lon="6.80213">
        <ele>729</ele>
        <time>2009-05-05T15:46:49Z</time>
      </trkpt>
      <trkpt lat="43.86276" lon="6.80228">
        <ele>730</ele>
        <time>2009-05-05T15:47:22Z</time>
      </trkpt>
      <trkpt lat="43.86277" lon="6.80245">
        <ele>729</ele>
        <time>2009-05-05T15:47:25Z</time>
      </trkpt>
      <trkpt lat="43.86276" lon="6.80259">
        <ele>727</ele>
        <time>2009-05-05T15:47:28Z</time>
      </trkpt>
      <trkpt lat="43.86279" lon="6.80276">
        <ele>727</ele>
        <time>2009-05-05T15:47:31Z</time>
      </trkpt>
      <trkpt lat="43.86283" lon="6.80294">
        <ele>725</ele>
        <time>2009-05-05T15:47:34Z</time>
      </trkpt>
      <trkpt lat="43.86284" lon="6.80312">
        <ele>726</ele>
        <time>2009-05-05T15:47:37Z</time>
      </trkpt>
      <trkpt lat="43.86282" lon="6.8033">
        <ele>727</ele>
        <time>2009-05-05T15:47:40Z</time>
      </trkpt>
      <trkpt lat="43.86275" lon="6.80351">
        <ele>726</ele>
        <time>2009-05-05T15:47:43Z</time>
      </trkpt>
      <trkpt lat="43.8627" lon="6.8037">
        <ele>728</ele>
        <time>2009-05-05T15:47:46Z</time>
      </trkpt>
      <trkpt lat="43.8627" lon="6.8039">
        <ele>728</ele>
        <time>2009-05-05T15:47:49Z</time>
      </trkpt>
      <trkpt lat="43.86265" lon="6.80407">
        <ele>727</ele>
        <time>2009-05-05T15:47:52Z</time>
      </trkpt>
      <trkpt lat="43.86263" lon="6.80424">
        <ele>725</ele>
        <time>2009-05-05T15:47:55Z</time>
      </trkpt>
      <trkpt lat="43.86258" lon="6.80443">
        <ele>726</ele>
        <time>2009-05-05T15:47:58Z</time>
      </trkpt>
      <trkpt lat="43.86253" lon="6.8046">
        <ele>727</ele>
        <time>2009-05-05T15:48:01Z</time>
      </trkpt>
      <trkpt lat="43.86253" lon="6.80476">
        <ele>729</ele>
        <time>2009-05-05T15:48:04Z</time>
      </trkpt>
      <trkpt lat="43.86254" lon="6.80488">
        <ele>731</ele>
        <time>2009-05-05T15:48:07Z</time>
      </trkpt>
      <trkpt lat="43.86249" lon="6.80497">
        <ele>730</ele>
        <time>2009-05-05T15:48:10Z</time>
      </trkpt>
      <trkpt lat="43.86247" lon="6.80508">
        <ele>731</ele>
        <time>2009-05-05T15:48:13Z</time>
      </trkpt>
      <trkpt lat="43.86246" lon="6.80521">
        <ele>729</ele>
        <time>2009-05-05T15:48:16Z</time>
      </trkpt>
      <trkpt lat="43.86249" lon="6.80539">
        <ele>729</ele>
        <time>2009-05-05T15:48:19Z</time>
      </trkpt>
      <trkpt lat="43.86248" lon="6.80556">
        <ele>730</ele>
        <time>2009-05-05T15:48:22Z</time>
      </trkpt>
      <trkpt lat="43.86247" lon="6.80573">
        <ele>733</ele>
        <time>2009-05-05T15:48:25Z</time>
      </trkpt>
      <trkpt lat="43.8625" lon="6.80593">
        <ele>734</ele>
        <time>2009-05-05T15:48:28Z</time>
      </trkpt>
      <trkpt lat="43.8625" lon="6.80605">
        <ele>733</ele>
        <time>2009-05-05T15:48:31Z</time>
      </trkpt>
      <trkpt lat="43.8624" lon="6.80612">
        <ele>723</ele>
        <time>2009-05-05T15:48:37Z</time>
      </trkpt>
      <trkpt lat="43.86239" lon="6.8062">
        <ele>725</ele>
        <time>2009-05-05T15:48:55Z</time>
      </trkpt>
      <trkpt lat="43.86251" lon="6.80631">
        <ele>734</ele>
        <time>2009-05-05T15:49:11Z</time>
      </trkpt>
      <trkpt lat="43.86259" lon="6.80642">
        <ele>733</ele>
        <time>2009-05-05T15:49:13Z</time>
      </trkpt>
      <trkpt lat="43.86267" lon="6.80647">
        <ele>733</ele>
        <time>2009-05-05T15:49:16Z</time>
      </trkpt>
      <trkpt lat="43.86259" lon="6.80647">
        <ele>702</ele>
        <time>2009-05-05T15:56:38Z</time>
      </trkpt>
      <trkpt lat="43.86255" lon="6.80639">
        <ele>716</ele>
        <time>2009-05-05T14:18:01Z</time>
      </trkpt>
      <trkpt lat="43.86247" lon="6.80657">
        <ele>743</ele>
        <time>2009-05-05T14:20:57Z</time>
      </trkpt>
      <trkpt lat="43.86254" lon="6.80663">
        <ele>735</ele>
        <time>2009-05-05T14:21:09Z</time>
      </trkpt>
      <trkpt lat="43.86256" lon="6.80676">
        <ele>728</ele>
        <time>2009-05-05T14:21:15Z</time>
      </trkpt>
      <trkpt lat="43.86254" lon="6.80688">
        <ele>725</ele>
        <time>2009-05-05T14:21:21Z</time>
      </trkpt>
      <trkpt lat="43.86252" lon="6.80696">
        <ele>723</ele>
        <time>2009-05-05T14:21:24Z</time>
      </trkpt>
      <trkpt lat="43.8625" lon="6.80703">
        <ele>723</ele>
        <time>2009-05-05T14:21:27Z</time>
      </trkpt>
      <trkpt lat="43.86245" lon="6.80711">
        <ele>722</ele>
        <time>2009-05-05T14:21:30Z</time>
      </trkpt>
      <trkpt lat="43.86238" lon="6.80716">
        <ele>723</ele>
        <time>2009-05-05T14:21:33Z</time>
      </trkpt>
      <trkpt lat="43.86231" lon="6.80719">
        <ele>725</ele>
        <time>2009-05-05T14:21:36Z</time>
      </trkpt>
      <trkpt lat="43.86217" lon="6.8072">
        <ele>730</ele>
        <time>2009-05-05T14:21:42Z</time>
      </trkpt>
      <trkpt lat="43.86209" lon="6.80718">
        <ele>733</ele>
        <time>2009-05-05T14:21:45Z</time>
      </trkpt>
      <trkpt lat="43.86201" lon="6.80717">
        <ele>738</ele>
        <time>2009-05-05T14:21:48Z</time>
      </trkpt>
      <trkpt lat="43.86188" lon="6.80717">
        <ele>746</ele>
        <time>2009-05-05T14:21:55Z</time>
      </trkpt>
      <trkpt lat="43.86187" lon="6.80729">
        <ele>750</ele>
        <time>2009-05-05T14:22:00Z</time>
      </trkpt>
      <trkpt lat="43.86191" lon="6.80741">
        <ele>743</ele>
        <time>2009-05-05T14:22:06Z</time>
      </trkpt>
      <trkpt lat="43.86189" lon="6.80753">
        <ele>738</ele>
        <time>2009-05-05T14:22:12Z</time>
      </trkpt>
      <trkpt lat="43.86185" lon="6.8076">
        <ele>737</ele>
        <time>2009-05-05T14:22:15Z</time>
      </trkpt>
      <trkpt lat="43.8618" lon="6.80766">
        <ele>737</ele>
        <time>2009-05-05T14:22:18Z</time>
      </trkpt>
      <trkpt lat="43.86169" lon="6.80769">
        <ele>735</ele>
        <time>2009-05-05T14:22:24Z</time>
      </trkpt>
      <trkpt lat="43.86159" lon="6.80769">
        <ele>733</ele>
        <time>2009-05-05T14:22:30Z</time>
      </trkpt>
      <trkpt lat="43.86147" lon="6.8077">
        <ele>733</ele>
        <time>2009-05-05T14:22:33Z</time>
      </trkpt>
      <trkpt lat="43.86138" lon="6.80785">
        <ele>731</ele>
        <time>2009-05-05T14:22:36Z</time>
      </trkpt>
      <trkpt lat="43.86129" lon="6.80801">
        <ele>732</ele>
        <time>2009-05-05T14:22:39Z</time>
      </trkpt>
      <trkpt lat="43.86121" lon="6.8081">
        <ele>732</ele>
        <time>2009-05-05T14:22:42Z</time>
      </trkpt>
      <trkpt lat="43.86113" lon="6.80817">
        <ele>732</ele>
        <time>2009-05-05T14:22:45Z</time>
      </trkpt>
      <trkpt lat="43.86109" lon="6.80823">
        <ele>732</ele>
        <time>2009-05-05T14:22:48Z</time>
      </trkpt>
      <trkpt lat="43.86105" lon="6.80831">
        <ele>734</ele>
        <time>2009-05-05T14:22:51Z</time>
      </trkpt>
      <trkpt lat="43.86101" lon="6.80838">
        <ele>736</ele>
        <time>2009-05-05T14:22:54Z</time>
      </trkpt>
      <trkpt lat="43.86097" lon="6.80844">
        <ele>738</ele>
        <time>2009-05-05T14:22:57Z</time>
      </trkpt>
      <trkpt lat="43.86088" lon="6.80854">
        <ele>739</ele>
        <time>2009-05-05T14:23:03Z</time>
      </trkpt>
      <trkpt lat="43.86074" lon="6.80862">
        <ele>743</ele>
        <time>2009-05-05T14:23:09Z</time>
      </trkpt>
      <trkpt lat="43.86065" lon="6.80869">
        <ele>745</ele>
        <time>2009-05-05T14:23:12Z</time>
      </trkpt>
      <trkpt lat="43.86058" lon="6.80878">
        <ele>749</ele>
        <time>2009-05-05T14:23:15Z</time>
      </trkpt>
      <trkpt lat="43.8605" lon="6.80886">
        <ele>752</ele>
        <time>2009-05-05T14:23:18Z</time>
      </trkpt>
      <trkpt lat="43.86044" lon="6.80892">
        <ele>751</ele>
        <time>2009-05-05T14:23:21Z</time>
      </trkpt>
      <trkpt lat="43.86039" lon="6.80898">
        <ele>750</ele>
        <time>2009-05-05T14:23:24Z</time>
      </trkpt>
      <trkpt lat="43.86036" lon="6.80906">
        <ele>751</ele>
        <time>2009-05-05T14:23:27Z</time>
      </trkpt>
      <trkpt lat="43.86032" lon="6.80913">
        <ele>752</ele>
        <time>2009-05-05T14:23:30Z</time>
      </trkpt>
      <trkpt lat="43.86026" lon="6.80925">
        <ele>753</ele>
        <time>2009-05-05T14:23:36Z</time>
      </trkpt>
      <trkpt lat="43.86022" lon="6.80932">
        <ele>752</ele>
        <time>2009-05-05T14:23:39Z</time>
      </trkpt>
      <trkpt lat="43.86021" lon="6.80939">
        <ele>753</ele>
        <time>2009-05-05T14:23:42Z</time>
      </trkpt>
      <trkpt lat="43.86021" lon="6.80947">
        <ele>754</ele>
        <time>2009-05-05T14:23:45Z</time>
      </trkpt>
      <trkpt lat="43.86023" lon="6.80956">
        <ele>752</ele>
        <time>2009-05-05T14:23:48Z</time>
      </trkpt>
      <trkpt lat="43.86024" lon="6.80966">
        <ele>750</ele>
        <time>2009-05-05T14:23:51Z</time>
      </trkpt>
      <trkpt lat="43.86023" lon="6.80975">
        <ele>748</ele>
        <time>2009-05-05T14:23:54Z</time>
      </trkpt>
      <trkpt lat="43.86019" lon="6.80985">
        <ele>748</ele>
        <time>2009-05-05T14:23:57Z</time>
      </trkpt>
      <trkpt lat="43.86014" lon="6.80993">
        <ele>748</ele>
        <time>2009-05-05T14:24:00Z</time>
      </trkpt>
      <trkpt lat="43.8601" lon="6.81">
        <ele>748</ele>
        <time>2009-05-05T14:24:03Z</time>
      </trkpt>
      <trkpt lat="43.86006" lon="6.81009">
        <ele>748</ele>
        <time>2009-05-05T14:24:06Z</time>
      </trkpt>
      <trkpt lat="43.86002" lon="6.81017">
        <ele>749</ele>
        <time>2009-05-05T14:24:09Z</time>
      </trkpt>
      <trkpt lat="43.85998" lon="6.81031">
        <ele>748</ele>
        <time>2009-05-05T14:24:15Z</time>
      </trkpt>
      <trkpt lat="43.85996" lon="6.81039">
        <ele>751</ele>
        <time>2009-05-05T14:24:18Z</time>
      </trkpt>
      <trkpt lat="43.8599" lon="6.8105">
        <ele>754</ele>
        <time>2009-05-05T14:24:25Z</time>
      </trkpt>
      <trkpt lat="43.85985" lon="6.81062">
        <ele>753</ele>
        <time>2009-05-05T14:24:31Z</time>
      </trkpt>
      <trkpt lat="43.85984" lon="6.8107">
        <ele>753</ele>
        <time>2009-05-05T14:24:34Z</time>
      </trkpt>
      <trkpt lat="43.85983" lon="6.81081">
        <ele>755</ele>
        <time>2009-05-05T14:24:37Z</time>
      </trkpt>
      <trkpt lat="43.85982" lon="6.81091">
        <ele>758</ele>
        <time>2009-05-05T14:24:40Z</time>
      </trkpt>
      <trkpt lat="43.85982" lon="6.811">
        <ele>759</ele>
        <time>2009-05-05T14:24:43Z</time>
      </trkpt>
      <trkpt lat="43.8598" lon="6.81109">
        <ele>761</ele>
        <time>2009-05-05T14:24:46Z</time>
      </trkpt>
      <trkpt lat="43.85978" lon="6.81117">
        <ele>760</ele>
        <time>2009-05-05T14:24:49Z</time>
      </trkpt>
      <trkpt lat="43.85978" lon="6.81124">
        <ele>760</ele>
        <time>2009-05-05T14:24:52Z</time>
      </trkpt>
      <trkpt lat="43.85976" lon="6.81132">
        <ele>761</ele>
        <time>2009-05-05T14:24:55Z</time>
      </trkpt>
      <trkpt lat="43.85975" lon="6.81145">
        <ele>759</ele>
        <time>2009-05-05T14:25:01Z</time>
      </trkpt>
      <trkpt lat="43.85974" lon="6.81156">
        <ele>758</ele>
        <time>2009-05-05T14:25:04Z</time>
      </trkpt>
      <trkpt lat="43.85971" lon="6.8117">
        <ele>756</ele>
        <time>2009-05-05T14:25:07Z</time>
      </trkpt>
      <trkpt lat="43.85963" lon="6.81186">
        <ele>755</ele>
        <time>2009-05-05T14:25:10Z</time>
      </trkpt>
      <trkpt lat="43.85953" lon="6.81194">
        <ele>758</ele>
        <time>2009-05-05T14:25:13Z</time>
      </trkpt>
      <trkpt lat="43.85941" lon="6.81202">
        <ele>759</ele>
        <time>2009-05-05T14:25:16Z</time>
      </trkpt>
      <trkpt lat="43.85931" lon="6.81213">
        <ele>760</ele>
        <time>2009-05-05T14:25:19Z</time>
      </trkpt>
      <trkpt lat="43.85923" lon="6.81222">
        <ele>760</ele>
        <time>2009-05-05T14:25:22Z</time>
      </trkpt>
      <trkpt lat="43.85917" lon="6.81235">
        <ele>762</ele>
        <time>2009-05-05T14:25:25Z</time>
      </trkpt>
      <trkpt lat="43.85915" lon="6.81249">
        <ele>760</ele>
        <time>2009-05-05T14:25:28Z</time>
      </trkpt>
      <trkpt lat="43.8591" lon="6.81268">
        <ele>760</ele>
        <time>2009-05-05T14:25:31Z</time>
      </trkpt>
      <trkpt lat="43.85895" lon="6.81286">
        <ele>757</ele>
        <time>2009-05-05T14:25:34Z</time>
      </trkpt>
      <trkpt lat="43.85873" lon="6.81297">
        <ele>754</ele>
        <time>2009-05-05T14:25:37Z</time>
      </trkpt>
      <trkpt lat="43.8585" lon="6.81298">
        <ele>752</ele>
        <time>2009-05-05T14:25:40Z</time>
      </trkpt>
      <trkpt lat="43.85827" lon="6.81282">
        <ele>750</ele>
        <time>2009-05-05T14:25:43Z</time>
      </trkpt>
      <trkpt lat="43.85807" lon="6.81263">
        <ele>747</ele>
        <time>2009-05-05T14:25:46Z</time>
      </trkpt>
      <trkpt lat="43.85825" lon="6.81276">
        <ele>751</ele>
        <time>2009-05-05T14:25:52Z</time>
      </trkpt>
      <trkpt lat="43.8584" lon="6.8128">
        <ele>755</ele>
        <time>2009-05-05T14:25:55Z</time>
      </trkpt>
      <trkpt lat="43.85843" lon="6.81302">
        <ele>753</ele>
        <time>2009-05-05T14:26:01Z</time>
      </trkpt>
      <trkpt lat="43.85838" lon="6.81318">
        <ele>751</ele>
        <time>2009-05-05T14:26:04Z</time>
      </trkpt>
      <trkpt lat="43.85835" lon="6.81332">
        <ele>751</ele>
        <time>2009-05-05T14:26:07Z</time>
      </trkpt>
      <trkpt lat="43.85833" lon="6.81342">
        <ele>750</ele>
        <time>2009-05-05T14:26:10Z</time>
      </trkpt>
      <trkpt lat="43.85833" lon="6.81359">
        <ele>753</ele>
        <time>2009-05-05T14:26:13Z</time>
      </trkpt>
      <trkpt lat="43.85835" lon="6.81375">
        <ele>754</ele>
        <time>2009-05-05T14:26:16Z</time>
      </trkpt>
      <trkpt lat="43.85836" lon="6.81391">
        <ele>753</ele>
        <time>2009-05-05T14:26:19Z</time>
      </trkpt>
      <trkpt lat="43.8584" lon="6.81406">
        <ele>752</ele>
        <time>2009-05-05T14:26:22Z</time>
      </trkpt>
      <trkpt lat="43.85843" lon="6.81423">
        <ele>751</ele>
        <time>2009-05-05T14:26:25Z</time>
      </trkpt>
      <trkpt lat="43.85848" lon="6.81444">
        <ele>750</ele>
        <time>2009-05-05T14:26:28Z</time>
      </trkpt>
      <trkpt lat="43.85853" lon="6.81466">
        <ele>748</ele>
        <time>2009-05-05T14:26:31Z</time>
      </trkpt>
      <trkpt lat="43.85859" lon="6.81486">
        <ele>747</ele>
        <time>2009-05-05T14:26:34Z</time>
      </trkpt>
      <trkpt lat="43.85858" lon="6.81504">
        <ele>744</ele>
        <time>2009-05-05T14:26:37Z</time>
      </trkpt>
      <trkpt lat="43.85853" lon="6.81521">
        <ele>741</ele>
        <time>2009-05-05T14:26:40Z</time>
      </trkpt>
      <trkpt lat="43.85851" lon="6.81537">
        <ele>739</ele>
        <time>2009-05-05T14:26:43Z</time>
      </trkpt>
      <trkpt lat="43.85849" lon="6.81555">
        <ele>738</ele>
        <time>2009-05-05T14:26:46Z</time>
      </trkpt>
      <trkpt lat="43.85848" lon="6.81579">
        <ele>739</ele>
        <time>2009-05-05T14:26:49Z</time>
      </trkpt>
      <trkpt lat="43.85847" lon="6.81602">
        <ele>740</ele>
        <time>2009-05-05T14:26:52Z</time>
      </trkpt>
      <trkpt lat="43.85846" lon="6.81615">
        <ele>741</ele>
        <time>2009-05-05T14:26:58Z</time>
      </trkpt>
      <trkpt lat="43.85841" lon="6.81625">
        <ele>742</ele>
        <time>2009-05-05T14:27:04Z</time>
      </trkpt>
      <trkpt lat="43.85852" lon="6.81617">
        <ele>748</ele>
        <time>2009-05-05T14:28:54Z</time>
      </trkpt>
      <trkpt lat="43.85845" lon="6.81624">
        <ele>748</ele>
        <time>2009-05-05T14:29:03Z</time>
      </trkpt>
      <trkpt lat="43.85839" lon="6.81637">
        <ele>747</ele>
        <time>2009-05-05T14:29:09Z</time>
      </trkpt>
      <trkpt lat="43.85835" lon="6.81648">
        <ele>746</ele>
        <time>2009-05-05T14:29:12Z</time>
      </trkpt>
      <trkpt lat="43.85832" lon="6.81657">
        <ele>746</ele>
        <time>2009-05-05T14:29:15Z</time>
      </trkpt>
      <trkpt lat="43.85828" lon="6.81669">
        <ele>745</ele>
        <time>2009-05-05T14:29:18Z</time>
      </trkpt>
      <trkpt lat="43.85821" lon="6.81685">
        <ele>743</ele>
        <time>2009-05-05T14:29:21Z</time>
      </trkpt>
      <trkpt lat="43.8581" lon="6.81705">
        <ele>743</ele>
        <time>2009-05-05T14:29:24Z</time>
      </trkpt>
      <trkpt lat="43.85797" lon="6.8173">
        <ele>742</ele>
        <time>2009-05-05T14:29:27Z</time>
      </trkpt>
      <trkpt lat="43.85779" lon="6.81759">
        <ele>743</ele>
        <time>2009-05-05T14:29:30Z</time>
      </trkpt>
      <trkpt lat="43.85776" lon="6.81785">
        <ele>744</ele>
        <time>2009-05-05T14:29:33Z</time>
      </trkpt>
      <trkpt lat="43.85781" lon="6.8181">
        <ele>742</ele>
        <time>2009-05-05T14:29:36Z</time>
      </trkpt>
      <trkpt lat="43.85778" lon="6.81828">
        <ele>742</ele>
        <time>2009-05-05T14:29:39Z</time>
      </trkpt>
      <trkpt lat="43.85771" lon="6.81839">
        <ele>741</ele>
        <time>2009-05-05T14:29:42Z</time>
      </trkpt>
      <trkpt lat="43.85761" lon="6.81848">
        <ele>743</ele>
        <time>2009-05-05T14:29:45Z</time>
      </trkpt>
      <trkpt lat="43.85753" lon="6.81856">
        <ele>748</ele>
        <time>2009-05-05T14:29:48Z</time>
      </trkpt>
      <trkpt lat="43.85753" lon="6.81865">
        <ele>749</ele>
        <time>2009-05-05T14:29:51Z</time>
      </trkpt>
      <trkpt lat="43.85754" lon="6.81876">
        <ele>748</ele>
        <time>2009-05-05T14:29:57Z</time>
      </trkpt>
      <trkpt lat="43.85753" lon="6.81883">
        <ele>747</ele>
        <time>2009-05-05T14:30:00Z</time>
      </trkpt>
      <trkpt lat="43.85753" lon="6.81892">
        <ele>749</ele>
        <time>2009-05-05T14:30:03Z</time>
      </trkpt>
      <trkpt lat="43.85752" lon="6.81901">
        <ele>750</ele>
        <time>2009-05-05T14:30:06Z</time>
      </trkpt>
      <trkpt lat="43.8575" lon="6.81909">
        <ele>748</ele>
        <time>2009-05-05T14:30:09Z</time>
      </trkpt>
      <trkpt lat="43.85749" lon="6.81919">
        <ele>747</ele>
        <time>2009-05-05T14:30:12Z</time>
      </trkpt>
      <trkpt lat="43.8575" lon="6.81929">
        <ele>749</ele>
        <time>2009-05-05T14:30:15Z</time>
      </trkpt>
      <trkpt lat="43.8575" lon="6.81938">
        <ele>750</ele>
        <time>2009-05-05T14:30:18Z</time>
      </trkpt>
      <trkpt lat="43.85751" lon="6.81946">
        <ele>751</ele>
        <time>2009-05-05T14:30:21Z</time>
      </trkpt>
      <trkpt lat="43.85754" lon="6.81959">
        <ele>751</ele>
        <time>2009-05-05T14:30:24Z</time>
      </trkpt>
      <trkpt lat="43.85755" lon="6.8198">
        <ele>750</ele>
        <time>2009-05-05T14:30:27Z</time>
      </trkpt>
      <trkpt lat="43.85764" lon="6.82009">
        <ele>748</ele>
        <time>2009-05-05T14:30:30Z</time>
      </trkpt>
      <trkpt lat="43.85774" lon="6.82043">
        <ele>744</ele>
        <time>2009-05-05T14:30:33Z</time>
      </trkpt>
      <trkpt lat="43.85782" lon="6.82078">
        <ele>744</ele>
        <time>2009-05-05T14:30:36Z</time>
      </trkpt>
      <trkpt lat="43.85783" lon="6.82106">
        <ele>743</ele>
        <time>2009-05-05T14:30:39Z</time>
      </trkpt>
      <trkpt lat="43.8578" lon="6.8213">
        <ele>741</ele>
        <time>2009-05-05T14:30:42Z</time>
      </trkpt>
      <trkpt lat="43.85783" lon="6.82156">
        <ele>739</ele>
        <time>2009-05-05T14:30:45Z</time>
      </trkpt>
      <trkpt lat="43.85789" lon="6.82183">
        <ele>736</ele>
        <time>2009-05-05T14:30:48Z</time>
      </trkpt>
      <trkpt lat="43.85789" lon="6.8221">
        <ele>734</ele>
        <time>2009-05-05T14:30:51Z</time>
      </trkpt>
      <trkpt lat="43.85787" lon="6.82236">
        <ele>732</ele>
        <time>2009-05-05T14:30:54Z</time>
      </trkpt>
      <trkpt lat="43.85784" lon="6.82261">
        <ele>730</ele>
        <time>2009-05-05T14:30:57Z</time>
      </trkpt>
      <trkpt lat="43.85778" lon="6.8229">
        <ele>729</ele>
        <time>2009-05-05T14:31:00Z</time>
      </trkpt>
      <trkpt lat="43.85772" lon="6.82316">
        <ele>728</ele>
        <time>2009-05-05T14:31:03Z</time>
      </trkpt>
      <trkpt lat="43.85767" lon="6.82347">
        <ele>727</ele>
        <time>2009-05-05T14:31:06Z</time>
      </trkpt>
      <trkpt lat="43.85772" lon="6.82372">
        <ele>729</ele>
        <time>2009-05-05T14:31:09Z</time>
      </trkpt>
      <trkpt lat="43.85779" lon="6.82383">
        <ele>727</ele>
        <time>2009-05-05T14:31:12Z</time>
      </trkpt>
      <trkpt lat="43.85785" lon="6.82396">
        <ele>731</ele>
        <time>2009-05-05T14:31:15Z</time>
      </trkpt>
      <trkpt lat="43.85791" lon="6.82407">
        <ele>733</ele>
        <time>2009-05-05T14:31:18Z</time>
      </trkpt>
      <trkpt lat="43.85797" lon="6.82423">
        <ele>731</ele>
        <time>2009-05-05T14:31:21Z</time>
      </trkpt>
      <trkpt lat="43.85799" lon="6.82446">
        <ele>730</ele>
        <time>2009-05-05T14:31:24Z</time>
      </trkpt>
      <trkpt lat="43.85793" lon="6.8247">
        <ele>728</ele>
        <time>2009-05-05T14:31:27Z</time>
      </trkpt>
      <trkpt lat="43.85786" lon="6.8249">
        <ele>727</ele>
        <time>2009-05-05T14:31:30Z</time>
      </trkpt>
      <trkpt lat="43.85779" lon="6.82509">
        <ele>726</ele>
        <time>2009-05-05T14:31:33Z</time>
      </trkpt>
      <trkpt lat="43.8577" lon="6.82526">
        <ele>726</ele>
        <time>2009-05-05T14:31:36Z</time>
      </trkpt>
      <trkpt lat="43.8576" lon="6.82541">
        <ele>728</ele>
        <time>2009-05-05T14:31:39Z</time>
      </trkpt>
      <trkpt lat="43.85759" lon="6.82559">
        <ele>728</ele>
        <time>2009-05-05T14:31:42Z</time>
      </trkpt>
      <trkpt lat="43.85765" lon="6.82572">
        <ele>727</ele>
        <time>2009-05-05T14:31:45Z</time>
      </trkpt>
      <trkpt lat="43.85776" lon="6.82588">
        <ele>727</ele>
        <time>2009-05-05T14:31:48Z</time>
      </trkpt>
      <trkpt lat="43.85786" lon="6.82605">
        <ele>726</ele>
        <time>2009-05-05T14:31:51Z</time>
      </trkpt>
      <trkpt lat="43.85799" lon="6.82625">
        <ele>724</ele>
        <time>2009-05-05T14:31:56Z</time>
      </trkpt>
      <trkpt lat="43.85833" lon="6.82671">
        <ele>720</ele>
        <time>2009-05-05T14:32:00Z</time>
      </trkpt>
      <trkpt lat="43.85849" lon="6.82701">
        <ele>717</ele>
        <time>2009-05-05T14:32:03Z</time>
      </trkpt>
      <trkpt lat="43.8586" lon="6.82732">
        <ele>715</ele>
        <time>2009-05-05T14:32:06Z</time>
      </trkpt>
      <trkpt lat="43.85859" lon="6.82753">
        <ele>712</ele>
        <time>2009-05-05T14:32:09Z</time>
      </trkpt>
      <trkpt lat="43.85865" lon="6.8278">
        <ele>708</ele>
        <time>2009-05-05T14:32:12Z</time>
      </trkpt>
      <trkpt lat="43.8587" lon="6.82801">
        <ele>705</ele>
        <time>2009-05-05T14:32:15Z</time>
      </trkpt>
      <trkpt lat="43.8588" lon="6.82812">
        <ele>706</ele>
        <time>2009-05-05T14:32:18Z</time>
      </trkpt>
      <trkpt lat="43.85886" lon="6.82816">
        <ele>705</ele>
        <time>2009-05-05T14:32:21Z</time>
      </trkpt>
      <trkpt lat="43.85894" lon="6.8283">
        <ele>704</ele>
        <time>2009-05-05T14:32:24Z</time>
      </trkpt>
      <trkpt lat="43.85906" lon="6.82845">
        <ele>705</ele>
        <time>2009-05-05T14:32:27Z</time>
      </trkpt>
      <trkpt lat="43.85921" lon="6.82864">
        <ele>705</ele>
        <time>2009-05-05T14:32:30Z</time>
      </trkpt>
      <trkpt lat="43.85935" lon="6.8289">
        <ele>702</ele>
        <time>2009-05-05T14:32:33Z</time>
      </trkpt>
      <trkpt lat="43.85951" lon="6.82915">
        <ele>697</ele>
        <time>2009-05-05T14:32:36Z</time>
      </trkpt>
      <trkpt lat="43.85974" lon="6.82939">
        <ele>699</ele>
        <time>2009-05-05T14:32:39Z</time>
      </trkpt>
      <trkpt lat="43.85995" lon="6.82965">
        <ele>698</ele>
        <time>2009-05-05T14:32:42Z</time>
      </trkpt>
      <trkpt lat="43.86008" lon="6.82991">
        <ele>695</ele>
        <time>2009-05-05T14:32:45Z</time>
      </trkpt>
      <trkpt lat="43.86021" lon="6.83009">
        <ele>694</ele>
        <time>2009-05-05T14:32:48Z</time>
      </trkpt>
      <trkpt lat="43.86033" lon="6.83027">
        <ele>691</ele>
        <time>2009-05-05T14:32:51Z</time>
      </trkpt>
      <trkpt lat="43.86045" lon="6.83044">
        <ele>691</ele>
        <time>2009-05-05T14:32:54Z</time>
      </trkpt>
      <trkpt lat="43.86057" lon="6.8306">
        <ele>690</ele>
        <time>2009-05-05T14:32:57Z</time>
      </trkpt>
      <trkpt lat="43.86071" lon="6.83079">
        <ele>690</ele>
        <time>2009-05-05T14:33:00Z</time>
      </trkpt>
      <trkpt lat="43.86085" lon="6.83097">
        <ele>688</ele>
        <time>2009-05-05T14:33:03Z</time>
      </trkpt>
      <trkpt lat="43.86094" lon="6.83115">
        <ele>686</ele>
        <time>2009-05-05T14:33:06Z</time>
      </trkpt>
      <trkpt lat="43.86103" lon="6.83134">
        <ele>686</ele>
        <time>2009-05-05T14:33:09Z</time>
      </trkpt>
      <trkpt lat="43.8611" lon="6.83159">
        <ele>684</ele>
        <time>2009-05-05T14:33:12Z</time>
      </trkpt>
      <trkpt lat="43.86112" lon="6.83185">
        <ele>682</ele>
        <time>2009-05-05T14:33:15Z</time>
      </trkpt>
      <trkpt lat="43.86109" lon="6.83207">
        <ele>679</ele>
        <time>2009-05-05T14:33:18Z</time>
      </trkpt>
      <trkpt lat="43.8611" lon="6.83219">
        <ele>678</ele>
        <time>2009-05-05T14:33:21Z</time>
      </trkpt>
      <trkpt lat="43.8611" lon="6.83227">
        <ele>679</ele>
        <time>2009-05-05T14:33:24Z</time>
      </trkpt>
      <trkpt lat="43.8611" lon="6.8324">
        <ele>678</ele>
        <time>2009-05-05T14:33:27Z</time>
      </trkpt>
      <trkpt lat="43.8611" lon="6.83257">
        <ele>677</ele>
        <time>2009-05-05T14:33:30Z</time>
      </trkpt>
      <trkpt lat="43.8611" lon="6.83275">
        <ele>679</ele>
        <time>2009-05-05T14:33:33Z</time>
      </trkpt>
      <trkpt lat="43.8611" lon="6.8329">
        <ele>679</ele>
        <time>2009-05-05T14:33:36Z</time>
      </trkpt>
      <trkpt lat="43.86113" lon="6.83303">
        <ele>679</ele>
        <time>2009-05-05T14:33:39Z</time>
      </trkpt>
      <trkpt lat="43.86116" lon="6.83316">
        <ele>679</ele>
        <time>2009-05-05T14:33:42Z</time>
      </trkpt>
      <trkpt lat="43.8612" lon="6.8333">
        <ele>680</ele>
        <time>2009-05-05T14:33:45Z</time>
      </trkpt>
      <trkpt lat="43.86127" lon="6.83343">
        <ele>680</ele>
        <time>2009-05-05T14:33:48Z</time>
      </trkpt>
      <trkpt lat="43.86131" lon="6.83356">
        <ele>680</ele>
        <time>2009-05-05T14:33:51Z</time>
      </trkpt>
      <trkpt lat="43.86135" lon="6.83369">
        <ele>680</ele>
        <time>2009-05-05T14:33:54Z</time>
      </trkpt>
      <trkpt lat="43.86136" lon="6.83379">
        <ele>680</ele>
        <time>2009-05-05T14:33:57Z</time>
      </trkpt>
      <trkpt lat="43.86135" lon="6.83387">
        <ele>680</ele>
        <time>2009-05-05T14:34:03Z</time>
      </trkpt>
      <trkpt lat="43.86143" lon="6.83386">
        <ele>683</ele>
        <time>2009-05-05T14:34:18Z</time>
      </trkpt>
      <trkpt lat="43.86151" lon="6.83383">
        <ele>690</ele>
        <time>2009-05-05T14:34:24Z</time>
      </trkpt>
      <trkpt lat="43.86143" lon="6.83391">
        <ele>690</ele>
        <time>2009-05-05T14:34:48Z</time>
      </trkpt>
      <trkpt lat="43.86139" lon="6.83398">
        <ele>688</ele>
        <time>2009-05-05T14:34:51Z</time>
      </trkpt>
      <trkpt lat="43.86135" lon="6.83405">
        <ele>683</ele>
        <time>2009-05-05T14:34:57Z</time>
      </trkpt>
      <trkpt lat="43.8613" lon="6.83415">
        <ele>680</ele>
        <time>2009-05-05T14:35:03Z</time>
      </trkpt>
      <trkpt lat="43.8613" lon="6.83422">
        <ele>681</ele>
        <time>2009-05-05T14:35:06Z</time>
      </trkpt>
      <trkpt lat="43.86126" lon="6.83428">
        <ele>680</ele>
        <time>2009-05-05T14:35:21Z</time>
      </trkpt>
      <trkpt lat="43.86126" lon="6.83439">
        <ele>677</ele>
        <time>2009-05-05T14:37:21Z</time>
      </trkpt>
      <trkpt lat="43.86133" lon="6.83439">
        <ele>682</ele>
        <time>2009-05-05T14:37:30Z</time>
      </trkpt>
      <trkpt lat="43.86128" lon="6.83446">
        <ele>683</ele>
        <time>2009-05-05T14:37:42Z</time>
      </trkpt>
      <trkpt lat="43.86129" lon="6.83454">
        <ele>682</ele>
        <time>2009-05-05T14:37:54Z</time>
      </trkpt>
      <trkpt lat="43.86128" lon="6.83463">
        <ele>685</ele>
        <time>2009-05-05T14:38:03Z</time>
      </trkpt>
      <trkpt lat="43.86126" lon="6.8347">
        <ele>685</ele>
        <time>2009-05-05T14:38:12Z</time>
      </trkpt>
      <trkpt lat="43.86122" lon="6.83478">
        <ele>685</ele>
        <time>2009-05-05T14:38:24Z</time>
      </trkpt>
      <trkpt lat="43.86128" lon="6.83494">
        <ele>685</ele>
        <time>2009-05-05T14:38:30Z</time>
      </trkpt>
      <trkpt lat="43.86131" lon="6.83507">
        <ele>685</ele>
        <time>2009-05-05T14:38:33Z</time>
      </trkpt>
      <trkpt lat="43.86132" lon="6.83516">
        <ele>687</ele>
        <time>2009-05-05T14:38:36Z</time>
      </trkpt>
      <trkpt lat="43.86135" lon="6.83523">
        <ele>688</ele>
        <time>2009-05-05T14:38:39Z</time>
      </trkpt>
      <trkpt lat="43.8614" lon="6.83532">
        <ele>689</ele>
        <time>2009-05-05T14:38:42Z</time>
      </trkpt>
      <trkpt lat="43.86141" lon="6.83543">
        <ele>691</ele>
        <time>2009-05-05T14:38:45Z</time>
      </trkpt>
      <trkpt lat="43.86144" lon="6.83554">
        <ele>692</ele>
        <time>2009-05-05T14:38:48Z</time>
      </trkpt>
      <trkpt lat="43.86149" lon="6.83565">
        <ele>692</ele>
        <time>2009-05-05T14:38:51Z</time>
      </trkpt>
      <trkpt lat="43.8615" lon="6.83573">
        <ele>693</ele>
        <time>2009-05-05T14:38:54Z</time>
      </trkpt>
      <trkpt lat="43.86151" lon="6.83584">
        <ele>692</ele>
        <time>2009-05-05T14:39:00Z</time>
      </trkpt>
      <trkpt lat="43.86151" lon="6.83591">
        <ele>693</ele>
        <time>2009-05-05T14:39:03Z</time>
      </trkpt>
      <trkpt lat="43.86152" lon="6.83599">
        <ele>694</ele>
        <time>2009-05-05T14:39:06Z</time>
      </trkpt>
      <trkpt lat="43.86153" lon="6.83606">
        <ele>694</ele>
        <time>2009-05-05T14:39:09Z</time>
      </trkpt>
      <trkpt lat="43.86153" lon="6.83613">
        <ele>694</ele>
        <time>2009-05-05T14:39:12Z</time>
      </trkpt>
      <trkpt lat="43.86153" lon="6.83625">
        <ele>693</ele>
        <time>2009-05-05T14:39:15Z</time>
      </trkpt>
      <trkpt lat="43.86153" lon="6.83632">
        <ele>692</ele>
        <time>2009-05-05T14:39:18Z</time>
      </trkpt>
      <trkpt lat="43.86147" lon="6.83642">
        <ele>690</ele>
        <time>2009-05-05T14:39:24Z</time>
      </trkpt>
      <trkpt lat="43.86146" lon="6.83658">
        <ele>688</ele>
        <time>2009-05-05T14:39:30Z</time>
      </trkpt>
      <trkpt lat="43.86149" lon="6.83667">
        <ele>688</ele>
        <time>2009-05-05T14:39:33Z</time>
      </trkpt>
      <trkpt lat="43.86153" lon="6.83673">
        <ele>689</ele>
        <time>2009-05-05T14:39:36Z</time>
      </trkpt>
      <trkpt lat="43.86155" lon="6.83679">
        <ele>690</ele>
        <time>2009-05-05T14:39:39Z</time>
      </trkpt>
      <trkpt lat="43.8616" lon="6.83688">
        <ele>690</ele>
        <time>2009-05-05T14:39:45Z</time>
      </trkpt>
      <trkpt lat="43.86163" lon="6.83694">
        <ele>690</ele>
        <time>2009-05-05T14:39:54Z</time>
      </trkpt>
      <trkpt lat="43.86166" lon="6.83707">
        <ele>690</ele>
        <time>2009-05-05T14:40:00Z</time>
      </trkpt>
      <trkpt lat="43.86168" lon="6.83717">
        <ele>691</ele>
        <time>2009-05-05T14:40:06Z</time>
      </trkpt>
      <trkpt lat="43.86174" lon="6.83723">
        <ele>690</ele>
        <time>2009-05-05T14:40:15Z</time>
      </trkpt>
      <trkpt lat="43.86177" lon="6.8373">
        <ele>689</ele>
        <time>2009-05-05T14:40:18Z</time>
      </trkpt>
      <trkpt lat="43.8618" lon="6.83738">
        <ele>684</ele>
        <time>2009-05-05T14:40:21Z</time>
      </trkpt>
      <trkpt lat="43.86192" lon="6.83739">
        <ele>680</ele>
        <time>2009-05-05T14:40:27Z</time>
      </trkpt>
      <trkpt lat="43.86201" lon="6.83742">
        <ele>676</ele>
        <time>2009-05-05T14:40:30Z</time>
      </trkpt>
      <trkpt lat="43.86207" lon="6.8375">
        <ele>673</ele>
        <time>2009-05-05T14:40:33Z</time>
      </trkpt>
      <trkpt lat="43.86213" lon="6.83756">
        <ele>672</ele>
        <time>2009-05-05T14:40:36Z</time>
      </trkpt>
      <trkpt lat="43.86223" lon="6.83761">
        <ele>670</ele>
        <time>2009-05-05T14:40:39Z</time>
      </trkpt>
      <trkpt lat="43.86229" lon="6.83771">
        <ele>671</ele>
        <time>2009-05-05T14:40:42Z</time>
      </trkpt>
      <trkpt lat="43.86234" lon="6.83782">
        <ele>671</ele>
        <time>2009-05-05T14:40:45Z</time>
      </trkpt>
      <trkpt lat="43.86239" lon="6.83793">
        <ele>671</ele>
        <time>2009-05-05T14:40:48Z</time>
      </trkpt>
      <trkpt lat="43.86243" lon="6.83804">
        <ele>670</ele>
        <time>2009-05-05T14:40:51Z</time>
      </trkpt>
      <trkpt lat="43.8625" lon="6.83812">
        <ele>670</ele>
        <time>2009-05-05T14:40:54Z</time>
      </trkpt>
      <trkpt lat="43.86256" lon="6.83821">
        <ele>669</ele>
        <time>2009-05-05T14:40:57Z</time>
      </trkpt>
      <trkpt lat="43.86264" lon="6.83833">
        <ele>669</ele>
        <time>2009-05-05T14:41:00Z</time>
      </trkpt>
      <trkpt lat="43.86269" lon="6.83846">
        <ele>669</ele>
        <time>2009-05-05T14:41:03Z</time>
      </trkpt>
      <trkpt lat="43.86275" lon="6.83857">
        <ele>669</ele>
        <time>2009-05-05T14:41:06Z</time>
      </trkpt>
      <trkpt lat="43.86278" lon="6.83868">
        <ele>669</ele>
        <time>2009-05-05T14:41:09Z</time>
      </trkpt>
      <trkpt lat="43.86283" lon="6.83877">
        <ele>670</ele>
        <time>2009-05-05T14:41:12Z</time>
      </trkpt>
      <trkpt lat="43.86284" lon="6.8389">
        <ele>670</ele>
        <time>2009-05-05T14:41:15Z</time>
      </trkpt>
      <trkpt lat="43.86283" lon="6.83899">
        <ele>669</ele>
        <time>2009-05-05T14:41:18Z</time>
      </trkpt>
      <trkpt lat="43.86281" lon="6.8391">
        <ele>668</ele>
        <time>2009-05-05T14:41:21Z</time>
      </trkpt>
      <trkpt lat="43.86277" lon="6.83919">
        <ele>668</ele>
        <time>2009-05-05T14:41:24Z</time>
      </trkpt>
      <trkpt lat="43.86275" lon="6.83927">
        <ele>667</ele>
        <time>2009-05-05T14:41:27Z</time>
      </trkpt>
      <trkpt lat="43.86276" lon="6.83935">
        <ele>666</ele>
        <time>2009-05-05T14:41:30Z</time>
      </trkpt>
      <trkpt lat="43.86275" lon="6.83945">
        <ele>667</ele>
        <time>2009-05-05T14:41:33Z</time>
      </trkpt>
      <trkpt lat="43.86279" lon="6.83958">
        <ele>668</ele>
        <time>2009-05-05T14:41:36Z</time>
      </trkpt>
      <trkpt lat="43.86284" lon="6.83974">
        <ele>671</ele>
        <time>2009-05-05T14:41:39Z</time>
      </trkpt>
      <trkpt lat="43.86291" lon="6.83988">
        <ele>673</ele>
        <time>2009-05-05T14:41:42Z</time>
      </trkpt>
      <trkpt lat="43.86296" lon="6.84003">
        <ele>675</ele>
        <time>2009-05-05T14:41:45Z</time>
      </trkpt>
      <trkpt lat="43.86297" lon="6.8401">
        <ele>676</ele>
        <time>2009-05-05T14:41:48Z</time>
      </trkpt>
      <trkpt lat="43.86301" lon="6.84016">
        <ele>676</ele>
        <time>2009-05-05T14:41:51Z</time>
      </trkpt>
      <trkpt lat="43.86306" lon="6.84022">
        <ele>676</ele>
        <time>2009-05-05T14:41:54Z</time>
      </trkpt>
      <trkpt lat="43.86314" lon="6.84037">
        <ele>675</ele>
        <time>2009-05-05T14:42:01Z</time>
      </trkpt>
      <trkpt lat="43.86317" lon="6.84046">
        <ele>675</ele>
        <time>2009-05-05T14:42:04Z</time>
      </trkpt>
      <trkpt lat="43.86317" lon="6.84057">
        <ele>675</ele>
        <time>2009-05-05T14:42:10Z</time>
      </trkpt>
      <trkpt lat="43.86318" lon="6.84065">
        <ele>680</ele>
        <time>2009-05-05T14:42:16Z</time>
      </trkpt>
      <trkpt lat="43.86322" lon="6.84076">
        <ele>680</ele>
        <time>2009-05-05T14:42:25Z</time>
      </trkpt>
      <trkpt lat="43.86328" lon="6.8408">
        <ele>679</ele>
        <time>2009-05-05T14:42:28Z</time>
      </trkpt>
      <trkpt lat="43.86336" lon="6.84094">
        <ele>679</ele>
        <time>2009-05-05T14:42:34Z</time>
      </trkpt>
      <trkpt lat="43.86343" lon="6.84105">
        <ele>675</ele>
        <time>2009-05-05T14:42:37Z</time>
      </trkpt>
      <trkpt lat="43.86347" lon="6.8411">
        <ele>674</ele>
        <time>2009-05-05T14:42:40Z</time>
      </trkpt>
      <trkpt lat="43.86348" lon="6.84121">
        <ele>675</ele>
        <time>2009-05-05T14:42:46Z</time>
      </trkpt>
      <trkpt lat="43.86353" lon="6.84133">
        <ele>672</ele>
        <time>2009-05-05T14:42:49Z</time>
      </trkpt>
      <trkpt lat="43.86358" lon="6.84145">
        <ele>670</ele>
        <time>2009-05-05T14:42:52Z</time>
      </trkpt>
      <trkpt lat="43.86365" lon="6.84158">
        <ele>671</ele>
        <time>2009-05-05T14:42:55Z</time>
      </trkpt>
      <trkpt lat="43.86372" lon="6.84172">
        <ele>670</ele>
        <time>2009-05-05T14:42:58Z</time>
      </trkpt>
      <trkpt lat="43.86384" lon="6.84187">
        <ele>672</ele>
        <time>2009-05-05T14:43:01Z</time>
      </trkpt>
      <trkpt lat="43.86397" lon="6.84208">
        <ele>674</ele>
        <time>2009-05-05T14:43:04Z</time>
      </trkpt>
      <trkpt lat="43.86407" lon="6.84228">
        <ele>674</ele>
        <time>2009-05-05T14:43:07Z</time>
      </trkpt>
      <trkpt lat="43.86414" lon="6.84242">
        <ele>673</ele>
        <time>2009-05-05T14:43:10Z</time>
      </trkpt>
      <trkpt lat="43.86418" lon="6.8425">
        <ele>670</ele>
        <time>2009-05-05T14:43:13Z</time>
      </trkpt>
      <trkpt lat="43.86426" lon="6.84261">
        <ele>669</ele>
        <time>2009-05-05T14:43:16Z</time>
      </trkpt>
      <trkpt lat="43.86435" lon="6.84274">
        <ele>669</ele>
        <time>2009-05-05T14:43:19Z</time>
      </trkpt>
      <trkpt lat="43.86443" lon="6.84284">
        <ele>670</ele>
        <time>2009-05-05T14:43:22Z</time>
      </trkpt>
      <trkpt lat="43.86448" lon="6.84291">
        <ele>671</ele>
        <time>2009-05-05T14:43:37Z</time>
      </trkpt>
      <trkpt lat="43.8645" lon="6.84301">
        <ele>670</ele>
        <time>2009-05-05T14:43:43Z</time>
      </trkpt>
      <trkpt lat="43.86452" lon="6.8431">
        <ele>669</ele>
        <time>2009-05-05T14:43:46Z</time>
      </trkpt>
      <trkpt lat="43.86457" lon="6.84318">
        <ele>669</ele>
        <time>2009-05-05T14:43:49Z</time>
      </trkpt>
      <trkpt lat="43.86462" lon="6.84327">
        <ele>669</ele>
        <time>2009-05-05T14:43:52Z</time>
      </trkpt>
      <trkpt lat="43.86467" lon="6.84335">
        <ele>670</ele>
        <time>2009-05-05T14:43:55Z</time>
      </trkpt>
      <trkpt lat="43.86474" lon="6.84341">
        <ele>670</ele>
        <time>2009-05-05T14:43:58Z</time>
      </trkpt>
      <trkpt lat="43.86478" lon="6.84347">
        <ele>670</ele>
        <time>2009-05-05T14:44:01Z</time>
      </trkpt>
      <trkpt lat="43.86485" lon="6.84354">
        <ele>679</ele>
        <time>2009-05-05T14:44:10Z</time>
      </trkpt>
      <trkpt lat="43.86497" lon="6.84359">
        <ele>676</ele>
        <time>2009-05-05T14:44:16Z</time>
      </trkpt>
      <trkpt lat="43.86502" lon="6.84363">
        <ele>674</ele>
        <time>2009-05-05T14:44:22Z</time>
      </trkpt>
      <trkpt lat="43.86511" lon="6.84364">
        <ele>705</ele>
        <time>2009-05-05T14:48:28Z</time>
      </trkpt>
      <trkpt lat="43.86511" lon="6.84373">
        <ele>688</ele>
        <time>2009-05-05T14:48:43Z</time>
      </trkpt>
      <trkpt lat="43.86509" lon="6.84383">
        <ele>685</ele>
        <time>2009-05-05T14:48:52Z</time>
      </trkpt>
      <trkpt lat="43.86508" lon="6.8439">
        <ele>672</ele>
        <time>2009-05-05T14:48:55Z</time>
      </trkpt>
      <trkpt lat="43.8651" lon="6.84396">
        <ele>672</ele>
        <time>2009-05-05T14:48:58Z</time>
      </trkpt>
      <trkpt lat="43.86512" lon="6.84408">
        <ele>672</ele>
        <time>2009-05-05T14:49:04Z</time>
      </trkpt>
      <trkpt lat="43.86511" lon="6.84414">
        <ele>670</ele>
        <time>2009-05-05T14:49:07Z</time>
      </trkpt>
      <trkpt lat="43.86514" lon="6.84427">
        <ele>671</ele>
        <time>2009-05-05T14:49:13Z</time>
      </trkpt>
      <trkpt lat="43.86517" lon="6.84435">
        <ele>670</ele>
        <time>2009-05-05T14:49:16Z</time>
      </trkpt>
      <trkpt lat="43.86517" lon="6.84443">
        <ele>667</ele>
        <time>2009-05-05T14:49:19Z</time>
      </trkpt>
      <trkpt lat="43.86516" lon="6.8445">
        <ele>663</ele>
        <time>2009-05-05T14:49:22Z</time>
      </trkpt>
      <trkpt lat="43.86515" lon="6.84458">
        <ele>660</ele>
        <time>2009-05-05T14:49:25Z</time>
      </trkpt>
      <trkpt lat="43.86513" lon="6.84466">
        <ele>662</ele>
        <time>2009-05-05T14:49:31Z</time>
      </trkpt>
      <trkpt lat="43.86516" lon="6.84479">
        <ele>663</ele>
        <time>2009-05-05T14:49:37Z</time>
      </trkpt>
      <trkpt lat="43.8652" lon="6.84488">
        <ele>672</ele>
        <time>2009-05-05T14:49:43Z</time>
      </trkpt>
      <trkpt lat="43.86518" lon="6.84498">
        <ele>672</ele>
        <time>2009-05-05T14:49:49Z</time>
      </trkpt>
      <trkpt lat="43.8652" lon="6.84505">
        <ele>672</ele>
        <time>2009-05-05T14:49:55Z</time>
      </trkpt>
      <trkpt lat="43.86518" lon="6.84511">
        <ele>676</ele>
        <time>2009-05-05T14:50:04Z</time>
      </trkpt>
      <trkpt lat="43.86516" lon="6.8452">
        <ele>683</ele>
        <time>2009-05-05T14:50:16Z</time>
      </trkpt>
      <trkpt lat="43.86518" lon="6.8453">
        <ele>685</ele>
        <time>2009-05-05T14:50:25Z</time>
      </trkpt>
      <trkpt lat="43.86515" lon="6.84537">
        <ele>683</ele>
        <time>2009-05-05T14:50:31Z</time>
      </trkpt>
      <trkpt lat="43.86513" lon="6.84547">
        <ele>687</ele>
        <time>2009-05-05T14:50:40Z</time>
      </trkpt>
      <trkpt lat="43.86518" lon="6.84553">
        <ele>688</ele>
        <time>2009-05-05T14:50:49Z</time>
      </trkpt>
      <trkpt lat="43.86522" lon="6.84559">
        <ele>692</ele>
        <time>2009-05-05T14:50:58Z</time>
      </trkpt>
      <trkpt lat="43.86519" lon="6.84571">
        <ele>690</ele>
        <time>2009-05-05T14:51:07Z</time>
      </trkpt>
      <trkpt lat="43.86518" lon="6.84578">
        <ele>689</ele>
        <time>2009-05-05T14:51:13Z</time>
      </trkpt>
      <trkpt lat="43.86517" lon="6.84586">
        <ele>691</ele>
        <time>2009-05-05T14:51:19Z</time>
      </trkpt>
      <trkpt lat="43.86517" lon="6.84596">
        <ele>692</ele>
        <time>2009-05-05T14:51:25Z</time>
      </trkpt>
      <trkpt lat="43.86517" lon="6.84605">
        <ele>694</ele>
        <time>2009-05-05T14:51:31Z</time>
      </trkpt>
      <trkpt lat="43.86514" lon="6.84613">
        <ele>693</ele>
        <time>2009-05-05T14:51:37Z</time>
      </trkpt>
      <trkpt lat="43.8651" lon="6.84622">
        <ele>692</ele>
        <time>2009-05-05T14:51:43Z</time>
      </trkpt>
      <trkpt lat="43.86509" lon="6.84629">
        <ele>691</ele>
        <time>2009-05-05T14:51:49Z</time>
      </trkpt>
      <trkpt lat="43.86505" lon="6.84636">
        <ele>693</ele>
        <time>2009-05-05T14:51:55Z</time>
      </trkpt>
      <trkpt lat="43.86503" lon="6.84643">
        <ele>694</ele>
        <time>2009-05-05T14:52:01Z</time>
      </trkpt>
      <trkpt lat="43.86498" lon="6.84651">
        <ele>695</ele>
        <time>2009-05-05T14:52:07Z</time>
      </trkpt>
      <trkpt lat="43.86494" lon="6.8466">
        <ele>695</ele>
        <time>2009-05-05T14:52:16Z</time>
      </trkpt>
      <trkpt lat="43.86498" lon="6.84669">
        <ele>701</ele>
        <time>2009-05-05T14:52:22Z</time>
      </trkpt>
      <trkpt lat="43.86498" lon="6.84677">
        <ele>707</ele>
        <time>2009-05-05T14:52:28Z</time>
      </trkpt>
      <trkpt lat="43.86497" lon="6.84685">
        <ele>708</ele>
        <time>2009-05-05T14:52:34Z</time>
      </trkpt>
      <trkpt lat="43.86495" lon="6.84694">
        <ele>706</ele>
        <time>2009-05-05T14:52:43Z</time>
      </trkpt>
      <trkpt lat="43.86493" lon="6.84701">
        <ele>706</ele>
        <time>2009-05-05T14:52:49Z</time>
      </trkpt>
      <trkpt lat="43.8649" lon="6.84709">
        <ele>706</ele>
        <time>2009-05-05T14:52:55Z</time>
      </trkpt>
      <trkpt lat="43.86488" lon="6.84717">
        <ele>709</ele>
        <time>2009-05-05T14:53:01Z</time>
      </trkpt>
      <trkpt lat="43.86488" lon="6.8473">
        <ele>711</ele>
        <time>2009-05-05T14:53:13Z</time>
      </trkpt>
      <trkpt lat="43.86486" lon="6.84739">
        <ele>716</ele>
        <time>2009-05-05T14:53:22Z</time>
      </trkpt>
      <trkpt lat="43.86483" lon="6.84749">
        <ele>714</ele>
        <time>2009-05-05T14:53:31Z</time>
      </trkpt>
      <trkpt lat="43.86484" lon="6.8476">
        <ele>712</ele>
        <time>2009-05-05T14:53:37Z</time>
      </trkpt>
      <trkpt lat="43.86484" lon="6.84774">
        <ele>712</ele>
        <time>2009-05-05T14:53:43Z</time>
      </trkpt>
      <trkpt lat="43.86486" lon="6.84783">
        <ele>713</ele>
        <time>2009-05-05T14:53:46Z</time>
      </trkpt>
      <trkpt lat="43.86485" lon="6.8479">
        <ele>712</ele>
        <time>2009-05-05T14:53:49Z</time>
      </trkpt>
      <trkpt lat="43.86483" lon="6.84801">
        <ele>713</ele>
        <time>2009-05-05T14:53:55Z</time>
      </trkpt>
      <trkpt lat="43.86483" lon="6.84814">
        <ele>720</ele>
        <time>2009-05-05T14:54:01Z</time>
      </trkpt>
      <trkpt lat="43.86481" lon="6.84826">
        <ele>726</ele>
        <time>2009-05-05T14:54:07Z</time>
      </trkpt>
      <trkpt lat="43.86481" lon="6.84838">
        <ele>725</ele>
        <time>2009-05-05T14:54:13Z</time>
      </trkpt>
      <trkpt lat="43.86483" lon="6.84846">
        <ele>727</ele>
        <time>2009-05-05T14:54:22Z</time>
      </trkpt>
      <trkpt lat="43.86479" lon="6.84854">
        <ele>726</ele>
        <time>2009-05-05T14:54:28Z</time>
      </trkpt>
      <trkpt lat="43.86475" lon="6.84863">
        <ele>724</ele>
        <time>2009-05-05T14:54:37Z</time>
      </trkpt>
      <trkpt lat="43.86472" lon="6.84871">
        <ele>721</ele>
        <time>2009-05-05T14:54:46Z</time>
      </trkpt>
      <trkpt lat="43.86469" lon="6.84878">
        <ele>721</ele>
        <time>2009-05-05T14:54:52Z</time>
      </trkpt>
      <trkpt lat="43.86466" lon="6.84887">
        <ele>720</ele>
        <time>2009-05-05T14:54:58Z</time>
      </trkpt>
      <trkpt lat="43.86464" lon="6.84898">
        <ele>722</ele>
        <time>2009-05-05T14:55:04Z</time>
      </trkpt>
      <trkpt lat="43.86463" lon="6.84905">
        <ele>724</ele>
        <time>2009-05-05T14:55:10Z</time>
      </trkpt>
      <trkpt lat="43.8646" lon="6.84912">
        <ele>725</ele>
        <time>2009-05-05T14:55:16Z</time>
      </trkpt>
      <trkpt lat="43.86457" lon="6.84921">
        <ele>723</ele>
        <time>2009-05-05T14:55:22Z</time>
      </trkpt>
      <trkpt lat="43.86454" lon="6.84931">
        <ele>722</ele>
        <time>2009-05-05T14:55:28Z</time>
      </trkpt>
      <trkpt lat="43.8645" lon="6.8494">
        <ele>722</ele>
        <time>2009-05-05T14:55:34Z</time>
      </trkpt>
      <trkpt lat="43.86451" lon="6.84953">
        <ele>722</ele>
        <time>2009-05-05T14:55:40Z</time>
      </trkpt>
      <trkpt lat="43.86451" lon="6.84962">
        <ele>722</ele>
        <time>2009-05-05T14:55:43Z</time>
      </trkpt>
      <trkpt lat="43.86454" lon="6.84971">
        <ele>725</ele>
        <time>2009-05-05T14:55:46Z</time>
      </trkpt>
      <trkpt lat="43.86458" lon="6.8498">
        <ele>725</ele>
        <time>2009-05-05T14:55:49Z</time>
      </trkpt>
      <trkpt lat="43.86462" lon="6.8499">
        <ele>727</ele>
        <time>2009-05-05T14:55:52Z</time>
      </trkpt>
      <trkpt lat="43.86463" lon="6.85001">
        <ele>727</ele>
        <time>2009-05-05T14:55:55Z</time>
      </trkpt>
      <trkpt lat="43.86464" lon="6.8501">
        <ele>727</ele>
        <time>2009-05-05T14:55:58Z</time>
      </trkpt>
      <trkpt lat="43.86466" lon="6.8502">
        <ele>727</ele>
        <time>2009-05-05T14:56:01Z</time>
      </trkpt>
      <trkpt lat="43.86467" lon="6.85029">
        <ele>727</ele>
        <time>2009-05-05T14:56:04Z</time>
      </trkpt>
      <trkpt lat="43.86467" lon="6.85036">
        <ele>727</ele>
        <time>2009-05-05T14:56:07Z</time>
      </trkpt>
      <trkpt lat="43.86467" lon="6.85043">
        <ele>730</ele>
        <time>2009-05-05T14:56:10Z</time>
      </trkpt>
      <trkpt lat="43.8647" lon="6.85053">
        <ele>731</ele>
        <time>2009-05-05T14:56:13Z</time>
      </trkpt>
      <trkpt lat="43.86472" lon="6.85067">
        <ele>737</ele>
        <time>2009-05-05T14:56:19Z</time>
      </trkpt>
      <trkpt lat="43.86476" lon="6.85081">
        <ele>739</ele>
        <time>2009-05-05T14:56:25Z</time>
      </trkpt>
      <trkpt lat="43.86478" lon="6.85089">
        <ele>743</ele>
        <time>2009-05-05T14:56:28Z</time>
      </trkpt>
      <trkpt lat="43.86478" lon="6.85096">
        <ele>744</ele>
        <time>2009-05-05T14:56:31Z</time>
      </trkpt>
      <trkpt lat="43.86474" lon="6.85109">
        <ele>743</ele>
        <time>2009-05-05T14:56:37Z</time>
      </trkpt>
      <trkpt lat="43.86472" lon="6.85116">
        <ele>741</ele>
        <time>2009-05-05T14:56:40Z</time>
      </trkpt>
      <trkpt lat="43.86474" lon="6.85126">
        <ele>743</ele>
        <time>2009-05-05T14:56:46Z</time>
      </trkpt>
      <trkpt lat="43.86483" lon="6.85131">
        <ele>743</ele>
        <time>2009-05-05T14:56:52Z</time>
      </trkpt>
      <trkpt lat="43.86491" lon="6.85136">
        <ele>739</ele>
        <time>2009-05-05T14:56:58Z</time>
      </trkpt>
      <trkpt lat="43.86503" lon="6.85138">
        <ele>744</ele>
        <time>2009-05-05T14:57:04Z</time>
      </trkpt>
      <trkpt lat="43.86517" lon="6.85142">
        <ele>742</ele>
        <time>2009-05-05T14:57:10Z</time>
      </trkpt>
      <trkpt lat="43.86525" lon="6.85144">
        <ele>743</ele>
        <time>2009-05-05T14:57:13Z</time>
      </trkpt>
      <trkpt lat="43.86535" lon="6.85148">
        <ele>744</ele>
        <time>2009-05-05T14:57:16Z</time>
      </trkpt>
      <trkpt lat="43.86541" lon="6.85158">
        <ele>742</ele>
        <time>2009-05-05T14:57:19Z</time>
      </trkpt>
      <trkpt lat="43.86541" lon="6.85168">
        <ele>738</ele>
        <time>2009-05-05T14:57:22Z</time>
      </trkpt>
      <trkpt lat="43.86544" lon="6.85177">
        <ele>733</ele>
        <time>2009-05-05T14:57:25Z</time>
      </trkpt>
      <trkpt lat="43.86546" lon="6.85185">
        <ele>732</ele>
        <time>2009-05-05T14:57:28Z</time>
      </trkpt>
      <trkpt lat="43.86549" lon="6.85191">
        <ele>739</ele>
        <time>2009-05-05T14:57:43Z</time>
      </trkpt>
      <trkpt lat="43.86549" lon="6.85199">
        <ele>738</ele>
        <time>2009-05-05T14:58:59Z</time>
      </trkpt>
      <trkpt lat="43.86552" lon="6.8521">
        <ele>736</ele>
        <time>2009-05-05T14:59:08Z</time>
      </trkpt>
      <trkpt lat="43.86552" lon="6.85217">
        <ele>734</ele>
        <time>2009-05-05T14:59:14Z</time>
      </trkpt>
      <trkpt lat="43.86553" lon="6.85224">
        <ele>731</ele>
        <time>2009-05-05T14:59:20Z</time>
      </trkpt>
      <trkpt lat="43.86554" lon="6.85233">
        <ele>730</ele>
        <time>2009-05-05T14:59:29Z</time>
      </trkpt>
      <trkpt lat="43.86557" lon="6.85246">
        <ele>748</ele>
        <time>2009-05-05T14:59:44Z</time>
      </trkpt>
      <trkpt lat="43.8655" lon="6.85255">
        <ele>743</ele>
        <time>2009-05-05T14:59:50Z</time>
      </trkpt>
      <trkpt lat="43.86547" lon="6.85264">
        <ele>740</ele>
        <time>2009-05-05T14:59:56Z</time>
      </trkpt>
      <trkpt lat="43.86544" lon="6.85275">
        <ele>741</ele>
        <time>2009-05-05T15:00:03Z</time>
      </trkpt>
      <trkpt lat="43.8654" lon="6.85287">
        <ele>742</ele>
        <time>2009-05-05T15:00:08Z</time>
      </trkpt>
      <trkpt lat="43.86537" lon="6.85296">
        <ele>736</ele>
        <time>2009-05-05T15:00:14Z</time>
      </trkpt>
      <trkpt lat="43.86533" lon="6.85306">
        <ele>728</ele>
        <time>2009-05-05T15:00:20Z</time>
      </trkpt>
      <trkpt lat="43.86529" lon="6.85316">
        <ele>727</ele>
        <time>2009-05-05T15:00:26Z</time>
      </trkpt>
      <trkpt lat="43.86528" lon="6.85325">
        <ele>732</ele>
        <time>2009-05-05T15:00:32Z</time>
      </trkpt>
      <trkpt lat="43.86524" lon="6.85334">
        <ele>732</ele>
        <time>2009-05-05T15:00:38Z</time>
      </trkpt>
      <trkpt lat="43.86521" lon="6.85346">
        <ele>730</ele>
        <time>2009-05-05T15:00:44Z</time>
      </trkpt>
      <trkpt lat="43.8652" lon="6.85353">
        <ele>732</ele>
        <time>2009-05-05T15:00:47Z</time>
      </trkpt>
      <trkpt lat="43.86519" lon="6.85359">
        <ele>736</ele>
        <time>2009-05-05T15:00:50Z</time>
      </trkpt>
      <trkpt lat="43.86518" lon="6.85366">
        <ele>742</ele>
        <time>2009-05-05T15:00:53Z</time>
      </trkpt>
      <trkpt lat="43.86516" lon="6.85377">
        <ele>751</ele>
        <time>2009-05-05T15:00:59Z</time>
      </trkpt>
      <trkpt lat="43.86515" lon="6.85388">
        <ele>758</ele>
        <time>2009-05-05T15:01:05Z</time>
      </trkpt>
      <trkpt lat="43.86516" lon="6.85399">
        <ele>767</ele>
        <time>2009-05-05T15:01:11Z</time>
      </trkpt>
      <trkpt lat="43.86512" lon="6.85411">
        <ele>777</ele>
        <time>2009-05-05T15:01:18Z</time>
      </trkpt>
      <trkpt lat="43.86506" lon="6.85419">
        <ele>777</ele>
        <time>2009-05-05T15:01:23Z</time>
      </trkpt>
      <trkpt lat="43.86504" lon="6.85427">
        <ele>778</ele>
        <time>2009-05-05T15:01:26Z</time>
      </trkpt>
      <trkpt lat="43.86502" lon="6.8544">
        <ele>778</ele>
        <time>2009-05-05T15:01:32Z</time>
      </trkpt>
      <trkpt lat="43.86497" lon="6.85453">
        <ele>776</ele>
        <time>2009-05-05T15:01:38Z</time>
      </trkpt>
      <trkpt lat="43.86494" lon="6.85463">
        <ele>772</ele>
        <time>2009-05-05T15:01:44Z</time>
      </trkpt>
      <trkpt lat="43.86493" lon="6.8548">
        <ele>774</ele>
        <time>2009-05-05T15:03:07Z</time>
      </trkpt>
      <trkpt lat="43.86491" lon="6.85493">
        <ele>773</ele>
        <time>2009-05-05T15:03:13Z</time>
      </trkpt>
      <trkpt lat="43.8649" lon="6.85501">
        <ele>771</ele>
        <time>2009-05-05T15:03:16Z</time>
      </trkpt>
      <trkpt lat="43.86488" lon="6.85508">
        <ele>770</ele>
        <time>2009-05-05T15:03:19Z</time>
      </trkpt>
      <trkpt lat="43.86488" lon="6.85516">
        <ele>768</ele>
        <time>2009-05-05T15:03:22Z</time>
      </trkpt>
      <trkpt lat="43.86487" lon="6.8553">
        <ele>768</ele>
        <time>2009-05-05T15:03:29Z</time>
      </trkpt>
      <trkpt lat="43.86486" lon="6.85537">
        <ele>768</ele>
        <time>2009-05-05T15:03:31Z</time>
      </trkpt>
      <trkpt lat="43.86486" lon="6.85544">
        <ele>768</ele>
        <time>2009-05-05T15:03:35Z</time>
      </trkpt>
      <trkpt lat="43.86485" lon="6.85552">
        <ele>768</ele>
        <time>2009-05-05T15:03:38Z</time>
      </trkpt>
      <trkpt lat="43.86486" lon="6.85559">
        <ele>768</ele>
        <time>2009-05-05T15:03:41Z</time>
      </trkpt>
      <trkpt lat="43.86489" lon="6.85566">
        <ele>767</ele>
        <time>2009-05-05T15:03:44Z</time>
      </trkpt>
      <trkpt lat="43.86492" lon="6.85573">
        <ele>766</ele>
        <time>2009-05-05T15:03:47Z</time>
      </trkpt>
      <trkpt lat="43.86496" lon="6.8558">
        <ele>766</ele>
        <time>2009-05-05T15:03:50Z</time>
      </trkpt>
      <trkpt lat="43.86499" lon="6.85586">
        <ele>767</ele>
        <time>2009-05-05T15:03:53Z</time>
      </trkpt>
      <trkpt lat="43.86502" lon="6.85597">
        <ele>768</ele>
        <time>2009-05-05T15:03:59Z</time>
      </trkpt>
      <trkpt lat="43.86508" lon="6.85608">
        <ele>769</ele>
        <time>2009-05-05T15:04:05Z</time>
      </trkpt>
      <trkpt lat="43.86515" lon="6.85612">
        <ele>770</ele>
        <time>2009-05-05T15:04:11Z</time>
      </trkpt>
      <trkpt lat="43.86521" lon="6.85617">
        <ele>778</ele>
        <time>2009-05-05T15:04:29Z</time>
      </trkpt>
      <trkpt lat="43.86528" lon="6.85621">
        <ele>779</ele>
        <time>2009-05-05T15:04:44Z</time>
      </trkpt>
      <trkpt lat="43.86538" lon="6.85618">
        <ele>772</ele>
        <time>2009-05-05T15:05:38Z</time>
      </trkpt>
      <trkpt lat="43.86531" lon="6.85619">
        <ele>779</ele>
        <time>2009-05-05T15:05:56Z</time>
      </trkpt>
      <trkpt lat="43.86524" lon="6.85624">
        <ele>785</ele>
        <time>2009-05-05T15:06:05Z</time>
      </trkpt>
      <trkpt lat="43.86516" lon="6.85621">
        <ele>773</ele>
        <time>2009-05-05T15:08:34Z</time>
      </trkpt>
      <trkpt lat="43.86508" lon="6.85624">
        <ele>766</ele>
        <time>2009-05-05T15:08:49Z</time>
      </trkpt>
      <trkpt lat="43.86504" lon="6.85629">
        <ele>770</ele>
        <time>2009-05-05T15:09:25Z</time>
      </trkpt>
      <trkpt lat="43.86502" lon="6.85637">
        <ele>767</ele>
        <time>2009-05-05T15:09:49Z</time>
      </trkpt>
      <trkpt lat="43.86506" lon="6.85631">
        <ele>769</ele>
        <time>2009-05-05T15:10:10Z</time>
      </trkpt>
      <trkpt lat="43.86513" lon="6.85627">
        <ele>780</ele>
        <time>2009-05-05T15:10:25Z</time>
      </trkpt>
      <trkpt lat="43.86507" lon="6.85632">
        <ele>775</ele>
        <time>2009-05-05T15:11:52Z</time>
      </trkpt>
      <trkpt lat="43.86495" lon="6.85636">
        <ele>761</ele>
        <time>2009-05-05T15:12:04Z</time>
      </trkpt>
      <trkpt lat="43.86505" lon="6.85633">
        <ele>760</ele>
        <time>2009-05-05T15:12:19Z</time>
      </trkpt>
      <trkpt lat="43.86512" lon="6.8563">
        <ele>773</ele>
        <time>2009-05-05T15:12:28Z</time>
      </trkpt>
      <trkpt lat="43.86517" lon="6.85624">
        <ele>776</ele>
        <time>2009-05-05T15:12:34Z</time>
      </trkpt>
      <trkpt lat="43.86525" lon="6.85624">
        <ele>775</ele>
        <time>2009-05-05T15:12:43Z</time>
      </trkpt>
      <trkpt lat="43.86531" lon="6.8563">
        <ele>779</ele>
        <time>2009-05-05T15:12:49Z</time>
      </trkpt>
      <trkpt lat="43.86539" lon="6.85641">
        <ele>780</ele>
        <time>2009-05-05T15:12:55Z</time>
      </trkpt>
      <trkpt lat="43.86545" lon="6.8565">
        <ele>779</ele>
        <time>2009-05-05T15:12:58Z</time>
      </trkpt>
      <trkpt lat="43.86552" lon="6.85661">
        <ele>782</ele>
        <time>2009-05-05T15:13:01Z</time>
      </trkpt>
      <trkpt lat="43.86557" lon="6.85666">
        <ele>785</ele>
        <time>2009-05-05T15:13:04Z</time>
      </trkpt>
      <trkpt lat="43.86556" lon="6.85676">
        <ele>785</ele>
        <time>2009-05-05T15:13:07Z</time>
      </trkpt>
      <trkpt lat="43.86552" lon="6.85685">
        <ele>788</ele>
        <time>2009-05-05T15:13:10Z</time>
      </trkpt>
      <trkpt lat="43.86551" lon="6.85705">
        <ele>788</ele>
        <time>2009-05-05T15:13:13Z</time>
      </trkpt>
      <trkpt lat="43.86556" lon="6.85722">
        <ele>786</ele>
        <time>2009-05-05T15:13:16Z</time>
      </trkpt>
      <trkpt lat="43.86558" lon="6.85739">
        <ele>780</ele>
        <time>2009-05-05T15:13:19Z</time>
      </trkpt>
      <trkpt lat="43.86563" lon="6.85755">
        <ele>775</ele>
        <time>2009-05-05T15:13:22Z</time>
      </trkpt>
      <trkpt lat="43.86569" lon="6.85769">
        <ele>773</ele>
        <time>2009-05-05T15:13:25Z</time>
      </trkpt>
      <trkpt lat="43.86573" lon="6.85782">
        <ele>763</ele>
        <time>2009-05-05T15:13:28Z</time>
      </trkpt>
      <trkpt lat="43.86575" lon="6.85793">
        <ele>757</ele>
        <time>2009-05-05T15:13:31Z</time>
      </trkpt>
      <trkpt lat="43.86578" lon="6.85804">
        <ele>751</ele>
        <time>2009-05-05T15:13:34Z</time>
      </trkpt>
      <trkpt lat="43.8658" lon="6.85813">
        <ele>745</ele>
        <time>2009-05-05T15:13:37Z</time>
      </trkpt>
      <trkpt lat="43.86578" lon="6.85822">
        <ele>743</ele>
        <time>2009-05-05T15:13:43Z</time>
      </trkpt>
      <trkpt lat="43.86577" lon="6.85835">
        <ele>741</ele>
        <time>2009-05-05T15:13:46Z</time>
      </trkpt>
      <trkpt lat="43.86579" lon="6.85847">
        <ele>741</ele>
        <time>2009-05-05T15:13:49Z</time>
      </trkpt>
      <trkpt lat="43.86581" lon="6.85859">
        <ele>742</ele>
        <time>2009-05-05T15:13:52Z</time>
      </trkpt>
      <trkpt lat="43.86583" lon="6.85873">
        <ele>747</ele>
        <time>2009-05-05T15:13:55Z</time>
      </trkpt>
      <trkpt lat="43.86579" lon="6.85892">
        <ele>745</ele>
        <time>2009-05-05T15:13:58Z</time>
      </trkpt>
      <trkpt lat="43.86576" lon="6.85917">
        <ele>740</ele>
        <time>2009-05-05T15:14:01Z</time>
      </trkpt>
      <trkpt lat="43.86579" lon="6.85945">
        <ele>736</ele>
        <time>2009-05-05T15:14:04Z</time>
      </trkpt>
      <trkpt lat="43.86588" lon="6.85983">
        <ele>734</ele>
        <time>2009-05-05T15:14:07Z</time>
      </trkpt>
      <trkpt lat="43.86594" lon="6.86021">
        <ele>735</ele>
        <time>2009-05-05T15:14:10Z</time>
      </trkpt>
      <trkpt lat="43.86599" lon="6.86037">
        <ele>737</ele>
        <time>2009-05-05T15:14:13Z</time>
      </trkpt>
      <trkpt lat="43.86611" lon="6.86041">
        <ele>734</ele>
        <time>2009-05-05T15:14:19Z</time>
      </trkpt>
      <trkpt lat="43.86618" lon="6.86047">
        <ele>734</ele>
        <time>2009-05-05T15:14:25Z</time>
      </trkpt>
      <trkpt lat="43.86621" lon="6.86056">
        <ele>731</ele>
        <time>2009-05-05T15:14:28Z</time>
      </trkpt>
      <trkpt lat="43.86625" lon="6.86073">
        <ele>732</ele>
        <time>2009-05-05T15:14:31Z</time>
      </trkpt>
      <trkpt lat="43.86628" lon="6.86089">
        <ele>731</ele>
        <time>2009-05-05T15:14:34Z</time>
      </trkpt>
      <trkpt lat="43.86633" lon="6.86098">
        <ele>729</ele>
        <time>2009-05-05T15:14:37Z</time>
      </trkpt>
      <trkpt lat="43.86622" lon="6.86112">
        <ele>725</ele>
        <time>2009-05-05T15:14:43Z</time>
      </trkpt>
      <trkpt lat="43.86614" lon="6.86111">
        <ele>722</ele>
        <time>2009-05-05T15:14:46Z</time>
      </trkpt>
      <trkpt lat="43.86614" lon="6.86127">
        <ele>714</ele>
        <time>2009-05-05T15:14:52Z</time>
      </trkpt>
      <trkpt lat="43.86612" lon="6.86138">
        <ele>711</ele>
        <time>2009-05-05T15:14:55Z</time>
      </trkpt>
      <trkpt lat="43.86612" lon="6.86149">
        <ele>710</ele>
        <time>2009-05-05T15:14:58Z</time>
      </trkpt>
      <trkpt lat="43.86614" lon="6.86161">
        <ele>708</ele>
        <time>2009-05-05T15:15:01Z</time>
      </trkpt>
      <trkpt lat="43.86615" lon="6.86172">
        <ele>702</ele>
        <time>2009-05-05T15:15:04Z</time>
      </trkpt>
      <trkpt lat="43.86614" lon="6.8618">
        <ele>705</ele>
        <time>2009-05-05T15:15:16Z</time>
      </trkpt>
      <trkpt lat="43.8662" lon="6.86201">
        <ele>705</ele>
        <time>2009-05-05T15:15:28Z</time>
      </trkpt>
      <trkpt lat="43.86632" lon="6.86213">
        <ele>705</ele>
        <time>2009-05-05T15:15:31Z</time>
      </trkpt>
      <trkpt lat="43.86651" lon="6.86211">
        <ele>705</ele>
        <time>2009-05-05T15:15:34Z</time>
      </trkpt>
      <trkpt lat="43.86659" lon="6.86217">
        <ele>705</ele>
        <time>2009-05-05T15:15:37Z</time>
      </trkpt>
      <trkpt lat="43.86674" lon="6.86236">
        <ele>691</ele>
        <time>2009-05-05T15:15:40Z</time>
      </trkpt>
      <trkpt lat="43.86687" lon="6.86245">
        <ele>689</ele>
        <time>2009-05-05T15:15:43Z</time>
      </trkpt>
      <trkpt lat="43.86694" lon="6.86256">
        <ele>687</ele>
        <time>2009-05-05T15:15:46Z</time>
      </trkpt>
      <trkpt lat="43.86707" lon="6.86265">
        <ele>684</ele>
        <time>2009-05-05T15:15:49Z</time>
      </trkpt>
      <trkpt lat="43.86719" lon="6.86263">
        <ele>681</ele>
        <time>2009-05-05T15:15:52Z</time>
      </trkpt>
      <trkpt lat="43.86726" lon="6.86258">
        <ele>683</ele>
        <time>2009-05-05T15:15:55Z</time>
      </trkpt>
      <trkpt lat="43.86732" lon="6.86248">
        <ele>680</ele>
        <time>2009-05-05T15:15:58Z</time>
      </trkpt>
      <trkpt lat="43.86737" lon="6.86234">
        <ele>677</ele>
        <time>2009-05-05T15:16:01Z</time>
      </trkpt>
      <trkpt lat="43.86742" lon="6.86223">
        <ele>674</ele>
        <time>2009-05-05T15:16:04Z</time>
      </trkpt>
      <trkpt lat="43.86746" lon="6.86231">
        <ele>674</ele>
        <time>2009-05-05T15:16:10Z</time>
      </trkpt>
      <trkpt lat="43.8675" lon="6.86246">
        <ele>675</ele>
        <time>2009-05-05T15:16:13Z</time>
      </trkpt>
      <trkpt lat="43.86755" lon="6.86269">
        <ele>673</ele>
        <time>2009-05-05T15:16:16Z</time>
      </trkpt>
      <trkpt lat="43.86763" lon="6.86287">
        <ele>670</ele>
        <time>2009-05-05T15:16:19Z</time>
      </trkpt>
      <trkpt lat="43.86773" lon="6.86306">
        <ele>668</ele>
        <time>2009-05-05T15:16:22Z</time>
      </trkpt>
      <trkpt lat="43.86783" lon="6.86317">
        <ele>667</ele>
        <time>2009-05-05T15:16:25Z</time>
      </trkpt>
      <trkpt lat="43.86797" lon="6.86327">
        <ele>668</ele>
        <time>2009-05-05T15:16:28Z</time>
      </trkpt>
      <trkpt lat="43.86814" lon="6.8634">
        <ele>668</ele>
        <time>2009-05-05T15:16:31Z</time>
      </trkpt>
      <trkpt lat="43.86831" lon="6.86355">
        <ele>667</ele>
        <time>2009-05-05T15:16:34Z</time>
      </trkpt>
      <trkpt lat="43.86845" lon="6.86359">
        <ele>665</ele>
        <time>2009-05-05T15:16:37Z</time>
      </trkpt>
      <trkpt lat="43.8685" lon="6.86365">
        <ele>663</ele>
        <time>2009-05-05T15:16:40Z</time>
      </trkpt>
      <trkpt lat="43.86851" lon="6.86377">
        <ele>662</ele>
        <time>2009-05-05T15:16:43Z</time>
      </trkpt>
      <trkpt lat="43.86856" lon="6.86386">
        <ele>663</ele>
        <time>2009-05-05T15:16:46Z</time>
      </trkpt>
      <trkpt lat="43.86862" lon="6.86395">
        <ele>662</ele>
        <time>2009-05-05T15:16:49Z</time>
      </trkpt>
      <trkpt lat="43.8687" lon="6.86406">
        <ele>661</ele>
        <time>2009-05-05T15:16:52Z</time>
      </trkpt>
      <trkpt lat="43.86878" lon="6.86417">
        <ele>660</ele>
        <time>2009-05-05T15:16:55Z</time>
      </trkpt>
      <trkpt lat="43.86885" lon="6.86428">
        <ele>658</ele>
        <time>2009-05-05T15:16:58Z</time>
      </trkpt>
      <trkpt lat="43.86892" lon="6.86437">
        <ele>658</ele>
        <time>2009-05-05T15:17:01Z</time>
      </trkpt>
      <trkpt lat="43.869" lon="6.86444">
        <ele>658</ele>
        <time>2009-05-05T15:17:04Z</time>
      </trkpt>
      <trkpt lat="43.86905" lon="6.86452">
        <ele>657</ele>
        <time>2009-05-05T15:17:07Z</time>
      </trkpt>
      <trkpt lat="43.86916" lon="6.86461">
        <ele>657</ele>
        <time>2009-05-05T15:17:10Z</time>
      </trkpt>
      <trkpt lat="43.86925" lon="6.86469">
        <ele>657</ele>
        <time>2009-05-05T15:17:13Z</time>
      </trkpt>
      <trkpt lat="43.86932" lon="6.86477">
        <ele>658</ele>
        <time>2009-05-05T15:17:16Z</time>
      </trkpt>
      <trkpt lat="43.86941" lon="6.86485">
        <ele>657</ele>
        <time>2009-05-05T15:17:19Z</time>
      </trkpt>
      <trkpt lat="43.86952" lon="6.86498">
        <ele>657</ele>
        <time>2009-05-05T15:17:22Z</time>
      </trkpt>
      <trkpt lat="43.86966" lon="6.86504">
        <ele>658</ele>
        <time>2009-05-05T15:17:25Z</time>
      </trkpt>
      <trkpt lat="43.86975" lon="6.86506">
        <ele>658</ele>
        <time>2009-05-05T15:17:28Z</time>
      </trkpt>
      <trkpt lat="43.86982" lon="6.8651">
        <ele>659</ele>
        <time>2009-05-05T15:17:31Z</time>
      </trkpt>
      <trkpt lat="43.8699" lon="6.86521">
        <ele>658</ele>
        <time>2009-05-05T15:17:34Z</time>
      </trkpt>
      <trkpt lat="43.87002" lon="6.86537">
        <ele>656</ele>
        <time>2009-05-05T15:17:37Z</time>
      </trkpt>
      <trkpt lat="43.87013" lon="6.86553">
        <ele>654</ele>
        <time>2009-05-05T15:17:40Z</time>
      </trkpt>
      <trkpt lat="43.8702" lon="6.86571">
        <ele>652</ele>
        <time>2009-05-05T15:17:43Z</time>
      </trkpt>
      <trkpt lat="43.87029" lon="6.86586">
        <ele>649</ele>
        <time>2009-05-05T15:17:46Z</time>
      </trkpt>
      <trkpt lat="43.87038" lon="6.86587">
        <ele>647</ele>
        <time>2009-05-05T15:17:49Z</time>
      </trkpt>
      <trkpt lat="43.87054" lon="6.86588">
        <ele>644</ele>
        <time>2009-05-05T15:17:52Z</time>
      </trkpt>
      <trkpt lat="43.87063" lon="6.86583">
        <ele>643</ele>
        <time>2009-05-05T15:17:55Z</time>
      </trkpt>
      <trkpt lat="43.87073" lon="6.86591">
        <ele>635</ele>
        <time>2009-05-05T15:20:14Z</time>
      </trkpt>
      <trkpt lat="43.87071" lon="6.86605">
        <ele>633</ele>
        <time>2009-05-05T15:20:20Z</time>
      </trkpt>
      <trkpt lat="43.87073" lon="6.86617">
        <ele>629</ele>
        <time>2009-05-05T15:20:26Z</time>
      </trkpt>
      <trkpt lat="43.87076" lon="6.86628">
        <ele>626</ele>
        <time>2009-05-05T15:20:29Z</time>
      </trkpt>
      <trkpt lat="43.87081" lon="6.86638">
        <ele>624</ele>
        <time>2009-05-05T15:20:32Z</time>
      </trkpt>
      <trkpt lat="43.87093" lon="6.86637">
        <ele>621</ele>
        <time>2009-05-05T15:20:38Z</time>
      </trkpt>
      <trkpt lat="43.87097" lon="6.86644">
        <ele>621</ele>
        <time>2009-05-05T15:20:41Z</time>
      </trkpt>
      <trkpt lat="43.871" lon="6.86657">
        <ele>621</ele>
        <time>2009-05-05T15:20:44Z</time>
      </trkpt>
      <trkpt lat="43.8711" lon="6.86662">
        <ele>621</ele>
        <time>2009-05-05T15:20:47Z</time>
      </trkpt>
      <trkpt lat="43.87118" lon="6.86671">
        <ele>620</ele>
        <time>2009-05-05T15:20:50Z</time>
      </trkpt>
      <trkpt lat="43.87126" lon="6.86673">
        <ele>619</ele>
        <time>2009-05-05T15:20:56Z</time>
      </trkpt>
      <trkpt lat="43.8713" lon="6.86679">
        <ele>619</ele>
        <time>2009-05-05T15:21:05Z</time>
      </trkpt>
      <trkpt lat="43.87138" lon="6.86714">
        <ele>626</ele>
        <time>2009-05-05T15:22:05Z</time>
      </trkpt>
      <trkpt lat="43.8714" lon="6.86727">
        <ele>625</ele>
        <time>2009-05-05T15:22:06Z</time>
      </trkpt>
      <trkpt lat="43.87144" lon="6.86749">
        <ele>621</ele>
        <time>2009-05-05T15:22:09Z</time>
      </trkpt>
      <trkpt lat="43.87153" lon="6.86771">
        <ele>619</ele>
        <time>2009-05-05T15:22:12Z</time>
      </trkpt>
      <trkpt lat="43.8716" lon="6.868">
        <ele>616</ele>
        <time>2009-05-05T15:22:15Z</time>
      </trkpt>
      <trkpt lat="43.87166" lon="6.86829">
        <ele>614</ele>
        <time>2009-05-05T15:22:18Z</time>
      </trkpt>
      <trkpt lat="43.87173" lon="6.86854">
        <ele>610</ele>
        <time>2009-05-05T15:22:21Z</time>
      </trkpt>
      <trkpt lat="43.87184" lon="6.86873">
        <ele>606</ele>
        <time>2009-05-05T15:22:24Z</time>
      </trkpt>
      <trkpt lat="43.8719" lon="6.86881">
        <ele>606</ele>
        <time>2009-05-05T15:22:27Z</time>
      </trkpt>
      <trkpt lat="43.87187" lon="6.86887">
        <ele>595</ele>
        <time>2009-05-05T15:22:33Z</time>
      </trkpt>
      <trkpt lat="43.87189" lon="6.86892">
        <ele>604</ele>
        <time>2009-05-05T15:24:42Z</time>
      </trkpt>
      <trkpt lat="43.87188" lon="6.869">
        <ele>599</ele>
        <time>2009-05-05T15:24:48Z</time>
      </trkpt>
      <trkpt lat="43.87188" lon="6.86924">
        <ele>588</ele>
        <time>2009-05-05T15:25:46Z</time>
      </trkpt>
      <trkpt lat="43.8719" lon="6.86932">
        <ele>581</ele>
        <time>2009-05-05T15:25:58Z</time>
      </trkpt>
      <trkpt lat="43.87191" lon="6.86945">
        <ele>584</ele>
        <time>2009-05-05T15:26:04Z</time>
      </trkpt>
      <trkpt lat="43.8719" lon="6.86952">
        <ele>579</ele>
        <time>2009-05-05T15:26:07Z</time>
      </trkpt>
      <trkpt lat="43.87192" lon="6.86962">
        <ele>578</ele>
        <time>2009-05-05T15:26:10Z</time>
      </trkpt>
      <trkpt lat="43.87198" lon="6.86979">
        <ele>589</ele>
        <time>2009-05-05T15:26:16Z</time>
      </trkpt>
      <trkpt lat="43.8719" lon="6.86996">
        <ele>589</ele>
        <time>2009-05-05T15:26:22Z</time>
      </trkpt>
      <trkpt lat="43.87187" lon="6.87002">
        <ele>589</ele>
        <time>2009-05-05T15:26:25Z</time>
      </trkpt>
      <trkpt lat="43.87185" lon="6.87011">
        <ele>590</ele>
        <time>2009-05-05T15:26:28Z</time>
      </trkpt>
      <trkpt lat="43.87184" lon="6.87018">
        <ele>594</ele>
        <time>2009-05-05T15:26:31Z</time>
      </trkpt>
      <trkpt lat="43.87183" lon="6.87027">
        <ele>596</ele>
        <time>2009-05-05T15:26:34Z</time>
      </trkpt>
      <trkpt lat="43.87184" lon="6.87035">
        <ele>595</ele>
        <time>2009-05-05T15:26:37Z</time>
      </trkpt>
      <trkpt lat="43.87184" lon="6.87044">
        <ele>594</ele>
        <time>2009-05-05T15:26:40Z</time>
      </trkpt>
      <trkpt lat="43.87183" lon="6.87051">
        <ele>588</ele>
        <time>2009-05-05T15:26:43Z</time>
      </trkpt>
      <trkpt lat="43.87183" lon="6.87059">
        <ele>586</ele>
        <time>2009-05-05T15:26:46Z</time>
      </trkpt>
      <trkpt lat="43.87182" lon="6.87067">
        <ele>585</ele>
        <time>2009-05-05T15:26:49Z</time>
      </trkpt>
      <trkpt lat="43.87181" lon="6.8708">
        <ele>594</ele>
        <time>2009-05-05T15:26:55Z</time>
      </trkpt>
      <trkpt lat="43.87173" lon="6.8709">
        <ele>587</ele>
        <time>2009-05-05T15:27:01Z</time>
      </trkpt>
      <trkpt lat="43.8716" lon="6.87093">
        <ele>586</ele>
        <time>2009-05-05T15:27:07Z</time>
      </trkpt>
      <trkpt lat="43.87148" lon="6.87097">
        <ele>577</ele>
        <time>2009-05-05T15:27:13Z</time>
      </trkpt>
      <trkpt lat="43.87141" lon="6.87098">
        <ele>579</ele>
        <time>2009-05-05T15:27:16Z</time>
      </trkpt>
      <trkpt lat="43.87129" lon="6.87097">
        <ele>574</ele>
        <time>2009-05-05T15:27:22Z</time>
      </trkpt>
      <trkpt lat="43.87121" lon="6.87098">
        <ele>572</ele>
        <time>2009-05-05T15:27:25Z</time>
      </trkpt>
      <trkpt lat="43.87114" lon="6.87097">
        <ele>571</ele>
        <time>2009-05-05T15:27:28Z</time>
      </trkpt>
      <trkpt lat="43.87103" lon="6.87092">
        <ele>571</ele>
        <time>2009-05-05T15:27:34Z</time>
      </trkpt>
      <trkpt lat="43.87093" lon="6.87088">
        <ele>593</ele>
        <time>2009-05-05T15:27:40Z</time>
      </trkpt>
      <trkpt lat="43.87083" lon="6.87081">
        <ele>593</ele>
        <time>2009-05-05T15:27:46Z</time>
      </trkpt>
      <trkpt lat="43.87075" lon="6.87074">
        <ele>588</ele>
        <time>2009-05-05T15:27:52Z</time>
      </trkpt>
      <trkpt lat="43.87067" lon="6.87066">
        <ele>584</ele>
        <time>2009-05-05T15:27:58Z</time>
      </trkpt>
      <trkpt lat="43.87061" lon="6.87057">
        <ele>582</ele>
        <time>2009-05-05T15:28:04Z</time>
      </trkpt>
      <trkpt lat="43.87054" lon="6.87047">
        <ele>580</ele>
        <time>2009-05-05T15:28:10Z</time>
      </trkpt>
      <trkpt lat="43.87048" lon="6.87038">
        <ele>585</ele>
        <time>2009-05-05T15:28:16Z</time>
      </trkpt>
      <trkpt lat="43.87039" lon="6.87032">
        <ele>587</ele>
        <time>2009-05-05T15:28:22Z</time>
      </trkpt>
      <trkpt lat="43.87029" lon="6.87026">
        <ele>585</ele>
        <time>2009-05-05T15:28:28Z</time>
      </trkpt>
      <trkpt lat="43.87021" lon="6.87017">
        <ele>598</ele>
        <time>2009-05-05T15:28:34Z</time>
      </trkpt>
      <trkpt lat="43.8701" lon="6.87011">
        <ele>609</ele>
        <time>2009-05-05T15:28:40Z</time>
      </trkpt>
      <trkpt lat="43.87001" lon="6.87004">
        <ele>616</ele>
        <time>2009-05-05T15:28:46Z</time>
      </trkpt>
      <trkpt lat="43.8699" lon="6.87001">
        <ele>618</ele>
        <time>2009-05-05T15:28:52Z</time>
      </trkpt>
      <trkpt lat="43.86979" lon="6.86996">
        <ele>621</ele>
        <time>2009-05-05T15:28:58Z</time>
      </trkpt>
      <trkpt lat="43.86969" lon="6.86994">
        <ele>624</ele>
        <time>2009-05-05T15:29:04Z</time>
      </trkpt>
      <trkpt lat="43.86959" lon="6.86995">
        <ele>623</ele>
        <time>2009-05-05T15:29:10Z</time>
      </trkpt>
      <trkpt lat="43.86949" lon="6.86998">
        <ele>621</ele>
        <time>2009-05-05T15:29:16Z</time>
      </trkpt>
      <trkpt lat="43.86938" lon="6.86999">
        <ele>622</ele>
        <time>2009-05-05T15:29:22Z</time>
      </trkpt>
      <trkpt lat="43.86928" lon="6.86997">
        <ele>618</ele>
        <time>2009-05-05T15:29:28Z</time>
      </trkpt>
      <trkpt lat="43.86917" lon="6.86995">
        <ele>607</ele>
        <time>2009-05-05T15:29:34Z</time>
      </trkpt>
      <trkpt lat="43.86908" lon="6.86987">
        <ele>610</ele>
        <time>2009-05-05T15:29:40Z</time>
      </trkpt>
      <trkpt lat="43.86899" lon="6.86982">
        <ele>616</ele>
        <time>2009-05-05T15:29:46Z</time>
      </trkpt>
      <trkpt lat="43.86891" lon="6.8698">
        <ele>620</ele>
        <time>2009-05-05T15:29:52Z</time>
      </trkpt>
      <trkpt lat="43.86882" lon="6.8698">
        <ele>619</ele>
        <time>2009-05-05T15:29:58Z</time>
      </trkpt>
      <trkpt lat="43.86874" lon="6.86979">
        <ele>618</ele>
        <time>2009-05-05T15:30:04Z</time>
      </trkpt>
      <trkpt lat="43.86865" lon="6.86978">
        <ele>619</ele>
        <time>2009-05-05T15:30:10Z</time>
      </trkpt>
      <trkpt lat="43.86855" lon="6.86978">
        <ele>618</ele>
        <time>2009-05-05T15:30:16Z</time>
      </trkpt>
      <trkpt lat="43.86843" lon="6.86981">
        <ele>623</ele>
        <time>2009-05-05T15:30:22Z</time>
      </trkpt>
      <trkpt lat="43.86834" lon="6.86974">
        <ele>627</ele>
        <time>2009-05-05T15:30:28Z</time>
      </trkpt>
      <trkpt lat="43.86835" lon="6.86965">
        <ele>634</ele>
        <time>2009-05-05T15:30:31Z</time>
      </trkpt>
      <trkpt lat="43.86844" lon="6.86959">
        <ele>643</ele>
        <time>2009-05-05T15:30:37Z</time>
      </trkpt>
      <trkpt lat="43.86856" lon="6.86954">
        <ele>639</ele>
        <time>2009-05-05T15:30:43Z</time>
      </trkpt>
      <trkpt lat="43.86868" lon="6.8695">
        <ele>634</ele>
        <time>2009-05-05T15:30:49Z</time>
      </trkpt>
      <trkpt lat="43.86879" lon="6.86945">
        <ele>638</ele>
        <time>2009-05-05T15:30:55Z</time>
      </trkpt>
      <trkpt lat="43.8689" lon="6.86942">
        <ele>637</ele>
        <time>2009-05-05T15:31:01Z</time>
      </trkpt>
      <trkpt lat="43.86903" lon="6.86942">
        <ele>645</ele>
        <time>2009-05-05T15:31:07Z</time>
      </trkpt>
      <trkpt lat="43.86924" lon="6.86944">
        <ele>637</ele>
        <time>2009-05-05T15:35:09Z</time>
      </trkpt>
      <trkpt lat="43.86937" lon="6.86942">
        <ele>637</ele>
        <time>2009-05-05T15:35:15Z</time>
      </trkpt>
      <trkpt lat="43.86951" lon="6.86938">
        <ele>629</ele>
        <time>2009-05-05T15:35:21Z</time>
      </trkpt>
      <trkpt lat="43.86963" lon="6.8693">
        <ele>641</ele>
        <time>2009-05-05T15:35:30Z</time>
      </trkpt>
      <trkpt lat="43.86973" lon="6.86927">
        <ele>649</ele>
        <time>2009-05-05T15:35:36Z</time>
      </trkpt>
      <trkpt lat="43.86983" lon="6.86925">
        <ele>653</ele>
        <time>2009-05-05T15:35:42Z</time>
      </trkpt>
      <trkpt lat="43.86993" lon="6.86924">
        <ele>653</ele>
        <time>2009-05-05T15:35:48Z</time>
      </trkpt>
      <trkpt lat="43.87003" lon="6.86923">
        <ele>657</ele>
        <time>2009-05-05T15:35:54Z</time>
      </trkpt>
      <trkpt lat="43.87013" lon="6.86918">
        <ele>657</ele>
        <time>2009-05-05T15:36:00Z</time>
      </trkpt>
      <trkpt lat="43.8702" lon="6.86906">
        <ele>657</ele>
        <time>2009-05-05T15:36:06Z</time>
      </trkpt>
      <trkpt lat="43.87021" lon="6.86899">
        <ele>659</ele>
        <time>2009-05-05T15:36:09Z</time>
      </trkpt>
      <trkpt lat="43.87021" lon="6.86891">
        <ele>659</ele>
        <time>2009-05-05T15:36:12Z</time>
      </trkpt>
      <trkpt lat="43.87021" lon="6.86884">
        <ele>661</ele>
        <time>2009-05-05T15:36:15Z</time>
      </trkpt>
      <trkpt lat="43.8702" lon="6.86874">
        <ele>665</ele>
        <time>2009-05-05T15:36:18Z</time>
      </trkpt>
      <trkpt lat="43.8702" lon="6.86867">
        <ele>665</ele>
        <time>2009-05-05T15:36:21Z</time>
      </trkpt>
      <trkpt lat="43.8702" lon="6.86859">
        <ele>669</ele>
        <time>2009-05-05T15:36:24Z</time>
      </trkpt>
      <trkpt lat="43.87019" lon="6.8685">
        <ele>671</ele>
        <time>2009-05-05T15:36:27Z</time>
      </trkpt>
      <trkpt lat="43.87016" lon="6.86839">
        <ele>670</ele>
        <time>2009-05-05T15:36:33Z</time>
      </trkpt>
      <trkpt lat="43.87014" lon="6.86828">
        <ele>668</ele>
        <time>2009-05-05T15:36:39Z</time>
      </trkpt>
      <trkpt lat="43.87009" lon="6.86816">
        <ele>669</ele>
        <time>2009-05-05T15:36:45Z</time>
      </trkpt>
      <trkpt lat="43.87003" lon="6.86808">
        <ele>663</ele>
        <time>2009-05-05T15:36:51Z</time>
      </trkpt>
      <trkpt lat="43.86997" lon="6.86797">
        <ele>662</ele>
        <time>2009-05-05T15:36:57Z</time>
      </trkpt>
      <trkpt lat="43.86991" lon="6.86787">
        <ele>667</ele>
        <time>2009-05-05T15:37:03Z</time>
      </trkpt>
      <trkpt lat="43.86985" lon="6.8678">
        <ele>663</ele>
        <time>2009-05-05T15:37:09Z</time>
      </trkpt>
      <trkpt lat="43.86979" lon="6.86772">
        <ele>665</ele>
        <time>2009-05-05T15:37:18Z</time>
      </trkpt>
      <trkpt lat="43.86973" lon="6.86764">
        <ele>666</ele>
        <time>2009-05-05T15:37:24Z</time>
      </trkpt>
      <trkpt lat="43.86967" lon="6.86754">
        <ele>666</ele>
        <time>2009-05-05T15:37:30Z</time>
      </trkpt>
      <trkpt lat="43.86959" lon="6.86745">
        <ele>672</ele>
        <time>2009-05-05T15:37:36Z</time>
      </trkpt>
      <trkpt lat="43.86949" lon="6.86739">
        <ele>674</ele>
        <time>2009-05-05T15:37:42Z</time>
      </trkpt>
      <trkpt lat="43.86942" lon="6.8673">
        <ele>678</ele>
        <time>2009-05-05T15:37:48Z</time>
      </trkpt>
      <trkpt lat="43.86934" lon="6.86722">
        <ele>675</ele>
        <time>2009-05-05T15:37:54Z</time>
      </trkpt>
      <trkpt lat="43.86926" lon="6.86715">
        <ele>669</ele>
        <time>2009-05-05T15:38:00Z</time>
      </trkpt>
      <trkpt lat="43.86917" lon="6.86713">
        <ele>663</ele>
        <time>2009-05-05T15:38:06Z</time>
      </trkpt>
      <trkpt lat="43.86911" lon="6.86709">
        <ele>670</ele>
        <time>2009-05-05T15:38:09Z</time>
      </trkpt>
      <trkpt lat="43.86902" lon="6.86702">
        <ele>672</ele>
        <time>2009-05-05T15:38:15Z</time>
      </trkpt>
      <trkpt lat="43.86895" lon="6.86693">
        <ele>673</ele>
        <time>2009-05-05T15:38:21Z</time>
      </trkpt>
      <trkpt lat="43.86888" lon="6.86681">
        <ele>674</ele>
        <time>2009-05-05T15:38:27Z</time>
      </trkpt>
      <trkpt lat="43.86883" lon="6.86675">
        <ele>676</ele>
        <time>2009-05-05T15:38:30Z</time>
      </trkpt>
      <trkpt lat="43.86875" lon="6.86666">
        <ele>675</ele>
        <time>2009-05-05T15:38:36Z</time>
      </trkpt>
      <trkpt lat="43.86866" lon="6.86659">
        <ele>676</ele>
        <time>2009-05-05T15:38:42Z</time>
      </trkpt>
      <trkpt lat="43.86856" lon="6.86652">
        <ele>677</ele>
        <time>2009-05-05T15:38:48Z</time>
      </trkpt>
      <trkpt lat="43.86847" lon="6.86642">
        <ele>681</ele>
        <time>2009-05-05T15:38:54Z</time>
      </trkpt>
      <trkpt lat="43.86843" lon="6.86637">
        <ele>686</ele>
        <time>2009-05-05T15:38:57Z</time>
      </trkpt>
      <trkpt lat="43.86836" lon="6.86627">
        <ele>691</ele>
        <time>2009-05-05T15:39:03Z</time>
      </trkpt>
      <trkpt lat="43.8683" lon="6.86616">
        <ele>692</ele>
        <time>2009-05-05T15:39:09Z</time>
      </trkpt>
      <trkpt lat="43.86824" lon="6.86605">
        <ele>693</ele>
        <time>2009-05-05T15:39:15Z</time>
      </trkpt>
      <trkpt lat="43.86818" lon="6.86595">
        <ele>695</ele>
        <time>2009-05-05T15:39:21Z</time>
      </trkpt>
      <trkpt lat="43.86812" lon="6.86584">
        <ele>695</ele>
        <time>2009-05-05T15:39:27Z</time>
      </trkpt>
      <trkpt lat="43.86807" lon="6.86574">
        <ele>702</ele>
        <time>2009-05-05T15:39:33Z</time>
      </trkpt>
      <trkpt lat="43.86801" lon="6.86563">
        <ele>699</ele>
        <time>2009-05-05T15:39:39Z</time>
      </trkpt>
      <trkpt lat="43.86793" lon="6.86553">
        <ele>698</ele>
        <time>2009-05-05T15:39:45Z</time>
      </trkpt>
      <trkpt lat="43.86785" lon="6.86544">
        <ele>695</ele>
        <time>2009-05-05T15:39:51Z</time>
      </trkpt>
      <trkpt lat="43.86779" lon="6.86535">
        <ele>698</ele>
        <time>2009-05-05T15:39:57Z</time>
      </trkpt>
      <trkpt lat="43.86772" lon="6.86527">
        <ele>701</ele>
        <time>2009-05-05T15:40:03Z</time>
      </trkpt>
      <trkpt lat="43.86763" lon="6.86521">
        <ele>693</ele>
        <time>2009-05-05T15:40:09Z</time>
      </trkpt>
      <trkpt lat="43.86756" lon="6.86515">
        <ele>696</ele>
        <time>2009-05-05T15:40:15Z</time>
      </trkpt>
      <trkpt lat="43.86749" lon="6.86505">
        <ele>700</ele>
        <time>2009-05-05T15:40:21Z</time>
      </trkpt>
      <trkpt lat="43.86741" lon="6.86497">
        <ele>701</ele>
        <time>2009-05-05T15:40:27Z</time>
      </trkpt>
      <trkpt lat="43.86732" lon="6.86491">
        <ele>704</ele>
        <time>2009-05-05T15:40:33Z</time>
      </trkpt>
      <trkpt lat="43.86724" lon="6.86491">
        <ele>708</ele>
        <time>2009-05-05T15:40:39Z</time>
      </trkpt>
      <trkpt lat="43.86716" lon="6.86499">
        <ele>711</ele>
        <time>2009-05-05T15:40:45Z</time>
      </trkpt>
      <trkpt lat="43.86709" lon="6.86508">
        <ele>709</ele>
        <time>2009-05-05T15:40:51Z</time>
      </trkpt>
      <trkpt lat="43.867" lon="6.86517">
        <ele>706</ele>
        <time>2009-05-05T15:40:58Z</time>
      </trkpt>
      <trkpt lat="43.86692" lon="6.86522">
        <ele>706</ele>
        <time>2009-05-05T15:41:03Z</time>
      </trkpt>
      <trkpt lat="43.86683" lon="6.86525">
        <ele>707</ele>
        <time>2009-05-05T15:41:10Z</time>
      </trkpt>
      <trkpt lat="43.86673" lon="6.86533">
        <ele>708</ele>
        <time>2009-05-05T15:41:15Z</time>
      </trkpt>
      <trkpt lat="43.86666" lon="6.86543">
        <ele>709</ele>
        <time>2009-05-05T15:41:22Z</time>
      </trkpt>
      <trkpt lat="43.86663" lon="6.8655">
        <ele>710</ele>
        <time>2009-05-05T15:41:24Z</time>
      </trkpt>
      <trkpt lat="43.86658" lon="6.86562">
        <ele>711</ele>
        <time>2009-05-05T15:41:31Z</time>
      </trkpt>
      <trkpt lat="43.86656" lon="6.86569">
        <ele>710</ele>
        <time>2009-05-05T15:41:33Z</time>
      </trkpt>
      <trkpt lat="43.86648" lon="6.86579">
        <ele>709</ele>
        <time>2009-05-05T15:41:40Z</time>
      </trkpt>
      <trkpt lat="43.86638" lon="6.86585">
        <ele>712</ele>
        <time>2009-05-05T15:41:46Z</time>
      </trkpt>
      <trkpt lat="43.86629" lon="6.86589">
        <ele>714</ele>
        <time>2009-05-05T15:41:52Z</time>
      </trkpt>
      <trkpt lat="43.86619" lon="6.86593">
        <ele>714</ele>
        <time>2009-05-05T15:41:58Z</time>
      </trkpt>
      <trkpt lat="43.8661" lon="6.86596">
        <ele>715</ele>
        <time>2009-05-05T15:42:04Z</time>
      </trkpt>
      <trkpt lat="43.866" lon="6.86604">
        <ele>719</ele>
        <time>2009-05-05T15:42:10Z</time>
      </trkpt>
      <trkpt lat="43.86594" lon="6.86616">
        <ele>720</ele>
        <time>2009-05-05T15:42:16Z</time>
      </trkpt>
      <trkpt lat="43.86588" lon="6.86623">
        <ele>727</ele>
        <time>2009-05-05T15:42:22Z</time>
      </trkpt>
      <trkpt lat="43.8658" lon="6.86632">
        <ele>732</ele>
        <time>2009-05-05T15:42:28Z</time>
      </trkpt>
      <trkpt lat="43.86571" lon="6.8664">
        <ele>731</ele>
        <time>2009-05-05T15:42:34Z</time>
      </trkpt>
      <trkpt lat="43.86562" lon="6.86645">
        <ele>731</ele>
        <time>2009-05-05T15:42:40Z</time>
      </trkpt>
      <trkpt lat="43.86554" lon="6.86648">
        <ele>731</ele>
        <time>2009-05-05T15:42:46Z</time>
      </trkpt>
      <trkpt lat="43.86546" lon="6.86651">
        <ele>731</ele>
        <time>2009-05-05T15:42:52Z</time>
      </trkpt>
      <trkpt lat="43.86537" lon="6.86657">
        <ele>731</ele>
        <time>2009-05-05T15:42:58Z</time>
      </trkpt>
      <trkpt lat="43.8653" lon="6.86663">
        <ele>731</ele>
        <time>2009-05-05T15:43:04Z</time>
      </trkpt>
      <trkpt lat="43.86523" lon="6.86669">
        <ele>731</ele>
        <time>2009-05-05T15:43:10Z</time>
      </trkpt>
      <trkpt lat="43.86513" lon="6.86681">
        <ele>726</ele>
        <time>2009-05-05T15:43:16Z</time>
      </trkpt>
      <trkpt lat="43.86505" lon="6.8669">
        <ele>728</ele>
        <time>2009-05-05T15:43:22Z</time>
      </trkpt>
      <trkpt lat="43.86499" lon="6.86701">
        <ele>730</ele>
        <time>2009-05-05T15:43:28Z</time>
      </trkpt>
      <trkpt lat="43.86494" lon="6.86712">
        <ele>730</ele>
        <time>2009-05-05T15:43:34Z</time>
      </trkpt>
      <trkpt lat="43.8649" lon="6.86724">
        <ele>732</ele>
        <time>2009-05-05T15:43:40Z</time>
      </trkpt>
      <trkpt lat="43.86485" lon="6.86734">
        <ele>735</ele>
        <time>2009-05-05T15:43:46Z</time>
      </trkpt>
      <trkpt lat="43.8648" lon="6.86744">
        <ele>737</ele>
        <time>2009-05-05T15:43:52Z</time>
      </trkpt>
      <trkpt lat="43.86476" lon="6.86754">
        <ele>738</ele>
        <time>2009-05-05T15:43:58Z</time>
      </trkpt>
      <trkpt lat="43.8647" lon="6.86765">
        <ele>736</ele>
        <time>2009-05-05T15:44:04Z</time>
      </trkpt>
      <trkpt lat="43.86465" lon="6.86776">
        <ele>737</ele>
        <time>2009-05-05T15:44:10Z</time>
      </trkpt>
      <trkpt lat="43.86462" lon="6.86787">
        <ele>736</ele>
        <time>2009-05-05T15:44:16Z</time>
      </trkpt>
      <trkpt lat="43.86455" lon="6.86798">
        <ele>734</ele>
        <time>2009-05-05T15:44:22Z</time>
      </trkpt>
      <trkpt lat="43.86447" lon="6.86807">
        <ele>735</ele>
        <time>2009-05-05T15:44:28Z</time>
      </trkpt>
      <trkpt lat="43.86439" lon="6.86818">
        <ele>736</ele>
        <time>2009-05-05T15:44:34Z</time>
      </trkpt>
      <trkpt lat="43.86429" lon="6.86822">
        <ele>735</ele>
        <time>2009-05-05T15:44:40Z</time>
      </trkpt>
      <trkpt lat="43.86421" lon="6.86815">
        <ele>740</ele>
        <time>2009-05-05T15:44:46Z</time>
      </trkpt>
      <trkpt lat="43.86415" lon="6.86806">
        <ele>741</ele>
        <time>2009-05-05T15:44:52Z</time>
      </trkpt>
      <trkpt lat="43.86409" lon="6.86798">
        <ele>743</ele>
        <time>2009-05-05T15:44:58Z</time>
      </trkpt>
      <trkpt lat="43.864" lon="6.86791">
        <ele>748</ele>
        <time>2009-05-05T15:45:04Z</time>
      </trkpt>
      <trkpt lat="43.86391" lon="6.86791">
        <ele>748</ele>
        <time>2009-05-05T15:45:10Z</time>
      </trkpt>
      <trkpt lat="43.86381" lon="6.86791">
        <ele>748</ele>
        <time>2009-05-05T15:45:16Z</time>
      </trkpt>
      <trkpt lat="43.86372" lon="6.86783">
        <ele>750</ele>
        <time>2009-05-05T15:45:22Z</time>
      </trkpt>
      <trkpt lat="43.86372" lon="6.86775">
        <ele>751</ele>
        <time>2009-05-05T15:45:25Z</time>
      </trkpt>
      <trkpt lat="43.86372" lon="6.86768">
        <ele>752</ele>
        <time>2009-05-05T15:45:28Z</time>
      </trkpt>
      <trkpt lat="43.86371" lon="6.86761">
        <ele>753</ele>
        <time>2009-05-05T15:45:31Z</time>
      </trkpt>
      <trkpt lat="43.86367" lon="6.86749">
        <ele>754</ele>
        <time>2009-05-05T15:45:37Z</time>
      </trkpt>
      <trkpt lat="43.86364" lon="6.86736">
        <ele>753</ele>
        <time>2009-05-05T15:45:43Z</time>
      </trkpt>
      <trkpt lat="43.86361" lon="6.86725">
        <ele>753</ele>
        <time>2009-05-05T15:45:49Z</time>
      </trkpt>
      <trkpt lat="43.86355" lon="6.86718">
        <ele>756</ele>
        <time>2009-05-05T15:45:55Z</time>
      </trkpt>
      <trkpt lat="43.86349" lon="6.86724">
        <ele>757</ele>
        <time>2009-05-05T15:46:01Z</time>
      </trkpt>
      <trkpt lat="43.86346" lon="6.86734">
        <ele>757</ele>
        <time>2009-05-05T15:46:07Z</time>
      </trkpt>
      <trkpt lat="43.86347" lon="6.86746">
        <ele>758</ele>
        <time>2009-05-05T15:46:13Z</time>
      </trkpt>
      <trkpt lat="43.86344" lon="6.86756">
        <ele>760</ele>
        <time>2009-05-05T15:46:19Z</time>
      </trkpt>
      <trkpt lat="43.86335" lon="6.8676">
        <ele>760</ele>
        <time>2009-05-05T15:46:25Z</time>
      </trkpt>
      <trkpt lat="43.86327" lon="6.86763">
        <ele>759</ele>
        <time>2009-05-05T15:46:31Z</time>
      </trkpt>
      <trkpt lat="43.86322" lon="6.86769">
        <ele>760</ele>
        <time>2009-05-05T15:46:37Z</time>
      </trkpt>
      <trkpt lat="43.86313" lon="6.8677">
        <ele>764</ele>
        <time>2009-05-05T15:46:46Z</time>
      </trkpt>
      <trkpt lat="43.86305" lon="6.86769">
        <ele>766</ele>
        <time>2009-05-05T15:46:52Z</time>
      </trkpt>
      <trkpt lat="43.86296" lon="6.86773">
        <ele>770</ele>
        <time>2009-05-05T15:46:58Z</time>
      </trkpt>
      <trkpt lat="43.86289" lon="6.86778">
        <ele>768</ele>
        <time>2009-05-05T15:47:04Z</time>
      </trkpt>
      <trkpt lat="43.86283" lon="6.86783">
        <ele>769</ele>
        <time>2009-05-05T15:47:10Z</time>
      </trkpt>
      <trkpt lat="43.86277" lon="6.86788">
        <ele>767</ele>
        <time>2009-05-05T15:47:16Z</time>
      </trkpt>
      <trkpt lat="43.86271" lon="6.86791">
        <ele>765</ele>
        <time>2009-05-05T15:47:22Z</time>
      </trkpt>
      <trkpt lat="43.86263" lon="6.86786">
        <ele>768</ele>
        <time>2009-05-05T15:47:28Z</time>
      </trkpt>
      <trkpt lat="43.86256" lon="6.86781">
        <ele>767</ele>
        <time>2009-05-05T15:47:34Z</time>
      </trkpt>
      <trkpt lat="43.86248" lon="6.86774">
        <ele>769</ele>
        <time>2009-05-05T15:47:40Z</time>
      </trkpt>
      <trkpt lat="43.8624" lon="6.86768">
        <ele>771</ele>
        <time>2009-05-05T15:47:46Z</time>
      </trkpt>
      <trkpt lat="43.86233" lon="6.86768">
        <ele>775</ele>
        <time>2009-05-05T15:47:52Z</time>
      </trkpt>
      <trkpt lat="43.86225" lon="6.86769">
        <ele>778</ele>
        <time>2009-05-05T15:47:58Z</time>
      </trkpt>
      <trkpt lat="43.86217" lon="6.86767">
        <ele>779</ele>
        <time>2009-05-05T15:48:04Z</time>
      </trkpt>
      <trkpt lat="43.8621" lon="6.86759">
        <ele>781</ele>
        <time>2009-05-05T15:48:10Z</time>
      </trkpt>
      <trkpt lat="43.86206" lon="6.86751">
        <ele>786</ele>
        <time>2009-05-05T15:48:16Z</time>
      </trkpt>
      <trkpt lat="43.86201" lon="6.86745">
        <ele>781</ele>
        <time>2009-05-05T15:48:22Z</time>
      </trkpt>
      <trkpt lat="43.86195" lon="6.86734">
        <ele>783</ele>
        <time>2009-05-05T15:48:28Z</time>
      </trkpt>
      <trkpt lat="43.86192" lon="6.86728">
        <ele>786</ele>
        <time>2009-05-05T15:48:31Z</time>
      </trkpt>
      <trkpt lat="43.86189" lon="6.86715">
        <ele>783</ele>
        <time>2009-05-05T15:48:37Z</time>
      </trkpt>
      <trkpt lat="43.86185" lon="6.86706">
        <ele>783</ele>
        <time>2009-05-05T15:48:43Z</time>
      </trkpt>
      <trkpt lat="43.86177" lon="6.86697">
        <ele>785</ele>
        <time>2009-05-05T15:48:49Z</time>
      </trkpt>
      <trkpt lat="43.8617" lon="6.8669">
        <ele>784</ele>
        <time>2009-05-05T15:48:55Z</time>
      </trkpt>
      <trkpt lat="43.86162" lon="6.86684">
        <ele>782</ele>
        <time>2009-05-05T15:49:01Z</time>
      </trkpt>
      <trkpt lat="43.86153" lon="6.86681">
        <ele>784</ele>
        <time>2009-05-05T15:49:07Z</time>
      </trkpt>
      <trkpt lat="43.86144" lon="6.86677">
        <ele>785</ele>
        <time>2009-05-05T15:49:13Z</time>
      </trkpt>
      <trkpt lat="43.86136" lon="6.86673">
        <ele>789</ele>
        <time>2009-05-05T15:49:19Z</time>
      </trkpt>
      <trkpt lat="43.86137" lon="6.86661">
        <ele>791</ele>
        <time>2009-05-05T15:49:25Z</time>
      </trkpt>
      <trkpt lat="43.86139" lon="6.86654">
        <ele>792</ele>
        <time>2009-05-05T15:49:28Z</time>
      </trkpt>
      <trkpt lat="43.86142" lon="6.86647">
        <ele>794</ele>
        <time>2009-05-05T15:49:31Z</time>
      </trkpt>
      <trkpt lat="43.86144" lon="6.8664">
        <ele>797</ele>
        <time>2009-05-05T15:49:34Z</time>
      </trkpt>
      <trkpt lat="43.86145" lon="6.86628">
        <ele>803</ele>
        <time>2009-05-05T15:49:40Z</time>
      </trkpt>
      <trkpt lat="43.86143" lon="6.86616">
        <ele>806</ele>
        <time>2009-05-05T15:49:46Z</time>
      </trkpt>
      <trkpt lat="43.86146" lon="6.86603">
        <ele>804</ele>
        <time>2009-05-05T15:49:52Z</time>
      </trkpt>
      <trkpt lat="43.86148" lon="6.86596">
        <ele>804</ele>
        <time>2009-05-05T15:49:55Z</time>
      </trkpt>
      <trkpt lat="43.8615" lon="6.86589">
        <ele>804</ele>
        <time>2009-05-05T15:49:58Z</time>
      </trkpt>
      <trkpt lat="43.8615" lon="6.86577">
        <ele>798</ele>
        <time>2009-05-05T15:50:04Z</time>
      </trkpt>
      <trkpt lat="43.86147" lon="6.86564">
        <ele>794</ele>
        <time>2009-05-05T15:50:10Z</time>
      </trkpt>
      <trkpt lat="43.86144" lon="6.86556">
        <ele>797</ele>
        <time>2009-05-05T15:50:13Z</time>
      </trkpt>
      <trkpt lat="43.86143" lon="6.86549">
        <ele>796</ele>
        <time>2009-05-05T15:50:16Z</time>
      </trkpt>
      <trkpt lat="43.8614" lon="6.86539">
        <ele>794</ele>
        <time>2009-05-05T15:50:22Z</time>
      </trkpt>
      <trkpt lat="43.86136" lon="6.8653">
        <ele>797</ele>
        <time>2009-05-05T15:50:28Z</time>
      </trkpt>
      <trkpt lat="43.8613" lon="6.8652">
        <ele>802</ele>
        <time>2009-05-05T15:50:34Z</time>
      </trkpt>
      <trkpt lat="43.86124" lon="6.86513">
        <ele>798</ele>
        <time>2009-05-05T15:50:40Z</time>
      </trkpt>
      <trkpt lat="43.86117" lon="6.86506">
        <ele>799</ele>
        <time>2009-05-05T15:50:46Z</time>
      </trkpt>
      <trkpt lat="43.86113" lon="6.86496">
        <ele>800</ele>
        <time>2009-05-05T15:50:52Z</time>
      </trkpt>
      <trkpt lat="43.8611" lon="6.86484">
        <ele>801</ele>
        <time>2009-05-05T15:50:58Z</time>
      </trkpt>
      <trkpt lat="43.86109" lon="6.86471">
        <ele>814</ele>
        <time>2009-05-05T15:51:04Z</time>
      </trkpt>
      <trkpt lat="43.86108" lon="6.86463">
        <ele>820</ele>
        <time>2009-05-05T15:51:07Z</time>
      </trkpt>
      <trkpt lat="43.8611" lon="6.86453">
        <ele>820</ele>
        <time>2009-05-05T15:51:13Z</time>
      </trkpt>
      <trkpt lat="43.86111" lon="6.86442">
        <ele>821</ele>
        <time>2009-05-05T15:51:19Z</time>
      </trkpt>
      <trkpt lat="43.86112" lon="6.86431">
        <ele>819</ele>
        <time>2009-05-05T15:51:25Z</time>
      </trkpt>
      <trkpt lat="43.86109" lon="6.86419">
        <ele>816</ele>
        <time>2009-05-05T15:51:31Z</time>
      </trkpt>
      <trkpt lat="43.86107" lon="6.86412">
        <ele>815</ele>
        <time>2009-05-05T15:51:34Z</time>
      </trkpt>
      <trkpt lat="43.86102" lon="6.86406">
        <ele>814</ele>
        <time>2009-05-05T15:51:37Z</time>
      </trkpt>
      <trkpt lat="43.86096" lon="6.86401">
        <ele>811</ele>
        <time>2009-05-05T15:51:40Z</time>
      </trkpt>
      <trkpt lat="43.86088" lon="6.86396">
        <ele>809</ele>
        <time>2009-05-05T15:51:43Z</time>
      </trkpt>
      <trkpt lat="43.86082" lon="6.86386">
        <ele>807</ele>
        <time>2009-05-05T15:51:46Z</time>
      </trkpt>
      <trkpt lat="43.86084" lon="6.8637">
        <ele>809</ele>
        <time>2009-05-05T15:51:49Z</time>
      </trkpt>
      <trkpt lat="43.86088" lon="6.86361">
        <ele>807</ele>
        <time>2009-05-05T15:51:52Z</time>
      </trkpt>
      <trkpt lat="43.86093" lon="6.86352">
        <ele>808</ele>
        <time>2009-05-05T15:51:55Z</time>
      </trkpt>
      <trkpt lat="43.86097" lon="6.86341">
        <ele>811</ele>
        <time>2009-05-05T15:51:58Z</time>
      </trkpt>
      <trkpt lat="43.86098" lon="6.8633">
        <ele>812</ele>
        <time>2009-05-05T15:52:01Z</time>
      </trkpt>
      <trkpt lat="43.86097" lon="6.86321">
        <ele>813</ele>
        <time>2009-05-05T15:52:04Z</time>
      </trkpt>
      <trkpt lat="43.86099" lon="6.86309">
        <ele>817</ele>
        <time>2009-05-05T15:52:07Z</time>
      </trkpt>
      <trkpt lat="43.86105" lon="6.86301">
        <ele>819</ele>
        <time>2009-05-05T15:52:11Z</time>
      </trkpt>
      <trkpt lat="43.86109" lon="6.86295">
        <ele>815</ele>
        <time>2009-05-05T15:52:13Z</time>
      </trkpt>
      <trkpt lat="43.86112" lon="6.86286">
        <ele>815</ele>
        <time>2009-05-05T15:52:16Z</time>
      </trkpt>
      <trkpt lat="43.8612" lon="6.86273">
        <ele>824</ele>
        <time>2009-05-05T15:52:22Z</time>
      </trkpt>
      <trkpt lat="43.86138" lon="6.86267">
        <ele>829</ele>
        <time>2009-05-05T15:52:31Z</time>
      </trkpt>
      <trkpt lat="43.86144" lon="6.86263">
        <ele>827</ele>
        <time>2009-05-05T15:52:37Z</time>
      </trkpt>
      <trkpt lat="43.8615" lon="6.86255">
        <ele>824</ele>
        <time>2009-05-05T15:52:43Z</time>
      </trkpt>
      <trkpt lat="43.86159" lon="6.86247">
        <ele>827</ele>
        <time>2009-05-05T15:52:49Z</time>
      </trkpt>
      <trkpt lat="43.86166" lon="6.86237">
        <ele>832</ele>
        <time>2009-05-05T15:52:55Z</time>
      </trkpt>
      <trkpt lat="43.86166" lon="6.86227">
        <ele>827</ele>
        <time>2009-05-05T15:53:01Z</time>
      </trkpt>
      <trkpt lat="43.86165" lon="6.86218">
        <ele>827</ele>
        <time>2009-05-05T15:53:07Z</time>
      </trkpt>
      <trkpt lat="43.86161" lon="6.86208">
        <ele>827</ele>
        <time>2009-05-05T15:53:13Z</time>
      </trkpt>
      <trkpt lat="43.86157" lon="6.86199">
        <ele>829</ele>
        <time>2009-05-05T15:53:19Z</time>
      </trkpt>
      <trkpt lat="43.86153" lon="6.86189">
        <ele>827</ele>
        <time>2009-05-05T15:53:25Z</time>
      </trkpt>
      <trkpt lat="43.86147" lon="6.8618">
        <ele>825</ele>
        <time>2009-05-05T15:53:31Z</time>
      </trkpt>
      <trkpt lat="43.86142" lon="6.86171">
        <ele>826</ele>
        <time>2009-05-05T15:53:37Z</time>
      </trkpt>
      <trkpt lat="43.86135" lon="6.86163">
        <ele>829</ele>
        <time>2009-05-05T15:53:43Z</time>
      </trkpt>
      <trkpt lat="43.86129" lon="6.86157">
        <ele>830</ele>
        <time>2009-05-05T15:53:49Z</time>
      </trkpt>
      <trkpt lat="43.86122" lon="6.86148">
        <ele>835</ele>
        <time>2009-05-05T15:53:55Z</time>
      </trkpt>
      <trkpt lat="43.86118" lon="6.86139">
        <ele>837</ele>
        <time>2009-05-05T15:54:01Z</time>
      </trkpt>
      <trkpt lat="43.86115" lon="6.86127">
        <ele>835</ele>
        <time>2009-05-05T15:54:07Z</time>
      </trkpt>
      <trkpt lat="43.86111" lon="6.86117">
        <ele>834</ele>
        <time>2009-05-05T15:54:13Z</time>
      </trkpt>
      <trkpt lat="43.86107" lon="6.86104">
        <ele>835</ele>
        <time>2009-05-05T15:54:19Z</time>
      </trkpt>
      <trkpt lat="43.86105" lon="6.86091">
        <ele>836</ele>
        <time>2009-05-05T15:54:25Z</time>
      </trkpt>
      <trkpt lat="43.86102" lon="6.86079">
        <ele>840</ele>
        <time>2009-05-05T15:54:31Z</time>
      </trkpt>
      <trkpt lat="43.86099" lon="6.86066">
        <ele>847</ele>
        <time>2009-05-05T15:54:37Z</time>
      </trkpt>
      <trkpt lat="43.86099" lon="6.86054">
        <ele>851</ele>
        <time>2009-05-05T15:54:43Z</time>
      </trkpt>
      <trkpt lat="43.861" lon="6.86046">
        <ele>852</ele>
        <time>2009-05-05T15:54:46Z</time>
      </trkpt>
      <trkpt lat="43.861" lon="6.86035">
        <ele>850</ele>
        <time>2009-05-05T15:54:52Z</time>
      </trkpt>
      <trkpt lat="43.86103" lon="6.86024">
        <ele>845</ele>
        <time>2009-05-05T15:54:58Z</time>
      </trkpt>
      <trkpt lat="43.86101" lon="6.86014">
        <ele>844</ele>
        <time>2009-05-05T15:55:04Z</time>
      </trkpt>
      <trkpt lat="43.86096" lon="6.86003">
        <ele>844</ele>
        <time>2009-05-05T15:55:10Z</time>
      </trkpt>
      <trkpt lat="43.86094" lon="6.85992">
        <ele>845</ele>
        <time>2009-05-05T15:55:16Z</time>
      </trkpt>
      <trkpt lat="43.86092" lon="6.85981">
        <ele>847</ele>
        <time>2009-05-05T15:55:22Z</time>
      </trkpt>
      <trkpt lat="43.86091" lon="6.85969">
        <ele>852</ele>
        <time>2009-05-05T15:55:28Z</time>
      </trkpt>
      <trkpt lat="43.86094" lon="6.85956">
        <ele>854</ele>
        <time>2009-05-05T15:55:34Z</time>
      </trkpt>
      <trkpt lat="43.86093" lon="6.85949">
        <ele>858</ele>
        <time>2009-05-05T15:55:37Z</time>
      </trkpt>
      <trkpt lat="43.86092" lon="6.85941">
        <ele>858</ele>
        <time>2009-05-05T15:55:40Z</time>
      </trkpt>
      <trkpt lat="43.86091" lon="6.85929">
        <ele>861</ele>
        <time>2009-05-05T15:55:46Z</time>
      </trkpt>
      <trkpt lat="43.86092" lon="6.85917">
        <ele>861</ele>
        <time>2009-05-05T15:55:52Z</time>
      </trkpt>
      <trkpt lat="43.8609" lon="6.85907">
        <ele>858</ele>
        <time>2009-05-05T15:55:58Z</time>
      </trkpt>
      <trkpt lat="43.8609" lon="6.85895">
        <ele>859</ele>
        <time>2009-05-05T15:56:04Z</time>
      </trkpt>
      <trkpt lat="43.86092" lon="6.85882">
        <ele>861</ele>
        <time>2009-05-05T15:56:10Z</time>
      </trkpt>
      <trkpt lat="43.86091" lon="6.85871">
        <ele>858</ele>
        <time>2009-05-05T15:56:16Z</time>
      </trkpt>
      <trkpt lat="43.8609" lon="6.8586">
        <ele>853</ele>
        <time>2009-05-05T15:56:22Z</time>
      </trkpt>
      <trkpt lat="43.86091" lon="6.8585">
        <ele>854</ele>
        <time>2009-05-05T15:56:28Z</time>
      </trkpt>
      <trkpt lat="43.86088" lon="6.85839">
        <ele>858</ele>
        <time>2009-05-05T15:56:34Z</time>
      </trkpt>
      <trkpt lat="43.86084" lon="6.85828">
        <ele>860</ele>
        <time>2009-05-05T15:56:40Z</time>
      </trkpt>
      <trkpt lat="43.86079" lon="6.85818">
        <ele>862</ele>
        <time>2009-05-05T15:56:46Z</time>
      </trkpt>
      <trkpt lat="43.86076" lon="6.85807">
        <ele>863</ele>
        <time>2009-05-05T15:56:52Z</time>
      </trkpt>
      <trkpt lat="43.86074" lon="6.858">
        <ele>864</ele>
        <time>2009-05-05T15:56:55Z</time>
      </trkpt>
      <trkpt lat="43.86069" lon="6.85789">
        <ele>866</ele>
        <time>2009-05-05T15:57:01Z</time>
      </trkpt>
      <trkpt lat="43.86066" lon="6.85777">
        <ele>864</ele>
        <time>2009-05-05T15:57:07Z</time>
      </trkpt>
      <trkpt lat="43.86064" lon="6.85766">
        <ele>863</ele>
        <time>2009-05-05T15:57:13Z</time>
      </trkpt>
      <trkpt lat="43.86061" lon="6.85752">
        <ele>864</ele>
        <time>2009-05-05T15:57:19Z</time>
      </trkpt>
      <trkpt lat="43.86058" lon="6.85739">
        <ele>867</ele>
        <time>2009-05-05T15:57:25Z</time>
      </trkpt>
      <trkpt lat="43.86054" lon="6.85746">
        <ele>862</ele>
        <time>2009-05-05T15:57:37Z</time>
      </trkpt>
      <trkpt lat="43.86055" lon="6.85753">
        <ele>864</ele>
        <time>2009-05-05T15:57:40Z</time>
      </trkpt>
      <trkpt lat="43.86055" lon="6.85761">
        <ele>867</ele>
        <time>2009-05-05T15:57:43Z</time>
      </trkpt>
      <trkpt lat="43.86053" lon="6.85769">
        <ele>870</ele>
        <time>2009-05-05T15:57:46Z</time>
      </trkpt>
      <trkpt lat="43.86051" lon="6.85778">
        <ele>871</ele>
        <time>2009-05-05T15:57:49Z</time>
      </trkpt>
      <trkpt lat="43.86052" lon="6.85785">
        <ele>870</ele>
        <time>2009-05-05T15:57:52Z</time>
      </trkpt>
      <trkpt lat="43.86051" lon="6.85794">
        <ele>872</ele>
        <time>2009-05-05T15:57:55Z</time>
      </trkpt>
      <trkpt lat="43.8605" lon="6.85801">
        <ele>873</ele>
        <time>2009-05-05T15:57:58Z</time>
      </trkpt>
      <trkpt lat="43.86052" lon="6.85809">
        <ele>874</ele>
        <time>2009-05-05T15:58:01Z</time>
      </trkpt>
      <trkpt lat="43.86052" lon="6.85816">
        <ele>874</ele>
        <time>2009-05-05T15:58:04Z</time>
      </trkpt>
      <trkpt lat="43.86052" lon="6.85824">
        <ele>874</ele>
        <time>2009-05-05T15:58:07Z</time>
      </trkpt>
      <trkpt lat="43.86048" lon="6.85831">
        <ele>872</ele>
        <time>2009-05-05T15:58:10Z</time>
      </trkpt>
      <trkpt lat="43.86044" lon="6.85839">
        <ele>872</ele>
        <time>2009-05-05T15:58:13Z</time>
      </trkpt>
      <trkpt lat="43.86042" lon="6.85853">
        <ele>875</ele>
        <time>2009-05-05T15:58:19Z</time>
      </trkpt>
      <trkpt lat="43.86039" lon="6.8586">
        <ele>873</ele>
        <time>2009-05-05T15:58:22Z</time>
      </trkpt>
      <trkpt lat="43.86035" lon="6.85867">
        <ele>873</ele>
        <time>2009-05-05T15:58:25Z</time>
      </trkpt>
      <trkpt lat="43.8603" lon="6.85875">
        <ele>873</ele>
        <time>2009-05-05T15:58:28Z</time>
      </trkpt>
      <trkpt lat="43.86028" lon="6.85884">
        <ele>875</ele>
        <time>2009-05-05T15:58:31Z</time>
      </trkpt>
      <trkpt lat="43.86024" lon="6.85892">
        <ele>875</ele>
        <time>2009-05-05T15:58:34Z</time>
      </trkpt>
      <trkpt lat="43.86021" lon="6.859">
        <ele>875</ele>
        <time>2009-05-05T15:58:37Z</time>
      </trkpt>
      <trkpt lat="43.8602" lon="6.85907">
        <ele>875</ele>
        <time>2009-05-05T15:58:40Z</time>
      </trkpt>
      <trkpt lat="43.86018" lon="6.85916">
        <ele>875</ele>
        <time>2009-05-05T15:58:43Z</time>
      </trkpt>
      <trkpt lat="43.8602" lon="6.85924">
        <ele>875</ele>
        <time>2009-05-05T15:58:46Z</time>
      </trkpt>
      <trkpt lat="43.86021" lon="6.85932">
        <ele>874</ele>
        <time>2009-05-05T15:58:49Z</time>
      </trkpt>
      <trkpt lat="43.8602" lon="6.8594">
        <ele>872</ele>
        <time>2009-05-05T15:58:52Z</time>
      </trkpt>
      <trkpt lat="43.86019" lon="6.85947">
        <ele>871</ele>
        <time>2009-05-05T15:58:55Z</time>
      </trkpt>
      <trkpt lat="43.8602" lon="6.8596">
        <ele>870</ele>
        <time>2009-05-05T15:59:01Z</time>
      </trkpt>
      <trkpt lat="43.8602" lon="6.85973">
        <ele>871</ele>
        <time>2009-05-05T15:59:07Z</time>
      </trkpt>
      <trkpt lat="43.86014" lon="6.85987">
        <ele>871</ele>
        <time>2009-05-05T15:59:13Z</time>
      </trkpt>
      <trkpt lat="43.86012" lon="6.85994">
        <ele>873</ele>
        <time>2009-05-05T15:59:16Z</time>
      </trkpt>
      <trkpt lat="43.86013" lon="6.86007">
        <ele>873</ele>
        <time>2009-05-05T15:59:22Z</time>
      </trkpt>
      <trkpt lat="43.86015" lon="6.8602">
        <ele>875</ele>
        <time>2009-05-05T15:59:28Z</time>
      </trkpt>
      <trkpt lat="43.86016" lon="6.86032">
        <ele>877</ele>
        <time>2009-05-05T15:59:34Z</time>
      </trkpt>
      <trkpt lat="43.86014" lon="6.8604">
        <ele>877</ele>
        <time>2009-05-05T15:59:37Z</time>
      </trkpt>
      <trkpt lat="43.86017" lon="6.86051">
        <ele>881</ele>
        <time>2009-05-05T15:59:43Z</time>
      </trkpt>
      <trkpt lat="43.86016" lon="6.86058">
        <ele>883</ele>
        <time>2009-05-05T15:59:46Z</time>
      </trkpt>
      <trkpt lat="43.86016" lon="6.86071">
        <ele>886</ele>
        <time>2009-05-05T15:59:52Z</time>
      </trkpt>
      <trkpt lat="43.86015" lon="6.86084">
        <ele>885</ele>
        <time>2009-05-05T15:59:58Z</time>
      </trkpt>
      <trkpt lat="43.86013" lon="6.86091">
        <ele>886</ele>
        <time>2009-05-05T16:00:01Z</time>
      </trkpt>
      <trkpt lat="43.86012" lon="6.86104">
        <ele>890</ele>
        <time>2009-05-05T16:00:07Z</time>
      </trkpt>
      <trkpt lat="43.86013" lon="6.86116">
        <ele>893</ele>
        <time>2009-05-05T16:00:13Z</time>
      </trkpt>
      <trkpt lat="43.8601" lon="6.86124">
        <ele>896</ele>
        <time>2009-05-05T16:00:16Z</time>
      </trkpt>
      <trkpt lat="43.86008" lon="6.86134">
        <ele>893</ele>
        <time>2009-05-05T16:00:22Z</time>
      </trkpt>
      <trkpt lat="43.86006" lon="6.86144">
        <ele>893</ele>
        <time>2009-05-05T16:00:28Z</time>
      </trkpt>
      <trkpt lat="43.86005" lon="6.86152">
        <ele>891</ele>
        <time>2009-05-05T16:00:31Z</time>
      </trkpt>
      <trkpt lat="43.86002" lon="6.86162">
        <ele>892</ele>
        <time>2009-05-05T16:00:37Z</time>
      </trkpt>
      <trkpt lat="43.85999" lon="6.86173">
        <ele>890</ele>
        <time>2009-05-05T16:00:43Z</time>
      </trkpt>
      <trkpt lat="43.85993" lon="6.86184">
        <ele>888</ele>
        <time>2009-05-05T16:00:49Z</time>
      </trkpt>
      <trkpt lat="43.85986" lon="6.86193">
        <ele>890</ele>
        <time>2009-05-05T16:00:55Z</time>
      </trkpt>
      <trkpt lat="43.85981" lon="6.86199">
        <ele>891</ele>
        <time>2009-05-05T16:01:01Z</time>
      </trkpt>
      <trkpt lat="43.85976" lon="6.86207">
        <ele>895</ele>
        <time>2009-05-05T16:01:07Z</time>
      </trkpt>
      <trkpt lat="43.85975" lon="6.86214">
        <ele>898</ele>
        <time>2009-05-05T16:01:13Z</time>
      </trkpt>
      <trkpt lat="43.8597" lon="6.86222">
        <ele>901</ele>
        <time>2009-05-05T16:01:19Z</time>
      </trkpt>
      <trkpt lat="43.85964" lon="6.86229">
        <ele>902</ele>
        <time>2009-05-05T16:01:25Z</time>
      </trkpt>
      <trkpt lat="43.85959" lon="6.8624">
        <ele>901</ele>
        <time>2009-05-05T16:01:31Z</time>
      </trkpt>
      <trkpt lat="43.85957" lon="6.86251">
        <ele>904</ele>
        <time>2009-05-05T16:01:37Z</time>
      </trkpt>
      <trkpt lat="43.85956" lon="6.86262">
        <ele>910</ele>
        <time>2009-05-05T16:01:43Z</time>
      </trkpt>
      <trkpt lat="43.85953" lon="6.86274">
        <ele>911</ele>
        <time>2009-05-05T16:01:49Z</time>
      </trkpt>
      <trkpt lat="43.85948" lon="6.86284">
        <ele>910</ele>
        <time>2009-05-05T16:01:55Z</time>
      </trkpt>
      <trkpt lat="43.85942" lon="6.86295">
        <ele>911</ele>
        <time>2009-05-05T16:02:01Z</time>
      </trkpt>
      <trkpt lat="43.85935" lon="6.86305">
        <ele>914</ele>
        <time>2009-05-05T16:02:07Z</time>
      </trkpt>
      <trkpt lat="43.85934" lon="6.86316">
        <ele>916</ele>
        <time>2009-05-05T16:02:13Z</time>
      </trkpt>
      <trkpt lat="43.85933" lon="6.86328">
        <ele>914</ele>
        <time>2009-05-05T16:02:19Z</time>
      </trkpt>
      <trkpt lat="43.85933" lon="6.8634">
        <ele>917</ele>
        <time>2009-05-05T16:02:25Z</time>
      </trkpt>
      <trkpt lat="43.85933" lon="6.86346">
        <ele>919</ele>
        <time>2009-05-05T16:02:28Z</time>
      </trkpt>
      <trkpt lat="43.85932" lon="6.86358">
        <ele>920</ele>
        <time>2009-05-05T16:02:34Z</time>
      </trkpt>
      <trkpt lat="43.85929" lon="6.86364">
        <ele>918</ele>
        <time>2009-05-05T16:02:37Z</time>
      </trkpt>
      <trkpt lat="43.85925" lon="6.86371">
        <ele>916</ele>
        <time>2009-05-05T16:02:40Z</time>
      </trkpt>
      <trkpt lat="43.85924" lon="6.86379">
        <ele>914</ele>
        <time>2009-05-05T16:02:43Z</time>
      </trkpt>
      <trkpt lat="43.85921" lon="6.86386">
        <ele>910</ele>
        <time>2009-05-05T16:02:46Z</time>
      </trkpt>
      <trkpt lat="43.85921" lon="6.86393">
        <ele>909</ele>
        <time>2009-05-05T16:02:50Z</time>
      </trkpt>
      <trkpt lat="43.85921" lon="6.86401">
        <ele>909</ele>
        <time>2009-05-05T16:02:52Z</time>
      </trkpt>
      <trkpt lat="43.85919" lon="6.86408">
        <ele>909</ele>
        <time>2009-05-05T16:02:55Z</time>
      </trkpt>
      <trkpt lat="43.85918" lon="6.86415">
        <ele>909</ele>
        <time>2009-05-05T16:02:58Z</time>
      </trkpt>
      <trkpt lat="43.85919" lon="6.86429">
        <ele>909</ele>
        <time>2009-05-05T16:03:04Z</time>
      </trkpt>
      <trkpt lat="43.85916" lon="6.86437">
        <ele>909</ele>
        <time>2009-05-05T16:03:07Z</time>
      </trkpt>
      <trkpt lat="43.85912" lon="6.86452">
        <ele>912</ele>
        <time>2009-05-05T16:03:14Z</time>
      </trkpt>
      <trkpt lat="43.85911" lon="6.86459">
        <ele>911</ele>
        <time>2009-05-05T16:03:17Z</time>
      </trkpt>
      <trkpt lat="43.85914" lon="6.86471">
        <ele>910</ele>
        <time>2009-05-05T16:03:22Z</time>
      </trkpt>
      <trkpt lat="43.85922" lon="6.86482">
        <ele>911</ele>
        <time>2009-05-05T16:03:28Z</time>
      </trkpt>
      <trkpt lat="43.85927" lon="6.86493">
        <ele>912</ele>
        <time>2009-05-05T16:03:34Z</time>
      </trkpt>
      <trkpt lat="43.85931" lon="6.86505">
        <ele>914</ele>
        <time>2009-05-05T16:03:41Z</time>
      </trkpt>
      <trkpt lat="43.85934" lon="6.86518">
        <ele>915</ele>
        <time>2009-05-05T16:03:47Z</time>
      </trkpt>
      <trkpt lat="43.85933" lon="6.8653">
        <ele>915</ele>
        <time>2009-05-05T16:03:53Z</time>
      </trkpt>
      <trkpt lat="43.85932" lon="6.86543">
        <ele>915</ele>
        <time>2009-05-05T16:03:59Z</time>
      </trkpt>
      <trkpt lat="43.85929" lon="6.86549">
        <ele>914</ele>
        <time>2009-05-05T16:04:02Z</time>
      </trkpt>
      <trkpt lat="43.85929" lon="6.86556">
        <ele>915</ele>
        <time>2009-05-05T16:04:05Z</time>
      </trkpt>
      <trkpt lat="43.85925" lon="6.86567">
        <ele>918</ele>
        <time>2009-05-05T16:04:11Z</time>
      </trkpt>
      <trkpt lat="43.85922" lon="6.86574">
        <ele>920</ele>
        <time>2009-05-05T16:04:14Z</time>
      </trkpt>
      <trkpt lat="43.8592" lon="6.86585">
        <ele>919</ele>
        <time>2009-05-05T16:04:20Z</time>
      </trkpt>
      <trkpt lat="43.85923" lon="6.86597">
        <ele>923</ele>
        <time>2009-05-05T16:04:26Z</time>
      </trkpt>
      <trkpt lat="43.85926" lon="6.86609">
        <ele>933</ele>
        <time>2009-05-05T16:04:32Z</time>
      </trkpt>
      <trkpt lat="43.85918" lon="6.86617">
        <ele>935</ele>
        <time>2009-05-05T16:04:38Z</time>
      </trkpt>
      <trkpt lat="43.85914" lon="6.8663">
        <ele>940</ele>
        <time>2009-05-05T16:04:44Z</time>
      </trkpt>
      <trkpt lat="43.85919" lon="6.86636">
        <ele>946</ele>
        <time>2009-05-05T16:04:47Z</time>
      </trkpt>
      <trkpt lat="43.85923" lon="6.86642">
        <ele>948</ele>
        <time>2009-05-05T16:04:50Z</time>
      </trkpt>
      <trkpt lat="43.85917" lon="6.86651">
        <ele>937</ele>
        <time>2009-05-05T16:04:56Z</time>
      </trkpt>
      <trkpt lat="43.85918" lon="6.86661">
        <ele>931</ele>
        <time>2009-05-05T16:05:02Z</time>
      </trkpt>
      <trkpt lat="43.85922" lon="6.86671">
        <ele>928</ele>
        <time>2009-05-05T16:05:08Z</time>
      </trkpt>
      <trkpt lat="43.85926" lon="6.86682">
        <ele>926</ele>
        <time>2009-05-05T16:05:14Z</time>
      </trkpt>
      <trkpt lat="43.85927" lon="6.86693">
        <ele>925</ele>
        <time>2009-05-05T16:05:20Z</time>
      </trkpt>
      <trkpt lat="43.8593" lon="6.86706">
        <ele>925</ele>
        <time>2009-05-05T16:05:26Z</time>
      </trkpt>
      <trkpt lat="43.85931" lon="6.86718">
        <ele>924</ele>
        <time>2009-05-05T16:05:32Z</time>
      </trkpt>
      <trkpt lat="43.85931" lon="6.86729">
        <ele>926</ele>
        <time>2009-05-05T16:05:38Z</time>
      </trkpt>
      <trkpt lat="43.85929" lon="6.86741">
        <ele>930</ele>
        <time>2009-05-05T16:05:44Z</time>
      </trkpt>
      <trkpt lat="43.85925" lon="6.86751">
        <ele>933</ele>
        <time>2009-05-05T16:05:50Z</time>
      </trkpt>
      <trkpt lat="43.85922" lon="6.86762">
        <ele>936</ele>
        <time>2009-05-05T16:05:56Z</time>
      </trkpt>
      <trkpt lat="43.85916" lon="6.86767">
        <ele>937</ele>
        <time>2009-05-05T16:05:59Z</time>
      </trkpt>
      <trkpt lat="43.85911" lon="6.86778">
        <ele>939</ele>
        <time>2009-05-05T16:06:05Z</time>
      </trkpt>
      <trkpt lat="43.85906" lon="6.86783">
        <ele>937</ele>
        <time>2009-05-05T16:06:08Z</time>
      </trkpt>
      <trkpt lat="43.859" lon="6.86788">
        <ele>933</ele>
        <time>2009-05-05T16:06:11Z</time>
      </trkpt>
      <trkpt lat="43.85897" lon="6.868">
        <ele>934</ele>
        <time>2009-05-05T16:06:17Z</time>
      </trkpt>
      <trkpt lat="43.85895" lon="6.86812">
        <ele>934</ele>
        <time>2009-05-05T16:06:23Z</time>
      </trkpt>
      <trkpt lat="43.85898" lon="6.86824">
        <ele>937</ele>
        <time>2009-05-05T16:06:29Z</time>
      </trkpt>
      <trkpt lat="43.85901" lon="6.86834">
        <ele>937</ele>
        <time>2009-05-05T16:06:35Z</time>
      </trkpt>
      <trkpt lat="43.85907" lon="6.86844">
        <ele>939</ele>
        <time>2009-05-05T16:06:41Z</time>
      </trkpt>
      <trkpt lat="43.85913" lon="6.86854">
        <ele>940</ele>
        <time>2009-05-05T16:06:47Z</time>
      </trkpt>
      <trkpt lat="43.85916" lon="6.86865">
        <ele>940</ele>
        <time>2009-05-05T16:06:53Z</time>
      </trkpt>
      <trkpt lat="43.85918" lon="6.86877">
        <ele>940</ele>
        <time>2009-05-05T16:06:59Z</time>
      </trkpt>
      <trkpt lat="43.85918" lon="6.86889">
        <ele>939</ele>
        <time>2009-05-05T16:07:05Z</time>
      </trkpt>
      <trkpt lat="43.85918" lon="6.86899">
        <ele>940</ele>
        <time>2009-05-05T16:07:11Z</time>
      </trkpt>
      <trkpt lat="43.85915" lon="6.8691">
        <ele>940</ele>
        <time>2009-05-05T16:07:17Z</time>
      </trkpt>
      <trkpt lat="43.85911" lon="6.86921">
        <ele>939</ele>
        <time>2009-05-05T16:07:23Z</time>
      </trkpt>
      <trkpt lat="43.85906" lon="6.86933">
        <ele>938</ele>
        <time>2009-05-05T16:07:29Z</time>
      </trkpt>
      <trkpt lat="43.85904" lon="6.86944">
        <ele>939</ele>
        <time>2009-05-05T16:07:35Z</time>
      </trkpt>
      <trkpt lat="43.85905" lon="6.86958">
        <ele>940</ele>
        <time>2009-05-05T16:07:41Z</time>
      </trkpt>
      <trkpt lat="43.85907" lon="6.86965">
        <ele>942</ele>
        <time>2009-05-05T16:07:44Z</time>
      </trkpt>
      <trkpt lat="43.85912" lon="6.86976">
        <ele>945</ele>
        <time>2009-05-05T16:07:50Z</time>
      </trkpt>
      <trkpt lat="43.85919" lon="6.86985">
        <ele>947</ele>
        <time>2009-05-05T16:07:56Z</time>
      </trkpt>
      <trkpt lat="43.85927" lon="6.86994">
        <ele>947</ele>
        <time>2009-05-05T16:08:02Z</time>
      </trkpt>
      <trkpt lat="43.85932" lon="6.87004">
        <ele>948</ele>
        <time>2009-05-05T16:08:08Z</time>
      </trkpt>
      <trkpt lat="43.85937" lon="6.87013">
        <ele>950</ele>
        <time>2009-05-05T16:08:14Z</time>
      </trkpt>
      <trkpt lat="43.85943" lon="6.87023">
        <ele>951</ele>
        <time>2009-05-05T16:08:20Z</time>
      </trkpt>
      <trkpt lat="43.8595" lon="6.87033">
        <ele>951</ele>
        <time>2009-05-05T16:08:26Z</time>
      </trkpt>
      <trkpt lat="43.85954" lon="6.87043">
        <ele>952</ele>
        <time>2009-05-05T16:08:32Z</time>
      </trkpt>
      <trkpt lat="43.85959" lon="6.87053">
        <ele>953</ele>
        <time>2009-05-05T16:08:38Z</time>
      </trkpt>
      <trkpt lat="43.85962" lon="6.87065">
        <ele>951</ele>
        <time>2009-05-05T16:08:44Z</time>
      </trkpt>
      <trkpt lat="43.85963" lon="6.87074">
        <ele>951</ele>
        <time>2009-05-05T16:08:50Z</time>
      </trkpt>
      <trkpt lat="43.85968" lon="6.87085">
        <ele>954</ele>
        <time>2009-05-05T16:08:56Z</time>
      </trkpt>
      <trkpt lat="43.85971" lon="6.87097">
        <ele>956</ele>
        <time>2009-05-05T16:09:02Z</time>
      </trkpt>
      <trkpt lat="43.8597" lon="6.87105">
        <ele>955</ele>
        <time>2009-05-05T16:09:05Z</time>
      </trkpt>
      <trkpt lat="43.85968" lon="6.87112">
        <ele>955</ele>
        <time>2009-05-05T16:09:08Z</time>
      </trkpt>
      <trkpt lat="43.85965" lon="6.87118">
        <ele>955</ele>
        <time>2009-05-05T16:09:11Z</time>
      </trkpt>
      <trkpt lat="43.8596" lon="6.87129">
        <ele>957</ele>
        <time>2009-05-05T16:09:17Z</time>
      </trkpt>
      <trkpt lat="43.85958" lon="6.87139">
        <ele>960</ele>
        <time>2009-05-05T16:09:23Z</time>
      </trkpt>
      <trkpt lat="43.85958" lon="6.87148">
        <ele>962</ele>
        <time>2009-05-05T16:09:29Z</time>
      </trkpt>
      <trkpt lat="43.85952" lon="6.87158">
        <ele>963</ele>
        <time>2009-05-05T16:09:35Z</time>
      </trkpt>
      <trkpt lat="43.85951" lon="6.87171">
        <ele>966</ele>
        <time>2009-05-05T16:09:41Z</time>
      </trkpt>
      <trkpt lat="43.8595" lon="6.87184">
        <ele>968</ele>
        <time>2009-05-05T16:09:47Z</time>
      </trkpt>
      <trkpt lat="43.8595" lon="6.87196">
        <ele>970</ele>
        <time>2009-05-05T16:09:53Z</time>
      </trkpt>
      <trkpt lat="43.85946" lon="6.87202">
        <ele>968</ele>
        <time>2009-05-05T16:09:56Z</time>
      </trkpt>
      <trkpt lat="43.85944" lon="6.87208">
        <ele>967</ele>
        <time>2009-05-05T16:09:59Z</time>
      </trkpt>
      <trkpt lat="43.85941" lon="6.87215">
        <ele>966</ele>
        <time>2009-05-05T16:10:02Z</time>
      </trkpt>
      <trkpt lat="43.8594" lon="6.87227">
        <ele>966</ele>
        <time>2009-05-05T16:10:08Z</time>
      </trkpt>
      <trkpt lat="43.85938" lon="6.87234">
        <ele>966</ele>
        <time>2009-05-05T16:10:11Z</time>
      </trkpt>
      <trkpt lat="43.8594" lon="6.87246">
        <ele>966</ele>
        <time>2009-05-05T16:10:17Z</time>
      </trkpt>
      <trkpt lat="43.85944" lon="6.87258">
        <ele>966</ele>
        <time>2009-05-05T16:10:23Z</time>
      </trkpt>
      <trkpt lat="43.85948" lon="6.87274">
        <ele>966</ele>
        <time>2009-05-05T16:10:29Z</time>
      </trkpt>
      <trkpt lat="43.8595" lon="6.87285">
        <ele>968</ele>
        <time>2009-05-05T16:10:35Z</time>
      </trkpt>
      <trkpt lat="43.85951" lon="6.87299">
        <ele>970</ele>
        <time>2009-05-05T16:10:41Z</time>
      </trkpt>
      <trkpt lat="43.85953" lon="6.87311">
        <ele>972</ele>
        <time>2009-05-05T16:10:47Z</time>
      </trkpt>
      <trkpt lat="43.85954" lon="6.87323">
        <ele>972</ele>
        <time>2009-05-05T16:10:53Z</time>
      </trkpt>
      <trkpt lat="43.85957" lon="6.87335">
        <ele>972</ele>
        <time>2009-05-05T16:10:59Z</time>
      </trkpt>
      <trkpt lat="43.8596" lon="6.87347">
        <ele>974</ele>
        <time>2009-05-05T16:11:05Z</time>
      </trkpt>
      <trkpt lat="43.85962" lon="6.87353">
        <ele>975</ele>
        <time>2009-05-05T16:11:08Z</time>
      </trkpt>
      <trkpt lat="43.85963" lon="6.87366">
        <ele>976</ele>
        <time>2009-05-05T16:11:14Z</time>
      </trkpt>
      <trkpt lat="43.85963" lon="6.87377">
        <ele>977</ele>
        <time>2009-05-05T16:11:20Z</time>
      </trkpt>
      <trkpt lat="43.85962" lon="6.8739">
        <ele>977</ele>
        <time>2009-05-05T16:11:26Z</time>
      </trkpt>
      <trkpt lat="43.85964" lon="6.87402">
        <ele>976</ele>
        <time>2009-05-05T16:11:32Z</time>
      </trkpt>
      <trkpt lat="43.8596" lon="6.87414">
        <ele>977</ele>
        <time>2009-05-05T16:11:38Z</time>
      </trkpt>
      <trkpt lat="43.85958" lon="6.87426">
        <ele>979</ele>
        <time>2009-05-05T16:11:44Z</time>
      </trkpt>
      <trkpt lat="43.85961" lon="6.87438">
        <ele>981</ele>
        <time>2009-05-05T16:11:50Z</time>
      </trkpt>
      <trkpt lat="43.85961" lon="6.87445">
        <ele>980</ele>
        <time>2009-05-05T16:11:53Z</time>
      </trkpt>
      <trkpt lat="43.8596" lon="6.87452">
        <ele>980</ele>
        <time>2009-05-05T16:11:56Z</time>
      </trkpt>
      <trkpt lat="43.85962" lon="6.87466">
        <ele>981</ele>
        <time>2009-05-05T16:12:02Z</time>
      </trkpt>
      <trkpt lat="43.85964" lon="6.87473">
        <ele>981</ele>
        <time>2009-05-05T16:12:05Z</time>
      </trkpt>
      <trkpt lat="43.85967" lon="6.87479">
        <ele>982</ele>
        <time>2009-05-05T16:12:08Z</time>
      </trkpt>
      <trkpt lat="43.85971" lon="6.87492">
        <ele>981</ele>
        <time>2009-05-05T16:12:14Z</time>
      </trkpt>
      <trkpt lat="43.85973" lon="6.87504">
        <ele>983</ele>
        <time>2009-05-05T16:12:20Z</time>
      </trkpt>
      <trkpt lat="43.85976" lon="6.87517">
        <ele>986</ele>
        <time>2009-05-05T16:12:26Z</time>
      </trkpt>
      <trkpt lat="43.85979" lon="6.8753">
        <ele>985</ele>
        <time>2009-05-05T16:12:32Z</time>
      </trkpt>
      <trkpt lat="43.8598" lon="6.87538">
        <ele>984</ele>
        <time>2009-05-05T16:12:35Z</time>
      </trkpt>
      <trkpt lat="43.85978" lon="6.87545">
        <ele>983</ele>
        <time>2009-05-05T16:12:38Z</time>
      </trkpt>
      <trkpt lat="43.85976" lon="6.87558">
        <ele>983</ele>
        <time>2009-05-05T16:12:44Z</time>
      </trkpt>
      <trkpt lat="43.85978" lon="6.87565">
        <ele>985</ele>
        <time>2009-05-05T16:12:47Z</time>
      </trkpt>
      <trkpt lat="43.8598" lon="6.87572">
        <ele>986</ele>
        <time>2009-05-05T16:12:51Z</time>
      </trkpt>
      <trkpt lat="43.85982" lon="6.8758">
        <ele>985</ele>
        <time>2009-05-05T16:12:53Z</time>
      </trkpt>
      <trkpt lat="43.85982" lon="6.87588">
        <ele>986</ele>
        <time>2009-05-05T16:12:56Z</time>
      </trkpt>
      <trkpt lat="43.85982" lon="6.87595">
        <ele>984</ele>
        <time>2009-05-05T16:12:59Z</time>
      </trkpt>
      <trkpt lat="43.85982" lon="6.87602">
        <ele>987</ele>
        <time>2009-05-05T16:13:02Z</time>
      </trkpt>
      <trkpt lat="43.8598" lon="6.87609">
        <ele>986</ele>
        <time>2009-05-05T16:13:05Z</time>
      </trkpt>
      <trkpt lat="43.85979" lon="6.87618">
        <ele>986</ele>
        <time>2009-05-05T16:13:08Z</time>
      </trkpt>
      <trkpt lat="43.85978" lon="6.87624">
        <ele>987</ele>
        <time>2009-05-05T16:13:12Z</time>
      </trkpt>
      <trkpt lat="43.8598" lon="6.87638">
        <ele>990</ele>
        <time>2009-05-05T16:13:18Z</time>
      </trkpt>
      <trkpt lat="43.85981" lon="6.87645">
        <ele>990</ele>
        <time>2009-05-05T16:13:21Z</time>
      </trkpt>
      <trkpt lat="43.85984" lon="6.87651">
        <ele>989</ele>
        <time>2009-05-05T16:13:24Z</time>
      </trkpt>
      <trkpt lat="43.85986" lon="6.87659">
        <ele>989</ele>
        <time>2009-05-05T16:13:27Z</time>
      </trkpt>
      <trkpt lat="43.85986" lon="6.87666">
        <ele>988</ele>
        <time>2009-05-05T16:13:30Z</time>
      </trkpt>
      <trkpt lat="43.85987" lon="6.87673">
        <ele>988</ele>
        <time>2009-05-05T16:13:33Z</time>
      </trkpt>
      <trkpt lat="43.85985" lon="6.87681">
        <ele>987</ele>
        <time>2009-05-05T16:13:36Z</time>
      </trkpt>
      <trkpt lat="43.85986" lon="6.87688">
        <ele>988</ele>
        <time>2009-05-05T16:13:39Z</time>
      </trkpt>
      <trkpt lat="43.85988" lon="6.87695">
        <ele>988</ele>
        <time>2009-05-05T16:13:42Z</time>
      </trkpt>
      <trkpt lat="43.85991" lon="6.87709">
        <ele>989</ele>
        <time>2009-05-05T16:13:48Z</time>
      </trkpt>
      <trkpt lat="43.8599" lon="6.87717">
        <ele>991</ele>
        <time>2009-05-05T16:13:51Z</time>
      </trkpt>
      <trkpt lat="43.8599" lon="6.87724">
        <ele>992</ele>
        <time>2009-05-05T16:13:54Z</time>
      </trkpt>
      <trkpt lat="43.85991" lon="6.87731">
        <ele>992</ele>
        <time>2009-05-05T16:13:57Z</time>
      </trkpt>
      <trkpt lat="43.85993" lon="6.87739">
        <ele>992</ele>
        <time>2009-05-05T16:14:00Z</time>
      </trkpt>
      <trkpt lat="43.85994" lon="6.87747">
        <ele>991</ele>
        <time>2009-05-05T16:14:03Z</time>
      </trkpt>
      <trkpt lat="43.85995" lon="6.87754">
        <ele>990</ele>
        <time>2009-05-05T16:14:06Z</time>
      </trkpt>
      <trkpt lat="43.85996" lon="6.87761">
        <ele>990</ele>
        <time>2009-05-05T16:14:09Z</time>
      </trkpt>
      <trkpt lat="43.85996" lon="6.87768">
        <ele>990</ele>
        <time>2009-05-05T16:14:12Z</time>
      </trkpt>
      <trkpt lat="43.85997" lon="6.87781">
        <ele>991</ele>
        <time>2009-05-05T16:14:18Z</time>
      </trkpt>
      <trkpt lat="43.86" lon="6.87794">
        <ele>994</ele>
        <time>2009-05-05T16:14:24Z</time>
      </trkpt>
      <trkpt lat="43.86004" lon="6.87802">
        <ele>997</ele>
        <time>2009-05-05T16:14:27Z</time>
      </trkpt>
      <trkpt lat="43.86005" lon="6.87809">
        <ele>998</ele>
        <time>2009-05-05T16:14:30Z</time>
      </trkpt>
      <trkpt lat="43.86009" lon="6.87816">
        <ele>1001</ele>
        <time>2009-05-05T16:14:33Z</time>
      </trkpt>
      <trkpt lat="43.86013" lon="6.87828">
        <ele>999</ele>
        <time>2009-05-05T16:14:39Z</time>
      </trkpt>
      <trkpt lat="43.86016" lon="6.87834">
        <ele>999</ele>
        <time>2009-05-05T16:14:42Z</time>
      </trkpt>
      <trkpt lat="43.86017" lon="6.87841">
        <ele>1000</ele>
        <time>2009-05-05T16:14:45Z</time>
      </trkpt>
      <trkpt lat="43.86017" lon="6.87848">
        <ele>1000</ele>
        <time>2009-05-05T16:14:48Z</time>
      </trkpt>
      <trkpt lat="43.86013" lon="6.87861">
        <ele>1000</ele>
        <time>2009-05-05T16:14:54Z</time>
      </trkpt>
      <trkpt lat="43.86012" lon="6.87868">
        <ele>1000</ele>
        <time>2009-05-05T16:14:57Z</time>
      </trkpt>
      <trkpt lat="43.86015" lon="6.87881">
        <ele>1004</ele>
        <time>2009-05-05T16:15:03Z</time>
      </trkpt>
      <trkpt lat="43.86015" lon="6.87888">
        <ele>1004</ele>
        <time>2009-05-05T16:15:06Z</time>
      </trkpt>
      <trkpt lat="43.86016" lon="6.87901">
        <ele>1004</ele>
        <time>2009-05-05T16:15:12Z</time>
      </trkpt>
      <trkpt lat="43.86016" lon="6.87913">
        <ele>1005</ele>
        <time>2009-05-05T16:15:18Z</time>
      </trkpt>
      <trkpt lat="43.86013" lon="6.87927">
        <ele>1006</ele>
        <time>2009-05-05T16:15:24Z</time>
      </trkpt>
      <trkpt lat="43.86012" lon="6.87934">
        <ele>1006</ele>
        <time>2009-05-05T16:15:27Z</time>
      </trkpt>
      <trkpt lat="43.86013" lon="6.87941">
        <ele>1006</ele>
        <time>2009-05-05T16:15:30Z</time>
      </trkpt>
      <trkpt lat="43.86013" lon="6.87948">
        <ele>1006</ele>
        <time>2009-05-05T16:15:33Z</time>
      </trkpt>
      <trkpt lat="43.86013" lon="6.87956">
        <ele>1006</ele>
        <time>2009-05-05T16:15:36Z</time>
      </trkpt>
      <trkpt lat="43.86013" lon="6.87963">
        <ele>1007</ele>
        <time>2009-05-05T16:15:39Z</time>
      </trkpt>
      <trkpt lat="43.86015" lon="6.8797">
        <ele>1008</ele>
        <time>2009-05-05T16:15:42Z</time>
      </trkpt>
      <trkpt lat="43.86016" lon="6.87977">
        <ele>1008</ele>
        <time>2009-05-05T16:15:45Z</time>
      </trkpt>
      <trkpt lat="43.86016" lon="6.87984">
        <ele>1008</ele>
        <time>2009-05-05T16:15:48Z</time>
      </trkpt>
      <trkpt lat="43.86016" lon="6.87992">
        <ele>1009</ele>
        <time>2009-05-05T16:15:51Z</time>
      </trkpt>
      <trkpt lat="43.86016" lon="6.87999">
        <ele>1010</ele>
        <time>2009-05-05T16:15:54Z</time>
      </trkpt>
      <trkpt lat="43.86017" lon="6.88007">
        <ele>1011</ele>
        <time>2009-05-05T16:15:57Z</time>
      </trkpt>
      <trkpt lat="43.86018" lon="6.88015">
        <ele>1011</ele>
        <time>2009-05-05T16:16:00Z</time>
      </trkpt>
      <trkpt lat="43.86018" lon="6.88023">
        <ele>1011</ele>
        <time>2009-05-05T16:16:03Z</time>
      </trkpt>
      <trkpt lat="43.86018" lon="6.88031">
        <ele>1012</ele>
        <time>2009-05-05T16:16:06Z</time>
      </trkpt>
      <trkpt lat="43.86019" lon="6.88038">
        <ele>1012</ele>
        <time>2009-05-05T16:16:09Z</time>
      </trkpt>
      <trkpt lat="43.86021" lon="6.88046">
        <ele>1013</ele>
        <time>2009-05-05T16:16:12Z</time>
      </trkpt>
      <trkpt lat="43.86022" lon="6.88054">
        <ele>1013</ele>
        <time>2009-05-05T16:16:15Z</time>
      </trkpt>
      <trkpt lat="43.86024" lon="6.88063">
        <ele>1013</ele>
        <time>2009-05-05T16:16:18Z</time>
      </trkpt>
      <trkpt lat="43.86027" lon="6.88071">
        <ele>1014</ele>
        <time>2009-05-05T16:16:21Z</time>
      </trkpt>
      <trkpt lat="43.86028" lon="6.88079">
        <ele>1014</ele>
        <time>2009-05-05T16:16:24Z</time>
      </trkpt>
      <trkpt lat="43.8603" lon="6.88087">
        <ele>1015</ele>
        <time>2009-05-05T16:16:27Z</time>
      </trkpt>
      <trkpt lat="43.86031" lon="6.88096">
        <ele>1015</ele>
        <time>2009-05-05T16:16:30Z</time>
      </trkpt>
      <trkpt lat="43.86033" lon="6.88103">
        <ele>1015</ele>
        <time>2009-05-05T16:16:33Z</time>
      </trkpt>
      <trkpt lat="43.86035" lon="6.88112">
        <ele>1016</ele>
        <time>2009-05-05T16:16:36Z</time>
      </trkpt>
      <trkpt lat="43.86038" lon="6.88123">
        <ele>1015</ele>
        <time>2009-05-05T16:16:39Z</time>
      </trkpt>
      <trkpt lat="43.86041" lon="6.88134">
        <ele>1015</ele>
        <time>2009-05-05T16:16:42Z</time>
      </trkpt>
      <trkpt lat="43.86044" lon="6.88146">
        <ele>1014</ele>
        <time>2009-05-05T16:16:45Z</time>
      </trkpt>
      <trkpt lat="43.86045" lon="6.88159">
        <ele>1013</ele>
        <time>2009-05-05T16:16:48Z</time>
      </trkpt>
      <trkpt lat="43.86048" lon="6.88176">
        <ele>1012</ele>
        <time>2009-05-05T16:16:51Z</time>
      </trkpt>
      <trkpt lat="43.86053" lon="6.88192">
        <ele>1012</ele>
        <time>2009-05-05T16:16:54Z</time>
      </trkpt>
      <trkpt lat="43.86058" lon="6.88211">
        <ele>1011</ele>
        <time>2009-05-05T16:16:57Z</time>
      </trkpt>
      <trkpt lat="43.86063" lon="6.88231">
        <ele>1011</ele>
        <time>2009-05-05T16:17:00Z</time>
      </trkpt>
      <trkpt lat="43.86067" lon="6.8825">
        <ele>1010</ele>
        <time>2009-05-05T16:17:03Z</time>
      </trkpt>
      <trkpt lat="43.8607" lon="6.88268">
        <ele>1010</ele>
        <time>2009-05-05T16:17:06Z</time>
      </trkpt>
      <trkpt lat="43.86076" lon="6.88289">
        <ele>1008</ele>
        <time>2009-05-05T16:17:09Z</time>
      </trkpt>
      <trkpt lat="43.86082" lon="6.88313">
        <ele>1007</ele>
        <time>2009-05-05T16:17:12Z</time>
      </trkpt>
      <trkpt lat="43.86091" lon="6.8834">
        <ele>1006</ele>
        <time>2009-05-05T16:17:15Z</time>
      </trkpt>
      <trkpt lat="43.86099" lon="6.88368">
        <ele>1004</ele>
        <time>2009-05-05T16:17:18Z</time>
      </trkpt>
      <trkpt lat="43.86106" lon="6.88397">
        <ele>1003</ele>
        <time>2009-05-05T16:17:21Z</time>
      </trkpt>
      <trkpt lat="43.86111" lon="6.88427">
        <ele>1002</ele>
        <time>2009-05-05T16:17:24Z</time>
      </trkpt>
      <trkpt lat="43.86116" lon="6.88456">
        <ele>1000</ele>
        <time>2009-05-05T16:17:27Z</time>
      </trkpt>
      <trkpt lat="43.86124" lon="6.88487">
        <ele>998</ele>
        <time>2009-05-05T16:17:30Z</time>
      </trkpt>
      <trkpt lat="43.86134" lon="6.88518">
        <ele>996</ele>
        <time>2009-05-05T16:17:33Z</time>
      </trkpt>
      <trkpt lat="43.86143" lon="6.88546">
        <ele>995</ele>
        <time>2009-05-05T16:17:36Z</time>
      </trkpt>
      <trkpt lat="43.8615" lon="6.88577">
        <ele>995</ele>
        <time>2009-05-05T16:17:39Z</time>
      </trkpt>
      <trkpt lat="43.86164" lon="6.88611">
        <ele>993</ele>
        <time>2009-05-05T16:17:42Z</time>
      </trkpt>
      <trkpt lat="43.86178" lon="6.88643">
        <ele>990</ele>
        <time>2009-05-05T16:17:45Z</time>
      </trkpt>
      <trkpt lat="43.86187" lon="6.88674">
        <ele>988</ele>
        <time>2009-05-05T16:17:48Z</time>
      </trkpt>
      <trkpt lat="43.86195" lon="6.88702">
        <ele>987</ele>
        <time>2009-05-05T16:17:51Z</time>
      </trkpt>
      <trkpt lat="43.86202" lon="6.88725">
        <ele>986</ele>
        <time>2009-05-05T16:17:54Z</time>
      </trkpt>
      <trkpt lat="43.86205" lon="6.88745">
        <ele>985</ele>
        <time>2009-05-05T16:17:57Z</time>
      </trkpt>
      <trkpt lat="43.86208" lon="6.8876">
        <ele>985</ele>
        <time>2009-05-05T16:18:00Z</time>
      </trkpt>
      <trkpt lat="43.86209" lon="6.88774">
        <ele>984</ele>
        <time>2009-05-05T16:18:03Z</time>
      </trkpt>
      <trkpt lat="43.86209" lon="6.88786">
        <ele>984</ele>
        <time>2009-05-05T16:18:06Z</time>
      </trkpt>
      <trkpt lat="43.8621" lon="6.88797">
        <ele>984</ele>
        <time>2009-05-05T16:18:09Z</time>
      </trkpt>
      <trkpt lat="43.86214" lon="6.88805">
        <ele>984</ele>
        <time>2009-05-05T16:18:12Z</time>
      </trkpt>
      <trkpt lat="43.86218" lon="6.88815">
        <ele>984</ele>
        <time>2009-05-05T16:18:15Z</time>
      </trkpt>
      <trkpt lat="43.86219" lon="6.88825">
        <ele>984</ele>
        <time>2009-05-05T16:18:18Z</time>
      </trkpt>
      <trkpt lat="43.86221" lon="6.88836">
        <ele>984</ele>
        <time>2009-05-05T16:18:21Z</time>
      </trkpt>
      <trkpt lat="43.86222" lon="6.88846">
        <ele>984</ele>
        <time>2009-05-05T16:18:24Z</time>
      </trkpt>
      <trkpt lat="43.86222" lon="6.88855">
        <ele>984</ele>
        <time>2009-05-05T16:18:27Z</time>
      </trkpt>
      <trkpt lat="43.86222" lon="6.88863">
        <ele>984</ele>
        <time>2009-05-05T16:18:30Z</time>
      </trkpt>
      <trkpt lat="43.86222" lon="6.8887">
        <ele>984</ele>
        <time>2009-05-05T16:18:33Z</time>
      </trkpt>
      <trkpt lat="43.86223" lon="6.88878">
        <ele>984</ele>
        <time>2009-05-05T16:18:36Z</time>
      </trkpt>
      <trkpt lat="43.86225" lon="6.88884">
        <ele>984</ele>
        <time>2009-05-05T16:18:39Z</time>
      </trkpt>
      <trkpt lat="43.86226" lon="6.88897">
        <ele>984</ele>
        <time>2009-05-05T16:18:45Z</time>
      </trkpt>
      <trkpt lat="43.86227" lon="6.88904">
        <ele>984</ele>
        <time>2009-05-05T16:18:48Z</time>
      </trkpt>
      <trkpt lat="43.86228" lon="6.88911">
        <ele>984</ele>
        <time>2009-05-05T16:18:51Z</time>
      </trkpt>
      <trkpt lat="43.86229" lon="6.88923">
        <ele>984</ele>
        <time>2009-05-05T16:18:57Z</time>
      </trkpt>
      <trkpt lat="43.86229" lon="6.88932">
        <ele>993</ele>
        <time>2009-05-05T16:19:00Z</time>
      </trkpt>
      <trkpt lat="43.86232" lon="6.88944">
        <ele>993</ele>
        <time>2009-05-05T16:19:06Z</time>
      </trkpt>
      <trkpt lat="43.86236" lon="6.88955">
        <ele>992</ele>
        <time>2009-05-05T16:19:12Z</time>
      </trkpt>
      <trkpt lat="43.8624" lon="6.88966">
        <ele>994</ele>
        <time>2009-05-05T16:19:18Z</time>
      </trkpt>
      <trkpt lat="43.86244" lon="6.88979">
        <ele>996</ele>
        <time>2009-05-05T16:19:24Z</time>
      </trkpt>
      <trkpt lat="43.86246" lon="6.88991">
        <ele>998</ele>
        <time>2009-05-05T16:19:30Z</time>
      </trkpt>
      <trkpt lat="43.86249" lon="6.89002">
        <ele>999</ele>
        <time>2009-05-05T16:19:36Z</time>
      </trkpt>
      <trkpt lat="43.86249" lon="6.89012">
        <ele>999</ele>
        <time>2009-05-05T16:19:42Z</time>
      </trkpt>
      <trkpt lat="43.86253" lon="6.89013">
        <ele>1007</ele>
        <time>2009-05-05T16:20:27Z</time>
      </trkpt>
      <trkpt lat="43.86251" lon="6.8902">
        <ele>1001</ele>
        <time>2009-05-05T16:20:42Z</time>
      </trkpt>
      <trkpt lat="43.86248" lon="6.89018">
        <ele>1001</ele>
        <time>2009-05-05T16:20:48Z</time>
      </trkpt>
      <trkpt lat="43.86244" lon="6.89021">
        <ele>1004</ele>
        <time>2009-05-05T16:20:57Z</time>
      </trkpt>
      <trkpt lat="43.86251" lon="6.8901">
        <ele>1001</ele>
        <time>2009-05-05T16:23:44Z</time>
      </trkpt>
      <trkpt lat="43.86251" lon="6.8901">
        <ele>1003</ele>
        <time>2009-05-05T16:24:36Z</time>
      </trkpt>
      <trkpt lat="43.86258" lon="6.89007">
        <ele>1004</ele>
        <time>2009-05-05T16:24:53Z</time>
      </trkpt>
      <trkpt lat="43.86259" lon="6.89004">
        <ele>1004</ele>
        <time>2009-05-05T16:25:02Z</time>
      </trkpt>
      <trkpt lat="43.86257" lon="6.89011">
        <ele>1005</ele>
        <time>2009-05-05T16:25:41Z</time>
      </trkpt>
      <trkpt lat="43.86254" lon="6.89017">
        <ele>1003</ele>
        <time>2009-05-05T16:25:47Z</time>
      </trkpt>
      <trkpt lat="43.86243" lon="6.89016">
        <ele>1001</ele>
        <time>2009-05-05T16:27:55Z</time>
      </trkpt>
      <trkpt lat="43.86241" lon="6.89024">
        <ele>1001</ele>
        <time>2009-05-05T16:28:16Z</time>
      </trkpt>
      <trkpt lat="43.86246" lon="6.8903">
        <ele>1007</ele>
        <time>2009-05-05T16:28:34Z</time>
      </trkpt>
      <trkpt lat="43.86238" lon="6.89031">
        <ele>1007</ele>
        <time>2009-05-05T16:28:43Z</time>
      </trkpt>
      <trkpt lat="43.8623" lon="6.89029">
        <ele>1011</ele>
        <time>2009-05-05T16:28:52Z</time>
      </trkpt>
      <trkpt lat="43.86226" lon="6.89034">
        <ele>1017</ele>
        <time>2009-05-05T16:29:01Z</time>
      </trkpt>
      <trkpt lat="43.86221" lon="6.89042">
        <ele>1020</ele>
        <time>2009-05-05T16:29:19Z</time>
      </trkpt>
      <trkpt lat="43.86216" lon="6.89046">
        <ele>1014</ele>
        <time>2009-05-05T16:29:34Z</time>
      </trkpt>
      <trkpt lat="43.8621" lon="6.89053">
        <ele>1012</ele>
        <time>2009-05-05T16:29:43Z</time>
      </trkpt>
      <trkpt lat="43.86207" lon="6.89064">
        <ele>1011</ele>
        <time>2009-05-05T16:29:52Z</time>
      </trkpt>
      <trkpt lat="43.86204" lon="6.8907">
        <ele>1013</ele>
        <time>2009-05-05T16:29:58Z</time>
      </trkpt>
      <trkpt lat="43.86194" lon="6.89064">
        <ele>1015</ele>
        <time>2009-05-05T16:30:10Z</time>
      </trkpt>
      <trkpt lat="43.8619" lon="6.89058">
        <ele>1016</ele>
        <time>2009-05-05T16:30:16Z</time>
      </trkpt>
      <trkpt lat="43.86187" lon="6.89051">
        <ele>1017</ele>
        <time>2009-05-05T16:30:22Z</time>
      </trkpt>
      <trkpt lat="43.86183" lon="6.89043">
        <ele>1018</ele>
        <time>2009-05-05T16:30:28Z</time>
      </trkpt>
      <trkpt lat="43.86179" lon="6.89036">
        <ele>1018</ele>
        <time>2009-05-05T16:30:34Z</time>
      </trkpt>
      <trkpt lat="43.86181" lon="6.89046">
        <ele>1023</ele>
        <time>2009-05-05T16:30:49Z</time>
      </trkpt>
      <trkpt lat="43.86182" lon="6.89055">
        <ele>1026</ele>
        <time>2009-05-05T16:30:58Z</time>
      </trkpt>
      <trkpt lat="43.86181" lon="6.89062">
        <ele>1029</ele>
        <time>2009-05-05T16:31:04Z</time>
      </trkpt>
      <trkpt lat="43.86177" lon="6.89071">
        <ele>1031</ele>
        <time>2009-05-05T16:31:13Z</time>
      </trkpt>
      <trkpt lat="43.86171" lon="6.89074">
        <ele>1033</ele>
        <time>2009-05-05T16:31:19Z</time>
      </trkpt>
      <trkpt lat="43.86164" lon="6.89078">
        <ele>1036</ele>
        <time>2009-05-05T16:31:25Z</time>
      </trkpt>
      <trkpt lat="43.86158" lon="6.89081">
        <ele>1037</ele>
        <time>2009-05-05T16:31:31Z</time>
      </trkpt>
      <trkpt lat="43.86154" lon="6.8909">
        <ele>1037</ele>
        <time>2009-05-05T16:31:40Z</time>
      </trkpt>
      <trkpt lat="43.86148" lon="6.89097">
        <ele>1039</ele>
        <time>2009-05-05T16:31:49Z</time>
      </trkpt>
      <trkpt lat="43.86143" lon="6.89103">
        <ele>1037</ele>
        <time>2009-05-05T16:31:58Z</time>
      </trkpt>
      <trkpt lat="43.8614" lon="6.89112">
        <ele>1041</ele>
        <time>2009-05-05T16:32:07Z</time>
      </trkpt>
      <trkpt lat="43.86138" lon="6.89119">
        <ele>1041</ele>
        <time>2009-05-05T16:32:13Z</time>
      </trkpt>
      <trkpt lat="43.86136" lon="6.89128">
        <ele>1042</ele>
        <time>2009-05-05T16:32:19Z</time>
      </trkpt>
      <trkpt lat="43.86139" lon="6.89136">
        <ele>1045</ele>
        <time>2009-05-05T16:32:25Z</time>
      </trkpt>
      <trkpt lat="43.86136" lon="6.89146">
        <ele>1046</ele>
        <time>2009-05-05T16:32:34Z</time>
      </trkpt>
      <trkpt lat="43.86133" lon="6.89153">
        <ele>1045</ele>
        <time>2009-05-05T16:32:40Z</time>
      </trkpt>
      <trkpt lat="43.8613" lon="6.89162">
        <ele>1045</ele>
        <time>2009-05-05T16:32:46Z</time>
      </trkpt>
      <trkpt lat="43.86128" lon="6.89168">
        <ele>1047</ele>
        <time>2009-05-05T16:32:52Z</time>
      </trkpt>
      <trkpt lat="43.86129" lon="6.89175">
        <ele>1059</ele>
        <time>2009-05-05T16:33:11Z</time>
      </trkpt>
      <trkpt lat="43.86128" lon="6.89182">
        <ele>1057</ele>
        <time>2009-05-05T16:33:35Z</time>
      </trkpt>
      <trkpt lat="43.86125" lon="6.89189">
        <ele>1052</ele>
        <time>2009-05-05T16:33:53Z</time>
      </trkpt>
      <trkpt lat="43.86122" lon="6.89196">
        <ele>1060</ele>
        <time>2009-05-05T16:34:08Z</time>
      </trkpt>
      <trkpt lat="43.86116" lon="6.89192">
        <ele>1055</ele>
        <time>2009-05-05T16:34:35Z</time>
      </trkpt>
      <trkpt lat="43.86111" lon="6.89187">
        <ele>1059</ele>
        <time>2009-05-05T16:34:50Z</time>
      </trkpt>
      <trkpt lat="43.86105" lon="6.89181">
        <ele>1059</ele>
        <time>2009-05-05T16:35:23Z</time>
      </trkpt>
      <trkpt lat="43.86103" lon="6.89173">
        <ele>1062</ele>
        <time>2009-05-05T16:35:38Z</time>
      </trkpt>
      <trkpt lat="43.86103" lon="6.89166">
        <ele>1064</ele>
        <time>2009-05-05T16:35:56Z</time>
      </trkpt>
      <trkpt lat="43.86097" lon="6.89162">
        <ele>1066</ele>
        <time>2009-05-05T16:36:08Z</time>
      </trkpt>
      <trkpt lat="43.86094" lon="6.89155">
        <ele>1069</ele>
        <time>2009-05-05T16:36:23Z</time>
      </trkpt>
      <trkpt lat="43.86089" lon="6.89148">
        <ele>1067</ele>
        <time>2009-05-05T16:36:35Z</time>
      </trkpt>
      <trkpt lat="43.86084" lon="6.8914">
        <ele>1069</ele>
        <time>2009-05-05T16:36:44Z</time>
      </trkpt>
      <trkpt lat="43.8608" lon="6.89133">
        <ele>1070</ele>
        <time>2009-05-05T16:36:53Z</time>
      </trkpt>
      <trkpt lat="43.86082" lon="6.8914">
        <ele>1074</ele>
        <time>2009-05-05T16:37:18Z</time>
      </trkpt>
      <trkpt lat="43.86085" lon="6.89146">
        <ele>1078</ele>
        <time>2009-05-05T16:37:27Z</time>
      </trkpt>
      <trkpt lat="43.86082" lon="6.89155">
        <ele>1080</ele>
        <time>2009-05-05T16:37:39Z</time>
      </trkpt>
      <trkpt lat="43.86075" lon="6.89157">
        <ele>1080</ele>
        <time>2009-05-05T16:37:48Z</time>
      </trkpt>
      <trkpt lat="43.86072" lon="6.89148">
        <ele>1080</ele>
        <time>2009-05-05T16:37:57Z</time>
      </trkpt>
      <trkpt lat="43.86068" lon="6.89142">
        <ele>1079</ele>
        <time>2009-05-05T16:38:09Z</time>
      </trkpt>
      <trkpt lat="43.86073" lon="6.89138">
        <ele>1078</ele>
        <time>2009-05-05T16:41:32Z</time>
      </trkpt>
      <trkpt lat="43.8607" lon="6.89145">
        <ele>1084</ele>
        <time>2009-05-05T16:41:50Z</time>
      </trkpt>
      <trkpt lat="43.86067" lon="6.89153">
        <ele>1085</ele>
        <time>2009-05-05T16:42:05Z</time>
      </trkpt>
      <trkpt lat="43.86067" lon="6.89161">
        <ele>1088</ele>
        <time>2009-05-05T16:42:17Z</time>
      </trkpt>
      <trkpt lat="43.86065" lon="6.89168">
        <ele>1088</ele>
        <time>2009-05-05T16:42:23Z</time>
      </trkpt>
      <trkpt lat="43.86064" lon="6.89175">
        <ele>1090</ele>
        <time>2009-05-05T16:42:29Z</time>
      </trkpt>
      <trkpt lat="43.86068" lon="6.89185">
        <ele>1092</ele>
        <time>2009-05-05T16:42:38Z</time>
      </trkpt>
      <trkpt lat="43.86068" lon="6.89193">
        <ele>1095</ele>
        <time>2009-05-05T16:42:44Z</time>
      </trkpt>
      <trkpt lat="43.86067" lon="6.892">
        <ele>1096</ele>
        <time>2009-05-05T16:42:50Z</time>
      </trkpt>
      <trkpt lat="43.86066" lon="6.89208">
        <ele>1097</ele>
        <time>2009-05-05T16:43:02Z</time>
      </trkpt>
      <trkpt lat="43.86064" lon="6.89216">
        <ele>1097</ele>
        <time>2009-05-05T16:43:23Z</time>
      </trkpt>
      <trkpt lat="43.86064" lon="6.89223">
        <ele>1102</ele>
        <time>2009-05-05T16:43:47Z</time>
      </trkpt>
      <trkpt lat="43.86065" lon="6.8923">
        <ele>1100</ele>
        <time>2009-05-05T16:44:05Z</time>
      </trkpt>
      <trkpt lat="43.86066" lon="6.89238">
        <ele>1102</ele>
        <time>2009-05-05T16:45:56Z</time>
      </trkpt>
      <trkpt lat="43.86066" lon="6.89245">
        <ele>1100</ele>
        <time>2009-05-05T16:46:05Z</time>
      </trkpt>
      <trkpt lat="43.86065" lon="6.89252">
        <ele>1103</ele>
        <time>2009-05-05T16:46:20Z</time>
      </trkpt>
      <trkpt lat="43.86063" lon="6.8926">
        <ele>1106</ele>
        <time>2009-05-05T16:46:35Z</time>
      </trkpt>
      <trkpt lat="43.86064" lon="6.89268">
        <ele>1106</ele>
        <time>2009-05-05T16:46:45Z</time>
      </trkpt>
      <trkpt lat="43.8606" lon="6.89274">
        <ele>1104</ele>
        <time>2009-05-05T16:46:51Z</time>
      </trkpt>
      <trkpt lat="43.86057" lon="6.89281">
        <ele>1102</ele>
        <time>2009-05-05T16:46:57Z</time>
      </trkpt>
      <trkpt lat="43.86055" lon="6.89292">
        <ele>1102</ele>
        <time>2009-05-05T16:47:03Z</time>
      </trkpt>
      <trkpt lat="43.86055" lon="6.893">
        <ele>1103</ele>
        <time>2009-05-05T16:47:06Z</time>
      </trkpt>
      <trkpt lat="43.86055" lon="6.89311">
        <ele>1105</ele>
        <time>2009-05-05T16:47:12Z</time>
      </trkpt>
      <trkpt lat="43.86051" lon="6.8932">
        <ele>1108</ele>
        <time>2009-05-05T16:47:18Z</time>
      </trkpt>
      <trkpt lat="43.86051" lon="6.89327">
        <ele>1111</ele>
        <time>2009-05-05T16:47:27Z</time>
      </trkpt>
      <trkpt lat="43.86049" lon="6.89337">
        <ele>1114</ele>
        <time>2009-05-05T16:47:42Z</time>
      </trkpt>
      <trkpt lat="43.86048" lon="6.89347">
        <ele>1115</ele>
        <time>2009-05-05T16:47:48Z</time>
      </trkpt>
      <trkpt lat="43.86047" lon="6.89355">
        <ele>1115</ele>
        <time>2009-05-05T16:47:54Z</time>
      </trkpt>
      <trkpt lat="43.86046" lon="6.89362">
        <ele>1115</ele>
        <time>2009-05-05T16:48:00Z</time>
      </trkpt>
      <trkpt lat="43.86045" lon="6.89371">
        <ele>1116</ele>
        <time>2009-05-05T16:48:06Z</time>
      </trkpt>
      <trkpt lat="43.86044" lon="6.89378">
        <ele>1115</ele>
        <time>2009-05-05T16:48:12Z</time>
      </trkpt>
      <trkpt lat="43.86041" lon="6.89385">
        <ele>1118</ele>
        <time>2009-05-05T16:48:18Z</time>
      </trkpt>
      <trkpt lat="43.86039" lon="6.89393">
        <ele>1119</ele>
        <time>2009-05-05T16:48:27Z</time>
      </trkpt>
      <trkpt lat="43.86036" lon="6.894">
        <ele>1123</ele>
        <time>2009-05-05T16:48:45Z</time>
      </trkpt>
      <trkpt lat="43.86033" lon="6.89406">
        <ele>1120</ele>
        <time>2009-05-05T16:49:06Z</time>
      </trkpt>
      <trkpt lat="43.86027" lon="6.894">
        <ele>1121</ele>
        <time>2009-05-05T16:49:30Z</time>
      </trkpt>
      <trkpt lat="43.86023" lon="6.89394">
        <ele>1124</ele>
        <time>2009-05-05T16:49:48Z</time>
      </trkpt>
      <trkpt lat="43.86019" lon="6.89386">
        <ele>1123</ele>
        <time>2009-05-05T16:50:04Z</time>
      </trkpt>
      <trkpt lat="43.86019" lon="6.89393">
        <ele>1130</ele>
        <time>2009-05-05T16:50:28Z</time>
      </trkpt>
      <trkpt lat="43.86014" lon="6.89399">
        <ele>1134</ele>
        <time>2009-05-05T16:50:49Z</time>
      </trkpt>
      <trkpt lat="43.86016" lon="6.89407">
        <ele>1137</ele>
        <time>2009-05-05T16:51:01Z</time>
      </trkpt>
      <trkpt lat="43.86014" lon="6.89414">
        <ele>1138</ele>
        <time>2009-05-05T16:51:13Z</time>
      </trkpt>
      <trkpt lat="43.86008" lon="6.89418">
        <ele>1137</ele>
        <time>2009-05-05T16:51:37Z</time>
      </trkpt>
      <trkpt lat="43.86004" lon="6.89424">
        <ele>1140</ele>
        <time>2009-05-05T16:51:49Z</time>
      </trkpt>
      <trkpt lat="43.86002" lon="6.89432">
        <ele>1139</ele>
        <time>2009-05-05T16:52:04Z</time>
      </trkpt>
      <trkpt lat="43.85999" lon="6.8944">
        <ele>1144</ele>
        <time>2009-05-05T16:52:16Z</time>
      </trkpt>
      <trkpt lat="43.85995" lon="6.89447">
        <ele>1144</ele>
        <time>2009-05-05T16:52:31Z</time>
      </trkpt>
      <trkpt lat="43.85996" lon="6.89454">
        <ele>1151</ele>
        <time>2009-05-05T16:52:46Z</time>
      </trkpt>
      <trkpt lat="43.8599" lon="6.89458">
        <ele>1151</ele>
        <time>2009-05-05T16:52:55Z</time>
      </trkpt>
      <trkpt lat="43.85982" lon="6.89458">
        <ele>1149</ele>
        <time>2009-05-05T16:53:07Z</time>
      </trkpt>
      <trkpt lat="43.85981" lon="6.89464">
        <ele>1149</ele>
        <time>2009-05-05T16:53:22Z</time>
      </trkpt>
      <trkpt lat="43.85982" lon="6.89468">
        <ele>1154</ele>
        <time>2009-05-05T16:53:31Z</time>
      </trkpt>
      <trkpt lat="43.85978" lon="6.8947">
        <ele>1156</ele>
        <time>2009-05-05T16:53:40Z</time>
      </trkpt>
      <trkpt lat="43.85971" lon="6.89473">
        <ele>1156</ele>
        <time>2009-05-05T16:53:49Z</time>
      </trkpt>
      <trkpt lat="43.85968" lon="6.89476">
        <ele>1160</ele>
        <time>2009-05-05T16:53:55Z</time>
      </trkpt>
      <trkpt lat="43.85961" lon="6.8948">
        <ele>1157</ele>
        <time>2009-05-05T16:54:10Z</time>
      </trkpt>
      <trkpt lat="43.85957" lon="6.89481">
        <ele>1157</ele>
        <time>2009-05-05T16:54:16Z</time>
      </trkpt>
      <trkpt lat="43.85951" lon="6.8948">
        <ele>1157</ele>
        <time>2009-05-05T16:54:22Z</time>
      </trkpt>
      <trkpt lat="43.85949" lon="6.89484">
        <ele>1156</ele>
        <time>2009-05-05T16:54:31Z</time>
      </trkpt>
      <trkpt lat="43.85945" lon="6.89485">
        <ele>1157</ele>
        <time>2009-05-05T16:54:43Z</time>
      </trkpt>
      <trkpt lat="43.85941" lon="6.89485">
        <ele>1156</ele>
        <time>2009-05-05T16:54:46Z</time>
      </trkpt>
      <trkpt lat="43.85937" lon="6.89486">
        <ele>1155</ele>
        <time>2009-05-05T16:54:49Z</time>
      </trkpt>
      <trkpt lat="43.85935" lon="6.89489">
        <ele>1157</ele>
        <time>2009-05-05T16:54:55Z</time>
      </trkpt>
      <trkpt lat="43.85932" lon="6.89491">
        <ele>1157</ele>
        <time>2009-05-05T16:55:01Z</time>
      </trkpt>
      <trkpt lat="43.85927" lon="6.89496">
        <ele>1158</ele>
        <time>2009-05-05T16:55:11Z</time>
      </trkpt>
      <trkpt lat="43.85924" lon="6.89498">
        <ele>1160</ele>
        <time>2009-05-05T16:55:16Z</time>
      </trkpt>
      <trkpt lat="43.8592" lon="6.89501">
        <ele>1162</ele>
        <time>2009-05-05T16:55:26Z</time>
      </trkpt>
      <trkpt lat="43.85917" lon="6.89503">
        <ele>1163</ele>
        <time>2009-05-05T16:55:32Z</time>
      </trkpt>
      <trkpt lat="43.85915" lon="6.89506">
        <ele>1163</ele>
        <time>2009-05-05T16:55:35Z</time>
      </trkpt>
      <trkpt lat="43.85912" lon="6.89508">
        <ele>1163</ele>
        <time>2009-05-05T16:55:38Z</time>
      </trkpt>
      <trkpt lat="43.85908" lon="6.89508">
        <ele>1162</ele>
        <time>2009-05-05T16:55:41Z</time>
      </trkpt>
      <trkpt lat="43.85903" lon="6.89504">
        <ele>1162</ele>
        <time>2009-05-05T16:55:44Z</time>
      </trkpt>
      <trkpt lat="43.859" lon="6.895">
        <ele>1162</ele>
        <time>2009-05-05T16:55:47Z</time>
      </trkpt>
      <trkpt lat="43.85898" lon="6.89497">
        <ele>1161</ele>
        <time>2009-05-05T16:55:50Z</time>
      </trkpt>
      <trkpt lat="43.85895" lon="6.89494">
        <ele>1162</ele>
        <time>2009-05-05T16:55:59Z</time>
      </trkpt>
      <trkpt lat="43.85891" lon="6.89491">
        <ele>1163</ele>
        <time>2009-05-05T16:56:05Z</time>
      </trkpt>
      <trkpt lat="43.85894" lon="6.89489">
        <ele>1162</ele>
        <time>2009-05-05T16:56:17Z</time>
      </trkpt>
      <trkpt lat="43.85898" lon="6.89489">
        <ele>1163</ele>
        <time>2009-05-05T16:57:12Z</time>
      </trkpt>
      <trkpt lat="43.85894" lon="6.89485">
        <ele>1162</ele>
        <time>2009-05-05T16:57:27Z</time>
      </trkpt>
      <trkpt lat="43.85889" lon="6.89482">
        <ele>1164</ele>
        <time>2009-05-05T16:57:36Z</time>
      </trkpt>
      <trkpt lat="43.85888" lon="6.89478">
        <ele>1163</ele>
        <time>2009-05-05T16:57:39Z</time>
      </trkpt>
      <trkpt lat="43.85884" lon="6.89473">
        <ele>1163</ele>
        <time>2009-05-05T16:57:42Z</time>
      </trkpt>
      <trkpt lat="43.85883" lon="6.8947">
        <ele>1161</ele>
        <time>2009-05-05T16:57:45Z</time>
      </trkpt>
      <trkpt lat="43.85881" lon="6.89463">
        <ele>1157</ele>
        <time>2009-05-05T16:57:48Z</time>
      </trkpt>
      <trkpt lat="43.85878" lon="6.89457">
        <ele>1155</ele>
        <time>2009-05-05T16:57:51Z</time>
      </trkpt>
      <trkpt lat="43.85872" lon="6.8945">
        <ele>1153</ele>
        <time>2009-05-05T16:57:54Z</time>
      </trkpt>
      <trkpt lat="43.85861" lon="6.89444">
        <ele>1149</ele>
        <time>2009-05-05T16:58:00Z</time>
      </trkpt>
      <trkpt lat="43.85857" lon="6.89438">
        <ele>1148</ele>
        <time>2009-05-05T16:58:03Z</time>
      </trkpt>
      <trkpt lat="43.85851" lon="6.89433">
        <ele>1149</ele>
        <time>2009-05-05T16:58:06Z</time>
      </trkpt>
      <trkpt lat="43.85847" lon="6.89428">
        <ele>1147</ele>
        <time>2009-05-05T16:58:09Z</time>
      </trkpt>
      <trkpt lat="43.85846" lon="6.89419">
        <ele>1146</ele>
        <time>2009-05-05T16:58:12Z</time>
      </trkpt>
      <trkpt lat="43.85837" lon="6.8941">
        <ele>1147</ele>
        <time>2009-05-05T16:58:15Z</time>
      </trkpt>
      <trkpt lat="43.85832" lon="6.89404">
        <ele>1147</ele>
        <time>2009-05-05T16:58:18Z</time>
      </trkpt>
      <trkpt lat="43.85829" lon="6.89406">
        <ele>1148</ele>
        <time>2009-05-05T16:58:21Z</time>
      </trkpt>
      <trkpt lat="43.85825" lon="6.8941">
        <ele>1146</ele>
        <time>2009-05-05T16:58:24Z</time>
      </trkpt>
      <trkpt lat="43.85822" lon="6.89413">
        <ele>1146</ele>
        <time>2009-05-05T16:58:27Z</time>
      </trkpt>
      <trkpt lat="43.85814" lon="6.89414">
        <ele>1142</ele>
        <time>2009-05-05T16:58:33Z</time>
      </trkpt>
      <trkpt lat="43.8581" lon="6.89408">
        <ele>1136</ele>
        <time>2009-05-05T16:58:42Z</time>
      </trkpt>
      <trkpt lat="43.85804" lon="6.8941">
        <ele>1135</ele>
        <time>2009-05-05T17:00:12Z</time>
      </trkpt>
      <trkpt lat="43.85801" lon="6.89401">
        <ele>1133</ele>
        <time>2009-05-05T17:00:24Z</time>
      </trkpt>
      <trkpt lat="43.85796" lon="6.8939">
        <ele>1132</ele>
        <time>2009-05-05T17:00:27Z</time>
      </trkpt>
      <trkpt lat="43.85791" lon="6.89381">
        <ele>1131</ele>
        <time>2009-05-05T17:00:30Z</time>
      </trkpt>
      <trkpt lat="43.85789" lon="6.89376">
        <ele>1130</ele>
        <time>2009-05-05T17:00:36Z</time>
      </trkpt>
      <trkpt lat="43.85783" lon="6.8937">
        <ele>1129</ele>
        <time>2009-05-05T17:00:39Z</time>
      </trkpt>
      <trkpt lat="43.85775" lon="6.8936">
        <ele>1128</ele>
        <time>2009-05-05T17:00:42Z</time>
      </trkpt>
      <trkpt lat="43.85768" lon="6.89346">
        <ele>1125</ele>
        <time>2009-05-05T17:00:45Z</time>
      </trkpt>
      <trkpt lat="43.85765" lon="6.89332">
        <ele>1121</ele>
        <time>2009-05-05T17:00:48Z</time>
      </trkpt>
      <trkpt lat="43.85762" lon="6.89322">
        <ele>1117</ele>
        <time>2009-05-05T17:00:51Z</time>
      </trkpt>
      <trkpt lat="43.85759" lon="6.89318">
        <ele>1114</ele>
        <time>2009-05-05T17:00:54Z</time>
      </trkpt>
      <trkpt lat="43.85756" lon="6.89315">
        <ele>1111</ele>
        <time>2009-05-05T17:00:57Z</time>
      </trkpt>
      <trkpt lat="43.85751" lon="6.89307">
        <ele>1108</ele>
        <time>2009-05-05T17:01:00Z</time>
      </trkpt>
      <trkpt lat="43.8575" lon="6.89302">
        <ele>1106</ele>
        <time>2009-05-05T17:01:03Z</time>
      </trkpt>
      <trkpt lat="43.85747" lon="6.89298">
        <ele>1106</ele>
        <time>2009-05-05T17:01:06Z</time>
      </trkpt>
      <trkpt lat="43.85739" lon="6.89301">
        <ele>1110</ele>
        <time>2009-05-05T17:01:21Z</time>
      </trkpt>
      <trkpt lat="43.85737" lon="6.89297">
        <ele>1107</ele>
        <time>2009-05-05T17:01:33Z</time>
      </trkpt>
      <trkpt lat="43.85728" lon="6.89301">
        <ele>1105</ele>
        <time>2009-05-05T17:01:39Z</time>
      </trkpt>
      <trkpt lat="43.85725" lon="6.89302">
        <ele>1106</ele>
        <time>2009-05-05T17:01:42Z</time>
      </trkpt>
      <trkpt lat="43.8572" lon="6.89307">
        <ele>1100</ele>
        <time>2009-05-05T17:01:48Z</time>
      </trkpt>
      <trkpt lat="43.85716" lon="6.89312">
        <ele>1099</ele>
        <time>2009-05-05T17:01:51Z</time>
      </trkpt>
      <trkpt lat="43.85712" lon="6.89322">
        <ele>1097</ele>
        <time>2009-05-05T17:01:54Z</time>
      </trkpt>
      <trkpt lat="43.8571" lon="6.89332">
        <ele>1092</ele>
        <time>2009-05-05T17:01:57Z</time>
      </trkpt>
      <trkpt lat="43.85709" lon="6.89342">
        <ele>1088</ele>
        <time>2009-05-05T17:02:00Z</time>
      </trkpt>
      <trkpt lat="43.8571" lon="6.8935">
        <ele>1083</ele>
        <time>2009-05-05T17:02:03Z</time>
      </trkpt>
      <trkpt lat="43.85707" lon="6.89362">
        <ele>1080</ele>
        <time>2009-05-05T17:02:06Z</time>
      </trkpt>
      <trkpt lat="43.857" lon="6.89374">
        <ele>1078</ele>
        <time>2009-05-05T17:02:09Z</time>
      </trkpt>
      <trkpt lat="43.85694" lon="6.89383">
        <ele>1073</ele>
        <time>2009-05-05T17:02:12Z</time>
      </trkpt>
      <trkpt lat="43.85692" lon="6.89398">
        <ele>1072</ele>
        <time>2009-05-05T17:02:15Z</time>
      </trkpt>
      <trkpt lat="43.85695" lon="6.89413">
        <ele>1065</ele>
        <time>2009-05-05T17:02:18Z</time>
      </trkpt>
      <trkpt lat="43.85693" lon="6.89426">
        <ele>1060</ele>
        <time>2009-05-05T17:02:21Z</time>
      </trkpt>
      <trkpt lat="43.85693" lon="6.89441">
        <ele>1053</ele>
        <time>2009-05-05T17:02:24Z</time>
      </trkpt>
      <trkpt lat="43.85693" lon="6.89458">
        <ele>1049</ele>
        <time>2009-05-05T17:02:27Z</time>
      </trkpt>
      <trkpt lat="43.85692" lon="6.89475">
        <ele>1048</ele>
        <time>2009-05-05T17:02:30Z</time>
      </trkpt>
      <trkpt lat="43.85693" lon="6.8949">
        <ele>1049</ele>
        <time>2009-05-05T17:02:33Z</time>
      </trkpt>
      <trkpt lat="43.85692" lon="6.89502">
        <ele>1044</ele>
        <time>2009-05-05T17:02:36Z</time>
      </trkpt>
      <trkpt lat="43.85692" lon="6.89517">
        <ele>1041</ele>
        <time>2009-05-05T17:02:39Z</time>
      </trkpt>
      <trkpt lat="43.85692" lon="6.89526">
        <ele>1036</ele>
        <time>2009-05-05T17:02:42Z</time>
      </trkpt>
      <trkpt lat="43.85689" lon="6.89533">
        <ele>1034</ele>
        <time>2009-05-05T17:02:45Z</time>
      </trkpt>
      <trkpt lat="43.85686" lon="6.89542">
        <ele>1032</ele>
        <time>2009-05-05T17:02:48Z</time>
      </trkpt>
      <trkpt lat="43.85681" lon="6.89554">
        <ele>1029</ele>
        <time>2009-05-05T17:02:51Z</time>
      </trkpt>
      <trkpt lat="43.8568" lon="6.89571">
        <ele>1029</ele>
        <time>2009-05-05T17:02:54Z</time>
      </trkpt>
      <trkpt lat="43.85679" lon="6.89588">
        <ele>1030</ele>
        <time>2009-05-05T17:02:57Z</time>
      </trkpt>
      <trkpt lat="43.85674" lon="6.89589">
        <ele>1029</ele>
        <time>2009-05-05T17:03:00Z</time>
      </trkpt>
      <trkpt lat="43.85667" lon="6.89583">
        <ele>1028</ele>
        <time>2009-05-05T17:03:03Z</time>
      </trkpt>
      <trkpt lat="43.85662" lon="6.89581">
        <ele>1027</ele>
        <time>2009-05-05T17:03:06Z</time>
      </trkpt>
      <trkpt lat="43.85657" lon="6.89582">
        <ele>1026</ele>
        <time>2009-05-05T17:03:09Z</time>
      </trkpt>
      <trkpt lat="43.85653" lon="6.89576">
        <ele>1023</ele>
        <time>2009-05-05T17:03:12Z</time>
      </trkpt>
      <trkpt lat="43.85652" lon="6.8957">
        <ele>1019</ele>
        <time>2009-05-05T17:03:15Z</time>
      </trkpt>
      <trkpt lat="43.85649" lon="6.89577">
        <ele>1015</ele>
        <time>2009-05-05T17:03:21Z</time>
      </trkpt>
      <trkpt lat="43.85645" lon="6.89578">
        <ele>1012</ele>
        <time>2009-05-05T17:03:24Z</time>
      </trkpt>
      <trkpt lat="43.85644" lon="6.89569">
        <ele>1009</ele>
        <time>2009-05-05T17:03:27Z</time>
      </trkpt>
      <trkpt lat="43.8564" lon="6.89562">
        <ele>1009</ele>
        <time>2009-05-05T17:03:30Z</time>
      </trkpt>
      <trkpt lat="43.85635" lon="6.89554">
        <ele>1008</ele>
        <time>2009-05-05T17:03:33Z</time>
      </trkpt>
      <trkpt lat="43.85637" lon="6.89547">
        <ele>1006</ele>
        <time>2009-05-05T17:03:36Z</time>
      </trkpt>
      <trkpt lat="43.85636" lon="6.89542">
        <ele>1006</ele>
        <time>2009-05-05T17:03:39Z</time>
      </trkpt>
      <trkpt lat="43.85631" lon="6.89542">
        <ele>1005</ele>
        <time>2009-05-05T17:03:45Z</time>
      </trkpt>
      <trkpt lat="43.85628" lon="6.89544">
        <ele>1004</ele>
        <time>2009-05-05T17:03:51Z</time>
      </trkpt>
      <trkpt lat="43.85627" lon="6.89539">
        <ele>1004</ele>
        <time>2009-05-05T17:03:57Z</time>
      </trkpt>
      <trkpt lat="43.85626" lon="6.89535">
        <ele>1004</ele>
        <time>2009-05-05T17:04:03Z</time>
      </trkpt>
      <trkpt lat="43.85621" lon="6.8953">
        <ele>1007</ele>
        <time>2009-05-05T17:04:12Z</time>
      </trkpt>
      <trkpt lat="43.85619" lon="6.89518">
        <ele>1007</ele>
        <time>2009-05-05T17:04:18Z</time>
      </trkpt>
      <trkpt lat="43.85614" lon="6.89511">
        <ele>1007</ele>
        <time>2009-05-05T17:04:24Z</time>
      </trkpt>
      <trkpt lat="43.85604" lon="6.89508">
        <ele>988</ele>
        <time>2009-05-05T17:04:30Z</time>
      </trkpt>
      <trkpt lat="43.85593" lon="6.89497">
        <ele>985</ele>
        <time>2009-05-05T17:04:33Z</time>
      </trkpt>
      <trkpt lat="43.85585" lon="6.89491">
        <ele>985</ele>
        <time>2009-05-05T17:04:36Z</time>
      </trkpt>
      <trkpt lat="43.85579" lon="6.89488">
        <ele>984</ele>
        <time>2009-05-05T17:04:39Z</time>
      </trkpt>
      <trkpt lat="43.85571" lon="6.89487">
        <ele>982</ele>
        <time>2009-05-05T17:04:42Z</time>
      </trkpt>
      <trkpt lat="43.85563" lon="6.89484">
        <ele>980</ele>
        <time>2009-05-05T17:04:45Z</time>
      </trkpt>
      <trkpt lat="43.85555" lon="6.89483">
        <ele>978</ele>
        <time>2009-05-05T17:04:48Z</time>
      </trkpt>
      <trkpt lat="43.85545" lon="6.89478">
        <ele>976</ele>
        <time>2009-05-05T17:04:54Z</time>
      </trkpt>
      <trkpt lat="43.85537" lon="6.89479">
        <ele>974</ele>
        <time>2009-05-05T17:04:57Z</time>
      </trkpt>
      <trkpt lat="43.85533" lon="6.89488">
        <ele>970</ele>
        <time>2009-05-05T17:05:00Z</time>
      </trkpt>
      <trkpt lat="43.85536" lon="6.89504">
        <ele>967</ele>
        <time>2009-05-05T17:05:03Z</time>
      </trkpt>
      <trkpt lat="43.85535" lon="6.89515">
        <ele>965</ele>
        <time>2009-05-05T17:05:06Z</time>
      </trkpt>
      <trkpt lat="43.85541" lon="6.89528">
        <ele>961</ele>
        <time>2009-05-05T17:05:39Z</time>
      </trkpt>
      <trkpt lat="43.85547" lon="6.89535">
        <ele>960</ele>
        <time>2009-05-05T17:05:42Z</time>
      </trkpt>
      <trkpt lat="43.85553" lon="6.89545">
        <ele>957</ele>
        <time>2009-05-05T17:05:45Z</time>
      </trkpt>
      <trkpt lat="43.85556" lon="6.89556">
        <ele>953</ele>
        <time>2009-05-05T17:05:48Z</time>
      </trkpt>
      <trkpt lat="43.8556" lon="6.89565">
        <ele>950</ele>
        <time>2009-05-05T17:05:51Z</time>
      </trkpt>
      <trkpt lat="43.85563" lon="6.89579">
        <ele>947</ele>
        <time>2009-05-05T17:05:54Z</time>
      </trkpt>
      <trkpt lat="43.85565" lon="6.89597">
        <ele>945</ele>
        <time>2009-05-05T17:05:57Z</time>
      </trkpt>
      <trkpt lat="43.85565" lon="6.89608">
        <ele>943</ele>
        <time>2009-05-05T17:06:00Z</time>
      </trkpt>
      <trkpt lat="43.85566" lon="6.89626">
        <ele>940</ele>
        <time>2009-05-05T17:06:03Z</time>
      </trkpt>
      <trkpt lat="43.85571" lon="6.89645">
        <ele>939</ele>
        <time>2009-05-05T17:06:06Z</time>
      </trkpt>
      <trkpt lat="43.85579" lon="6.89661">
        <ele>939</ele>
        <time>2009-05-05T17:06:09Z</time>
      </trkpt>
      <trkpt lat="43.85587" lon="6.89677">
        <ele>936</ele>
        <time>2009-05-05T17:06:12Z</time>
      </trkpt>
      <trkpt lat="43.85594" lon="6.89687">
        <ele>933</ele>
        <time>2009-05-05T17:06:15Z</time>
      </trkpt>
      <trkpt lat="43.85583" lon="6.89686">
        <ele>925</ele>
        <time>2009-05-05T17:06:21Z</time>
      </trkpt>
      <trkpt lat="43.85575" lon="6.89679">
        <ele>922</ele>
        <time>2009-05-05T17:06:24Z</time>
      </trkpt>
      <trkpt lat="43.85569" lon="6.89671">
        <ele>919</ele>
        <time>2009-05-05T17:06:27Z</time>
      </trkpt>
      <trkpt lat="43.85561" lon="6.89667">
        <ele>916</ele>
        <time>2009-05-05T17:06:30Z</time>
      </trkpt>
      <trkpt lat="43.85557" lon="6.89674">
        <ele>913</ele>
        <time>2009-05-05T17:06:36Z</time>
      </trkpt>
      <trkpt lat="43.85563" lon="6.89683">
        <ele>906</ele>
        <time>2009-05-05T17:06:42Z</time>
      </trkpt>
      <trkpt lat="43.85565" lon="6.89692">
        <ele>905</ele>
        <time>2009-05-05T17:06:45Z</time>
      </trkpt>
      <trkpt lat="43.85564" lon="6.897">
        <ele>903</ele>
        <time>2009-05-05T17:06:51Z</time>
      </trkpt>
      <trkpt lat="43.85565" lon="6.8971">
        <ele>901</ele>
        <time>2009-05-05T17:07:07Z</time>
      </trkpt>
      <trkpt lat="43.85568" lon="6.89716">
        <ele>900</ele>
        <time>2009-05-05T17:07:12Z</time>
      </trkpt>
      <trkpt lat="43.85578" lon="6.89725">
        <ele>897</ele>
        <time>2009-05-05T17:07:27Z</time>
      </trkpt>
      <trkpt lat="43.85582" lon="6.89732">
        <ele>896</ele>
        <time>2009-05-05T17:07:30Z</time>
      </trkpt>
      <trkpt lat="43.85584" lon="6.89743">
        <ele>893</ele>
        <time>2009-05-05T17:07:33Z</time>
      </trkpt>
      <trkpt lat="43.85586" lon="6.89756">
        <ele>890</ele>
        <time>2009-05-05T17:07:36Z</time>
      </trkpt>
      <trkpt lat="43.8559" lon="6.89766">
        <ele>888</ele>
        <time>2009-05-05T17:07:39Z</time>
      </trkpt>
      <trkpt lat="43.85573" lon="6.89761">
        <ele>881</ele>
        <time>2009-05-05T17:07:48Z</time>
      </trkpt>
      <trkpt lat="43.85562" lon="6.89758">
        <ele>879</ele>
        <time>2009-05-05T17:07:51Z</time>
      </trkpt>
      <trkpt lat="43.85552" lon="6.89759">
        <ele>876</ele>
        <time>2009-05-05T17:07:54Z</time>
      </trkpt>
      <trkpt lat="43.85544" lon="6.8975">
        <ele>874</ele>
        <time>2009-05-05T17:07:57Z</time>
      </trkpt>
      <trkpt lat="43.85536" lon="6.89747">
        <ele>871</ele>
        <time>2009-05-05T17:08:00Z</time>
      </trkpt>
      <trkpt lat="43.8552" lon="6.89748">
        <ele>867</ele>
        <time>2009-05-05T17:08:04Z</time>
      </trkpt>
      <trkpt lat="43.85532" lon="6.89762">
        <ele>860</ele>
        <time>2009-05-05T17:08:10Z</time>
      </trkpt>
      <trkpt lat="43.85542" lon="6.89782">
        <ele>859</ele>
        <time>2009-05-05T17:08:13Z</time>
      </trkpt>
      <trkpt lat="43.85549" lon="6.89793">
        <ele>857</ele>
        <time>2009-05-05T17:08:16Z</time>
      </trkpt>
      <trkpt lat="43.85553" lon="6.89802">
        <ele>858</ele>
        <time>2009-05-05T17:08:19Z</time>
      </trkpt>
      <trkpt lat="43.85556" lon="6.89817">
        <ele>856</ele>
        <time>2009-05-05T17:08:22Z</time>
      </trkpt>
      <trkpt lat="43.85561" lon="6.89829">
        <ele>853</ele>
        <time>2009-05-05T17:08:25Z</time>
      </trkpt>
      <trkpt lat="43.85562" lon="6.89842">
        <ele>851</ele>
        <time>2009-05-05T17:08:28Z</time>
      </trkpt>
      <trkpt lat="43.85564" lon="6.89858">
        <ele>850</ele>
        <time>2009-05-05T17:08:31Z</time>
      </trkpt>
      <trkpt lat="43.85568" lon="6.89871">
        <ele>848</ele>
        <time>2009-05-05T17:08:34Z</time>
      </trkpt>
      <trkpt lat="43.8557" lon="6.89884">
        <ele>847</ele>
        <time>2009-05-05T17:08:37Z</time>
      </trkpt>
      <trkpt lat="43.85572" lon="6.89899">
        <ele>844</ele>
        <time>2009-05-05T17:08:40Z</time>
      </trkpt>
      <trkpt lat="43.85576" lon="6.8991">
        <ele>842</ele>
        <time>2009-05-05T17:08:43Z</time>
      </trkpt>
      <trkpt lat="43.85578" lon="6.89922">
        <ele>839</ele>
        <time>2009-05-05T17:08:46Z</time>
      </trkpt>
      <trkpt lat="43.8558" lon="6.89934">
        <ele>836</ele>
        <time>2009-05-05T17:08:49Z</time>
      </trkpt>
      <trkpt lat="43.85582" lon="6.89948">
        <ele>833</ele>
        <time>2009-05-05T17:08:52Z</time>
      </trkpt>
      <trkpt lat="43.85583" lon="6.89955">
        <ele>831</ele>
        <time>2009-05-05T17:08:55Z</time>
      </trkpt>
      <trkpt lat="43.85576" lon="6.89951">
        <ele>826</ele>
        <time>2009-05-05T17:09:13Z</time>
      </trkpt>
      <trkpt lat="43.85569" lon="6.8995">
        <ele>825</ele>
        <time>2009-05-05T17:09:16Z</time>
      </trkpt>
      <trkpt lat="43.85565" lon="6.89957">
        <ele>824</ele>
        <time>2009-05-05T17:09:19Z</time>
      </trkpt>
      <trkpt lat="43.85569" lon="6.89968">
        <ele>823</ele>
        <time>2009-05-05T17:09:22Z</time>
      </trkpt>
      <trkpt lat="43.85571" lon="6.89979">
        <ele>821</ele>
        <time>2009-05-05T17:09:25Z</time>
      </trkpt>
      <trkpt lat="43.85563" lon="6.89984">
        <ele>819</ele>
        <time>2009-05-05T17:09:28Z</time>
      </trkpt>
      <trkpt lat="43.85555" lon="6.89985">
        <ele>816</ele>
        <time>2009-05-05T17:09:31Z</time>
      </trkpt>
      <trkpt lat="43.85549" lon="6.89991">
        <ele>814</ele>
        <time>2009-05-05T17:09:34Z</time>
      </trkpt>
      <trkpt lat="43.85541" lon="6.89994">
        <ele>810</ele>
        <time>2009-05-05T17:09:37Z</time>
      </trkpt>
      <trkpt lat="43.85536" lon="6.9">
        <ele>807</ele>
        <time>2009-05-05T17:09:40Z</time>
      </trkpt>
      <trkpt lat="43.85529" lon="6.90008">
        <ele>804</ele>
        <time>2009-05-05T17:09:43Z</time>
      </trkpt>
      <trkpt lat="43.85522" lon="6.90012">
        <ele>801</ele>
        <time>2009-05-05T17:09:46Z</time>
      </trkpt>
      <trkpt lat="43.85512" lon="6.90013">
        <ele>793</ele>
        <time>2009-05-05T17:09:52Z</time>
      </trkpt>
      <trkpt lat="43.85504" lon="6.90009">
        <ele>791</ele>
        <time>2009-05-05T17:10:05Z</time>
      </trkpt>
      <trkpt lat="43.85497" lon="6.9001">
        <ele>792</ele>
        <time>2009-05-05T17:10:32Z</time>
      </trkpt>
      <trkpt lat="43.85496" lon="6.9">
        <ele>795</ele>
        <time>2009-05-05T17:10:50Z</time>
      </trkpt>
      <trkpt lat="43.85495" lon="6.8999">
        <ele>793</ele>
        <time>2009-05-05T17:10:53Z</time>
      </trkpt>
      <trkpt lat="43.85493" lon="6.89999">
        <ele>786</ele>
        <time>2009-05-05T17:11:05Z</time>
      </trkpt>
      <trkpt lat="43.85495" lon="6.90009">
        <ele>781</ele>
        <time>2009-05-05T17:11:11Z</time>
      </trkpt>
      <trkpt lat="43.85496" lon="6.90017">
        <ele>781</ele>
        <time>2009-05-05T17:11:26Z</time>
      </trkpt>
      <trkpt lat="43.85499" lon="6.90029">
        <ele>780</ele>
        <time>2009-05-05T17:11:29Z</time>
      </trkpt>
      <trkpt lat="43.855" lon="6.90036">
        <ele>780</ele>
        <time>2009-05-05T17:11:32Z</time>
      </trkpt>
      <trkpt lat="43.85506" lon="6.90045">
        <ele>783</ele>
        <time>2009-05-05T17:13:01Z</time>
      </trkpt>
      <trkpt lat="43.85511" lon="6.90059">
        <ele>783</ele>
        <time>2009-05-05T17:13:04Z</time>
      </trkpt>
      <trkpt lat="43.85517" lon="6.90079">
        <ele>781</ele>
        <time>2009-05-05T17:13:07Z</time>
      </trkpt>
      <trkpt lat="43.85525" lon="6.90105">
        <ele>778</ele>
        <time>2009-05-05T17:13:10Z</time>
      </trkpt>
      <trkpt lat="43.85531" lon="6.90127">
        <ele>773</ele>
        <time>2009-05-05T17:13:13Z</time>
      </trkpt>
      <trkpt lat="43.85537" lon="6.90146">
        <ele>769</ele>
        <time>2009-05-05T17:13:16Z</time>
      </trkpt>
      <trkpt lat="43.8555" lon="6.90162">
        <ele>766</ele>
        <time>2009-05-05T17:13:19Z</time>
      </trkpt>
      <trkpt lat="43.85567" lon="6.90183">
        <ele>762</ele>
        <time>2009-05-05T17:13:22Z</time>
      </trkpt>
      <trkpt lat="43.85575" lon="6.90197">
        <ele>758</ele>
        <time>2009-05-05T17:13:25Z</time>
      </trkpt>
      <trkpt lat="43.85562" lon="6.90194">
        <ele>755</ele>
        <time>2009-05-05T17:13:28Z</time>
      </trkpt>
      <trkpt lat="43.85553" lon="6.90193">
        <ele>756</ele>
        <time>2009-05-05T17:13:31Z</time>
      </trkpt>
      <trkpt lat="43.85546" lon="6.90203">
        <ele>760</ele>
        <time>2009-05-05T17:15:19Z</time>
      </trkpt>
      <trkpt lat="43.85547" lon="6.9021">
        <ele>753</ele>
        <time>2009-05-05T17:15:27Z</time>
      </trkpt>
      <trkpt lat="43.85537" lon="6.90208">
        <ele>751</ele>
        <time>2009-05-05T17:15:30Z</time>
      </trkpt>
      <trkpt lat="43.85532" lon="6.90203">
        <ele>748</ele>
        <time>2009-05-05T17:15:33Z</time>
      </trkpt>
      <trkpt lat="43.85522" lon="6.90201">
        <ele>747</ele>
        <time>2009-05-05T17:15:37Z</time>
      </trkpt>
      <trkpt lat="43.85513" lon="6.90197">
        <ele>747</ele>
        <time>2009-05-05T17:15:39Z</time>
      </trkpt>
      <trkpt lat="43.85504" lon="6.90194">
        <ele>747</ele>
        <time>2009-05-05T17:15:43Z</time>
      </trkpt>
      <trkpt lat="43.85494" lon="6.90188">
        <ele>744</ele>
        <time>2009-05-05T17:15:45Z</time>
      </trkpt>
      <trkpt lat="43.85486" lon="6.90182">
        <ele>744</ele>
        <time>2009-05-05T17:15:48Z</time>
      </trkpt>
      <trkpt lat="43.85476" lon="6.9018">
        <ele>743</ele>
        <time>2009-05-05T17:15:51Z</time>
      </trkpt>
      <trkpt lat="43.85469" lon="6.90174">
        <ele>742</ele>
        <time>2009-05-05T17:15:54Z</time>
      </trkpt>
      <trkpt lat="43.85462" lon="6.90166">
        <ele>741</ele>
        <time>2009-05-05T17:16:01Z</time>
      </trkpt>
      <trkpt lat="43.85456" lon="6.90158">
        <ele>741</ele>
        <time>2009-05-05T17:16:06Z</time>
      </trkpt>
      <trkpt lat="43.85449" lon="6.90151">
        <ele>741</ele>
        <time>2009-05-05T17:16:12Z</time>
      </trkpt>
      <trkpt lat="43.85444" lon="6.90147">
        <ele>740</ele>
        <time>2009-05-05T17:16:15Z</time>
      </trkpt>
      <trkpt lat="43.85437" lon="6.90138">
        <ele>739</ele>
        <time>2009-05-05T17:16:18Z</time>
      </trkpt>
      <trkpt lat="43.85429" lon="6.90126">
        <ele>738</ele>
        <time>2009-05-05T17:16:22Z</time>
      </trkpt>
      <trkpt lat="43.85421" lon="6.90118">
        <ele>735</ele>
        <time>2009-05-05T17:16:24Z</time>
      </trkpt>
      <trkpt lat="43.85412" lon="6.90106">
        <ele>732</ele>
        <time>2009-05-05T17:16:27Z</time>
      </trkpt>
      <trkpt lat="43.85406" lon="6.90092">
        <ele>729</ele>
        <time>2009-05-05T17:16:30Z</time>
      </trkpt>
      <trkpt lat="43.854" lon="6.90076">
        <ele>725</ele>
        <time>2009-05-05T17:16:33Z</time>
      </trkpt>
      <trkpt lat="43.85395" lon="6.90057">
        <ele>724</ele>
        <time>2009-05-05T17:16:37Z</time>
      </trkpt>
      <trkpt lat="43.85388" lon="6.9004">
        <ele>723</ele>
        <time>2009-05-05T17:16:39Z</time>
      </trkpt>
      <trkpt lat="43.85379" lon="6.90031">
        <ele>720</ele>
        <time>2009-05-05T17:16:42Z</time>
      </trkpt>
      <trkpt lat="43.85371" lon="6.90019">
        <ele>716</ele>
        <time>2009-05-05T17:16:45Z</time>
      </trkpt>
      <trkpt lat="43.85367" lon="6.90006">
        <ele>713</ele>
        <time>2009-05-05T17:16:49Z</time>
      </trkpt>
      <trkpt lat="43.85361" lon="6.89996">
        <ele>709</ele>
        <time>2009-05-05T17:16:52Z</time>
      </trkpt>
      <trkpt lat="43.85352" lon="6.89992">
        <ele>708</ele>
        <time>2009-05-05T17:16:55Z</time>
      </trkpt>
      <trkpt lat="43.85346" lon="6.89984">
        <ele>706</ele>
        <time>2009-05-05T17:16:58Z</time>
      </trkpt>
      <trkpt lat="43.85339" lon="6.89975">
        <ele>704</ele>
        <time>2009-05-05T17:17:01Z</time>
      </trkpt>
      <trkpt lat="43.85332" lon="6.89965">
        <ele>704</ele>
        <time>2009-05-05T17:17:04Z</time>
      </trkpt>
      <trkpt lat="43.85323" lon="6.89959">
        <ele>701</ele>
        <time>2009-05-05T17:17:07Z</time>
      </trkpt>
      <trkpt lat="43.85312" lon="6.89949">
        <ele>698</ele>
        <time>2009-05-05T17:17:10Z</time>
      </trkpt>
      <trkpt lat="43.85302" lon="6.89938">
        <ele>696</ele>
        <time>2009-05-05T17:17:13Z</time>
      </trkpt>
      <trkpt lat="43.8529" lon="6.89926">
        <ele>696</ele>
        <time>2009-05-05T17:17:16Z</time>
      </trkpt>
      <trkpt lat="43.85276" lon="6.89922">
        <ele>694</ele>
        <time>2009-05-05T17:17:19Z</time>
      </trkpt>
      <trkpt lat="43.85265" lon="6.89925">
        <ele>692</ele>
        <time>2009-05-05T17:17:22Z</time>
      </trkpt>
      <trkpt lat="43.85258" lon="6.89923">
        <ele>687</ele>
        <time>2009-05-05T17:17:25Z</time>
      </trkpt>
      <trkpt lat="43.85248" lon="6.89923">
        <ele>683</ele>
        <time>2009-05-05T17:17:28Z</time>
      </trkpt>
      <trkpt lat="43.85236" lon="6.89922">
        <ele>679</ele>
        <time>2009-05-05T17:17:31Z</time>
      </trkpt>
      <trkpt lat="43.85225" lon="6.89922">
        <ele>677</ele>
        <time>2009-05-05T17:17:34Z</time>
      </trkpt>
      <trkpt lat="43.85214" lon="6.89925">
        <ele>673</ele>
        <time>2009-05-05T17:17:37Z</time>
      </trkpt>
      <trkpt lat="43.85209" lon="6.89921">
        <ele>670</ele>
        <time>2009-05-05T17:17:40Z</time>
      </trkpt>
      <trkpt lat="43.85203" lon="6.89915">
        <ele>669</ele>
        <time>2009-05-05T17:17:43Z</time>
      </trkpt>
      <trkpt lat="43.85195" lon="6.89911">
        <ele>669</ele>
        <time>2009-05-05T17:17:52Z</time>
      </trkpt>
      <trkpt lat="43.8519" lon="6.89916">
        <ele>667</ele>
        <time>2009-05-05T17:17:58Z</time>
      </trkpt>
      <trkpt lat="43.85192" lon="6.89927">
        <ele>663</ele>
        <time>2009-05-05T17:18:04Z</time>
      </trkpt>
      <trkpt lat="43.85181" lon="6.89926">
        <ele>659</ele>
        <time>2009-05-05T17:18:10Z</time>
      </trkpt>
      <trkpt lat="43.85169" lon="6.89925">
        <ele>653</ele>
        <time>2009-05-05T17:18:19Z</time>
      </trkpt>
      <trkpt lat="43.85159" lon="6.8992">
        <ele>653</ele>
        <time>2009-05-05T17:18:25Z</time>
      </trkpt>
      <trkpt lat="43.85156" lon="6.89912">
        <ele>653</ele>
        <time>2009-05-05T17:18:28Z</time>
      </trkpt>
      <trkpt lat="43.85151" lon="6.89917">
        <ele>653</ele>
        <time>2009-05-05T17:18:40Z</time>
      </trkpt>
      <trkpt lat="43.85146" lon="6.89927">
        <ele>653</ele>
        <time>2009-05-05T17:18:43Z</time>
      </trkpt>
      <trkpt lat="43.85137" lon="6.89935">
        <ele>639</ele>
        <time>2009-05-05T17:18:46Z</time>
      </trkpt>
      <trkpt lat="43.85132" lon="6.8994">
        <ele>637</ele>
        <time>2009-05-05T17:18:49Z</time>
      </trkpt>
      <trkpt lat="43.85126" lon="6.89945">
        <ele>635</ele>
        <time>2009-05-05T17:18:58Z</time>
      </trkpt>
      <trkpt lat="43.85126" lon="6.89954">
        <ele>637</ele>
        <time>2009-05-05T17:23:26Z</time>
      </trkpt>
      <trkpt lat="43.85129" lon="6.8996">
        <ele>635</ele>
        <time>2009-05-05T17:23:35Z</time>
      </trkpt>
      <trkpt lat="43.8513" lon="6.89967">
        <ele>636</ele>
        <time>2009-05-05T17:23:41Z</time>
      </trkpt>
      <trkpt lat="43.85132" lon="6.89983">
        <ele>635</ele>
        <time>2009-05-05T17:23:47Z</time>
      </trkpt>
      <trkpt lat="43.8514" lon="6.89987">
        <ele>634</ele>
        <time>2009-05-05T17:23:50Z</time>
      </trkpt>
      <trkpt lat="43.85152" lon="6.89982">
        <ele>634</ele>
        <time>2009-05-05T17:23:56Z</time>
      </trkpt>
      <trkpt lat="43.85159" lon="6.89981">
        <ele>633</ele>
        <time>2009-05-05T17:23:59Z</time>
      </trkpt>
      <trkpt lat="43.85169" lon="6.89983">
        <ele>631</ele>
        <time>2009-05-05T17:24:02Z</time>
      </trkpt>
      <trkpt lat="43.85185" lon="6.89987">
        <ele>629</ele>
        <time>2009-05-05T17:24:05Z</time>
      </trkpt>
      <trkpt lat="43.85202" lon="6.89998">
        <ele>629</ele>
        <time>2009-05-05T17:24:08Z</time>
      </trkpt>
      <trkpt lat="43.85215" lon="6.90018">
        <ele>625</ele>
        <time>2009-05-05T17:24:11Z</time>
      </trkpt>
      <trkpt lat="43.85223" lon="6.90046">
        <ele>627</ele>
        <time>2009-05-05T17:24:14Z</time>
      </trkpt>
      <trkpt lat="43.85224" lon="6.90081">
        <ele>630</ele>
        <time>2009-05-05T17:24:17Z</time>
      </trkpt>
      <trkpt lat="43.85222" lon="6.90116">
        <ele>628</ele>
        <time>2009-05-05T17:24:20Z</time>
      </trkpt>
      <trkpt lat="43.85215" lon="6.90147">
        <ele>624</ele>
        <time>2009-05-05T17:24:23Z</time>
      </trkpt>
      <trkpt lat="43.85215" lon="6.90177">
        <ele>622</ele>
        <time>2009-05-05T17:24:26Z</time>
      </trkpt>
      <trkpt lat="43.85227" lon="6.90204">
        <ele>621</ele>
        <time>2009-05-05T17:24:29Z</time>
      </trkpt>
      <trkpt lat="43.85243" lon="6.90228">
        <ele>621</ele>
        <time>2009-05-05T17:24:32Z</time>
      </trkpt>
      <trkpt lat="43.85252" lon="6.90257">
        <ele>618</ele>
        <time>2009-05-05T17:24:35Z</time>
      </trkpt>
      <trkpt lat="43.85258" lon="6.90287">
        <ele>615</ele>
        <time>2009-05-05T17:24:38Z</time>
      </trkpt>
      <trkpt lat="43.85267" lon="6.90312">
        <ele>612</ele>
        <time>2009-05-05T17:24:41Z</time>
      </trkpt>
      <trkpt lat="43.85275" lon="6.90334">
        <ele>612</ele>
        <time>2009-05-05T17:24:44Z</time>
      </trkpt>
      <trkpt lat="43.8528" lon="6.90354">
        <ele>612</ele>
        <time>2009-05-05T17:24:47Z</time>
      </trkpt>
      <trkpt lat="43.85287" lon="6.90382">
        <ele>610</ele>
        <time>2009-05-05T17:24:50Z</time>
      </trkpt>
      <trkpt lat="43.85298" lon="6.9041">
        <ele>610</ele>
        <time>2009-05-05T17:24:53Z</time>
      </trkpt>
      <trkpt lat="43.8531" lon="6.90438">
        <ele>609</ele>
        <time>2009-05-05T17:24:56Z</time>
      </trkpt>
      <trkpt lat="43.85322" lon="6.90467">
        <ele>608</ele>
        <time>2009-05-05T17:24:59Z</time>
      </trkpt>
      <trkpt lat="43.85336" lon="6.90495">
        <ele>605</ele>
        <time>2009-05-05T17:25:02Z</time>
      </trkpt>
      <trkpt lat="43.85355" lon="6.90518">
        <ele>604</ele>
        <time>2009-05-05T17:25:05Z</time>
      </trkpt>
      <trkpt lat="43.85367" lon="6.9054">
        <ele>600</ele>
        <time>2009-05-05T17:25:08Z</time>
      </trkpt>
      <trkpt lat="43.85374" lon="6.90552">
        <ele>598</ele>
        <time>2009-05-05T17:25:11Z</time>
      </trkpt>
      <trkpt lat="43.85379" lon="6.90568">
        <ele>596</ele>
        <time>2009-05-05T17:25:14Z</time>
      </trkpt>
      <trkpt lat="43.85385" lon="6.90586">
        <ele>593</ele>
        <time>2009-05-05T17:25:17Z</time>
      </trkpt>
      <trkpt lat="43.85391" lon="6.906">
        <ele>592</ele>
        <time>2009-05-05T17:25:20Z</time>
      </trkpt>
      <trkpt lat="43.85393" lon="6.90608">
        <ele>593</ele>
        <time>2009-05-05T17:25:23Z</time>
      </trkpt>
      <trkpt lat="43.85396" lon="6.90617">
        <ele>608</ele>
        <time>2009-05-05T17:25:32Z</time>
      </trkpt>
      <trkpt lat="43.85391" lon="6.90628">
        <ele>608</ele>
        <time>2009-05-05T17:25:47Z</time>
      </trkpt>
      <trkpt lat="43.85389" lon="6.90637">
        <ele>600</ele>
        <time>2009-05-05T17:25:53Z</time>
      </trkpt>
      <trkpt lat="43.85391" lon="6.90644">
        <ele>597</ele>
        <time>2009-05-05T17:25:56Z</time>
      </trkpt>
      <trkpt lat="43.85391" lon="6.90655">
        <ele>593</ele>
        <time>2009-05-05T17:25:59Z</time>
      </trkpt>
      <trkpt lat="43.85392" lon="6.90664">
        <ele>589</ele>
        <time>2009-05-05T17:26:02Z</time>
      </trkpt>
      <trkpt lat="43.85389" lon="6.90681">
        <ele>585</ele>
        <time>2009-05-05T17:26:05Z</time>
      </trkpt>
      <trkpt lat="43.85385" lon="6.90709">
        <ele>580</ele>
        <time>2009-05-05T17:26:08Z</time>
      </trkpt>
      <trkpt lat="43.85389" lon="6.90739">
        <ele>578</ele>
        <time>2009-05-05T17:26:11Z</time>
      </trkpt>
      <trkpt lat="43.85387" lon="6.90759">
        <ele>571</ele>
        <time>2009-05-05T17:26:14Z</time>
      </trkpt>
      <trkpt lat="43.85393" lon="6.90781">
        <ele>570</ele>
        <time>2009-05-05T17:26:17Z</time>
      </trkpt>
      <trkpt lat="43.85403" lon="6.90807">
        <ele>565</ele>
        <time>2009-05-05T17:26:20Z</time>
      </trkpt>
      <trkpt lat="43.85413" lon="6.90836">
        <ele>560</ele>
        <time>2009-05-05T17:26:23Z</time>
      </trkpt>
      <trkpt lat="43.85416" lon="6.90872">
        <ele>556</ele>
        <time>2009-05-05T17:26:26Z</time>
      </trkpt>
      <trkpt lat="43.85412" lon="6.90904">
        <ele>551</ele>
        <time>2009-05-05T17:26:29Z</time>
      </trkpt>
      <trkpt lat="43.85408" lon="6.90927">
        <ele>544</ele>
        <time>2009-05-05T17:26:32Z</time>
      </trkpt>
      <trkpt lat="43.85405" lon="6.90951">
        <ele>540</ele>
        <time>2009-05-05T17:26:35Z</time>
      </trkpt>
      <trkpt lat="43.85402" lon="6.90971">
        <ele>534</ele>
        <time>2009-05-05T17:26:38Z</time>
      </trkpt>
      <trkpt lat="43.85397" lon="6.90982">
        <ele>533</ele>
        <time>2009-05-05T17:26:50Z</time>
      </trkpt>
      <trkpt lat="43.85395" lon="6.90997">
        <ele>533</ele>
        <time>2009-05-05T17:26:53Z</time>
      </trkpt>
      <trkpt lat="43.85395" lon="6.91011">
        <ele>531</ele>
        <time>2009-05-05T17:26:56Z</time>
      </trkpt>
      <trkpt lat="43.85397" lon="6.91024">
        <ele>529</ele>
        <time>2009-05-05T17:26:59Z</time>
      </trkpt>
      <trkpt lat="43.85401" lon="6.91037">
        <ele>525</ele>
        <time>2009-05-05T17:27:02Z</time>
      </trkpt>
      <trkpt lat="43.85403" lon="6.91044">
        <ele>524</ele>
        <time>2009-05-05T17:27:05Z</time>
      </trkpt>
      <trkpt lat="43.85406" lon="6.91052">
        <ele>522</ele>
        <time>2009-05-05T17:27:08Z</time>
      </trkpt>
      <trkpt lat="43.85411" lon="6.91063">
        <ele>520</ele>
        <time>2009-05-05T17:27:11Z</time>
      </trkpt>
      <trkpt lat="43.85421" lon="6.91077">
        <ele>519</ele>
        <time>2009-05-05T17:27:14Z</time>
      </trkpt>
      <trkpt lat="43.8543" lon="6.91089">
        <ele>518</ele>
        <time>2009-05-05T17:27:17Z</time>
      </trkpt>
      <trkpt lat="43.85436" lon="6.91101">
        <ele>515</ele>
        <time>2009-05-05T17:27:20Z</time>
      </trkpt>
      <trkpt lat="43.85442" lon="6.9111">
        <ele>513</ele>
        <time>2009-05-05T17:27:23Z</time>
      </trkpt>
      <trkpt lat="43.85449" lon="6.91115">
        <ele>514</ele>
        <time>2009-05-05T17:27:26Z</time>
      </trkpt>
      <trkpt lat="43.85452" lon="6.91122">
        <ele>513</ele>
        <time>2009-05-05T17:27:29Z</time>
      </trkpt>
      <trkpt lat="43.85449" lon="6.91128">
        <ele>511</ele>
        <time>2009-05-05T17:27:32Z</time>
      </trkpt>
      <trkpt lat="43.85453" lon="6.91137">
        <ele>510</ele>
        <time>2009-05-05T17:27:35Z</time>
      </trkpt>
      <trkpt lat="43.85449" lon="6.91143">
        <ele>506</ele>
        <time>2009-05-05T17:27:38Z</time>
      </trkpt>
      <trkpt lat="43.85441" lon="6.91144">
        <ele>504</ele>
        <time>2009-05-05T17:27:41Z</time>
      </trkpt>
      <trkpt lat="43.85434" lon="6.91147">
        <ele>502</ele>
        <time>2009-05-05T17:27:44Z</time>
      </trkpt>
      <trkpt lat="43.85424" lon="6.91153">
        <ele>502</ele>
        <time>2009-05-05T17:27:47Z</time>
      </trkpt>
      <trkpt lat="43.85417" lon="6.91159">
        <ele>501</ele>
        <time>2009-05-05T17:27:50Z</time>
      </trkpt>
      <trkpt lat="43.85407" lon="6.9117">
        <ele>500</ele>
        <time>2009-05-05T17:27:53Z</time>
      </trkpt>
      <trkpt lat="43.85398" lon="6.91178">
        <ele>498</ele>
        <time>2009-05-05T17:27:56Z</time>
      </trkpt>
      <trkpt lat="43.85388" lon="6.91192">
        <ele>494</ele>
        <time>2009-05-05T17:27:59Z</time>
      </trkpt>
      <trkpt lat="43.85372" lon="6.91206">
        <ele>488</ele>
        <time>2009-05-05T17:28:02Z</time>
      </trkpt>
      <trkpt lat="43.85358" lon="6.91214">
        <ele>481</ele>
        <time>2009-05-05T17:28:05Z</time>
      </trkpt>
      <trkpt lat="43.85347" lon="6.91222">
        <ele>476</ele>
        <time>2009-05-05T17:28:08Z</time>
      </trkpt>
      <trkpt lat="43.85344" lon="6.91231">
        <ele>471</ele>
        <time>2009-05-05T17:28:11Z</time>
      </trkpt>
      <trkpt lat="43.85331" lon="6.91234">
        <ele>464</ele>
        <time>2009-05-05T17:28:17Z</time>
      </trkpt>
      <trkpt lat="43.85328" lon="6.91246">
        <ele>464</ele>
        <time>2009-05-05T17:28:20Z</time>
      </trkpt>
      <trkpt lat="43.85322" lon="6.91257">
        <ele>465</ele>
        <time>2009-05-05T17:28:24Z</time>
      </trkpt>
      <trkpt lat="43.8533" lon="6.91269">
        <ele>459</ele>
        <time>2009-05-05T17:28:29Z</time>
      </trkpt>
      <trkpt lat="43.85335" lon="6.91274">
        <ele>455</ele>
        <time>2009-05-05T17:28:32Z</time>
      </trkpt>
      <trkpt lat="43.85338" lon="6.91284">
        <ele>452</ele>
        <time>2009-05-05T17:28:35Z</time>
      </trkpt>
      <trkpt lat="43.85339" lon="6.91292">
        <ele>447</ele>
        <time>2009-05-05T17:28:38Z</time>
      </trkpt>
      <trkpt lat="43.85341" lon="6.91303">
        <ele>445</ele>
        <time>2009-05-05T17:28:41Z</time>
      </trkpt>
      <trkpt lat="43.85342" lon="6.91317">
        <ele>444</ele>
        <time>2009-05-05T17:28:44Z</time>
      </trkpt>
      <trkpt lat="43.85342" lon="6.91324">
        <ele>444</ele>
        <time>2009-05-05T17:28:47Z</time>
      </trkpt>
      <trkpt lat="43.85337" lon="6.9132">
        <ele>449</ele>
        <time>2009-05-05T17:33:34Z</time>
      </trkpt>
      <trkpt lat="43.85338" lon="6.91312">
        <ele>462</ele>
        <time>2009-05-05T17:34:07Z</time>
      </trkpt>
      <trkpt lat="43.85347" lon="6.91336">
        <ele>451</ele>
        <time>2009-05-05T17:35:21Z</time>
      </trkpt>
      <trkpt lat="43.85355" lon="6.91345">
        <ele>451</ele>
        <time>2009-05-05T17:35:24Z</time>
      </trkpt>
      <trkpt lat="43.85364" lon="6.91349">
        <ele>451</ele>
        <time>2009-05-05T17:35:27Z</time>
      </trkpt>
      <trkpt lat="43.85369" lon="6.91356">
        <ele>452</ele>
        <time>2009-05-05T17:35:30Z</time>
      </trkpt>
      <trkpt lat="43.85368" lon="6.91364">
        <ele>453</ele>
        <time>2009-05-05T17:35:33Z</time>
      </trkpt>
      <trkpt lat="43.85368" lon="6.91373">
        <ele>455</ele>
        <time>2009-05-05T17:35:36Z</time>
      </trkpt>
      <trkpt lat="43.85368" lon="6.91381">
        <ele>455</ele>
        <time>2009-05-05T17:35:39Z</time>
      </trkpt>
      <trkpt lat="43.85369" lon="6.9139">
        <ele>455</ele>
        <time>2009-05-05T17:35:42Z</time>
      </trkpt>
      <trkpt lat="43.85368" lon="6.91399">
        <ele>456</ele>
        <time>2009-05-05T17:35:45Z</time>
      </trkpt>
      <trkpt lat="43.85362" lon="6.91409">
        <ele>457</ele>
        <time>2009-05-05T17:35:48Z</time>
      </trkpt>
      <trkpt lat="43.85358" lon="6.91421">
        <ele>460</ele>
        <time>2009-05-05T17:35:51Z</time>
      </trkpt>
      <trkpt lat="43.85354" lon="6.91432">
        <ele>460</ele>
        <time>2009-05-05T17:35:54Z</time>
      </trkpt>
      <trkpt lat="43.85352" lon="6.91444">
        <ele>461</ele>
        <time>2009-05-05T17:35:57Z</time>
      </trkpt>
      <trkpt lat="43.85352" lon="6.91457">
        <ele>461</ele>
        <time>2009-05-05T17:36:00Z</time>
      </trkpt>
      <trkpt lat="43.85353" lon="6.91469">
        <ele>463</ele>
        <time>2009-05-05T17:36:03Z</time>
      </trkpt>
      <trkpt lat="43.85355" lon="6.91482">
        <ele>465</ele>
        <time>2009-05-05T17:36:06Z</time>
      </trkpt>
      <trkpt lat="43.85355" lon="6.91496">
        <ele>467</ele>
        <time>2009-05-05T17:36:09Z</time>
      </trkpt>
      <trkpt lat="43.85357" lon="6.91509">
        <ele>471</ele>
        <time>2009-05-05T17:36:12Z</time>
      </trkpt>
      <trkpt lat="43.85359" lon="6.91522">
        <ele>474</ele>
        <time>2009-05-05T17:36:15Z</time>
      </trkpt>
      <trkpt lat="43.85359" lon="6.91534">
        <ele>474</ele>
        <time>2009-05-05T17:36:18Z</time>
      </trkpt>
      <trkpt lat="43.8536" lon="6.91546">
        <ele>474</ele>
        <time>2009-05-05T17:36:21Z</time>
      </trkpt>
      <trkpt lat="43.85362" lon="6.91557">
        <ele>476</ele>
        <time>2009-05-05T17:36:24Z</time>
      </trkpt>
      <trkpt lat="43.8537" lon="6.91551">
        <ele>477</ele>
        <time>2009-05-05T17:36:30Z</time>
      </trkpt>
      <trkpt lat="43.8537" lon="6.91541">
        <ele>477</ele>
        <time>2009-05-05T17:36:33Z</time>
      </trkpt>
      <trkpt lat="43.85373" lon="6.91532">
        <ele>477</ele>
        <time>2009-05-05T17:36:36Z</time>
      </trkpt>
      <trkpt lat="43.85377" lon="6.91523">
        <ele>481</ele>
        <time>2009-05-05T17:36:39Z</time>
      </trkpt>
      <trkpt lat="43.85381" lon="6.91517">
        <ele>484</ele>
        <time>2009-05-05T17:36:42Z</time>
      </trkpt>
      <trkpt lat="43.85387" lon="6.91513">
        <ele>485</ele>
        <time>2009-05-05T17:36:45Z</time>
      </trkpt>
      <trkpt lat="43.85392" lon="6.91508">
        <ele>487</ele>
        <time>2009-05-05T17:36:48Z</time>
      </trkpt>
      <trkpt lat="43.85397" lon="6.91501">
        <ele>489</ele>
        <time>2009-05-05T17:36:51Z</time>
      </trkpt>
      <trkpt lat="43.85403" lon="6.91493">
        <ele>488</ele>
        <time>2009-05-05T17:36:54Z</time>
      </trkpt>
      <trkpt lat="43.85408" lon="6.91484">
        <ele>488</ele>
        <time>2009-05-05T17:36:57Z</time>
      </trkpt>
      <trkpt lat="43.85413" lon="6.91476">
        <ele>489</ele>
        <time>2009-05-05T17:37:00Z</time>
      </trkpt>
      <trkpt lat="43.85419" lon="6.91468">
        <ele>489</ele>
        <time>2009-05-05T17:37:03Z</time>
      </trkpt>
      <trkpt lat="43.85424" lon="6.9146">
        <ele>490</ele>
        <time>2009-05-05T17:37:06Z</time>
      </trkpt>
      <trkpt lat="43.85435" lon="6.91455">
        <ele>491</ele>
        <time>2009-05-05T17:37:12Z</time>
      </trkpt>
      <trkpt lat="43.85443" lon="6.91454">
        <ele>493</ele>
        <time>2009-05-05T17:37:15Z</time>
      </trkpt>
      <trkpt lat="43.8545" lon="6.91452">
        <ele>495</ele>
        <time>2009-05-05T17:37:18Z</time>
      </trkpt>
      <trkpt lat="43.85457" lon="6.91449">
        <ele>496</ele>
        <time>2009-05-05T17:37:21Z</time>
      </trkpt>
      <trkpt lat="43.85465" lon="6.91449">
        <ele>496</ele>
        <time>2009-05-05T17:37:24Z</time>
      </trkpt>
      <trkpt lat="43.85473" lon="6.91451">
        <ele>498</ele>
        <time>2009-05-05T17:37:27Z</time>
      </trkpt>
      <trkpt lat="43.85482" lon="6.91456">
        <ele>500</ele>
        <time>2009-05-05T17:37:30Z</time>
      </trkpt>
      <trkpt lat="43.85491" lon="6.9146">
        <ele>500</ele>
        <time>2009-05-05T17:37:33Z</time>
      </trkpt>
      <trkpt lat="43.85494" lon="6.9147">
        <ele>502</ele>
        <time>2009-05-05T17:37:39Z</time>
      </trkpt>
      <trkpt lat="43.85481" lon="6.91467">
        <ele>504</ele>
        <time>2009-05-05T17:37:45Z</time>
      </trkpt>
      <trkpt lat="43.85472" lon="6.91467">
        <ele>506</ele>
        <time>2009-05-05T17:37:48Z</time>
      </trkpt>
      <trkpt lat="43.85462" lon="6.91472">
        <ele>507</ele>
        <time>2009-05-05T17:37:51Z</time>
      </trkpt>
      <trkpt lat="43.85457" lon="6.91476">
        <ele>508</ele>
        <time>2009-05-05T17:37:54Z</time>
      </trkpt>
      <trkpt lat="43.85453" lon="6.91483">
        <ele>509</ele>
        <time>2009-05-05T17:37:57Z</time>
      </trkpt>
      <trkpt lat="43.85447" lon="6.91494">
        <ele>510</ele>
        <time>2009-05-05T17:38:00Z</time>
      </trkpt>
      <trkpt lat="43.85442" lon="6.91507">
        <ele>511</ele>
        <time>2009-05-05T17:38:03Z</time>
      </trkpt>
      <trkpt lat="43.85438" lon="6.91519">
        <ele>514</ele>
        <time>2009-05-05T17:38:06Z</time>
      </trkpt>
      <trkpt lat="43.85435" lon="6.91532">
        <ele>516</ele>
        <time>2009-05-05T17:38:09Z</time>
      </trkpt>
      <trkpt lat="43.85436" lon="6.91548">
        <ele>515</ele>
        <time>2009-05-05T17:38:12Z</time>
      </trkpt>
      <trkpt lat="43.8544" lon="6.91563">
        <ele>515</ele>
        <time>2009-05-05T17:38:15Z</time>
      </trkpt>
      <trkpt lat="43.85444" lon="6.91577">
        <ele>515</ele>
        <time>2009-05-05T17:38:18Z</time>
      </trkpt>
      <trkpt lat="43.85445" lon="6.91589">
        <ele>515</ele>
        <time>2009-05-05T17:38:21Z</time>
      </trkpt>
      <trkpt lat="43.85447" lon="6.91598">
        <ele>515</ele>
        <time>2009-05-05T17:38:27Z</time>
      </trkpt>
      <trkpt lat="43.85455" lon="6.91596">
        <ele>515</ele>
        <time>2009-05-05T17:38:29Z</time>
      </trkpt>
      <trkpt lat="43.85456" lon="6.91585">
        <ele>515</ele>
        <time>2009-05-05T17:38:32Z</time>
      </trkpt>
      <trkpt lat="43.85456" lon="6.91573">
        <ele>515</ele>
        <time>2009-05-05T17:38:35Z</time>
      </trkpt>
      <trkpt lat="43.85457" lon="6.91561">
        <ele>515</ele>
        <time>2009-05-05T17:38:38Z</time>
      </trkpt>
      <trkpt lat="43.85458" lon="6.9155">
        <ele>515</ele>
        <time>2009-05-05T17:38:41Z</time>
      </trkpt>
      <trkpt lat="43.85462" lon="6.91538">
        <ele>515</ele>
        <time>2009-05-05T17:38:44Z</time>
      </trkpt>
      <trkpt lat="43.85471" lon="6.91529">
        <ele>529</ele>
        <time>2009-05-05T17:38:47Z</time>
      </trkpt>
      <trkpt lat="43.85482" lon="6.91529">
        <ele>530</ele>
        <time>2009-05-05T17:38:50Z</time>
      </trkpt>
      <trkpt lat="43.85495" lon="6.9153">
        <ele>531</ele>
        <time>2009-05-05T17:38:53Z</time>
      </trkpt>
      <trkpt lat="43.85506" lon="6.91533">
        <ele>532</ele>
        <time>2009-05-05T17:38:56Z</time>
      </trkpt>
      <trkpt lat="43.85518" lon="6.91533">
        <ele>534</ele>
        <time>2009-05-05T17:38:59Z</time>
      </trkpt>
      <trkpt lat="43.85531" lon="6.91532">
        <ele>536</ele>
        <time>2009-05-05T17:39:02Z</time>
      </trkpt>
      <trkpt lat="43.85542" lon="6.91529">
        <ele>539</ele>
        <time>2009-05-05T17:39:05Z</time>
      </trkpt>
      <trkpt lat="43.85549" lon="6.91527">
        <ele>539</ele>
        <time>2009-05-05T17:39:08Z</time>
      </trkpt>
      <trkpt lat="43.85564" lon="6.91523">
        <ele>541</ele>
        <time>2009-05-05T17:39:14Z</time>
      </trkpt>
      <trkpt lat="43.85573" lon="6.91522">
        <ele>542</ele>
        <time>2009-05-05T17:39:17Z</time>
      </trkpt>
      <trkpt lat="43.85583" lon="6.9152">
        <ele>543</ele>
        <time>2009-05-05T17:39:20Z</time>
      </trkpt>
      <trkpt lat="43.85576" lon="6.91527">
        <ele>549</ele>
        <time>2009-05-05T17:39:29Z</time>
      </trkpt>
      <trkpt lat="43.85568" lon="6.91532">
        <ele>550</ele>
        <time>2009-05-05T17:39:32Z</time>
      </trkpt>
      <trkpt lat="43.85562" lon="6.91537">
        <ele>551</ele>
        <time>2009-05-05T17:39:35Z</time>
      </trkpt>
    </trkseg>
  </trk>
</gpx>